<?xml version='1.0' encoding='UTF-8'?><gpx version="1.1" creator="JPX - https://github.com/jenetics/jpx" xmlns="http://www.topografix.com/GPX/1/1"><trk><trkseg><trkpt lat="45.05199126903438" lon="9.597367895776031"><ele>59.0</ele><time>2026-04-20T14:04:58.999Z</time></trkpt><trkpt lat="45.05198711999231" lon="9.597265468919275"><ele>59.0</ele><time>2026-04-20T14:05:01.999Z</time></trkpt><trkpt lat="45.051993608172175" lon="9.597173086263169"><ele>59.0</ele><time>2026-04-20T14:05:04.999Z</time></trkpt><trkpt lat="45.05203597299995" lon="9.597091626007149"><ele>59.0</ele><time>2026-04-20T14:05:08Z</time></trkpt><trkpt lat="45.05210537369825" lon="9.597081217135042"><ele>59.0</ele><time>2026-04-20T14:05:10Z</time></trkpt><trkpt lat="45.052178144505675" lon="9.597102503468843"><ele>59.0</ele><time>2026-04-20T14:05:14Z</time></trkpt><trkpt lat="45.05225864313523" lon="9.597108755124982"><ele>59.0</ele><time>2026-04-20T14:05:16Z</time></trkpt><trkpt lat="45.05234489864916" lon="9.597061467060415"><ele>59.2</ele><time>2026-04-20T14:05:19Z</time></trkpt><trkpt lat="45.05236279449087" lon="9.596941139577135"><ele>59.400000000000006</ele><time>2026-04-20T14:05:21Z</time></trkpt><trkpt lat="45.052333247278234" lon="9.59681765619565"><ele>59.6</ele><time>2026-04-20T14:05:23Z</time></trkpt><trkpt lat="45.05229779850036" lon="9.596672167141588"><ele>59.8</ele><time>2026-04-20T14:05:25Z</time></trkpt><trkpt lat="45.05228128359853" lon="9.596564735011473"><ele>60.0</ele><time>2026-04-20T14:05:27Z</time></trkpt><trkpt lat="45.052260932228215" lon="9.596441154029778"><ele>60.0</ele><time>2026-04-20T14:05:29Z</time></trkpt><trkpt lat="45.05223282887875" lon="9.596324761009134"><ele>60.0</ele><time>2026-04-20T14:05:31Z</time></trkpt><trkpt lat="45.052214589672644" lon="9.596225406419826"><ele>60.0</ele><time>2026-04-20T14:05:33Z</time></trkpt><trkpt lat="45.05217876516699" lon="9.596102147424615"><ele>60.0</ele><time>2026-04-20T14:05:35Z</time></trkpt><trkpt lat="45.052162269970616" lon="9.59598183301687"><ele>60.0</ele><time>2026-04-20T14:05:37Z</time></trkpt><trkpt lat="45.05214557181224" lon="9.595862044882615"><ele>60.0</ele><time>2026-04-20T14:05:39Z</time></trkpt><trkpt lat="45.052137654356535" lon="9.595733334762027"><ele>60.0</ele><time>2026-04-20T14:05:41Z</time></trkpt><trkpt lat="45.05213799590077" lon="9.595594087493918"><ele>60.0</ele><time>2026-04-20T14:05:43Z</time></trkpt><trkpt lat="45.052148720777375" lon="9.595462846136034"><ele>60.0</ele><time>2026-04-20T14:05:45Z</time></trkpt><trkpt lat="45.052150442227635" lon="9.595327557750815"><ele>60.0</ele><time>2026-04-20T14:05:47Z</time></trkpt><trkpt lat="45.052151704574285" lon="9.595188959181156"><ele>60.0</ele><time>2026-04-20T14:05:49Z</time></trkpt><trkpt lat="45.05215117119042" lon="9.595050044763946"><ele>60.0</ele><time>2026-04-20T14:05:51Z</time></trkpt><trkpt lat="45.052149618093054" lon="9.594911332632932"><ele>60.0</ele><time>2026-04-20T14:05:53Z</time></trkpt><trkpt lat="45.05214426998692" lon="9.59476857928021"><ele>60.0</ele><time>2026-04-20T14:05:55Z</time></trkpt><trkpt lat="45.052144862650486" lon="9.594637456739052"><ele>60.0</ele><time>2026-04-20T14:05:57Z</time></trkpt><trkpt lat="45.05214601230323" lon="9.59449719892808"><ele>60.0</ele><time>2026-04-20T14:05:59Z</time></trkpt><trkpt lat="45.052146918373175" lon="9.59435966784589"><ele>59.8</ele><time>2026-04-20T14:06:01Z</time></trkpt><trkpt lat="45.05215195494219" lon="9.594219755739005"><ele>59.6</ele><time>2026-04-20T14:06:03Z</time></trkpt><trkpt lat="45.05215779988871" lon="9.594076983752537"><ele>59.400000000000006</ele><time>2026-04-20T14:06:05Z</time></trkpt><trkpt lat="45.052155909063124" lon="9.593943165255338"><ele>59.2</ele><time>2026-04-20T14:06:07Z</time></trkpt><trkpt lat="45.0521636232862" lon="9.593802886118745"><ele>59.0</ele><time>2026-04-20T14:06:09Z</time></trkpt><trkpt lat="45.05216383905632" lon="9.593658086689226"><ele>59.0</ele><time>2026-04-20T14:06:11Z</time></trkpt><trkpt lat="45.052165090246106" lon="9.593520583567761"><ele>59.00000000000001</ele><time>2026-04-20T14:06:13Z</time></trkpt><trkpt lat="45.05216597833681" lon="9.593376354449118"><ele>59.00000000000001</ele><time>2026-04-20T14:06:15Z</time></trkpt><trkpt lat="45.05216867671117" lon="9.59328515834696"><ele>59.0</ele><time>2026-04-20T14:06:17Z</time></trkpt><trkpt lat="45.05218160476777" lon="9.59313223910517"><ele>59.0</ele><time>2026-04-20T14:06:19Z</time></trkpt><trkpt lat="45.05217879793449" lon="9.592990711875482"><ele>59.0</ele><time>2026-04-20T14:06:21Z</time></trkpt><trkpt lat="45.05217747299162" lon="9.592843757355704"><ele>59.00000000000001</ele><time>2026-04-20T14:06:23Z</time></trkpt><trkpt lat="45.05217058997897" lon="9.592702890347894"><ele>59.00000000000001</ele><time>2026-04-20T14:06:25Z</time></trkpt><trkpt lat="45.05216959621175" lon="9.592563705947978"><ele>59.0</ele><time>2026-04-20T14:06:27Z</time></trkpt><trkpt lat="45.05215815434328" lon="9.592415968603255"><ele>59.0</ele><time>2026-04-20T14:06:29Z</time></trkpt><trkpt lat="45.05213127647464" lon="9.592277913704262"><ele>59.2</ele><time>2026-04-20T14:06:31Z</time></trkpt><trkpt lat="45.05211103592881" lon="9.592125551665328"><ele>59.400000000000006</ele><time>2026-04-20T14:06:33Z</time></trkpt><trkpt lat="45.052129237313515" lon="9.591973867892797"><ele>59.6</ele><time>2026-04-20T14:06:35Z</time></trkpt><trkpt lat="45.052102868768614" lon="9.591843600086138"><ele>59.8</ele><time>2026-04-20T14:06:37Z</time></trkpt><trkpt lat="45.05207577524973" lon="9.591670898377004"><ele>60.0</ele><time>2026-04-20T14:06:39Z</time></trkpt><trkpt lat="45.052052449311944" lon="9.59152931090622"><ele>60.4</ele><time>2026-04-20T14:06:41Z</time></trkpt><trkpt lat="45.052061172226004" lon="9.591415428983641"><ele>60.8</ele><time>2026-04-20T14:06:43Z</time></trkpt><trkpt lat="45.05205213520237" lon="9.591267119177177"><ele>61.2</ele><time>2026-04-20T14:06:45Z</time></trkpt><trkpt lat="45.05203142469508" lon="9.59112156295718"><ele>61.6</ele><time>2026-04-20T14:06:47Z</time></trkpt><trkpt lat="45.05201372193516" lon="9.590979112096262"><ele>62.0</ele><time>2026-04-20T14:06:48.999Z</time></trkpt><trkpt lat="45.05200374737537" lon="9.590835425732847"><ele>62.0</ele><time>2026-04-20T14:06:50.999Z</time></trkpt><trkpt lat="45.05199488651004" lon="9.59070438415028"><ele>62.0</ele><time>2026-04-20T14:06:52.999Z</time></trkpt><trkpt lat="45.051984518330634" lon="9.590564440737271"><ele>62.0</ele><time>2026-04-20T14:06:54.999Z</time></trkpt><trkpt lat="45.05196538895049" lon="9.590417379966079"><ele>62.0</ele><time>2026-04-20T14:06:56.999Z</time></trkpt><trkpt lat="45.05195615306948" lon="9.590285360651885"><ele>62.0</ele><time>2026-04-20T14:06:58.999Z</time></trkpt><trkpt lat="45.051939675189445" lon="9.590148989586778"><ele>61.8</ele><time>2026-04-20T14:07:00.999Z</time></trkpt><trkpt lat="45.05191422464748" lon="9.589990159909357"><ele>61.6</ele><time>2026-04-20T14:07:02.999Z</time></trkpt><trkpt lat="45.05191738545435" lon="9.589872016837255"><ele>61.39999999999999</ele><time>2026-04-20T14:07:05Z</time></trkpt><trkpt lat="45.051909544495814" lon="9.589740674755392"><ele>61.199999999999996</ele><time>2026-04-20T14:07:07Z</time></trkpt><trkpt lat="45.05188568656006" lon="9.589589585831408"><ele>61.0</ele><time>2026-04-20T14:07:09Z</time></trkpt><trkpt lat="45.05186848785667" lon="9.589448135190626"><ele>61.0</ele><time>2026-04-20T14:07:11Z</time></trkpt><trkpt lat="45.05185007456655" lon="9.58932311874514"><ele>60.99999999999999</ele><time>2026-04-20T14:07:13Z</time></trkpt><trkpt lat="45.05181838440245" lon="9.589191357158048"><ele>60.99999999999999</ele><time>2026-04-20T14:07:15Z</time></trkpt><trkpt lat="45.05177366472083" lon="9.589054325963904"><ele>61.0</ele><time>2026-04-20T14:07:17Z</time></trkpt><trkpt lat="45.05172382797627" lon="9.588919996326046"><ele>61.0</ele><time>2026-04-20T14:07:19Z</time></trkpt><trkpt lat="45.05168033806274" lon="9.588785275695015"><ele>61.5</ele><time>2026-04-20T14:07:21Z</time></trkpt><trkpt lat="45.05161966798893" lon="9.588671091696783"><ele>62.0</ele><time>2026-04-20T14:07:23Z</time></trkpt><trkpt lat="45.05154967284009" lon="9.588538900828135"><ele>62.5</ele><time>2026-04-20T14:07:25Z</time></trkpt><trkpt lat="45.05148910522752" lon="9.588455936942243"><ele>63.0</ele><time>2026-04-20T14:07:28Z</time></trkpt><trkpt lat="45.051366959714635" lon="9.5883044169778"><ele>63.0</ele><time>2026-04-20T14:07:30Z</time></trkpt><trkpt lat="45.05130029928287" lon="9.588199399307896"><ele>63.0</ele><time>2026-04-20T14:07:32Z</time></trkpt><trkpt lat="45.05122283069487" lon="9.588087729599245"><ele>63.0</ele><time>2026-04-20T14:07:34Z</time></trkpt><trkpt lat="45.05114826410344" lon="9.587990479250356"><ele>63.0</ele><time>2026-04-20T14:07:36Z</time></trkpt><trkpt lat="45.05107552919511" lon="9.587892827402285"><ele>63.0</ele><time>2026-04-20T14:07:38Z</time></trkpt><trkpt lat="45.051004300646674" lon="9.587790509852335"><ele>62.8</ele><time>2026-04-20T14:07:40Z</time></trkpt><trkpt lat="45.05092953282153" lon="9.587691975593078"><ele>62.599999999999994</ele><time>2026-04-20T14:07:42Z</time></trkpt><trkpt lat="45.05085444596145" lon="9.587596809899088"><ele>62.400000000000006</ele><time>2026-04-20T14:07:44Z</time></trkpt><trkpt lat="45.0507861779214" lon="9.587503412661508"><ele>62.2</ele><time>2026-04-20T14:07:46Z</time></trkpt><trkpt lat="45.05071186402128" lon="9.587399560167135"><ele>62.0</ele><time>2026-04-20T14:07:48Z</time></trkpt><trkpt lat="45.05066696092255" lon="9.58733119137378"><ele>62.0</ele><time>2026-04-20T14:07:49Z</time></trkpt><trkpt lat="45.05059319321168" lon="9.58723989399456"><ele>62.0</ele><time>2026-04-20T14:07:51Z</time></trkpt><trkpt lat="45.05052597025045" lon="9.587152367819357"><ele>62.0</ele><time>2026-04-20T14:07:53Z</time></trkpt><trkpt lat="45.05045516971934" lon="9.587054987111289"><ele>62.0</ele><time>2026-04-20T14:07:55Z</time></trkpt><trkpt lat="45.050382898468" lon="9.586954587736377"><ele>62.0</ele><time>2026-04-20T14:07:57Z</time></trkpt><trkpt lat="45.05029338623213" lon="9.586844745859196"><ele>61.8</ele><time>2026-04-20T14:07:59Z</time></trkpt><trkpt lat="45.05021434057027" lon="9.586742127673455"><ele>61.6</ele><time>2026-04-20T14:08:01Z</time></trkpt><trkpt lat="45.05013575637671" lon="9.586635571865113"><ele>61.39999999999999</ele><time>2026-04-20T14:08:03Z</time></trkpt><trkpt lat="45.05006290138849" lon="9.586519162264898"><ele>61.199999999999996</ele><time>2026-04-20T14:08:05Z</time></trkpt><trkpt lat="45.049980326387995" lon="9.586429936000972"><ele>61.0</ele><time>2026-04-20T14:08:07Z</time></trkpt><trkpt lat="45.04990130133934" lon="9.586320198523628"><ele>61.0</ele><time>2026-04-20T14:08:09Z</time></trkpt><trkpt lat="45.049812252847616" lon="9.586207968168553"><ele>60.99999999999999</ele><time>2026-04-20T14:08:11Z</time></trkpt><trkpt lat="45.04972732975403" lon="9.586105948032296"><ele>60.99999999999999</ele><time>2026-04-20T14:08:13Z</time></trkpt><trkpt lat="45.049675152984285" lon="9.586026911076722"><ele>61.0</ele><time>2026-04-20T14:08:14Z</time></trkpt><trkpt lat="45.04959676935489" lon="9.585893517650568"><ele>61.0</ele><time>2026-04-20T14:08:16Z</time></trkpt><trkpt lat="45.04953659274519" lon="9.585753657301101"><ele>61.25</ele><time>2026-04-20T14:08:18Z</time></trkpt><trkpt lat="45.04948145861807" lon="9.585607202609935"><ele>61.5</ele><time>2026-04-20T14:08:20Z</time></trkpt><trkpt lat="45.04941564369754" lon="9.585464108758277"><ele>61.75</ele><time>2026-04-20T14:08:22Z</time></trkpt><trkpt lat="45.04935433703494" lon="9.585324709750626"><ele>62.0</ele><time>2026-04-20T14:08:24Z</time></trkpt><trkpt lat="45.049294608636224" lon="9.585181896332926"><ele>62.25</ele><time>2026-04-20T14:08:26Z</time></trkpt><trkpt lat="45.04923586030624" lon="9.5850413607776"><ele>62.5</ele><time>2026-04-20T14:08:28Z</time></trkpt><trkpt lat="45.04917329941031" lon="9.584902264570752"><ele>62.75</ele><time>2026-04-20T14:08:30Z</time></trkpt><trkpt lat="45.04911760003209" lon="9.584760538298923"><ele>63.0</ele><time>2026-04-20T14:08:32Z</time></trkpt><trkpt lat="45.0490620603237" lon="9.584623335655031"><ele>62.75</ele><time>2026-04-20T14:08:34Z</time></trkpt><trkpt lat="45.04900287038025" lon="9.584487164134615"><ele>62.5</ele><time>2026-04-20T14:08:36Z</time></trkpt><trkpt lat="45.04894506136864" lon="9.584347221658025"><ele>62.25</ele><time>2026-04-20T14:08:38Z</time></trkpt><trkpt lat="45.048891168196235" lon="9.58420964594236"><ele>62.0</ele><time>2026-04-20T14:08:40Z</time></trkpt><trkpt lat="45.04883635994308" lon="9.584069417212948"><ele>62.0</ele><time>2026-04-20T14:08:42Z</time></trkpt><trkpt lat="45.04877101111516" lon="9.583936858616216"><ele>62.0</ele><time>2026-04-20T14:08:44Z</time></trkpt><trkpt lat="45.04870599833947" lon="9.583794151043765"><ele>62.0</ele><time>2026-04-20T14:08:46Z</time></trkpt><trkpt lat="45.048638816650495" lon="9.58365087985662"><ele>62.0</ele><time>2026-04-20T14:08:48Z</time></trkpt><trkpt lat="45.04859665623636" lon="9.58350011671392"><ele>62.0</ele><time>2026-04-20T14:08:50Z</time></trkpt><trkpt lat="45.04853837751614" lon="9.58335909714372"><ele>62.0</ele><time>2026-04-20T14:08:52Z</time></trkpt><trkpt lat="45.04848310984069" lon="9.583226651532271"><ele>62.0</ele><time>2026-04-20T14:08:54Z</time></trkpt><trkpt lat="45.04842075920301" lon="9.583084361267543"><ele>62.0</ele><time>2026-04-20T14:08:56Z</time></trkpt><trkpt lat="45.04835967758877" lon="9.582956968597799"><ele>62.0</ele><time>2026-04-20T14:08:58Z</time></trkpt><trkpt lat="45.04831092138528" lon="9.582831555394645"><ele>62.0</ele><time>2026-04-20T14:09:00Z</time></trkpt><trkpt lat="45.04827261686481" lon="9.582758878573543"><ele>62.0</ele><time>2026-04-20T14:09:01Z</time></trkpt><trkpt lat="45.04823277281075" lon="9.582688274779235"><ele>62.0</ele><time>2026-04-20T14:09:02Z</time></trkpt><trkpt lat="45.04817839381785" lon="9.582527606521142"><ele>62.0</ele><time>2026-04-20T14:09:04Z</time></trkpt><trkpt lat="45.04812529857001" lon="9.582386711651598"><ele>62.25</ele><time>2026-04-20T14:09:06Z</time></trkpt><trkpt lat="45.04806185017193" lon="9.58225351078405"><ele>62.5</ele><time>2026-04-20T14:09:08Z</time></trkpt><trkpt lat="45.04800242517601" lon="9.582112163841021"><ele>62.75</ele><time>2026-04-20T14:09:10Z</time></trkpt><trkpt lat="45.047939637458306" lon="9.581977096415224"><ele>63.0</ele><time>2026-04-20T14:09:12Z</time></trkpt><trkpt lat="45.047885290173575" lon="9.581838460302507"><ele>63.0</ele><time>2026-04-20T14:09:14Z</time></trkpt><trkpt lat="45.0478313567762" lon="9.581700334082528"><ele>63.0</ele><time>2026-04-20T14:09:16Z</time></trkpt><trkpt lat="45.047766285026064" lon="9.581559119542057"><ele>63.0</ele><time>2026-04-20T14:09:18Z</time></trkpt><trkpt lat="45.04770137634843" lon="9.581412111308442"><ele>63.0</ele><time>2026-04-20T14:09:20Z</time></trkpt><trkpt lat="45.0476470986609" lon="9.58126214884174"><ele>63.0</ele><time>2026-04-20T14:09:22Z</time></trkpt><trkpt lat="45.04759054319076" lon="9.58111947975908"><ele>63.0</ele><time>2026-04-20T14:09:24Z</time></trkpt><trkpt lat="45.047530998279214" lon="9.580980062444992"><ele>63.0</ele><time>2026-04-20T14:09:26Z</time></trkpt><trkpt lat="45.04747505126083" lon="9.580824005673533"><ele>63.0</ele><time>2026-04-20T14:09:28Z</time></trkpt><trkpt lat="45.04741724939376" lon="9.580693673014311"><ele>63.0</ele><time>2026-04-20T14:09:30Z</time></trkpt><trkpt lat="45.04738343878945" lon="9.58061680872462"><ele>63.0</ele><time>2026-04-20T14:09:31Z</time></trkpt><trkpt lat="45.04732053267497" lon="9.580471070870024"><ele>63.0</ele><time>2026-04-20T14:09:33Z</time></trkpt><trkpt lat="45.047263528702906" lon="9.580318528233677"><ele>63.0</ele><time>2026-04-20T14:09:35Z</time></trkpt><trkpt lat="45.047232046255814" lon="9.580241105748415"><ele>63.0</ele><time>2026-04-20T14:09:36Z</time></trkpt><trkpt lat="45.047174837240355" lon="9.580094270415689"><ele>62.75</ele><time>2026-04-20T14:09:38Z</time></trkpt><trkpt lat="45.047117135120516" lon="9.579947674240259"><ele>62.5</ele><time>2026-04-20T14:09:40Z</time></trkpt><trkpt lat="45.04705542158924" lon="9.579805462154795"><ele>62.25</ele><time>2026-04-20T14:09:42Z</time></trkpt><trkpt lat="45.04699228365028" lon="9.57966029654831"><ele>62.0</ele><time>2026-04-20T14:09:44Z</time></trkpt><trkpt lat="45.046928841004885" lon="9.579515846137062"><ele>61.8</ele><time>2026-04-20T14:09:46Z</time></trkpt><trkpt lat="45.04689941624418" lon="9.57943269287855"><ele>61.6</ele><time>2026-04-20T14:09:47Z</time></trkpt><trkpt lat="45.04683854173118" lon="9.579299253114492"><ele>61.39999999999999</ele><time>2026-04-20T14:09:49Z</time></trkpt><trkpt lat="45.046806686784244" lon="9.579222367905997"><ele>61.199999999999996</ele><time>2026-04-20T14:09:50Z</time></trkpt><trkpt lat="45.04675763851417" lon="9.579071778025856"><ele>61.0</ele><time>2026-04-20T14:09:52Z</time></trkpt><trkpt lat="45.04670801393567" lon="9.57892784419665"><ele>61.0</ele><time>2026-04-20T14:09:54Z</time></trkpt><trkpt lat="45.046674925878484" lon="9.578846138181605"><ele>60.99999999999999</ele><time>2026-04-20T14:09:55Z</time></trkpt><trkpt lat="45.04662907275709" lon="9.57869373139934"><ele>60.99999999999999</ele><time>2026-04-20T14:09:57Z</time></trkpt><trkpt lat="45.04658414991768" lon="9.578538405206066"><ele>61.0</ele><time>2026-04-20T14:09:59Z</time></trkpt><trkpt lat="45.04653758721938" lon="9.578390092535447"><ele>61.0</ele><time>2026-04-20T14:10:01Z</time></trkpt><trkpt lat="45.04648222547157" lon="9.57823172385029"><ele>61.0</ele><time>2026-04-20T14:10:03Z</time></trkpt><trkpt lat="45.046431604684834" lon="9.578082652824198"><ele>61.0</ele><time>2026-04-20T14:10:05Z</time></trkpt><trkpt lat="45.04638967789751" lon="9.577929643810549"><ele>61.0</ele><time>2026-04-20T14:10:07Z</time></trkpt><trkpt lat="45.046336604894826" lon="9.577787737880398"><ele>61.0</ele><time>2026-04-20T14:10:09Z</time></trkpt><trkpt lat="45.046295760806046" lon="9.577645629231704"><ele>61.0</ele><time>2026-04-20T14:10:11Z</time></trkpt><trkpt lat="45.04624080875154" lon="9.577495547092218"><ele>61.0</ele><time>2026-04-20T14:10:13Z</time></trkpt><trkpt lat="45.046182648706946" lon="9.577346271185123"><ele>61.0</ele><time>2026-04-20T14:10:15Z</time></trkpt><trkpt lat="45.046123231394574" lon="9.577199868461372"><ele>61.0</ele><time>2026-04-20T14:10:17Z</time></trkpt><trkpt lat="45.04606993557591" lon="9.577051569711761"><ele>61.25</ele><time>2026-04-20T14:10:19Z</time></trkpt><trkpt lat="45.04602940855573" lon="9.576897671171766"><ele>61.5</ele><time>2026-04-20T14:10:21Z</time></trkpt><trkpt lat="45.045988259153305" lon="9.576739629184601"><ele>61.75</ele><time>2026-04-20T14:10:23Z</time></trkpt><trkpt lat="45.0459359581245" lon="9.576588660234975"><ele>62.0</ele><time>2026-04-20T14:10:25Z</time></trkpt><trkpt lat="45.0458857269777" lon="9.576442074950718"><ele>62.0</ele><time>2026-04-20T14:10:27Z</time></trkpt><trkpt lat="45.04584427872072" lon="9.57629591301727"><ele>62.0</ele><time>2026-04-20T14:10:29Z</time></trkpt><trkpt lat="45.045795899713745" lon="9.576140007599308"><ele>62.0</ele><time>2026-04-20T14:10:31Z</time></trkpt><trkpt lat="45.04574331113025" lon="9.575991675687586"><ele>62.0</ele><time>2026-04-20T14:10:33Z</time></trkpt><trkpt lat="45.04569342471024" lon="9.57584397463243"><ele>62.2</ele><time>2026-04-20T14:10:35Z</time></trkpt><trkpt lat="45.04564881115351" lon="9.575694598571275"><ele>62.400000000000006</ele><time>2026-04-20T14:10:37Z</time></trkpt><trkpt lat="45.045620985977344" lon="9.5756125040366"><ele>62.599999999999994</ele><time>2026-04-20T14:10:38Z</time></trkpt><trkpt lat="45.04557298185419" lon="9.575463023990975"><ele>62.8</ele><time>2026-04-20T14:10:40Z</time></trkpt><trkpt lat="45.0455277694591" lon="9.575312751063754"><ele>63.0</ele><time>2026-04-20T14:10:42Z</time></trkpt><trkpt lat="45.04547957795791" lon="9.575163787845044"><ele>63.2</ele><time>2026-04-20T14:10:44Z</time></trkpt><trkpt lat="45.04545086987732" lon="9.575083121154316"><ele>63.4</ele><time>2026-04-20T14:10:45Z</time></trkpt><trkpt lat="45.04541060896783" lon="9.57494058445293"><ele>63.60000000000001</ele><time>2026-04-20T14:10:47Z</time></trkpt><trkpt lat="45.045367137152795" lon="9.574773133919862"><ele>63.800000000000004</ele><time>2026-04-20T14:10:49Z</time></trkpt><trkpt lat="45.045325251241195" lon="9.574611969476152"><ele>64.0</ele><time>2026-04-20T14:10:51Z</time></trkpt><trkpt lat="45.04527953760052" lon="9.57445982910569"><ele>64.5</ele><time>2026-04-20T14:10:53Z</time></trkpt><trkpt lat="45.045232856581855" lon="9.574307548845232"><ele>65.0</ele><time>2026-04-20T14:10:55Z</time></trkpt><trkpt lat="45.04517927438169" lon="9.574157713807898"><ele>65.5</ele><time>2026-04-20T14:10:57Z</time></trkpt><trkpt lat="45.04513481450429" lon="9.57401321742602"><ele>66.0</ele><time>2026-04-20T14:10:59Z</time></trkpt><trkpt lat="45.04508122508176" lon="9.573863574987534"><ele>66.0</ele><time>2026-04-20T14:11:01Z</time></trkpt><trkpt lat="45.04502866834692" lon="9.573704711904497"><ele>66.0</ele><time>2026-04-20T14:11:03Z</time></trkpt><trkpt lat="45.04497655387603" lon="9.57355346961081"><ele>66.0</ele><time>2026-04-20T14:11:05Z</time></trkpt><trkpt lat="45.04493191751706" lon="9.573398711878218"><ele>66.0</ele><time>2026-04-20T14:11:07Z</time></trkpt><trkpt lat="45.04488029735484" lon="9.573250144112517"><ele>65.25</ele><time>2026-04-20T14:11:09Z</time></trkpt><trkpt lat="45.04482494290125" lon="9.57309601208383"><ele>64.5</ele><time>2026-04-20T14:11:11Z</time></trkpt><trkpt lat="45.04476897715196" lon="9.572954047107995"><ele>63.75</ele><time>2026-04-20T14:11:13Z</time></trkpt><trkpt lat="45.044732830269545" lon="9.572796960687587"><ele>63.0</ele><time>2026-04-20T14:11:15Z</time></trkpt><trkpt lat="45.04471111191094" lon="9.57263742533146"><ele>63.0</ele><time>2026-04-20T14:11:17Z</time></trkpt><trkpt lat="45.04472561809198" lon="9.572470089586549"><ele>63.0</ele><time>2026-04-20T14:11:19Z</time></trkpt><trkpt lat="45.044738930828316" lon="9.572309282944921"><ele>63.0</ele><time>2026-04-20T14:11:21Z</time></trkpt><trkpt lat="45.04475599869315" lon="9.572156707176322"><ele>63.0</ele><time>2026-04-20T14:11:23Z</time></trkpt><trkpt lat="45.04477114321662" lon="9.572010526428919"><ele>63.0</ele><time>2026-04-20T14:11:25Z</time></trkpt><trkpt lat="45.044790322527554" lon="9.571847660990429"><ele>63.0</ele><time>2026-04-20T14:11:27Z</time></trkpt><trkpt lat="45.04480196059581" lon="9.571695032851952"><ele>63.0</ele><time>2026-04-20T14:11:29Z</time></trkpt><trkpt lat="45.04480730150608" lon="9.571604652990814"><ele>63.0</ele><time>2026-04-20T14:11:30Z</time></trkpt><trkpt lat="45.04481709837679" lon="9.571447755621879"><ele>63.0</ele><time>2026-04-20T14:11:32Z</time></trkpt><trkpt lat="45.044803927896744" lon="9.571286082669863"><ele>63.0</ele><time>2026-04-20T14:11:34Z</time></trkpt><trkpt lat="45.04475696334223" lon="9.571135083031958"><ele>63.25</ele><time>2026-04-20T14:11:36Z</time></trkpt><trkpt lat="45.0446922545065" lon="9.570994801077715"><ele>63.5</ele><time>2026-04-20T14:11:38Z</time></trkpt><trkpt lat="45.0446179938769" lon="9.570858940552036"><ele>63.75</ele><time>2026-04-20T14:11:40Z</time></trkpt><trkpt lat="45.044546560885266" lon="9.570725645357196"><ele>64.0</ele><time>2026-04-20T14:11:42Z</time></trkpt><trkpt lat="45.044477377095724" lon="9.570589312314569"><ele>64.0</ele><time>2026-04-20T14:11:44Z</time></trkpt><trkpt lat="45.04440613192911" lon="9.570452998952335"><ele>64.0</ele><time>2026-04-20T14:11:46Z</time></trkpt><trkpt lat="45.044331238882755" lon="9.570309959152452"><ele>64.0</ele><time>2026-04-20T14:11:48Z</time></trkpt><trkpt lat="45.04425612174507" lon="9.570167645103236"><ele>64.0</ele><time>2026-04-20T14:11:50Z</time></trkpt><trkpt lat="45.044180962746594" lon="9.570028052693416"><ele>64.0</ele><time>2026-04-20T14:11:52Z</time></trkpt><trkpt lat="45.04414139387673" lon="9.569952447591646"><ele>64.0</ele><time>2026-04-20T14:11:53Z</time></trkpt><trkpt lat="45.044069947552345" lon="9.56981866224071"><ele>64.0</ele><time>2026-04-20T14:11:55Z</time></trkpt><trkpt lat="45.04403274626691" lon="9.5697384191717"><ele>64.0</ele><time>2026-04-20T14:11:56Z</time></trkpt><trkpt lat="45.04396879486616" lon="9.569591935696394"><ele>64.0</ele><time>2026-04-20T14:11:58Z</time></trkpt><trkpt lat="45.04389994080816" lon="9.569443753161176"><ele>63.800000000000004</ele><time>2026-04-20T14:12:00Z</time></trkpt><trkpt lat="45.043868180473076" lon="9.569363882824215"><ele>63.60000000000001</ele><time>2026-04-20T14:12:01Z</time></trkpt><trkpt lat="45.043798465095044" lon="9.569220620176427"><ele>63.4</ele><time>2026-04-20T14:12:03Z</time></trkpt><trkpt lat="45.04372867808911" lon="9.569075073366331"><ele>63.2</ele><time>2026-04-20T14:12:05Z</time></trkpt><trkpt lat="45.04366415593891" lon="9.56892900564681"><ele>63.0</ele><time>2026-04-20T14:12:07Z</time></trkpt><trkpt lat="45.04358529331009" lon="9.568789622043019"><ele>63.2</ele><time>2026-04-20T14:12:09Z</time></trkpt><trkpt lat="45.04351724729192" lon="9.568650883967337"><ele>63.4</ele><time>2026-04-20T14:12:11Z</time></trkpt><trkpt lat="45.043452751865125" lon="9.568505649139983"><ele>63.60000000000001</ele><time>2026-04-20T14:12:13Z</time></trkpt><trkpt lat="45.04341647244732" lon="9.568431566698454"><ele>63.800000000000004</ele><time>2026-04-20T14:12:14Z</time></trkpt><trkpt lat="45.04334891805641" lon="9.56829054835381"><ele>64.0</ele><time>2026-04-20T14:12:16Z</time></trkpt><trkpt lat="45.04328040286453" lon="9.568142185957765"><ele>64.0</ele><time>2026-04-20T14:12:18Z</time></trkpt><trkpt lat="45.04321034672787" lon="9.567999886656542"><ele>64.0</ele><time>2026-04-20T14:12:20Z</time></trkpt><trkpt lat="45.043134798596284" lon="9.567867954673874"><ele>64.0</ele><time>2026-04-20T14:12:22Z</time></trkpt><trkpt lat="45.04305747670709" lon="9.567736403195756"><ele>64.0</ele><time>2026-04-20T14:12:24Z</time></trkpt><trkpt lat="45.04301849717147" lon="9.56766580713912"><ele>64.0</ele><time>2026-04-20T14:12:25Z</time></trkpt><trkpt lat="45.04296104631902" lon="9.567509999387838"><ele>64.0</ele><time>2026-04-20T14:12:27Z</time></trkpt><trkpt lat="45.042894433020784" lon="9.567362457375518"><ele>64.0</ele><time>2026-04-20T14:12:29Z</time></trkpt><trkpt lat="45.042821112486244" lon="9.567227702516773"><ele>64.0</ele><time>2026-04-20T14:12:31Z</time></trkpt><trkpt lat="45.04278073181832" lon="9.567152943083059"><ele>64.0</ele><time>2026-04-20T14:12:32Z</time></trkpt><trkpt lat="45.04270727461275" lon="9.567013908137378"><ele>64.0</ele><time>2026-04-20T14:12:34Z</time></trkpt><trkpt lat="45.04267244068242" lon="9.566937471316342"><ele>63.99999999999999</ele><time>2026-04-20T14:12:35Z</time></trkpt><trkpt lat="45.042640020791545" lon="9.566859720020183"><ele>64.0</ele><time>2026-04-20T14:12:36Z</time></trkpt><trkpt lat="45.04260994199597" lon="9.566778075264533"><ele>64.0</ele><time>2026-04-20T14:12:37Z</time></trkpt><trkpt lat="45.04255278553173" lon="9.566631432011986"><ele>64.0</ele><time>2026-04-20T14:12:39Z</time></trkpt><trkpt lat="45.042521669148734" lon="9.566550217097038"><ele>63.99999999999999</ele><time>2026-04-20T14:12:40Z</time></trkpt><trkpt lat="45.04248469610299" lon="9.566474129105535"><ele>64.0</ele><time>2026-04-20T14:12:41Z</time></trkpt><trkpt lat="45.0424206591164" lon="9.566316145716911"><ele>64.5</ele><time>2026-04-20T14:12:43Z</time></trkpt><trkpt lat="45.042364178800796" lon="9.566164278137505"><ele>65.0</ele><time>2026-04-20T14:12:45Z</time></trkpt><trkpt lat="45.04230869628787" lon="9.566010528696559"><ele>65.5</ele><time>2026-04-20T14:12:47Z</time></trkpt><trkpt lat="45.04224673294236" lon="9.565864373247548"><ele>66.0</ele><time>2026-04-20T14:12:49Z</time></trkpt><trkpt lat="45.042181347816495" lon="9.56571780397765"><ele>66.0</ele><time>2026-04-20T14:12:51Z</time></trkpt><trkpt lat="45.042119811277004" lon="9.565562105013235"><ele>66.0</ele><time>2026-04-20T14:12:53Z</time></trkpt><trkpt lat="45.0420661045394" lon="9.56542665342511"><ele>66.0</ele><time>2026-04-20T14:12:55Z</time></trkpt><trkpt lat="45.04201127382637" lon="9.565283618084816"><ele>66.0</ele><time>2026-04-20T14:12:57Z</time></trkpt><trkpt lat="45.04196499034309" lon="9.565160355165094"><ele>66.0</ele><time>2026-04-20T14:12:59Z</time></trkpt><trkpt lat="45.04191944696995" lon="9.565033265527433"><ele>66.2</ele><time>2026-04-20T14:13:01Z</time></trkpt><trkpt lat="45.041873875852914" lon="9.56490451180683"><ele>66.39999999999999</ele><time>2026-04-20T14:13:03Z</time></trkpt><trkpt lat="45.0418271105456" lon="9.564756407188728"><ele>66.6</ele><time>2026-04-20T14:13:05Z</time></trkpt><trkpt lat="45.04179488065118" lon="9.564602698205512"><ele>66.8</ele><time>2026-04-20T14:13:07Z</time></trkpt><trkpt lat="45.041752784204" lon="9.564454437424594"><ele>67.0</ele><time>2026-04-20T14:13:09Z</time></trkpt><trkpt lat="45.04172083400556" lon="9.564303741568859"><ele>66.5</ele><time>2026-04-20T14:13:10.999Z</time></trkpt><trkpt lat="45.04168732093881" lon="9.564144282189652"><ele>66.0</ele><time>2026-04-20T14:13:12.999Z</time></trkpt><trkpt lat="45.04165959761195" lon="9.563993289117185"><ele>65.5</ele><time>2026-04-20T14:13:14.999Z</time></trkpt><trkpt lat="45.041621743598945" lon="9.563834753244436"><ele>65.0</ele><time>2026-04-20T14:13:16.999Z</time></trkpt><trkpt lat="45.041591125538645" lon="9.56368104831764"><ele>64.75</ele><time>2026-04-20T14:13:18.999Z</time></trkpt><trkpt lat="45.041555119283764" lon="9.563525993655398"><ele>64.5</ele><time>2026-04-20T14:13:20.999Z</time></trkpt><trkpt lat="45.04152306414467" lon="9.563370280615347"><ele>64.25</ele><time>2026-04-20T14:13:23Z</time></trkpt><trkpt lat="45.04149056580613" lon="9.563212721634095"><ele>64.0</ele><time>2026-04-20T14:13:25Z</time></trkpt><trkpt lat="45.041450782030665" lon="9.563052051574951"><ele>64.0</ele><time>2026-04-20T14:13:27Z</time></trkpt><trkpt lat="45.04140823507537" lon="9.562885775866764"><ele>64.0</ele><time>2026-04-20T14:13:29Z</time></trkpt><trkpt lat="45.041383416432666" lon="9.562722900441768"><ele>64.0</ele><time>2026-04-20T14:13:31Z</time></trkpt><trkpt lat="45.04134305750836" lon="9.56255817087374"><ele>64.0</ele><time>2026-04-20T14:13:33Z</time></trkpt><trkpt lat="45.04131085855721" lon="9.56239693175718"><ele>64.0</ele><time>2026-04-20T14:13:35Z</time></trkpt><trkpt lat="45.0412747999305" lon="9.562229290550425"><ele>64.0</ele><time>2026-04-20T14:13:37Z</time></trkpt><trkpt lat="45.04123985024693" lon="9.562071485708941"><ele>64.0</ele><time>2026-04-20T14:13:39Z</time></trkpt><trkpt lat="45.04120330345969" lon="9.56190995028595"><ele>64.0</ele><time>2026-04-20T14:13:41Z</time></trkpt><trkpt lat="45.041171176900114" lon="9.561755480271062"><ele>64.2</ele><time>2026-04-20T14:13:43Z</time></trkpt><trkpt lat="45.041133299720705" lon="9.561605724165181"><ele>64.4</ele><time>2026-04-20T14:13:45Z</time></trkpt><trkpt lat="45.04110118038473" lon="9.561466599444296"><ele>64.6</ele><time>2026-04-20T14:13:47Z</time></trkpt><trkpt lat="45.04106157888862" lon="9.561325131420487"><ele>64.8</ele><time>2026-04-20T14:13:49Z</time></trkpt><trkpt lat="45.04102560401666" lon="9.56117837841353"><ele>65.0</ele><time>2026-04-20T14:13:51Z</time></trkpt><trkpt lat="45.04099150644605" lon="9.561035604253433"><ele>65.0</ele><time>2026-04-20T14:13:53Z</time></trkpt><trkpt lat="45.04095138760696" lon="9.560894839780596"><ele>65.0</ele><time>2026-04-20T14:13:55Z</time></trkpt><trkpt lat="45.04091275226271" lon="9.560751784939939"><ele>65.0</ele><time>2026-04-20T14:13:57Z</time></trkpt><trkpt lat="45.04087335506625" lon="9.560611644557861"><ele>65.0</ele><time>2026-04-20T14:13:59Z</time></trkpt><trkpt lat="45.040835112957616" lon="9.560467065122328"><ele>65.0</ele><time>2026-04-20T14:14:01Z</time></trkpt><trkpt lat="45.04079867138316" lon="9.560320129979804"><ele>65.4</ele><time>2026-04-20T14:14:03Z</time></trkpt><trkpt lat="45.04076342882358" lon="9.560173482934786"><ele>65.8</ele><time>2026-04-20T14:14:05Z</time></trkpt><trkpt lat="45.04074198528112" lon="9.560042063926527"><ele>66.2</ele><time>2026-04-20T14:14:07Z</time></trkpt><trkpt lat="45.04069819298155" lon="9.559892171536518"><ele>66.6</ele><time>2026-04-20T14:14:09Z</time></trkpt><trkpt lat="45.04065675120942" lon="9.559742479878425"><ele>67.0</ele><time>2026-04-20T14:14:11Z</time></trkpt><trkpt lat="45.04061932054613" lon="9.55958883609783"><ele>67.2</ele><time>2026-04-20T14:14:13Z</time></trkpt><trkpt lat="45.04057782140768" lon="9.559445220429462"><ele>67.4</ele><time>2026-04-20T14:14:15Z</time></trkpt><trkpt lat="45.04055322854434" lon="9.559301728036491"><ele>67.6</ele><time>2026-04-20T14:14:17Z</time></trkpt><trkpt lat="45.04055676026947" lon="9.559149768036322"><ele>67.8</ele><time>2026-04-20T14:14:19Z</time></trkpt><trkpt lat="45.040567416684276" lon="9.558993838071153"><ele>68.0</ele><time>2026-04-20T14:14:21Z</time></trkpt><trkpt lat="45.04060662038015" lon="9.558772105809467"><ele>67.25</ele><time>2026-04-20T14:14:24Z</time></trkpt><trkpt lat="45.04062921791066" lon="9.5586138899039"><ele>66.5</ele><time>2026-04-20T14:14:26Z</time></trkpt><trkpt lat="45.04063659502359" lon="9.55845873720891"><ele>65.75</ele><time>2026-04-20T14:14:28Z</time></trkpt><trkpt lat="45.0406628327762" lon="9.55830146883015"><ele>65.0</ele><time>2026-04-20T14:14:30Z</time></trkpt><trkpt lat="45.0406965314502" lon="9.558133126968835"><ele>65.0</ele><time>2026-04-20T14:14:32Z</time></trkpt><trkpt lat="45.04071545500781" lon="9.557970264449624"><ele>65.0</ele><time>2026-04-20T14:14:34Z</time></trkpt><trkpt lat="45.04073019990048" lon="9.557802249251433"><ele>65.0</ele><time>2026-04-20T14:14:36Z</time></trkpt><trkpt lat="45.040753641609214" lon="9.557640523314177"><ele>65.0</ele><time>2026-04-20T14:14:38Z</time></trkpt><trkpt lat="45.04077876630979" lon="9.557475657247727"><ele>65.0</ele><time>2026-04-20T14:14:40Z</time></trkpt><trkpt lat="45.04079789245221" lon="9.55730090967531"><ele>65.0</ele><time>2026-04-20T14:14:42Z</time></trkpt><trkpt lat="45.040808971674814" lon="9.557212091232365"><ele>65.0</ele><time>2026-04-20T14:14:43Z</time></trkpt><trkpt lat="45.04081661525237" lon="9.55712220322725"><ele>65.0</ele><time>2026-04-20T14:14:44Z</time></trkpt><trkpt lat="45.040832081423176" lon="9.556953147066405"><ele>65.0</ele><time>2026-04-20T14:14:46Z</time></trkpt><trkpt lat="45.04085933633249" lon="9.556789650450426"><ele>65.0</ele><time>2026-04-20T14:14:48Z</time></trkpt><trkpt lat="45.04088174621455" lon="9.556621522131637"><ele>65.0</ele><time>2026-04-20T14:14:50Z</time></trkpt><trkpt lat="45.04089124951814" lon="9.556530539413757"><ele>65.0</ele><time>2026-04-20T14:14:51Z</time></trkpt><trkpt lat="45.040905558082166" lon="9.556360732701556"><ele>65.0</ele><time>2026-04-20T14:14:53Z</time></trkpt><trkpt lat="45.04092050042926" lon="9.556192358740242"><ele>65.0</ele><time>2026-04-20T14:14:55Z</time></trkpt><trkpt lat="45.04093580474627" lon="9.556023255175795"><ele>65.5</ele><time>2026-04-20T14:14:57Z</time></trkpt><trkpt lat="45.040938576172195" lon="9.555932452478812"><ele>66.0</ele><time>2026-04-20T14:14:58Z</time></trkpt><trkpt lat="45.040953809494916" lon="9.55576145090858"><ele>66.5</ele><time>2026-04-20T14:15:00Z</time></trkpt><trkpt lat="45.04095921936826" lon="9.555670084139013"><ele>67.0</ele><time>2026-04-20T14:15:01Z</time></trkpt><trkpt lat="45.040970370172985" lon="9.555506735337792"><ele>67.5</ele><time>2026-04-20T14:15:02.999Z</time></trkpt><trkpt lat="45.04097962899566" lon="9.555417035512287"><ele>68.0</ele><time>2026-04-20T14:15:03.999Z</time></trkpt><trkpt lat="45.04099360366939" lon="9.555249628057638"><ele>68.16666666666667</ele><time>2026-04-20T14:15:05.999Z</time></trkpt><trkpt lat="45.041003776329035" lon="9.555072233231263"><ele>68.33333333333334</ele><time>2026-04-20T14:15:07.999Z</time></trkpt><trkpt lat="45.04100714113346" lon="9.554980230689623"><ele>68.5</ele><time>2026-04-20T14:15:08.999Z</time></trkpt><trkpt lat="45.04101406102295" lon="9.554814833854811"><ele>68.66666666666667</ele><time>2026-04-20T14:15:10.999Z</time></trkpt><trkpt lat="45.04101092844791" lon="9.554722959859069"><ele>68.83333333333333</ele><time>2026-04-20T14:15:11.999Z</time></trkpt><trkpt lat="45.0410130964466" lon="9.55463079326433"><ele>69.0</ele><time>2026-04-20T14:15:12.999Z</time></trkpt><trkpt lat="45.04100085099275" lon="9.554458456783573"><ele>69.2</ele><time>2026-04-20T14:15:14.999Z</time></trkpt><trkpt lat="45.04098783749702" lon="9.554366073889817"><ele>69.4</ele><time>2026-04-20T14:15:15.999Z</time></trkpt><trkpt lat="45.04095280477831" lon="9.554202519795284"><ele>69.6</ele><time>2026-04-20T14:15:17.999Z</time></trkpt><trkpt lat="45.040925717363024" lon="9.554040389370362"><ele>69.8</ele><time>2026-04-20T14:15:19.999Z</time></trkpt><trkpt lat="45.04090171748841" lon="9.553880533692938"><ele>70.0</ele><time>2026-04-20T14:15:21.999Z</time></trkpt><trkpt lat="45.04088315898305" lon="9.55379026980194"><ele>69.75</ele><time>2026-04-20T14:15:22.999Z</time></trkpt><trkpt lat="45.040846291131466" lon="9.553634575788498"><ele>69.5</ele><time>2026-04-20T14:15:24.999Z</time></trkpt><trkpt lat="45.04080450020599" lon="9.553483503288927"><ele>69.25</ele><time>2026-04-20T14:15:26.999Z</time></trkpt><trkpt lat="45.040767451554665" lon="9.553327803740148"><ele>69.0</ele><time>2026-04-20T14:15:29Z</time></trkpt><trkpt lat="45.04072632716373" lon="9.553189336593942"><ele>69.0</ele><time>2026-04-20T14:15:31Z</time></trkpt><trkpt lat="45.04069849417105" lon="9.553035578643431"><ele>69.0</ele><time>2026-04-20T14:15:33Z</time></trkpt><trkpt lat="45.040684121155955" lon="9.552889352523115"><ele>69.0</ele><time>2026-04-20T14:15:35Z</time></trkpt><trkpt lat="45.04065903954977" lon="9.552771325686555"><ele>69.0</ele><time>2026-04-20T14:15:37Z</time></trkpt><trkpt lat="45.040630906504646" lon="9.552616903974155"><ele>69.0</ele><time>2026-04-20T14:15:39Z</time></trkpt><trkpt lat="45.040611956782286" lon="9.552525619949424"><ele>69.0</ele><time>2026-04-20T14:15:40Z</time></trkpt><trkpt lat="45.040585361161625" lon="9.552362227194719"><ele>69.0</ele><time>2026-04-20T14:15:42Z</time></trkpt><trkpt lat="45.040573241741164" lon="9.552249375983378"><ele>69.0</ele><time>2026-04-20T14:15:44Z</time></trkpt><trkpt lat="45.04054132882559" lon="9.552089972221673"><ele>69.0</ele><time>2026-04-20T14:15:46Z</time></trkpt><trkpt lat="45.04053854027148" lon="9.551989563827744"><ele>69.0</ele><time>2026-04-20T14:15:47Z</time></trkpt><trkpt lat="45.04052576272459" lon="9.551834537384947"><ele>69.0</ele><time>2026-04-20T14:15:49Z</time></trkpt><trkpt lat="45.04049649820036" lon="9.55168500225749"><ele>69.0</ele><time>2026-04-20T14:15:51Z</time></trkpt><trkpt lat="45.04046766596115" lon="9.551546359769283"><ele>69.0</ele><time>2026-04-20T14:15:53Z</time></trkpt><trkpt lat="45.040443356990735" lon="9.551460229217932"><ele>69.0</ele><time>2026-04-20T14:15:55Z</time></trkpt><trkpt lat="45.04043035032963" lon="9.551359167122694"><ele>69.0</ele><time>2026-04-20T14:15:56Z</time></trkpt><trkpt lat="45.04044140465209" lon="9.551217783216956"><ele>69.16666666666667</ele><time>2026-04-20T14:15:58Z</time></trkpt><trkpt lat="45.040434180667944" lon="9.551084969352793"><ele>69.33333333333333</ele><time>2026-04-20T14:15:59Z</time></trkpt><trkpt lat="45.04041201816034" lon="9.550976436372732"><ele>69.5</ele><time>2026-04-20T14:16:00Z</time></trkpt><trkpt lat="45.040362479567584" lon="9.550799549635393"><ele>69.66666666666666</ele><time>2026-04-20T14:16:02Z</time></trkpt><trkpt lat="45.04036962578069" lon="9.550710553698273"><ele>69.83333333333333</ele><time>2026-04-20T14:16:03Z</time></trkpt><trkpt lat="45.04033955878115" lon="9.550619118621961"><ele>70.0</ele><time>2026-04-20T14:16:04Z</time></trkpt><trkpt lat="45.04031807825668" lon="9.55046246784315"><ele>70.16666666666666</ele><time>2026-04-20T14:16:06Z</time></trkpt><trkpt lat="45.04030367676883" lon="9.550302747053264"><ele>70.33333333333333</ele><time>2026-04-20T14:16:08Z</time></trkpt><trkpt lat="45.04028544701494" lon="9.55021526339534"><ele>70.5</ele><time>2026-04-20T14:16:09Z</time></trkpt><trkpt lat="45.04027439295447" lon="9.550126781119058"><ele>70.66666666666667</ele><time>2026-04-20T14:16:10Z</time></trkpt><trkpt lat="45.04025666121565" lon="9.549959058425998"><ele>70.83333333333334</ele><time>2026-04-20T14:16:12Z</time></trkpt><trkpt lat="45.04022497357104" lon="9.549862953487263"><ele>71.0</ele><time>2026-04-20T14:16:13Z</time></trkpt><trkpt lat="45.040197987399075" lon="9.549690628118844"><ele>71.0</ele><time>2026-04-20T14:16:15Z</time></trkpt><trkpt lat="45.040163560660424" lon="9.54955732768866"><ele>71.0</ele><time>2026-04-20T14:16:17Z</time></trkpt><trkpt lat="45.040109765916576" lon="9.549422471879483"><ele>71.0</ele><time>2026-04-20T14:16:19Z</time></trkpt><trkpt lat="45.04006296086616" lon="9.549269189243224"><ele>71.0</ele><time>2026-04-20T14:16:21Z</time></trkpt><trkpt lat="45.03999645663754" lon="9.549124613505787"><ele>70.8</ele><time>2026-04-20T14:16:23Z</time></trkpt><trkpt lat="45.03991914317704" lon="9.548984404938043"><ele>70.6</ele><time>2026-04-20T14:16:25Z</time></trkpt><trkpt lat="45.039874919018786" lon="9.548913226414736"><ele>70.4</ele><time>2026-04-20T14:16:26Z</time></trkpt><trkpt lat="45.03983331236263" lon="9.548840690946212"><ele>70.2</ele><time>2026-04-20T14:16:27Z</time></trkpt><trkpt lat="45.03975567357347" lon="9.548705006312412"><ele>70.0</ele><time>2026-04-20T14:16:29Z</time></trkpt><trkpt lat="45.039684521729285" lon="9.548567510479224"><ele>69.25</ele><time>2026-04-20T14:16:31Z</time></trkpt><trkpt lat="45.03961533819971" lon="9.548435123711526"><ele>68.5</ele><time>2026-04-20T14:16:33Z</time></trkpt><trkpt lat="45.0395274870871" lon="9.548305125924125"><ele>67.75</ele><time>2026-04-20T14:16:35Z</time></trkpt><trkpt lat="45.03943502814664" lon="9.548211341508841"><ele>67.0</ele><time>2026-04-20T14:16:37Z</time></trkpt><trkpt lat="45.03932613490165" lon="9.548193401281862"><ele>67.0</ele><time>2026-04-20T14:16:39Z</time></trkpt><trkpt lat="45.03925318495998" lon="9.548195633635444"><ele>67.0</ele><time>2026-04-20T14:16:40Z</time></trkpt><trkpt lat="45.03913515089405" lon="9.548198345036608"><ele>67.0</ele><time>2026-04-20T14:16:42Z</time></trkpt><trkpt lat="45.039020454301365" lon="9.548204880638185"><ele>67.0</ele><time>2026-04-20T14:16:44Z</time></trkpt><trkpt lat="45.038904091570416" lon="9.548204683620922"><ele>67.0</ele><time>2026-04-20T14:16:46Z</time></trkpt><trkpt lat="45.03879569298415" lon="9.548209768987013"><ele>67.4</ele><time>2026-04-20T14:16:48Z</time></trkpt><trkpt lat="45.03868460009927" lon="9.548207786240226"><ele>67.80000000000001</ele><time>2026-04-20T14:16:50Z</time></trkpt><trkpt lat="45.03858001250838" lon="9.548203219631732"><ele>68.2</ele><time>2026-04-20T14:16:52Z</time></trkpt><trkpt lat="45.03847309706888" lon="9.548202729543341"><ele>68.60000000000001</ele><time>2026-04-20T14:16:54Z</time></trkpt><trkpt lat="45.03837059356874" lon="9.548196911723622"><ele>69.0</ele><time>2026-04-20T14:16:56Z</time></trkpt><trkpt lat="45.03826113862071" lon="9.548203383200374"><ele>69.4</ele><time>2026-04-20T14:16:58Z</time></trkpt><trkpt lat="45.03815716994581" lon="9.548199617860197"><ele>69.80000000000001</ele><time>2026-04-20T14:17:00Z</time></trkpt><trkpt lat="45.03804702530984" lon="9.548203233654315"><ele>70.19999999999999</ele><time>2026-04-20T14:17:02Z</time></trkpt><trkpt lat="45.03793976440217" lon="9.548198655535503"><ele>70.6</ele><time>2026-04-20T14:17:04Z</time></trkpt><trkpt lat="45.037832634561006" lon="9.548195104312086"><ele>71.0</ele><time>2026-04-20T14:17:06Z</time></trkpt><trkpt lat="45.037726198582945" lon="9.548200639513086"><ele>71.0</ele><time>2026-04-20T14:17:07.999Z</time></trkpt><trkpt lat="45.0376241455209" lon="9.548190195609946"><ele>71.0</ele><time>2026-04-20T14:17:09.999Z</time></trkpt><trkpt lat="45.03751938418041" lon="9.54818961970809"><ele>71.0</ele><time>2026-04-20T14:17:11.999Z</time></trkpt><trkpt lat="45.037418550331765" lon="9.548193798886539"><ele>71.0</ele><time>2026-04-20T14:17:13.999Z</time></trkpt><trkpt lat="45.03731035940505" lon="9.548190076161719"><ele>71.0</ele><time>2026-04-20T14:17:15.999Z</time></trkpt><trkpt lat="45.03721654168797" lon="9.548194571597907"><ele>70.8</ele><time>2026-04-20T14:17:17.999Z</time></trkpt><trkpt lat="45.03712815388517" lon="9.548202978641243"><ele>70.6</ele><time>2026-04-20T14:17:19.999Z</time></trkpt><trkpt lat="45.03703427453129" lon="9.548201588991443"><ele>70.4</ele><time>2026-04-20T14:17:21.999Z</time></trkpt><trkpt lat="45.03694529192156" lon="9.54819986290086"><ele>70.2</ele><time>2026-04-20T14:17:23.999Z</time></trkpt><trkpt lat="45.03684684358161" lon="9.548198333870818"><ele>70.0</ele><time>2026-04-20T14:17:25.999Z</time></trkpt><trkpt lat="45.03674159004199" lon="9.548199275794987"><ele>70.0</ele><time>2026-04-20T14:17:27.999Z</time></trkpt><trkpt lat="45.03663861856969" lon="9.54819788204631"><ele>70.0</ele><time>2026-04-20T14:17:29.999Z</time></trkpt><trkpt lat="45.03654058947024" lon="9.548197329828719"><ele>70.0</ele><time>2026-04-20T14:17:31.999Z</time></trkpt><trkpt lat="45.03643871932596" lon="9.548195912184646"><ele>70.0</ele><time>2026-04-20T14:17:34Z</time></trkpt><trkpt lat="45.03633751436705" lon="9.548195604783658"><ele>70.0</ele><time>2026-04-20T14:17:36Z</time></trkpt><trkpt lat="45.03623869720758" lon="9.548193501851882"><ele>70.0</ele><time>2026-04-20T14:17:38Z</time></trkpt><trkpt lat="45.03610236191045" lon="9.548207159354712"><ele>70.0</ele><time>2026-04-20T14:17:41Z</time></trkpt><trkpt lat="45.036011925865054" lon="9.54818674420834"><ele>70.0</ele><time>2026-04-20T14:17:44Z</time></trkpt><trkpt lat="45.03590338138749" lon="9.54819177401241"><ele>70.0</ele><time>2026-04-20T14:17:45Z</time></trkpt><trkpt lat="45.03583717187022" lon="9.548191344371148"><ele>70.0</ele><time>2026-04-20T14:17:46Z</time></trkpt><trkpt lat="45.0357324243033" lon="9.548188135870875"><ele>70.25</ele><time>2026-04-20T14:17:48Z</time></trkpt><trkpt lat="45.035617957419966" lon="9.548177330427567"><ele>70.5</ele><time>2026-04-20T14:17:50Z</time></trkpt><trkpt lat="45.03550407854752" lon="9.54818269519333"><ele>70.75</ele><time>2026-04-20T14:17:52Z</time></trkpt><trkpt lat="45.035386743295355" lon="9.54818266589134"><ele>71.0</ele><time>2026-04-20T14:17:54Z</time></trkpt><trkpt lat="45.035274797808995" lon="9.548175970414066"><ele>71.0</ele><time>2026-04-20T14:17:56Z</time></trkpt><trkpt lat="45.03516304989617" lon="9.548171154007033"><ele>71.0</ele><time>2026-04-20T14:17:58Z</time></trkpt><trkpt lat="45.03505237872047" lon="9.548169680735827"><ele>71.0</ele><time>2026-04-20T14:18:00Z</time></trkpt><trkpt lat="45.0349428384359" lon="9.548167293923354"><ele>71.0</ele><time>2026-04-20T14:18:02Z</time></trkpt><trkpt lat="45.03482636804759" lon="9.54816904523583"><ele>71.0</ele><time>2026-04-20T14:18:04Z</time></trkpt><trkpt lat="45.03471276574906" lon="9.548165576718816"><ele>70.8</ele><time>2026-04-20T14:18:06Z</time></trkpt><trkpt lat="45.03460153001554" lon="9.548163753457219"><ele>70.6</ele><time>2026-04-20T14:18:08Z</time></trkpt><trkpt lat="45.034493295113975" lon="9.548162590310378"><ele>70.4</ele><time>2026-04-20T14:18:10Z</time></trkpt><trkpt lat="45.03438502213901" lon="9.548163430459512"><ele>70.2</ele><time>2026-04-20T14:18:12Z</time></trkpt><trkpt lat="45.034275902600704" lon="9.54816209606241"><ele>70.0</ele><time>2026-04-20T14:18:14Z</time></trkpt><trkpt lat="45.03416790051525" lon="9.548162218922226"><ele>70.0</ele><time>2026-04-20T14:18:16Z</time></trkpt><trkpt lat="45.034091738932844" lon="9.548162358502466"><ele>70.0</ele><time>2026-04-20T14:18:19Z</time></trkpt><trkpt lat="45.03395381607948" lon="9.548189608707354"><ele>70.0</ele><time>2026-04-20T14:18:20Z</time></trkpt><trkpt lat="45.033845144274935" lon="9.548207354355302"><ele>70.0</ele><time>2026-04-20T14:18:22Z</time></trkpt><trkpt lat="45.03373434637087" lon="9.548230986952355"><ele>70.0</ele><time>2026-04-20T14:18:24Z</time></trkpt><trkpt lat="45.03361614988086" lon="9.548248395546194"><ele>70.0</ele><time>2026-04-20T14:18:26Z</time></trkpt><trkpt lat="45.03350931584091" lon="9.548279052989997"><ele>70.0</ele><time>2026-04-20T14:18:28Z</time></trkpt><trkpt lat="45.03339405840896" lon="9.548285810789658"><ele>70.0</ele><time>2026-04-20T14:18:30Z</time></trkpt><trkpt lat="45.03328182602244" lon="9.548313481222324"><ele>70.0</ele><time>2026-04-20T14:18:32Z</time></trkpt><trkpt lat="45.03316975624157" lon="9.548341111542738"><ele>70.0</ele><time>2026-04-20T14:18:34Z</time></trkpt><trkpt lat="45.03310687041999" lon="9.548356615816083"><ele>70.0</ele><time>2026-04-20T14:18:35Z</time></trkpt><trkpt lat="45.03299089875059" lon="9.548385208094691"><ele>70.0</ele><time>2026-04-20T14:18:37Z</time></trkpt><trkpt lat="45.03286952674739" lon="9.548417428790662"><ele>70.0</ele><time>2026-04-20T14:18:39Z</time></trkpt><trkpt lat="45.03275140734885" lon="9.548442615388145"><ele>70.0</ele><time>2026-04-20T14:18:41Z</time></trkpt><trkpt lat="45.03268833051786" lon="9.548466630005294"><ele>70.0</ele><time>2026-04-20T14:18:42Z</time></trkpt><trkpt lat="45.032565056593846" lon="9.54848995180103"><ele>70.0</ele><time>2026-04-20T14:18:44Z</time></trkpt><trkpt lat="45.032444824850614" lon="9.548519423463427"><ele>70.0</ele><time>2026-04-20T14:18:46Z</time></trkpt><trkpt lat="45.03232378350058" lon="9.548538068400905"><ele>70.0</ele><time>2026-04-20T14:18:48Z</time></trkpt><trkpt lat="45.032200238652564" lon="9.548574059845523"><ele>70.25</ele><time>2026-04-20T14:18:50Z</time></trkpt><trkpt lat="45.032079578764765" lon="9.548599203149106"><ele>70.5</ele><time>2026-04-20T14:18:52Z</time></trkpt><trkpt lat="45.03195920520762" lon="9.548635439049017"><ele>70.75</ele><time>2026-04-20T14:18:54Z</time></trkpt><trkpt lat="45.031840549142586" lon="9.548658139746218"><ele>71.0</ele><time>2026-04-20T14:18:56Z</time></trkpt><trkpt lat="45.03171931521724" lon="9.548689381693555"><ele>71.0</ele><time>2026-04-20T14:18:58Z</time></trkpt><trkpt lat="45.031605037412795" lon="9.54872037266982"><ele>71.0</ele><time>2026-04-20T14:18:59.999Z</time></trkpt><trkpt lat="45.03148386882226" lon="9.54874551160729"><ele>71.0</ele><time>2026-04-20T14:19:01.999Z</time></trkpt><trkpt lat="45.03136302726701" lon="9.548780839605332"><ele>71.0</ele><time>2026-04-20T14:19:03.999Z</time></trkpt><trkpt lat="45.03123869140363" lon="9.54880666911277"><ele>71.0</ele><time>2026-04-20T14:19:05.999Z</time></trkpt><trkpt lat="45.03111872094012" lon="9.548835770949204"><ele>71.0</ele><time>2026-04-20T14:19:07.999Z</time></trkpt><trkpt lat="45.031003292169586" lon="9.548866876996835"><ele>71.0</ele><time>2026-04-20T14:19:09.999Z</time></trkpt><trkpt lat="45.030879148231946" lon="9.548894116144684"><ele>71.0</ele><time>2026-04-20T14:19:11.999Z</time></trkpt><trkpt lat="45.03076062941065" lon="9.54892402064017"><ele>71.0</ele><time>2026-04-20T14:19:13.999Z</time></trkpt><trkpt lat="45.030696022086076" lon="9.54893775304643"><ele>71.0</ele><time>2026-04-20T14:19:14.999Z</time></trkpt><trkpt lat="45.03058003895521" lon="9.548968266618205"><ele>71.0</ele><time>2026-04-20T14:19:16.999Z</time></trkpt><trkpt lat="45.03051784180607" lon="9.5489843596918"><ele>71.0</ele><time>2026-04-20T14:19:17.999Z</time></trkpt><trkpt lat="45.03039109902068" lon="9.549018290026218"><ele>71.0</ele><time>2026-04-20T14:19:19.999Z</time></trkpt><trkpt lat="45.03032845681798" lon="9.549032122824293"><ele>71.0</ele><time>2026-04-20T14:19:20.999Z</time></trkpt><trkpt lat="45.03026503354705" lon="9.549048029783275"><ele>71.0</ele><time>2026-04-20T14:19:21.999Z</time></trkpt><trkpt lat="45.030141143142174" lon="9.549071564373225"><ele>71.0</ele><time>2026-04-20T14:19:23.999Z</time></trkpt><trkpt lat="45.03007424093505" lon="9.5490955788766"><ele>71.0</ele><time>2026-04-20T14:19:24.999Z</time></trkpt><trkpt lat="45.0299584896826" lon="9.549133122052586"><ele>71.0</ele><time>2026-04-20T14:19:26.999Z</time></trkpt><trkpt lat="45.029827818054734" lon="9.549154175585628"><ele>71.0</ele><time>2026-04-20T14:19:28.999Z</time></trkpt><trkpt lat="45.029764789480154" lon="9.549171654968152"><ele>71.16666666666667</ele><time>2026-04-20T14:19:29.999Z</time></trkpt><trkpt lat="45.02964399518391" lon="9.54920047723832"><ele>71.33333333333334</ele><time>2026-04-20T14:19:31.999Z</time></trkpt><trkpt lat="45.02957732752309" lon="9.549218302719328"><ele>71.5</ele><time>2026-04-20T14:19:32.999Z</time></trkpt><trkpt lat="45.02945513557424" lon="9.549245029145968"><ele>71.66666666666667</ele><time>2026-04-20T14:19:34.999Z</time></trkpt><trkpt lat="45.02939268754327" lon="9.549263355901589"><ele>71.83333333333333</ele><time>2026-04-20T14:19:35.999Z</time></trkpt><trkpt lat="45.02932880841526" lon="9.549279666785752"><ele>72.0</ele><time>2026-04-20T14:19:36.999Z</time></trkpt><trkpt lat="45.02920767163812" lon="9.549307965900747"><ele>72.0</ele><time>2026-04-20T14:19:38.999Z</time></trkpt><trkpt lat="45.02914265546868" lon="9.549330637046662"><ele>72.0</ele><time>2026-04-20T14:19:40Z</time></trkpt><trkpt lat="45.029017237083025" lon="9.549351253376722"><ele>72.0</ele><time>2026-04-20T14:19:42Z</time></trkpt><trkpt lat="45.0289048768276" lon="9.549382121985953"><ele>72.0</ele><time>2026-04-20T14:19:44Z</time></trkpt><trkpt lat="45.02884295052345" lon="9.549400987457705"><ele>72.0</ele><time>2026-04-20T14:19:45Z</time></trkpt><trkpt lat="45.02872434234768" lon="9.549427095246648"><ele>72.0</ele><time>2026-04-20T14:19:47Z</time></trkpt><trkpt lat="45.02860395096299" lon="9.5494448030275"><ele>72.0</ele><time>2026-04-20T14:19:49Z</time></trkpt><trkpt lat="45.02848490710189" lon="9.549481282739624"><ele>72.0</ele><time>2026-04-20T14:19:51Z</time></trkpt><trkpt lat="45.02837179899961" lon="9.549509171191994"><ele>72.0</ele><time>2026-04-20T14:19:53Z</time></trkpt><trkpt lat="45.028247193335936" lon="9.549540421495667"><ele>72.0</ele><time>2026-04-20T14:19:55Z</time></trkpt><trkpt lat="45.02812667577943" lon="9.549568285112949"><ele>72.0</ele><time>2026-04-20T14:19:57Z</time></trkpt><trkpt lat="45.0280084379576" lon="9.549600715451675"><ele>72.0</ele><time>2026-04-20T14:19:59Z</time></trkpt><trkpt lat="45.027889210295484" lon="9.549637914003931"><ele>72.0</ele><time>2026-04-20T14:20:01Z</time></trkpt><trkpt lat="45.027772241877244" lon="9.549660899078466"><ele>72.0</ele><time>2026-04-20T14:20:03Z</time></trkpt><trkpt lat="45.027656156845474" lon="9.549689444888925"><ele>72.0</ele><time>2026-04-20T14:20:05Z</time></trkpt><trkpt lat="45.02754169604505" lon="9.549715641939246"><ele>72.0</ele><time>2026-04-20T14:20:07Z</time></trkpt><trkpt lat="45.02742283036651" lon="9.549741517933724"><ele>72.0</ele><time>2026-04-20T14:20:09Z</time></trkpt><trkpt lat="45.02730860677421" lon="9.549765595386898"><ele>73.0</ele><time>2026-04-20T14:20:11Z</time></trkpt><trkpt lat="45.02719365702884" lon="9.549795640151862"><ele>74.0</ele><time>2026-04-20T14:20:13Z</time></trkpt><trkpt lat="45.02707925096419" lon="9.549821368705754"><ele>75.0</ele><time>2026-04-20T14:20:15Z</time></trkpt><trkpt lat="45.026965599376" lon="9.54984903203289"><ele>76.0</ele><time>2026-04-20T14:20:17Z</time></trkpt><trkpt lat="45.026851919183066" lon="9.549872382023347"><ele>76.0</ele><time>2026-04-20T14:20:19Z</time></trkpt><trkpt lat="45.026738561266164" lon="9.549915000726655"><ele>76.0</ele><time>2026-04-20T14:20:21Z</time></trkpt><trkpt lat="45.0266198077349" lon="9.54996141709918"><ele>76.0</ele><time>2026-04-20T14:20:23Z</time></trkpt><trkpt lat="45.02649741564987" lon="9.54997833765845"><ele>76.0</ele><time>2026-04-20T14:20:25Z</time></trkpt><trkpt lat="45.02638155323764" lon="9.550015633966154"><ele>75.8</ele><time>2026-04-20T14:20:27Z</time></trkpt><trkpt lat="45.02626507078449" lon="9.550067683520904"><ele>75.6</ele><time>2026-04-20T14:20:29Z</time></trkpt><trkpt lat="45.02614181521681" lon="9.550083663893687"><ele>75.4</ele><time>2026-04-20T14:20:31Z</time></trkpt><trkpt lat="45.02606753833714" lon="9.5500855698658"><ele>75.2</ele><time>2026-04-20T14:20:32Z</time></trkpt><trkpt lat="45.02596191810427" lon="9.550154857522086"><ele>75.0</ele><time>2026-04-20T14:20:34Z</time></trkpt><trkpt lat="45.025865085068354" lon="9.55005208193223"><ele>75.0</ele><time>2026-04-20T14:20:36Z</time></trkpt><trkpt lat="45.025821446302864" lon="9.549979122300156"><ele>75.0</ele><time>2026-04-20T14:20:37Z</time></trkpt><trkpt lat="45.02576158978119" lon="9.549856429145315"><ele>75.0</ele><time>2026-04-20T14:20:39Z</time></trkpt><trkpt lat="45.0256946734342" lon="9.549707857336212"><ele>75.0</ele><time>2026-04-20T14:20:41Z</time></trkpt><trkpt lat="45.02565192467743" lon="9.5495560123264"><ele>75.0</ele><time>2026-04-20T14:20:43Z</time></trkpt><trkpt lat="45.02561542772414" lon="9.549402958659382"><ele>75.0</ele><time>2026-04-20T14:20:45Z</time></trkpt><trkpt lat="45.02557597192726" lon="9.54923981848015"><ele>75.0</ele><time>2026-04-20T14:20:47Z</time></trkpt><trkpt lat="45.02554158302223" lon="9.549089185964869"><ele>75.0</ele><time>2026-04-20T14:20:49Z</time></trkpt><trkpt lat="45.02552571518796" lon="9.548999338836978"><ele>75.0</ele><time>2026-04-20T14:20:50Z</time></trkpt><trkpt lat="45.02549279145951" lon="9.548838713861029"><ele>75.0</ele><time>2026-04-20T14:20:52Z</time></trkpt><trkpt lat="45.02545365174704" lon="9.548674782006595"><ele>75.0</ele><time>2026-04-20T14:20:54Z</time></trkpt><trkpt lat="45.02543589895652" lon="9.548586508249723"><ele>75.0</ele><time>2026-04-20T14:20:55Z</time></trkpt><trkpt lat="45.025396061799775" lon="9.548434592088304"><ele>75.0</ele><time>2026-04-20T14:20:57Z</time></trkpt><trkpt lat="45.02534442885434" lon="9.548273744069311"><ele>75.0</ele><time>2026-04-20T14:20:59Z</time></trkpt><trkpt lat="45.025285285978356" lon="9.548120686369417"><ele>75.0</ele><time>2026-04-20T14:21:01Z</time></trkpt><trkpt lat="45.02525599501545" lon="9.548040942201673"><ele>75.0</ele><time>2026-04-20T14:21:02Z</time></trkpt><trkpt lat="45.025193851056606" lon="9.547895190954682"><ele>75.0</ele><time>2026-04-20T14:21:04Z</time></trkpt><trkpt lat="45.02512969843169" lon="9.547741631823797"><ele>75.0</ele><time>2026-04-20T14:21:06Z</time></trkpt><trkpt lat="45.02507245801961" lon="9.547594115594789"><ele>75.0</ele><time>2026-04-20T14:21:08Z</time></trkpt><trkpt lat="45.025038616420545" lon="9.547517531032272"><ele>75.0</ele><time>2026-04-20T14:21:08.999Z</time></trkpt><trkpt lat="45.02495766962665" lon="9.54737403173409"><ele>75.16666666666667</ele><time>2026-04-20T14:21:10.999Z</time></trkpt><trkpt lat="45.024882491197964" lon="9.547238311576436"><ele>75.33333333333333</ele><time>2026-04-20T14:21:12.999Z</time></trkpt><trkpt lat="45.02484307563349" lon="9.547164024271972"><ele>75.5</ele><time>2026-04-20T14:21:13.999Z</time></trkpt><trkpt lat="45.02480308113943" lon="9.547095182665764"><ele>75.66666666666666</ele><time>2026-04-20T14:21:14.999Z</time></trkpt><trkpt lat="45.02476102835636" lon="9.547019795248552"><ele>75.83333333333333</ele><time>2026-04-20T14:21:15.999Z</time></trkpt><trkpt lat="45.02468885117008" lon="9.546885047811342"><ele>76.0</ele><time>2026-04-20T14:21:17.999Z</time></trkpt><trkpt lat="45.024618688636316" lon="9.546742976496864"><ele>76.0</ele><time>2026-04-20T14:21:19.999Z</time></trkpt><trkpt lat="45.02454749167463" lon="9.546602373530298"><ele>76.0</ele><time>2026-04-20T14:21:21.999Z</time></trkpt><trkpt lat="45.0244722314767" lon="9.546468536112709"><ele>76.0</ele><time>2026-04-20T14:21:23.999Z</time></trkpt><trkpt lat="45.02443199923114" lon="9.546399875951423"><ele>76.0</ele><time>2026-04-20T14:21:24.999Z</time></trkpt><trkpt lat="45.024357890613786" lon="9.546275672336543"><ele>76.0</ele><time>2026-04-20T14:21:26.999Z</time></trkpt><trkpt lat="45.02427549815644" lon="9.546140345283513"><ele>76.0</ele><time>2026-04-20T14:21:28.999Z</time></trkpt><trkpt lat="45.02419881360812" lon="9.546017079105557"><ele>76.0</ele><time>2026-04-20T14:21:30.999Z</time></trkpt><trkpt lat="45.02411400480773" lon="9.545901764314562"><ele>76.0</ele><time>2026-04-20T14:21:32.999Z</time></trkpt><trkpt lat="45.02404639929261" lon="9.545777979653467"><ele>76.0</ele><time>2026-04-20T14:21:34.999Z</time></trkpt><trkpt lat="45.023962222706764" lon="9.545651768259303"><ele>76.0</ele><time>2026-04-20T14:21:36.999Z</time></trkpt><trkpt lat="45.023871901890715" lon="9.545523817580643"><ele>76.0</ele><time>2026-04-20T14:21:38.999Z</time></trkpt><trkpt lat="45.02378463015189" lon="9.545414240960309"><ele>76.0</ele><time>2026-04-20T14:21:40.999Z</time></trkpt><trkpt lat="45.02373727420754" lon="9.545343209429197"><ele>76.0</ele><time>2026-04-20T14:21:41.999Z</time></trkpt><trkpt lat="45.023661470206626" lon="9.545234533952522"><ele>76.0</ele><time>2026-04-20T14:21:43.999Z</time></trkpt><trkpt lat="45.023577121979486" lon="9.54510373457192"><ele>76.0</ele><time>2026-04-20T14:21:46Z</time></trkpt><trkpt lat="45.02353173588773" lon="9.545040358243144"><ele>76.0</ele><time>2026-04-20T14:21:47Z</time></trkpt><trkpt lat="45.02344706001983" lon="9.544917023734556"><ele>76.0</ele><time>2026-04-20T14:21:49Z</time></trkpt><trkpt lat="45.023358268499514" lon="9.544792158438794"><ele>76.0</ele><time>2026-04-20T14:21:51Z</time></trkpt><trkpt lat="45.02327588005608" lon="9.544677748514586"><ele>76.0</ele><time>2026-04-20T14:21:53Z</time></trkpt><trkpt lat="45.02323089672371" lon="9.544613579425764"><ele>76.0</ele><time>2026-04-20T14:21:54Z</time></trkpt><trkpt lat="45.0231545600544" lon="9.544494309556887"><ele>76.0</ele><time>2026-04-20T14:21:56Z</time></trkpt><trkpt lat="45.02306033272973" lon="9.544354169363256"><ele>76.0</ele><time>2026-04-20T14:21:58Z</time></trkpt><trkpt lat="45.022982821716866" lon="9.544233993302646"><ele>76.0</ele><time>2026-04-20T14:22:00Z</time></trkpt><trkpt lat="45.022940988128774" lon="9.544162581743219"><ele>76.0</ele><time>2026-04-20T14:22:01Z</time></trkpt><trkpt lat="45.02283869840469" lon="9.544090113813251"><ele>76.0</ele><time>2026-04-20T14:22:03Z</time></trkpt><trkpt lat="45.022773348712235" lon="9.544093151013632"><ele>76.0</ele><time>2026-04-20T14:22:04Z</time></trkpt><trkpt lat="45.02266616932564" lon="9.544154041773753"><ele>76.0</ele><time>2026-04-20T14:22:06Z</time></trkpt><trkpt lat="45.02255829326104" lon="9.544222958279752"><ele>76.0</ele><time>2026-04-20T14:22:08Z</time></trkpt><trkpt lat="45.02244746712937" lon="9.54428396831938"><ele>76.0</ele><time>2026-04-20T14:22:10Z</time></trkpt><trkpt lat="45.022385802746015" lon="9.54431483651089"><ele>76.0</ele><time>2026-04-20T14:22:11Z</time></trkpt><trkpt lat="45.02227336783247" lon="9.54437497615792"><ele>76.0</ele><time>2026-04-20T14:22:13Z</time></trkpt><trkpt lat="45.02216247527666" lon="9.544434789857862"><ele>76.0</ele><time>2026-04-20T14:22:15Z</time></trkpt><trkpt lat="45.02210058311793" lon="9.544476154139385"><ele>76.0</ele><time>2026-04-20T14:22:16Z</time></trkpt><trkpt lat="45.02203905388425" lon="9.544503756090851"><ele>76.0</ele><time>2026-04-20T14:22:17Z</time></trkpt><trkpt lat="45.021978624200145" lon="9.544530637799062"><ele>76.0</ele><time>2026-04-20T14:22:18Z</time></trkpt><trkpt lat="45.0219167155725" lon="9.544558564408224"><ele>76.0</ele><time>2026-04-20T14:22:19Z</time></trkpt><trkpt lat="45.021804050262745" lon="9.544623692963123"><ele>76.0</ele><time>2026-04-20T14:22:21Z</time></trkpt><trkpt lat="45.02174358522271" lon="9.54465778696858"><ele>76.0</ele><time>2026-04-20T14:22:22Z</time></trkpt><trkpt lat="45.02162874545798" lon="9.544720021870365"><ele>76.0</ele><time>2026-04-20T14:22:24Z</time></trkpt><trkpt lat="45.02156916800338" lon="9.544750117375607"><ele>76.0</ele><time>2026-04-20T14:22:25Z</time></trkpt><trkpt lat="45.02145131473438" lon="9.544813499150456"><ele>75.83333333333333</ele><time>2026-04-20T14:22:27Z</time></trkpt><trkpt lat="45.02133861632094" lon="9.544879058412995"><ele>75.66666666666666</ele><time>2026-04-20T14:22:29Z</time></trkpt><trkpt lat="45.02127777451724" lon="9.544913878313139"><ele>75.5</ele><time>2026-04-20T14:22:30Z</time></trkpt><trkpt lat="45.021157251578835" lon="9.544966922754996"><ele>75.33333333333333</ele><time>2026-04-20T14:22:32Z</time></trkpt><trkpt lat="45.0210965534979" lon="9.544994935172452"><ele>75.16666666666667</ele><time>2026-04-20T14:22:33Z</time></trkpt><trkpt lat="45.021037566433506" lon="9.545028479439834"><ele>75.0</ele><time>2026-04-20T14:22:34Z</time></trkpt><trkpt lat="45.02097889262575" lon="9.545061083225047"><ele>75.0</ele><time>2026-04-20T14:22:35Z</time></trkpt><trkpt lat="45.020919590756655" lon="9.545094952209864"><ele>75.0</ele><time>2026-04-20T14:22:36Z</time></trkpt><trkpt lat="45.02080332496267" lon="9.545149865620054"><ele>75.0</ele><time>2026-04-20T14:22:38Z</time></trkpt><trkpt lat="45.02074605553142" lon="9.545189072959268"><ele>75.0</ele><time>2026-04-20T14:22:39Z</time></trkpt><trkpt lat="45.02062868406553" lon="9.545246776479711"><ele>75.0</ele><time>2026-04-20T14:22:41Z</time></trkpt><trkpt lat="45.020512621694216" lon="9.545306783608881"><ele>74.75</ele><time>2026-04-20T14:22:43Z</time></trkpt><trkpt lat="45.020397127361946" lon="9.545372552677057"><ele>74.5</ele><time>2026-04-20T14:22:45Z</time></trkpt><trkpt lat="45.02028600315812" lon="9.545429017277758"><ele>74.25</ele><time>2026-04-20T14:22:47Z</time></trkpt><trkpt lat="45.02017093639972" lon="9.54549121251885"><ele>74.0</ele><time>2026-04-20T14:22:49Z</time></trkpt><trkpt lat="45.02005694383159" lon="9.545550352470064"><ele>74.25</ele><time>2026-04-20T14:22:51Z</time></trkpt><trkpt lat="45.019942718942225" lon="9.545604542551162"><ele>74.5</ele><time>2026-04-20T14:22:53Z</time></trkpt><trkpt lat="45.019827051740435" lon="9.545669831561193"><ele>74.75</ele><time>2026-04-20T14:22:55Z</time></trkpt><trkpt lat="45.0197140343052" lon="9.545728833071395"><ele>75.0</ele><time>2026-04-20T14:22:57Z</time></trkpt><trkpt lat="45.019598753810165" lon="9.545796761432033"><ele>75.0</ele><time>2026-04-20T14:22:59Z</time></trkpt><trkpt lat="45.01948171092378" lon="9.545852706379037"><ele>75.0</ele><time>2026-04-20T14:23:01Z</time></trkpt><trkpt lat="45.01936761282254" lon="9.545907896618257"><ele>75.0</ele><time>2026-04-20T14:23:03Z</time></trkpt><trkpt lat="45.01930924410694" lon="9.545942271683646"><ele>75.0</ele><time>2026-04-20T14:23:04Z</time></trkpt><trkpt lat="45.019245602472814" lon="9.54596876295876"><ele>75.0</ele><time>2026-04-20T14:23:04.999Z</time></trkpt><trkpt lat="45.01913467477713" lon="9.54604309351535"><ele>74.8</ele><time>2026-04-20T14:23:06.999Z</time></trkpt><trkpt lat="45.019019619437586" lon="9.546093895935241"><ele>74.6</ele><time>2026-04-20T14:23:08.999Z</time></trkpt><trkpt lat="45.01890428927703" lon="9.546146287392427"><ele>74.4</ele><time>2026-04-20T14:23:10.999Z</time></trkpt><trkpt lat="45.01878654156068" lon="9.546167595681114"><ele>74.2</ele><time>2026-04-20T14:23:12.999Z</time></trkpt><trkpt lat="45.018718983056566" lon="9.546170217756597"><ele>74.0</ele><time>2026-04-20T14:23:13.999Z</time></trkpt><trkpt lat="45.018606316052114" lon="9.546132689506083"><ele>74.0</ele><time>2026-04-20T14:23:15.999Z</time></trkpt><trkpt lat="45.01849765838917" lon="9.546070003584255"><ele>74.0</ele><time>2026-04-20T14:23:17.999Z</time></trkpt><trkpt lat="45.01838647221544" lon="9.54602241647271"><ele>74.0</ele><time>2026-04-20T14:23:19.999Z</time></trkpt><trkpt lat="45.01830306961772" lon="9.545991478741545"><ele>74.0</ele><time>2026-04-20T14:23:21.999Z</time></trkpt><trkpt lat="45.01819699289578" lon="9.545995734703755"><ele>74.0</ele><time>2026-04-20T14:23:23.999Z</time></trkpt><trkpt lat="45.01809386160766" lon="9.546015002718102"><ele>74.4</ele><time>2026-04-20T14:23:25.999Z</time></trkpt><trkpt lat="45.01799253739079" lon="9.546008354624284"><ele>74.80000000000001</ele><time>2026-04-20T14:23:27.999Z</time></trkpt><trkpt lat="45.017895907124576" lon="9.545931530011663"><ele>75.19999999999999</ele><time>2026-04-20T14:23:29.999Z</time></trkpt><trkpt lat="45.017811039012535" lon="9.545876725665833"><ele>75.6</ele><time>2026-04-20T14:23:31.999Z</time></trkpt><trkpt lat="45.0177015808698" lon="9.545860363565787"><ele>76.0</ele><time>2026-04-20T14:23:33.999Z</time></trkpt><trkpt lat="45.0176087546756" lon="9.545919696458823"><ele>76.0</ele><time>2026-04-20T14:23:35.999Z</time></trkpt><trkpt lat="45.01751429960946" lon="9.546026679627019"><ele>76.0</ele><time>2026-04-20T14:23:37.999Z</time></trkpt><trkpt lat="45.017444058654895" lon="9.54613734233633"><ele>76.0</ele><time>2026-04-20T14:23:39.999Z</time></trkpt><trkpt lat="45.01736631971058" lon="9.546244423281571"><ele>76.0</ele><time>2026-04-20T14:23:41.999Z</time></trkpt><trkpt lat="45.01729848819664" lon="9.54622845343678"><ele>76.0</ele><time>2026-04-20T14:23:42.999Z</time></trkpt><trkpt lat="45.01719196496875" lon="9.546251768213695"><ele>76.2</ele><time>2026-04-20T14:23:44.999Z</time></trkpt><trkpt lat="45.01708687428452" lon="9.546247207589268"><ele>76.39999999999999</ele><time>2026-04-20T14:23:46.999Z</time></trkpt><trkpt lat="45.01697573589262" lon="9.546252460997854"><ele>76.6</ele><time>2026-04-20T14:23:48.999Z</time></trkpt><trkpt lat="45.01686497499141" lon="9.546251331052542"><ele>76.8</ele><time>2026-04-20T14:23:51Z</time></trkpt><trkpt lat="45.0167527640469" lon="9.546255437101786"><ele>77.0</ele><time>2026-04-20T14:23:53Z</time></trkpt><trkpt lat="45.01663907885477" lon="9.546255676825453"><ele>77.0</ele><time>2026-04-20T14:23:55Z</time></trkpt><trkpt lat="45.016523311322736" lon="9.546259315735773"><ele>77.0</ele><time>2026-04-20T14:23:57Z</time></trkpt><trkpt lat="45.0164151592595" lon="9.546259088293818"><ele>77.0</ele><time>2026-04-20T14:23:59Z</time></trkpt><trkpt lat="45.01629789224384" lon="9.546269658607592"><ele>77.0</ele><time>2026-04-20T14:24:01Z</time></trkpt><trkpt lat="45.01619400992165" lon="9.546267464864187"><ele>77.0</ele><time>2026-04-20T14:24:03Z</time></trkpt><trkpt lat="45.01608242790039" lon="9.546284193235802"><ele>77.0</ele><time>2026-04-20T14:24:05Z</time></trkpt><trkpt lat="45.015976412548156" lon="9.546294691711484"><ele>77.0</ele><time>2026-04-20T14:24:07Z</time></trkpt><trkpt lat="45.015862206163234" lon="9.546291548114803"><ele>77.0</ele><time>2026-04-20T14:24:09Z</time></trkpt><trkpt lat="45.01575470153242" lon="9.546298715870089"><ele>77.0</ele><time>2026-04-20T14:24:11Z</time></trkpt><trkpt lat="45.015642700701605" lon="9.546304701014815"><ele>77.0</ele><time>2026-04-20T14:24:13Z</time></trkpt><trkpt lat="45.015528535440765" lon="9.546304246487285"><ele>76.75</ele><time>2026-04-20T14:24:15Z</time></trkpt><trkpt lat="45.0154084837114" lon="9.546309593537522"><ele>76.5</ele><time>2026-04-20T14:24:17Z</time></trkpt><trkpt lat="45.01529260827728" lon="9.546308485043225"><ele>76.25</ele><time>2026-04-20T14:24:19Z</time></trkpt><trkpt lat="45.01518013595664" lon="9.546309897413158"><ele>76.0</ele><time>2026-04-20T14:24:21Z</time></trkpt><trkpt lat="45.01506808676194" lon="9.546311159709814"><ele>76.25</ele><time>2026-04-20T14:24:23Z</time></trkpt><trkpt lat="45.01495400386029" lon="9.546314486341752"><ele>76.5</ele><time>2026-04-20T14:24:25Z</time></trkpt><trkpt lat="45.014844543045236" lon="9.546322197604603"><ele>76.75</ele><time>2026-04-20T14:24:27Z</time></trkpt><trkpt lat="45.01473022061065" lon="9.546329006437803"><ele>77.0</ele><time>2026-04-20T14:24:29Z</time></trkpt><trkpt lat="45.01461746388326" lon="9.546329970842189"><ele>77.0</ele><time>2026-04-20T14:24:31Z</time></trkpt><trkpt lat="45.01450192018414" lon="9.546338174294299"><ele>77.0</ele><time>2026-04-20T14:24:33Z</time></trkpt><trkpt lat="45.014395494086415" lon="9.546344059885092"><ele>77.0</ele><time>2026-04-20T14:24:35Z</time></trkpt><trkpt lat="45.01428763101398" lon="9.546346719542155"><ele>77.0</ele><time>2026-04-20T14:24:37Z</time></trkpt><trkpt lat="45.01418045635996" lon="9.546344775542469"><ele>77.0</ele><time>2026-04-20T14:24:39Z</time></trkpt><trkpt lat="45.014070922246084" lon="9.546352713260905"><ele>77.5</ele><time>2026-04-20T14:24:41Z</time></trkpt><trkpt lat="45.01395558236102" lon="9.546352826129096"><ele>78.0</ele><time>2026-04-20T14:24:43Z</time></trkpt><trkpt lat="45.01384763131858" lon="9.546354151706517"><ele>78.5</ele><time>2026-04-20T14:24:45Z</time></trkpt><trkpt lat="45.01373352636843" lon="9.546361785064512"><ele>79.0</ele><time>2026-04-20T14:24:47Z</time></trkpt><trkpt lat="45.01361916019056" lon="9.54636255527292"><ele>79.0</ele><time>2026-04-20T14:24:49Z</time></trkpt><trkpt lat="45.01349935823708" lon="9.54636845004119"><ele>79.0</ele><time>2026-04-20T14:24:51Z</time></trkpt><trkpt lat="45.01338641951548" lon="9.54636809736098"><ele>79.0</ele><time>2026-04-20T14:24:53Z</time></trkpt><trkpt lat="45.01326697416997" lon="9.546376089583116"><ele>79.0</ele><time>2026-04-20T14:24:55Z</time></trkpt><trkpt lat="45.01314973057284" lon="9.546373195773068"><ele>78.75</ele><time>2026-04-20T14:24:57Z</time></trkpt><trkpt lat="45.013036657722324" lon="9.546379930146236"><ele>78.5</ele><time>2026-04-20T14:24:59Z</time></trkpt><trkpt lat="45.01292263865976" lon="9.54638437044082"><ele>78.25</ele><time>2026-04-20T14:25:00.999Z</time></trkpt><trkpt lat="45.012806466023854" lon="9.5463873538088"><ele>78.0</ele><time>2026-04-20T14:25:02.999Z</time></trkpt><trkpt lat="45.01269173428419" lon="9.546389483982367"><ele>78.0</ele><time>2026-04-20T14:25:04.999Z</time></trkpt><trkpt lat="45.01257769412911" lon="9.54639204275039"><ele>78.0</ele><time>2026-04-20T14:25:06.999Z</time></trkpt><trkpt lat="45.01246839090847" lon="9.546394133104963"><ele>78.0</ele><time>2026-04-20T14:25:08.999Z</time></trkpt><trkpt lat="45.01236271099211" lon="9.546393749712342"><ele>78.0</ele><time>2026-04-20T14:25:10.999Z</time></trkpt><trkpt lat="45.012249610753834" lon="9.546390499721518"><ele>78.0</ele><time>2026-04-20T14:25:12.999Z</time></trkpt><trkpt lat="45.01213492497562" lon="9.546383792901523"><ele>77.75</ele><time>2026-04-20T14:25:14.999Z</time></trkpt><trkpt lat="45.01202028936855" lon="9.546377614173677"><ele>77.5</ele><time>2026-04-20T14:25:16.999Z</time></trkpt><trkpt lat="45.01190764798211" lon="9.546371527454882"><ele>77.25</ele><time>2026-04-20T14:25:18.999Z</time></trkpt><trkpt lat="45.011799223118324" lon="9.546359835432797"><ele>77.0</ele><time>2026-04-20T14:25:20.999Z</time></trkpt><trkpt lat="45.01168309577805" lon="9.546352652867347"><ele>77.5</ele><time>2026-04-20T14:25:22.999Z</time></trkpt><trkpt lat="45.01156822023825" lon="9.546343786456248"><ele>78.0</ele><time>2026-04-20T14:25:24.999Z</time></trkpt><trkpt lat="45.011452905220274" lon="9.546338355881025"><ele>78.5</ele><time>2026-04-20T14:25:26.999Z</time></trkpt><trkpt lat="45.01133366829684" lon="9.546329570279815"><ele>79.0</ele><time>2026-04-20T14:25:28.999Z</time></trkpt><trkpt lat="45.01121924286618" lon="9.546323828482883"><ele>79.0</ele><time>2026-04-20T14:25:30.999Z</time></trkpt><trkpt lat="45.01110075954552" lon="9.546318130744076"><ele>79.0</ele><time>2026-04-20T14:25:32.999Z</time></trkpt><trkpt lat="45.01099255403225" lon="9.546314361339968"><ele>79.0</ele><time>2026-04-20T14:25:34.999Z</time></trkpt><trkpt lat="45.0108813211625" lon="9.546299753402852"><ele>79.0</ele><time>2026-04-20T14:25:36.999Z</time></trkpt><trkpt lat="45.01077407028605" lon="9.54629123922189"><ele>79.0</ele><time>2026-04-20T14:25:38.999Z</time></trkpt><trkpt lat="45.01065784260091" lon="9.546284012024595"><ele>78.8</ele><time>2026-04-20T14:25:40.999Z</time></trkpt><trkpt lat="45.01055123851698" lon="9.546281564508043"><ele>78.60000000000001</ele><time>2026-04-20T14:25:42.999Z</time></trkpt><trkpt lat="45.010443736846675" lon="9.54626868815746"><ele>78.4</ele><time>2026-04-20T14:25:44.999Z</time></trkpt><trkpt lat="45.010333245671454" lon="9.546255731622558"><ele>78.2</ele><time>2026-04-20T14:25:46.999Z</time></trkpt><trkpt lat="45.010231230458146" lon="9.546250572477355"><ele>78.0</ele><time>2026-04-20T14:25:48.999Z</time></trkpt><trkpt lat="45.010120071255116" lon="9.546245374825537"><ele>78.0</ele><time>2026-04-20T14:25:50.999Z</time></trkpt><trkpt lat="45.01001351573204" lon="9.546240022191427"><ele>78.0</ele><time>2026-04-20T14:25:52.999Z</time></trkpt><trkpt lat="45.00990823001446" lon="9.54623462571563"><ele>78.0</ele><time>2026-04-20T14:25:54.999Z</time></trkpt><trkpt lat="45.00980529590698" lon="9.546221738376"><ele>78.0</ele><time>2026-04-20T14:25:57Z</time></trkpt><trkpt lat="45.00969454309427" lon="9.546218558164602"><ele>78.0</ele><time>2026-04-20T14:25:59Z</time></trkpt><trkpt lat="45.00959070050007" lon="9.546209142439604"><ele>78.6</ele><time>2026-04-20T14:26:01Z</time></trkpt><trkpt lat="45.009482466244116" lon="9.546199207480228"><ele>79.19999999999999</ele><time>2026-04-20T14:26:03Z</time></trkpt><trkpt lat="45.00937040423337" lon="9.54619004775973"><ele>79.8</ele><time>2026-04-20T14:26:05Z</time></trkpt><trkpt lat="45.009263681835584" lon="9.546187213747372"><ele>80.39999999999999</ele><time>2026-04-20T14:26:07Z</time></trkpt><trkpt lat="45.00915306684797" lon="9.546179001941704"><ele>81.0</ele><time>2026-04-20T14:26:09Z</time></trkpt><trkpt lat="45.00905289142251" lon="9.546175853976457"><ele>81.0</ele><time>2026-04-20T14:26:11Z</time></trkpt><trkpt lat="45.008948491632005" lon="9.546173204203058"><ele>81.0</ele><time>2026-04-20T14:26:13Z</time></trkpt><trkpt lat="45.00884643154486" lon="9.546166344090253"><ele>81.0</ele><time>2026-04-20T14:26:15Z</time></trkpt><trkpt lat="45.00874393397074" lon="9.546157298736265"><ele>81.0</ele><time>2026-04-20T14:26:17Z</time></trkpt><trkpt lat="45.008642899465045" lon="9.54614978136877"><ele>81.0</ele><time>2026-04-20T14:26:19Z</time></trkpt><trkpt lat="45.00853695276044" lon="9.546144722196054"><ele>81.0</ele><time>2026-04-20T14:26:21Z</time></trkpt><trkpt lat="45.0084307671239" lon="9.546139225440355"><ele>81.0</ele><time>2026-04-20T14:26:23Z</time></trkpt><trkpt lat="45.008326897423835" lon="9.546135976849131"><ele>81.0</ele><time>2026-04-20T14:26:25Z</time></trkpt><trkpt lat="45.00822375266863" lon="9.54612535091607"><ele>81.0</ele><time>2026-04-20T14:26:27Z</time></trkpt><trkpt lat="45.00812415713766" lon="9.546116837874015"><ele>81.0</ele><time>2026-04-20T14:26:29Z</time></trkpt><trkpt lat="45.00802457280055" lon="9.546116495537152"><ele>81.0</ele><time>2026-04-20T14:26:31Z</time></trkpt><trkpt lat="45.00792659673632" lon="9.546110797990407"><ele>81.0</ele><time>2026-04-20T14:26:33Z</time></trkpt><trkpt lat="45.00783410658535" lon="9.546102404285966"><ele>81.0</ele><time>2026-04-20T14:26:35Z</time></trkpt><trkpt lat="45.007737007442046" lon="9.546094762601806"><ele>81.0</ele><time>2026-04-20T14:26:37Z</time></trkpt><trkpt lat="45.007644437619895" lon="9.546087378910771"><ele>81.0</ele><time>2026-04-20T14:26:39Z</time></trkpt><trkpt lat="45.00754414937029" lon="9.546078669446924"><ele>81.0</ele><time>2026-04-20T14:26:41Z</time></trkpt><trkpt lat="45.00745919144218" lon="9.546077430621674"><ele>81.0</ele><time>2026-04-20T14:26:43Z</time></trkpt><trkpt lat="45.00734737247421" lon="9.546088514154528"><ele>81.0</ele><time>2026-04-20T14:26:46Z</time></trkpt><trkpt lat="45.00728044970526" lon="9.54608866540696"><ele>81.0</ele><time>2026-04-20T14:26:49Z</time></trkpt><trkpt lat="45.007168774449035" lon="9.546092281910694"><ele>81.0</ele><time>2026-04-20T14:26:50Z</time></trkpt><trkpt lat="45.00706044366803" lon="9.546081620808666"><ele>81.0</ele><time>2026-04-20T14:26:52Z</time></trkpt><trkpt lat="45.006959211455026" lon="9.546087424377427"><ele>81.0</ele><time>2026-04-20T14:26:54Z</time></trkpt><trkpt lat="45.00685605803789" lon="9.546084996391404"><ele>81.0</ele><time>2026-04-20T14:26:56Z</time></trkpt><trkpt lat="45.006752551599824" lon="9.546088681166706"><ele>81.0</ele><time>2026-04-20T14:26:58Z</time></trkpt><trkpt lat="45.00664888849294" lon="9.546082172035444"><ele>81.0</ele><time>2026-04-20T14:27:00Z</time></trkpt><trkpt lat="45.00653777581901" lon="9.546093473457345"><ele>81.6</ele><time>2026-04-20T14:27:02Z</time></trkpt><trkpt lat="45.0064418223541" lon="9.546089899535694"><ele>82.19999999999999</ele><time>2026-04-20T14:27:04Z</time></trkpt><trkpt lat="45.006348451421815" lon="9.546085281326818"><ele>82.80000000000001</ele><time>2026-04-20T14:27:06Z</time></trkpt><trkpt lat="45.00624048842637" lon="9.546085944531379"><ele>83.4</ele><time>2026-04-20T14:27:08Z</time></trkpt><trkpt lat="45.006137374459506" lon="9.546098811419421"><ele>84.0</ele><time>2026-04-20T14:27:10Z</time></trkpt><trkpt lat="45.006032961347294" lon="9.546094173347342"><ele>84.0</ele><time>2026-04-20T14:27:12Z</time></trkpt><trkpt lat="45.00589453211578" lon="9.546100518787856"><ele>84.0</ele><time>2026-04-20T14:27:15.999Z</time></trkpt><trkpt lat="45.00581910978718" lon="9.546103472059242"><ele>84.0</ele><time>2026-04-20T14:27:17.999Z</time></trkpt><trkpt lat="45.00574020833668" lon="9.546099917148995"><ele>84.0</ele><time>2026-04-20T14:27:18.999Z</time></trkpt><trkpt lat="45.00562874652592" lon="9.546104153184794"><ele>84.0</ele><time>2026-04-20T14:27:20.999Z</time></trkpt><trkpt lat="45.00551796918639" lon="9.546106421320882"><ele>83.6</ele><time>2026-04-20T14:27:22.999Z</time></trkpt><trkpt lat="45.00541065633352" lon="9.546102884394715"><ele>83.2</ele><time>2026-04-20T14:27:24.999Z</time></trkpt><trkpt lat="45.00530356636223" lon="9.54610179185169"><ele>82.8</ele><time>2026-04-20T14:27:26.999Z</time></trkpt><trkpt lat="45.00520845916183" lon="9.546106516641816"><ele>82.39999999999999</ele><time>2026-04-20T14:27:28.999Z</time></trkpt><trkpt lat="45.005116017319196" lon="9.54610315141465"><ele>82.0</ele><time>2026-04-20T14:27:30.999Z</time></trkpt><trkpt lat="45.005009385112146" lon="9.546101474501429"><ele>82.19999999999999</ele><time>2026-04-20T14:27:32.999Z</time></trkpt><trkpt lat="45.00490512282443" lon="9.546101747872463"><ele>82.4</ele><time>2026-04-20T14:27:34.999Z</time></trkpt><trkpt lat="45.004806932857015" lon="9.546109885011848"><ele>82.6</ele><time>2026-04-20T14:27:36.999Z</time></trkpt><trkpt lat="45.00470373127903" lon="9.546116873288733"><ele>82.80000000000001</ele><time>2026-04-20T14:27:38.999Z</time></trkpt><trkpt lat="45.0046107880404" lon="9.546119616298522"><ele>83.0</ele><time>2026-04-20T14:27:40.999Z</time></trkpt><trkpt lat="45.00450603358229" lon="9.5461154306317"><ele>83.0</ele><time>2026-04-20T14:27:42.999Z</time></trkpt><trkpt lat="45.00440178913357" lon="9.546117429248865"><ele>83.0</ele><time>2026-04-20T14:27:44.999Z</time></trkpt><trkpt lat="45.004298112749225" lon="9.546120882654721"><ele>83.0</ele><time>2026-04-20T14:27:46.999Z</time></trkpt><trkpt lat="45.00419060146248" lon="9.546122477722289"><ele>83.0</ele><time>2026-04-20T14:27:48.999Z</time></trkpt><trkpt lat="45.00408098449576" lon="9.546130748259177"><ele>83.0</ele><time>2026-04-20T14:27:50.999Z</time></trkpt><trkpt lat="45.00401411772453" lon="9.5461228418826"><ele>83.4</ele><time>2026-04-20T14:27:52.999Z</time></trkpt><trkpt lat="45.003937171540414" lon="9.546115238806511"><ele>83.80000000000001</ele><time>2026-04-20T14:27:54.999Z</time></trkpt><trkpt lat="45.00385999506082" lon="9.546104270163177"><ele>84.2</ele><time>2026-04-20T14:27:56.999Z</time></trkpt><trkpt lat="45.00372163259345" lon="9.546111245629145"><ele>84.6</ele><time>2026-04-20T14:27:59.999Z</time></trkpt><trkpt lat="45.00365859491786" lon="9.546108833592493"><ele>85.0</ele><time>2026-04-20T14:28:00.999Z</time></trkpt><trkpt lat="45.00353519445987" lon="9.546112809790548"><ele>85.0</ele><time>2026-04-20T14:28:03Z</time></trkpt><trkpt lat="45.00340499650683" lon="9.546123339605652"><ele>85.0</ele><time>2026-04-20T14:28:06Z</time></trkpt><trkpt lat="45.00326746909628" lon="9.546135469775367"><ele>85.0</ele><time>2026-04-20T14:28:08Z</time></trkpt><trkpt lat="45.00318028951262" lon="9.546139789327091"><ele>85.0</ele><time>2026-04-20T14:28:10Z</time></trkpt><trkpt lat="45.003092874494016" lon="9.54612650957376"><ele>85.0</ele><time>2026-04-20T14:28:12Z</time></trkpt><trkpt lat="45.003057528393214" lon="9.54600178770811"><ele>85.2</ele><time>2026-04-20T14:28:14Z</time></trkpt><trkpt lat="45.00302249639657" lon="9.545888642268237"><ele>85.4</ele><time>2026-04-20T14:28:16Z</time></trkpt><trkpt lat="45.00297481701608" lon="9.545761131487758"><ele>85.6</ele><time>2026-04-20T14:28:18Z</time></trkpt><trkpt lat="45.00292494744404" lon="9.545634773762307"><ele>85.8</ele><time>2026-04-20T14:28:20Z</time></trkpt><trkpt lat="45.00287931057995" lon="9.545517761828977"><ele>86.0</ele><time>2026-04-20T14:28:22Z</time></trkpt><trkpt lat="45.002838269467496" lon="9.545394259305569"><ele>86.16666666666667</ele><time>2026-04-20T14:28:24Z</time></trkpt><trkpt lat="45.0028018803922" lon="9.545283379931298"><ele>86.33333333333334</ele><time>2026-04-20T14:28:26Z</time></trkpt><trkpt lat="45.002756735920535" lon="9.545159487532885"><ele>86.5</ele><time>2026-04-20T14:28:28Z</time></trkpt><trkpt lat="45.002722865141244" lon="9.545060037575505"><ele>86.66666666666667</ele><time>2026-04-20T14:28:30Z</time></trkpt><trkpt lat="45.00268606888534" lon="9.544956076397934"><ele>86.83333333333333</ele><time>2026-04-20T14:28:32Z</time></trkpt><trkpt lat="45.002647210427966" lon="9.54484876761524"><ele>87.0</ele><time>2026-04-20T14:28:34Z</time></trkpt><trkpt lat="45.00260352825865" lon="9.544738884112364"><ele>87.0</ele><time>2026-04-20T14:28:36Z</time></trkpt><trkpt lat="45.002569120584845" lon="9.544640371047608"><ele>87.0</ele><time>2026-04-20T14:28:38Z</time></trkpt><trkpt lat="45.00253383254991" lon="9.54453187461432"><ele>87.0</ele><time>2026-04-20T14:28:40Z</time></trkpt><trkpt lat="45.00249959424445" lon="9.544420014444926"><ele>87.0</ele><time>2026-04-20T14:28:42Z</time></trkpt><trkpt lat="45.00245417093928" lon="9.54430404900178"><ele>87.0</ele><time>2026-04-20T14:28:44Z</time></trkpt><trkpt lat="45.00241093747535" lon="9.544187293715558"><ele>87.0</ele><time>2026-04-20T14:28:46Z</time></trkpt><trkpt lat="45.00237542146582" lon="9.544077166125563"><ele>87.0</ele><time>2026-04-20T14:28:48Z</time></trkpt><trkpt lat="45.00233565830716" lon="9.543968817601085"><ele>87.0</ele><time>2026-04-20T14:28:50Z</time></trkpt><trkpt lat="45.002300665101984" lon="9.543855287966041"><ele>87.0</ele><time>2026-04-20T14:28:52Z</time></trkpt><trkpt lat="45.00228539965767" lon="9.54375353566381"><ele>87.0</ele><time>2026-04-20T14:28:56Z</time></trkpt><trkpt lat="45.00223642525099" lon="9.543595027124258"><ele>87.0</ele><time>2026-04-20T14:28:58Z</time></trkpt><trkpt lat="45.00218076089657" lon="9.543458294267678"><ele>86.66666666666667</ele><time>2026-04-20T14:29:00Z</time></trkpt><trkpt lat="45.0021382268981" lon="9.543333056706901"><ele>86.33333333333333</ele><time>2026-04-20T14:29:02Z</time></trkpt><trkpt lat="45.00209762811342" lon="9.543217113867973"><ele>86.0</ele><time>2026-04-20T14:29:04Z</time></trkpt><trkpt lat="45.002071454329304" lon="9.543135523234314"><ele>85.66666666666666</ele><time>2026-04-20T14:29:06Z</time></trkpt><trkpt lat="45.00203145070085" lon="9.543046234878679"><ele>85.33333333333333</ele><time>2026-04-20T14:29:08Z</time></trkpt><trkpt lat="45.00200140661061" lon="9.542961527884742"><ele>85.0</ele><time>2026-04-20T14:29:09Z</time></trkpt><trkpt lat="45.00195458250013" lon="9.542829227539187"><ele>85.0</ele><time>2026-04-20T14:29:11Z</time></trkpt><trkpt lat="45.001917766176554" lon="9.542725106843287"><ele>85.0</ele><time>2026-04-20T14:29:12.999Z</time></trkpt><trkpt lat="45.00181035557606" lon="9.542452124076624"><ele>85.0</ele><time>2026-04-20T14:29:15.999Z</time></trkpt><trkpt lat="45.001776246746" lon="9.542337064576413"><ele>85.0</ele><time>2026-04-20T14:29:17.999Z</time></trkpt><trkpt lat="45.00173196502044" lon="9.542218741423259"><ele>85.0</ele><time>2026-04-20T14:29:19.999Z</time></trkpt><trkpt lat="45.001686258905785" lon="9.542098051965256"><ele>85.0</ele><time>2026-04-20T14:29:21.999Z</time></trkpt><trkpt lat="45.00164801342724" lon="9.54198282567051"><ele>85.0</ele><time>2026-04-20T14:29:23.999Z</time></trkpt><trkpt lat="45.00160435821764" lon="9.54186638234253"><ele>85.0</ele><time>2026-04-20T14:29:25.999Z</time></trkpt><trkpt lat="45.00155920454525" lon="9.541748883561468"><ele>85.0</ele><time>2026-04-20T14:29:27.999Z</time></trkpt><trkpt lat="45.00152090456033" lon="9.541626166758089"><ele>85.6</ele><time>2026-04-20T14:29:29.999Z</time></trkpt><trkpt lat="45.001474269365616" lon="9.541517082948928"><ele>86.2</ele><time>2026-04-20T14:29:31.999Z</time></trkpt><trkpt lat="45.00143295494366" lon="9.541408165724123"><ele>86.80000000000001</ele><time>2026-04-20T14:29:33.999Z</time></trkpt><trkpt lat="45.00140251367728" lon="9.541281064611402"><ele>87.4</ele><time>2026-04-20T14:29:35.999Z</time></trkpt><trkpt lat="45.00135723853228" lon="9.541160288335197"><ele>88.0</ele><time>2026-04-20T14:29:37.999Z</time></trkpt><trkpt lat="45.001314505047226" lon="9.541033869317038"><ele>88.0</ele><time>2026-04-20T14:29:39.999Z</time></trkpt><trkpt lat="45.00127036873863" lon="9.540913326164766"><ele>88.0</ele><time>2026-04-20T14:29:41.999Z</time></trkpt><trkpt lat="45.00122248296346" lon="9.540795256495533"><ele>88.0</ele><time>2026-04-20T14:29:43.999Z</time></trkpt><trkpt lat="45.001192253641044" lon="9.54067289408755"><ele>88.0</ele><time>2026-04-20T14:29:45.999Z</time></trkpt><trkpt lat="45.00116629554486" lon="9.540576699509549"><ele>88.0</ele><time>2026-04-20T14:29:47.999Z</time></trkpt><trkpt lat="45.00113087389418" lon="9.540474055093396"><ele>88.0</ele><time>2026-04-20T14:29:49.999Z</time></trkpt><trkpt lat="45.00111121420659" lon="9.540370589396622"><ele>88.2</ele><time>2026-04-20T14:29:51.999Z</time></trkpt><trkpt lat="45.00102756681133" lon="9.54020410389652"><ele>88.4</ele><time>2026-04-20T14:29:53.999Z</time></trkpt><trkpt lat="45.00099463837285" lon="9.540086695911437"><ele>88.60000000000001</ele><time>2026-04-20T14:29:55.999Z</time></trkpt><trkpt lat="45.000951419769486" lon="9.539964603335607"><ele>88.80000000000001</ele><time>2026-04-20T14:29:57.999Z</time></trkpt><trkpt lat="45.000900217509184" lon="9.53985444720208"><ele>89.0</ele><time>2026-04-20T14:29:59.999Z</time></trkpt><trkpt lat="45.000881148644964" lon="9.539728506689146"><ele>89.0</ele><time>2026-04-20T14:30:01.999Z</time></trkpt><trkpt lat="45.0008270370997" lon="9.539601014775831"><ele>89.0</ele><time>2026-04-20T14:30:03.999Z</time></trkpt><trkpt lat="45.00077813933335" lon="9.539480107750217"><ele>89.0</ele><time>2026-04-20T14:30:05.999Z</time></trkpt><trkpt lat="45.00073483822528" lon="9.539346356260413"><ele>89.0</ele><time>2026-04-20T14:30:07.999Z</time></trkpt><trkpt lat="45.00068885239454" lon="9.539210884117795"><ele>89.0</ele><time>2026-04-20T14:30:09.999Z</time></trkpt><trkpt lat="45.00064102400007" lon="9.539076541938638"><ele>89.2</ele><time>2026-04-20T14:30:11.999Z</time></trkpt><trkpt lat="45.000587867967596" lon="9.538945935685609"><ele>89.4</ele><time>2026-04-20T14:30:13.999Z</time></trkpt><trkpt lat="45.00054329242524" lon="9.538808625284656"><ele>89.6</ele><time>2026-04-20T14:30:15.999Z</time></trkpt><trkpt lat="45.00049698782207" lon="9.5386754812755"><ele>89.8</ele><time>2026-04-20T14:30:17.999Z</time></trkpt><trkpt lat="45.000451697757576" lon="9.538541246343765"><ele>90.0</ele><time>2026-04-20T14:30:19.999Z</time></trkpt><trkpt lat="45.00040914711257" lon="9.538392961755443"><ele>90.0</ele><time>2026-04-20T14:30:22.999Z</time></trkpt><trkpt lat="45.00037885532915" lon="9.538274919238104"><ele>90.0</ele><time>2026-04-20T14:30:24.999Z</time></trkpt><trkpt lat="45.000346668177855" lon="9.538182224771722"><ele>90.0</ele><time>2026-04-20T14:30:26.999Z</time></trkpt><trkpt lat="45.00031791773759" lon="9.538093551441952"><ele>90.0</ele><time>2026-04-20T14:30:27.999Z</time></trkpt><trkpt lat="45.000284652096575" lon="9.537998074721996"><ele>90.0</ele><time>2026-04-20T14:30:29.999Z</time></trkpt><trkpt lat="45.00024139262015" lon="9.537892821617799"><ele>90.0</ele><time>2026-04-20T14:30:31.999Z</time></trkpt><trkpt lat="45.000218643813135" lon="9.537767183548844"><ele>90.0</ele><time>2026-04-20T14:30:33.999Z</time></trkpt><trkpt lat="45.00017841303976" lon="9.53764770996853"><ele>90.0</ele><time>2026-04-20T14:30:35.999Z</time></trkpt><trkpt lat="45.00014881058513" lon="9.537518424887368"><ele>90.0</ele><time>2026-04-20T14:30:37.999Z</time></trkpt><trkpt lat="45.000111651281316" lon="9.537378588419354"><ele>90.0</ele><time>2026-04-20T14:30:39.999Z</time></trkpt><trkpt lat="45.00007339091699" lon="9.537242384980326"><ele>90.0</ele><time>2026-04-20T14:30:41.999Z</time></trkpt><trkpt lat="45.00004353851031" lon="9.537129992319809"><ele>90.0</ele><time>2026-04-20T14:30:44.999Z</time></trkpt><trkpt lat="44.99996478328915" lon="9.536972690866815"><ele>90.0</ele><time>2026-04-20T14:30:45.999Z</time></trkpt><trkpt lat="44.99991479146585" lon="9.536816919953985"><ele>90.0</ele><time>2026-04-20T14:30:47.999Z</time></trkpt><trkpt lat="44.99990066632198" lon="9.536667676602725"><ele>90.0</ele><time>2026-04-20T14:30:49.999Z</time></trkpt><trkpt lat="44.99986619317708" lon="9.53651393835033"><ele>90.0</ele><time>2026-04-20T14:30:51.999Z</time></trkpt><trkpt lat="44.99982399263553" lon="9.536358598620314"><ele>90.0</ele><time>2026-04-20T14:30:53.999Z</time></trkpt><trkpt lat="44.99977739604555" lon="9.53620679768568"><ele>90.0</ele><time>2026-04-20T14:30:55.999Z</time></trkpt><trkpt lat="44.99974102400227" lon="9.536041122787777"><ele>90.0</ele><time>2026-04-20T14:30:57.999Z</time></trkpt><trkpt lat="44.99970595473415" lon="9.535963775781228"><ele>90.0</ele><time>2026-04-20T14:30:58.999Z</time></trkpt><trkpt lat="44.999680095924795" lon="9.535882577569248"><ele>89.8</ele><time>2026-04-20T14:30:59.999Z</time></trkpt><trkpt lat="44.999644415934114" lon="9.535728452150023"><ele>89.6</ele><time>2026-04-20T14:31:01.999Z</time></trkpt><trkpt lat="44.999594890879635" lon="9.535565225198091"><ele>89.4</ele><time>2026-04-20T14:31:03.999Z</time></trkpt><trkpt lat="44.9995278036363" lon="9.535416509963344"><ele>89.2</ele><time>2026-04-20T14:31:05.999Z</time></trkpt><trkpt lat="44.99951453638018" lon="9.535329412508716"><ele>89.0</ele><time>2026-04-20T14:31:06.999Z</time></trkpt><trkpt lat="44.99944135787893" lon="9.535184649863227"><ele>89.0</ele><time>2026-04-20T14:31:08.999Z</time></trkpt><trkpt lat="44.999412427928696" lon="9.535091332780326"><ele>89.0</ele><time>2026-04-20T14:31:09.999Z</time></trkpt><trkpt lat="44.999349213370174" lon="9.534947934342414"><ele>89.0</ele><time>2026-04-20T14:31:11.999Z</time></trkpt><trkpt lat="44.99928622799653" lon="9.534798010702456"><ele>89.0</ele><time>2026-04-20T14:31:13.999Z</time></trkpt><trkpt lat="44.99921298871952" lon="9.534678569108522"><ele>89.0</ele><time>2026-04-20T14:31:15.999Z</time></trkpt><trkpt lat="44.999182093150246" lon="9.53459824041925"><ele>89.4</ele><time>2026-04-20T14:31:16.999Z</time></trkpt><trkpt lat="44.99911729579169" lon="9.534467220719675"><ele>89.80000000000001</ele><time>2026-04-20T14:31:18.999Z</time></trkpt><trkpt lat="44.99904824229543" lon="9.534344672368197"><ele>90.19999999999999</ele><time>2026-04-20T14:31:20.999Z</time></trkpt><trkpt lat="44.99897012651507" lon="9.534217530963423"><ele>90.6</ele><time>2026-04-20T14:31:22.999Z</time></trkpt><trkpt lat="44.998908216792344" lon="9.53409722418822"><ele>91.0</ele><time>2026-04-20T14:31:24.999Z</time></trkpt><trkpt lat="44.99882877869997" lon="9.533970454621125"><ele>91.0</ele><time>2026-04-20T14:31:26.999Z</time></trkpt><trkpt lat="44.99875498641625" lon="9.533849368979997"><ele>91.0</ele><time>2026-04-20T14:31:28.999Z</time></trkpt><trkpt lat="44.998687181125135" lon="9.53370987258131"><ele>91.0</ele><time>2026-04-20T14:31:30.999Z</time></trkpt><trkpt lat="44.998618220598495" lon="9.533577474657829"><ele>91.0</ele><time>2026-04-20T14:31:32.999Z</time></trkpt><trkpt lat="44.99854371020357" lon="9.533444881519845"><ele>91.0</ele><time>2026-04-20T14:31:34.999Z</time></trkpt><trkpt lat="44.99848190050504" lon="9.533295986302127"><ele>91.0</ele><time>2026-04-20T14:31:36.999Z</time></trkpt><trkpt lat="44.99843653444208" lon="9.533137422037191"><ele>91.0</ele><time>2026-04-20T14:31:38.999Z</time></trkpt><trkpt lat="44.998418800117996" lon="9.532981169286753"><ele>91.0</ele><time>2026-04-20T14:31:40.999Z</time></trkpt><trkpt lat="44.99841746102949" lon="9.532889134448219"><ele>91.0</ele><time>2026-04-20T14:31:41.999Z</time></trkpt><trkpt lat="44.99840922811337" lon="9.532726412797953"><ele>91.0</ele><time>2026-04-20T14:31:43.999Z</time></trkpt><trkpt lat="44.998412742826716" lon="9.532634163395281"><ele>91.0</ele><time>2026-04-20T14:31:44.999Z</time></trkpt><trkpt lat="44.99842199839945" lon="9.532473178396856"><ele>91.0</ele><time>2026-04-20T14:31:46.999Z</time></trkpt><trkpt lat="44.99841814623203" lon="9.532369730471563"><ele>91.0</ele><time>2026-04-20T14:31:47.999Z</time></trkpt><trkpt lat="44.9984238204975" lon="9.532223617403925"><ele>91.0</ele><time>2026-04-20T14:31:49.999Z</time></trkpt><trkpt lat="44.9984334182159" lon="9.53207901163101"><ele>91.0</ele><time>2026-04-20T14:31:51.999Z</time></trkpt><trkpt lat="44.998419761410375" lon="9.53191496468722"><ele>91.0</ele><time>2026-04-20T14:31:53.999Z</time></trkpt><trkpt lat="44.99840099550829" lon="9.531769388350334"><ele>91.0</ele><time>2026-04-20T14:31:55.999Z</time></trkpt><trkpt lat="44.99833057957024" lon="9.531638313700151"><ele>91.0</ele><time>2026-04-20T14:31:57.999Z</time></trkpt><trkpt lat="44.99824756623178" lon="9.531541749991213"><ele>91.0</ele><time>2026-04-20T14:31:59.999Z</time></trkpt><trkpt lat="44.998173777346764" lon="9.531419105948478"><ele>91.0</ele><time>2026-04-20T14:32:01.999Z</time></trkpt><trkpt lat="44.9980931274581" lon="9.531302296213019"><ele>91.0</ele><time>2026-04-20T14:32:03.999Z</time></trkpt><trkpt lat="44.99802140691836" lon="9.53118936885681"><ele>91.0</ele><time>2026-04-20T14:32:05.999Z</time></trkpt><trkpt lat="44.997939453780695" lon="9.531075936588577"><ele>91.0</ele><time>2026-04-20T14:32:07.999Z</time></trkpt><trkpt lat="44.997863572925645" lon="9.530974275615696"><ele>91.0</ele><time>2026-04-20T14:32:09.999Z</time></trkpt><trkpt lat="44.99782445131808" lon="9.530848553561867"><ele>91.0</ele><time>2026-04-20T14:32:11.999Z</time></trkpt><trkpt lat="44.99774773909486" lon="9.530723008702273"><ele>91.0</ele><time>2026-04-20T14:32:13.999Z</time></trkpt><trkpt lat="44.997716705475966" lon="9.530639695050782"><ele>91.0</ele><time>2026-04-20T14:32:16Z</time></trkpt><trkpt lat="44.99766831926321" lon="9.530549434553585"><ele>91.0</ele><time>2026-04-20T14:32:18Z</time></trkpt><trkpt lat="44.99759934066594" lon="9.530456271571886"><ele>91.0</ele><time>2026-04-20T14:32:20Z</time></trkpt><trkpt lat="44.99754596347113" lon="9.530357398416866"><ele>91.0</ele><time>2026-04-20T14:32:22Z</time></trkpt><trkpt lat="44.99740609293036" lon="9.530128331967566"><ele>91.0</ele><time>2026-04-20T14:32:24Z</time></trkpt><trkpt lat="44.99734851116206" lon="9.530015062456794"><ele>91.0</ele><time>2026-04-20T14:32:26Z</time></trkpt><trkpt lat="44.997288866556104" lon="9.5298827603026"><ele>91.0</ele><time>2026-04-20T14:32:28Z</time></trkpt><trkpt lat="44.997237067380134" lon="9.529816857417547"><ele>91.0</ele><time>2026-04-20T14:32:29Z</time></trkpt><trkpt lat="44.99719601471737" lon="9.529706573841665"><ele>91.0</ele><time>2026-04-20T14:32:31Z</time></trkpt><trkpt lat="44.99712314416167" lon="9.529591904383539"><ele>90.8</ele><time>2026-04-20T14:32:33Z</time></trkpt><trkpt lat="44.99705816378552" lon="9.529480250631552"><ele>90.6</ele><time>2026-04-20T14:32:35Z</time></trkpt><trkpt lat="44.99699378032425" lon="9.529363970148816"><ele>90.4</ele><time>2026-04-20T14:32:37Z</time></trkpt><trkpt lat="44.99693311392429" lon="9.529246624303484"><ele>90.2</ele><time>2026-04-20T14:32:39Z</time></trkpt><trkpt lat="44.99690374180956" lon="9.529147438824317"><ele>90.0</ele><time>2026-04-20T14:32:41Z</time></trkpt><trkpt lat="44.99684214326085" lon="9.529029580665716"><ele>90.0</ele><time>2026-04-20T14:32:43Z</time></trkpt><trkpt lat="44.99677789849264" lon="9.528920428542168"><ele>90.0</ele><time>2026-04-20T14:32:45Z</time></trkpt><trkpt lat="44.99673332280854" lon="9.528788357998716"><ele>90.0</ele><time>2026-04-20T14:32:49Z</time></trkpt><trkpt lat="44.99659805351227" lon="9.528582963932024"><ele>90.0</ele><time>2026-04-20T14:32:51Z</time></trkpt><trkpt lat="44.99654977574454" lon="9.528475158483966"><ele>90.0</ele><time>2026-04-20T14:32:53Z</time></trkpt><trkpt lat="44.996498891565" lon="9.528365996207057"><ele>90.0</ele><time>2026-04-20T14:32:55Z</time></trkpt><trkpt lat="44.99644385385535" lon="9.528259038502974"><ele>90.0</ele><time>2026-04-20T14:32:57Z</time></trkpt><trkpt lat="44.99639415734758" lon="9.528148032523386"><ele>90.0</ele><time>2026-04-20T14:32:59Z</time></trkpt><trkpt lat="44.996344908369075" lon="9.528035584208899"><ele>90.0</ele><time>2026-04-20T14:33:01Z</time></trkpt><trkpt lat="44.99629450867739" lon="9.527921209079718"><ele>90.0</ele><time>2026-04-20T14:33:03Z</time></trkpt><trkpt lat="44.99622633059944" lon="9.527818789746659"><ele>90.0</ele><time>2026-04-20T14:33:05Z</time></trkpt><trkpt lat="44.996169970056386" lon="9.527702296766828"><ele>90.0</ele><time>2026-04-20T14:33:07Z</time></trkpt><trkpt lat="44.99611577257806" lon="9.527593727262648"><ele>90.0</ele><time>2026-04-20T14:33:09Z</time></trkpt><trkpt lat="44.99604830299697" lon="9.527476377319717"><ele>90.0</ele><time>2026-04-20T14:33:11Z</time></trkpt><trkpt lat="44.99599735215914" lon="9.527364168827189"><ele>90.0</ele><time>2026-04-20T14:33:13Z</time></trkpt><trkpt lat="44.99594588563154" lon="9.527246615210336"><ele>90.0</ele><time>2026-04-20T14:33:15Z</time></trkpt><trkpt lat="44.99589516109818" lon="9.52713289010551"><ele>90.0</ele><time>2026-04-20T14:33:17Z</time></trkpt><trkpt lat="44.99583811394314" lon="9.52701988272991"><ele>90.0</ele><time>2026-04-20T14:33:19Z</time></trkpt><trkpt lat="44.99578590795377" lon="9.526903846388219"><ele>90.0</ele><time>2026-04-20T14:33:21Z</time></trkpt><trkpt lat="44.995721336043246" lon="9.526821795603103"><ele>90.4</ele><time>2026-04-20T14:33:23Z</time></trkpt><trkpt lat="44.99563396968269" lon="9.526764400954672"><ele>90.8</ele><time>2026-04-20T14:33:25Z</time></trkpt><trkpt lat="44.99554498720566" lon="9.526741677049445"><ele>91.19999999999999</ele><time>2026-04-20T14:33:27Z</time></trkpt><trkpt lat="44.995447202297484" lon="9.526737269669372"><ele>91.6</ele><time>2026-04-20T14:33:29Z</time></trkpt><trkpt lat="44.99534745375789" lon="9.526739583564007"><ele>92.0</ele><time>2026-04-20T14:33:31Z</time></trkpt><trkpt lat="44.995263503478" lon="9.52675550938095"><ele>92.0</ele><time>2026-04-20T14:33:35Z</time></trkpt><trkpt lat="44.99514059088047" lon="9.526766966655092"><ele>92.0</ele><time>2026-04-20T14:33:38Z</time></trkpt><trkpt lat="44.99504009684318" lon="9.52676490249526"><ele>92.0</ele><time>2026-04-20T14:33:39.999Z</time></trkpt><trkpt lat="44.99497107018072" lon="9.52676385471349"><ele>92.0</ele><time>2026-04-20T14:33:40.999Z</time></trkpt><trkpt lat="44.994868591149995" lon="9.526760379897418"><ele>92.0</ele><time>2026-04-20T14:33:42.999Z</time></trkpt><trkpt lat="44.99476168271735" lon="9.526755224090186"><ele>92.19999999999999</ele><time>2026-04-20T14:33:44.999Z</time></trkpt><trkpt lat="44.99465327831879" lon="9.52675981608153"><ele>92.4</ele><time>2026-04-20T14:33:46.999Z</time></trkpt><trkpt lat="44.99454316551341" lon="9.526748104116358"><ele>92.6</ele><time>2026-04-20T14:33:48.999Z</time></trkpt><trkpt lat="44.99443958126302" lon="9.526730901786198"><ele>92.80000000000001</ele><time>2026-04-20T14:33:50.999Z</time></trkpt><trkpt lat="44.99433615743387" lon="9.526711812942501"><ele>93.0</ele><time>2026-04-20T14:33:52.999Z</time></trkpt><trkpt lat="44.994213291659584" lon="9.52669362085093"><ele>93.5</ele><time>2026-04-20T14:33:55.999Z</time></trkpt><trkpt lat="44.99409091420816" lon="9.526688944615627"><ele>94.0</ele><time>2026-04-20T14:33:57.999Z</time></trkpt><trkpt lat="44.9939852434506" lon="9.52667321709171"><ele>94.5</ele><time>2026-04-20T14:33:59.999Z</time></trkpt><trkpt lat="44.993881927723244" lon="9.526659101040844"><ele>95.0</ele><time>2026-04-20T14:34:01.999Z</time></trkpt><trkpt lat="44.993765815692555" lon="9.526634211870109"><ele>95.0</ele><time>2026-04-20T14:34:05.999Z</time></trkpt><trkpt lat="44.993667663960444" lon="9.526605610541614"><ele>95.0</ele><time>2026-04-20T14:34:07.999Z</time></trkpt><trkpt lat="44.9935995433065" lon="9.526583451060501"><ele>95.0</ele><time>2026-04-20T14:34:08.999Z</time></trkpt><trkpt lat="44.99350161491659" lon="9.526560035365218"><ele>95.0</ele><time>2026-04-20T14:34:10.999Z</time></trkpt><trkpt lat="44.99339889604493" lon="9.526524912980346"><ele>95.0</ele><time>2026-04-20T14:34:13.999Z</time></trkpt><trkpt lat="44.99315748788337" lon="9.526480217589745"><ele>95.2</ele><time>2026-04-20T14:34:16.999Z</time></trkpt><trkpt lat="44.99306693491378" lon="9.526452232789008"><ele>95.4</ele><time>2026-04-20T14:34:18.999Z</time></trkpt><trkpt lat="44.99297468561239" lon="9.526424902880656"><ele>95.6</ele><time>2026-04-20T14:34:21Z</time></trkpt><trkpt lat="44.99287634414766" lon="9.526396267312952"><ele>95.8</ele><time>2026-04-20T14:34:23Z</time></trkpt><trkpt lat="44.9927759272421" lon="9.526342866714467"><ele>96.0</ele><time>2026-04-20T14:34:25Z</time></trkpt><trkpt lat="44.99268284122947" lon="9.526330606930845"><ele>96.0</ele><time>2026-04-20T14:34:27Z</time></trkpt><trkpt lat="44.99258963300793" lon="9.526274343964898"><ele>96.0</ele><time>2026-04-20T14:34:29Z</time></trkpt><trkpt lat="44.99248714501531" lon="9.526263859696497"><ele>96.0</ele><time>2026-04-20T14:34:31Z</time></trkpt><trkpt lat="44.99240764815642" lon="9.526225608657676"><ele>96.0</ele><time>2026-04-20T14:34:33Z</time></trkpt><trkpt lat="44.9922984490059" lon="9.526196685679096"><ele>96.0</ele><time>2026-04-20T14:34:35Z</time></trkpt><trkpt lat="44.99219614762857" lon="9.526136802814387"><ele>95.4</ele><time>2026-04-20T14:34:37Z</time></trkpt><trkpt lat="44.992129589766456" lon="9.526081849875649"><ele>94.8</ele><time>2026-04-20T14:34:39Z</time></trkpt><trkpt lat="44.9920352788102" lon="9.52598445062048"><ele>94.2</ele><time>2026-04-20T14:34:41Z</time></trkpt><trkpt lat="44.99196939175318" lon="9.525901501844926"><ele>93.60000000000001</ele><time>2026-04-20T14:34:43Z</time></trkpt><trkpt lat="44.99189425436641" lon="9.525823786270454"><ele>93.0</ele><time>2026-04-20T14:34:45Z</time></trkpt><trkpt lat="44.99182613679548" lon="9.52572867766589"><ele>93.0</ele><time>2026-04-20T14:34:47Z</time></trkpt><trkpt lat="44.99177523210127" lon="9.52565141052732"><ele>93.0</ele><time>2026-04-20T14:34:49Z</time></trkpt><trkpt lat="44.99171259217076" lon="9.525561308027894"><ele>93.0</ele><time>2026-04-20T14:34:51Z</time></trkpt><trkpt lat="44.99165121377311" lon="9.525470427873548"><ele>93.0</ele><time>2026-04-20T14:34:53Z</time></trkpt><trkpt lat="44.99158389533132" lon="9.525393614256839"><ele>93.0</ele><time>2026-04-20T14:34:55Z</time></trkpt><trkpt lat="44.99152102197401" lon="9.525297119682179"><ele>93.0</ele><time>2026-04-20T14:34:57Z</time></trkpt><trkpt lat="44.99146261007172" lon="9.52521594762577"><ele>93.60000000000001</ele><time>2026-04-20T14:34:59Z</time></trkpt><trkpt lat="44.99138126005541" lon="9.525119265085884"><ele>94.2</ele><time>2026-04-20T14:35:01Z</time></trkpt><trkpt lat="44.99131236588377" lon="9.525020034237714"><ele>94.8</ele><time>2026-04-20T14:35:03Z</time></trkpt><trkpt lat="44.99124020163681" lon="9.524927518072678"><ele>95.4</ele><time>2026-04-20T14:35:05Z</time></trkpt><trkpt lat="44.9911653894284" lon="9.524823822024732"><ele>96.0</ele><time>2026-04-20T14:35:07Z</time></trkpt><trkpt lat="44.9910912522085" lon="9.524730469826785"><ele>96.0</ele><time>2026-04-20T14:35:09Z</time></trkpt><trkpt lat="44.99103581027332" lon="9.524631975227342"><ele>96.0</ele><time>2026-04-20T14:35:11Z</time></trkpt><trkpt lat="44.99095923503269" lon="9.524533026895591"><ele>96.0</ele><time>2026-04-20T14:35:13Z</time></trkpt><trkpt lat="44.99089778923842" lon="9.524450627630408"><ele>96.0</ele><time>2026-04-20T14:35:15Z</time></trkpt><trkpt lat="44.99082847174003" lon="9.524357807662165"><ele>96.0</ele><time>2026-04-20T14:35:17Z</time></trkpt><trkpt lat="44.990773014665855" lon="9.524269596537337"><ele>96.0</ele><time>2026-04-20T14:35:19Z</time></trkpt><trkpt lat="44.990707281914844" lon="9.524174086735231"><ele>96.0</ele><time>2026-04-20T14:35:22Z</time></trkpt><trkpt lat="44.990629278947644" lon="9.524081794507577"><ele>96.0</ele><time>2026-04-20T14:35:25Z</time></trkpt><trkpt lat="44.99055217181662" lon="9.523970241360349"><ele>96.0</ele><time>2026-04-20T14:35:27Z</time></trkpt><trkpt lat="44.9904743780065" lon="9.523866871346176"><ele>96.0</ele><time>2026-04-20T14:35:29Z</time></trkpt><trkpt lat="44.990418762573384" lon="9.523770615388448"><ele>96.33333333333333</ele><time>2026-04-20T14:35:31Z</time></trkpt><trkpt lat="44.99035739241945" lon="9.523687942206276"><ele>96.66666666666666</ele><time>2026-04-20T14:35:33Z</time></trkpt><trkpt lat="44.990282220631954" lon="9.523609065644482"><ele>97.0</ele><time>2026-04-20T14:35:35Z</time></trkpt><trkpt lat="44.99020232192926" lon="9.523548525424337"><ele>97.33333333333333</ele><time>2026-04-20T14:35:37Z</time></trkpt><trkpt lat="44.99014640436828" lon="9.523499574328055"><ele>97.66666666666666</ele><time>2026-04-20T14:35:38Z</time></trkpt><trkpt lat="44.99008666631844" lon="9.523461933553353"><ele>98.0</ele><time>2026-04-20T14:35:39Z</time></trkpt><trkpt lat="44.99001048784121" lon="9.523444342727963"><ele>97.99999999999999</ele><time>2026-04-20T14:35:40Z</time></trkpt><trkpt lat="44.98994697051983" lon="9.52341715266728"><ele>98.0</ele><time>2026-04-20T14:35:41Z</time></trkpt><trkpt lat="44.989828860730285" lon="9.523350374281987"><ele>98.0</ele><time>2026-04-20T14:35:43Z</time></trkpt><trkpt lat="44.98976418638219" lon="9.523327997906947"><ele>98.0</ele><time>2026-04-20T14:35:44Z</time></trkpt><trkpt lat="44.98970016395576" lon="9.523306545264386"><ele>97.99999999999999</ele><time>2026-04-20T14:35:45Z</time></trkpt><trkpt lat="44.989638167934345" lon="9.523283158733328"><ele>98.0</ele><time>2026-04-20T14:35:46Z</time></trkpt><trkpt lat="44.98957863270756" lon="9.523238488508197"><ele>98.0</ele><time>2026-04-20T14:35:47Z</time></trkpt><trkpt lat="44.98951683359282" lon="9.52321351265306"><ele>98.0</ele><time>2026-04-20T14:35:48Z</time></trkpt><trkpt lat="44.98945328467037" lon="9.523187829618125"><ele>98.0</ele><time>2026-04-20T14:35:49Z</time></trkpt><trkpt lat="44.98938346675937" lon="9.52317621979366"><ele>98.0</ele><time>2026-04-20T14:35:50Z</time></trkpt><trkpt lat="44.98931143700296" lon="9.5231334280876"><ele>98.0</ele><time>2026-04-20T14:35:51Z</time></trkpt><trkpt lat="44.98924494698137" lon="9.52310354680449"><ele>98.0</ele><time>2026-04-20T14:35:52Z</time></trkpt><trkpt lat="44.98917799218849" lon="9.52307926350784"><ele>98.0</ele><time>2026-04-20T14:35:53Z</time></trkpt><trkpt lat="44.98911136588855" lon="9.52305438297771"><ele>97.85714285714286</ele><time>2026-04-20T14:35:54Z</time></trkpt><trkpt lat="44.98904356040551" lon="9.523020197405138"><ele>97.71428571428572</ele><time>2026-04-20T14:35:55Z</time></trkpt><trkpt lat="44.98896774955798" lon="9.5229983922775"><ele>97.57142857142857</ele><time>2026-04-20T14:35:56Z</time></trkpt><trkpt lat="44.988898980441505" lon="9.522968072596766"><ele>97.42857142857143</ele><time>2026-04-20T14:35:57Z</time></trkpt><trkpt lat="44.98883846325045" lon="9.522941718177316"><ele>97.28571428571429</ele><time>2026-04-20T14:35:58Z</time></trkpt><trkpt lat="44.98877467102789" lon="9.522914531049613"><ele>97.14285714285714</ele><time>2026-04-20T14:35:58.999Z</time></trkpt><trkpt lat="44.988709220143264" lon="9.522889908102478"><ele>97.0</ele><time>2026-04-20T14:35:59.999Z</time></trkpt><trkpt lat="44.98864505888066" lon="9.522863629120712"><ele>96.85714285714285</ele><time>2026-04-20T14:36:00.999Z</time></trkpt><trkpt lat="44.98858200043171" lon="9.52283934403469"><ele>96.71428571428572</ele><time>2026-04-20T14:36:01.999Z</time></trkpt><trkpt lat="44.988517988778334" lon="9.522811391374207"><ele>96.57142857142857</ele><time>2026-04-20T14:36:02.999Z</time></trkpt><trkpt lat="44.98845281243047" lon="9.522787251280898"><ele>96.42857142857142</ele><time>2026-04-20T14:36:03.999Z</time></trkpt><trkpt lat="44.98838817373018" lon="9.522759151658292"><ele>96.28571428571428</ele><time>2026-04-20T14:36:04.999Z</time></trkpt><trkpt lat="44.988319029482376" lon="9.52273091080045"><ele>96.14285714285714</ele><time>2026-04-20T14:36:05.999Z</time></trkpt><trkpt lat="44.9882573569093" lon="9.522704134823222"><ele>96.0</ele><time>2026-04-20T14:36:06.999Z</time></trkpt><trkpt lat="44.98819272506194" lon="9.52267384698746"><ele>96.42857142857142</ele><time>2026-04-20T14:36:07.999Z</time></trkpt><trkpt lat="44.98812549154387" lon="9.522647991709631"><ele>96.85714285714286</ele><time>2026-04-20T14:36:08.999Z</time></trkpt><trkpt lat="44.98805641785362" lon="9.522617459724074"><ele>97.28571428571428</ele><time>2026-04-20T14:36:09.999Z</time></trkpt><trkpt lat="44.987987276940345" lon="9.522590154502991"><ele>97.71428571428571</ele><time>2026-04-20T14:36:10.999Z</time></trkpt><trkpt lat="44.987921602816414" lon="9.522559823365075"><ele>98.14285714285714</ele><time>2026-04-20T14:36:11.999Z</time></trkpt><trkpt lat="44.98785558872172" lon="9.522530853691658"><ele>98.57142857142857</ele><time>2026-04-20T14:36:12.999Z</time></trkpt><trkpt lat="44.987793684875456" lon="9.522497568943688"><ele>99.0</ele><time>2026-04-20T14:36:13.999Z</time></trkpt><trkpt lat="44.98771397599989" lon="9.522482696842712"><ele>99.0</ele><time>2026-04-20T14:36:14.999Z</time></trkpt><trkpt lat="44.98763853212594" lon="9.52246885048064"><ele>99.0</ele><time>2026-04-20T14:36:15.999Z</time></trkpt><trkpt lat="44.98757162230913" lon="9.522449452072427"><ele>99.0</ele><time>2026-04-20T14:36:16.999Z</time></trkpt><trkpt lat="44.987505091675864" lon="9.52242668045944"><ele>99.0</ele><time>2026-04-20T14:36:17.999Z</time></trkpt><trkpt lat="44.987434065037704" lon="9.522413912906812"><ele>99.0</ele><time>2026-04-20T14:36:18.999Z</time></trkpt><trkpt lat="44.987366544602835" lon="9.522401998992182"><ele>99.0</ele><time>2026-04-20T14:36:19.999Z</time></trkpt><trkpt lat="44.98729634216026" lon="9.52238820579021"><ele>99.0</ele><time>2026-04-20T14:36:20.999Z</time></trkpt><trkpt lat="44.98722337929047" lon="9.522362391875507"><ele>98.85714285714286</ele><time>2026-04-20T14:36:21.999Z</time></trkpt><trkpt lat="44.9871520256985" lon="9.522353526368942"><ele>98.71428571428571</ele><time>2026-04-20T14:36:22.999Z</time></trkpt><trkpt lat="44.98708632978845" lon="9.52234046250868"><ele>98.57142857142857</ele><time>2026-04-20T14:36:23.999Z</time></trkpt><trkpt lat="44.98701736739408" lon="9.522323867084213"><ele>98.42857142857143</ele><time>2026-04-20T14:36:24.999Z</time></trkpt><trkpt lat="44.98695254529952" lon="9.522308137447387"><ele>98.28571428571428</ele><time>2026-04-20T14:36:25.999Z</time></trkpt><trkpt lat="44.98688807380342" lon="9.52229449266774"><ele>98.14285714285714</ele><time>2026-04-20T14:36:27Z</time></trkpt><trkpt lat="44.986823152504385" lon="9.522288974402937"><ele>98.0</ele><time>2026-04-20T14:36:28Z</time></trkpt><trkpt lat="44.98675380171842" lon="9.522280359093294"><ele>98.0</ele><time>2026-04-20T14:36:29Z</time></trkpt><trkpt lat="44.986687658940994" lon="9.52226827817579"><ele>98.0</ele><time>2026-04-20T14:36:30Z</time></trkpt><trkpt lat="44.98656082843984" lon="9.522261470037314"><ele>98.0</ele><time>2026-04-20T14:36:32Z</time></trkpt><trkpt lat="44.98649195857071" lon="9.522256584575167"><ele>98.0</ele><time>2026-04-20T14:36:33Z</time></trkpt><trkpt lat="44.986428792491324" lon="9.522248168198315"><ele>98.0</ele><time>2026-04-20T14:36:34Z</time></trkpt><trkpt lat="44.98630180004716" lon="9.522229651110191"><ele>98.0</ele><time>2026-04-20T14:36:36Z</time></trkpt><trkpt lat="44.98623481446572" lon="9.522225825310374"><ele>98.0</ele><time>2026-04-20T14:36:37Z</time></trkpt><trkpt lat="44.986169815832625" lon="9.522214978200985"><ele>98.0</ele><time>2026-04-20T14:36:38Z</time></trkpt><trkpt lat="44.986103316380174" lon="9.522203845478442"><ele>98.0</ele><time>2026-04-20T14:36:39Z</time></trkpt><trkpt lat="44.9860392680216" lon="9.52219724450737"><ele>98.0</ele><time>2026-04-20T14:36:40Z</time></trkpt><trkpt lat="44.98597554391302" lon="9.522185663329477"><ele>98.0</ele><time>2026-04-20T14:36:41Z</time></trkpt><trkpt lat="44.98590673795991" lon="9.522174529070044"><ele>98.0</ele><time>2026-04-20T14:36:42Z</time></trkpt><trkpt lat="44.98584052182841" lon="9.522158553135212"><ele>98.0</ele><time>2026-04-20T14:36:43Z</time></trkpt><trkpt lat="44.985774521347764" lon="9.522147326352513"><ele>98.0</ele><time>2026-04-20T14:36:44Z</time></trkpt><trkpt lat="44.98570628274442" lon="9.522138719619978"><ele>98.0</ele><time>2026-04-20T14:36:45Z</time></trkpt><trkpt lat="44.985635980204925" lon="9.52212595446465"><ele>98.0</ele><time>2026-04-20T14:36:46Z</time></trkpt><trkpt lat="44.98556929670986" lon="9.522114158891002"><ele>98.0</ele><time>2026-04-20T14:36:47Z</time></trkpt><trkpt lat="44.98550284255016" lon="9.522102526631864"><ele>98.0</ele><time>2026-04-20T14:36:48Z</time></trkpt><trkpt lat="44.98543683883133" lon="9.522091694394112"><ele>98.0</ele><time>2026-04-20T14:36:49Z</time></trkpt><trkpt lat="44.98537102861252" lon="9.522080506724045"><ele>98.0</ele><time>2026-04-20T14:36:50Z</time></trkpt><trkpt lat="44.9853026710601" lon="9.522072947302865"><ele>98.0</ele><time>2026-04-20T14:36:51Z</time></trkpt><trkpt lat="44.985237314751444" lon="9.522062720475605"><ele>98.0</ele><time>2026-04-20T14:36:52Z</time></trkpt><trkpt lat="44.985171669666535" lon="9.522050623634536"><ele>98.0</ele><time>2026-04-20T14:36:53Z</time></trkpt><trkpt lat="44.985102204962466" lon="9.522044823853177"><ele>98.0</ele><time>2026-04-20T14:36:54Z</time></trkpt><trkpt lat="44.98503765918265" lon="9.522040003491947"><ele>98.0</ele><time>2026-04-20T14:36:55Z</time></trkpt><trkpt lat="44.984972544458984" lon="9.522037711629656"><ele>98.0</ele><time>2026-04-20T14:36:56Z</time></trkpt><trkpt lat="44.9849090936526" lon="9.522044214453407"><ele>98.14285714285714</ele><time>2026-04-20T14:36:57Z</time></trkpt><trkpt lat="44.9848432688686" lon="9.52205318456267"><ele>98.28571428571428</ele><time>2026-04-20T14:36:58Z</time></trkpt><trkpt lat="44.98477587240806" lon="9.522071374755837"><ele>98.42857142857143</ele><time>2026-04-20T14:36:59Z</time></trkpt><trkpt lat="44.98471419244342" lon="9.522089292821317"><ele>98.57142857142857</ele><time>2026-04-20T14:37:00Z</time></trkpt><trkpt lat="44.984649408833825" lon="9.52211212465871"><ele>98.71428571428571</ele><time>2026-04-20T14:37:01Z</time></trkpt><trkpt lat="44.98458754949923" lon="9.522134060422385"><ele>98.85714285714286</ele><time>2026-04-20T14:37:02Z</time></trkpt><trkpt lat="44.98452475271591" lon="9.522155846576979"><ele>99.0</ele><time>2026-04-20T14:37:03Z</time></trkpt><trkpt lat="44.98446199517227" lon="9.522176942341169"><ele>99.0</ele><time>2026-04-20T14:37:04Z</time></trkpt><trkpt lat="44.98439799512525" lon="9.522196223588843"><ele>99.0</ele><time>2026-04-20T14:37:05Z</time></trkpt><trkpt lat="44.9843318265903" lon="9.522216857569697"><ele>99.0</ele><time>2026-04-20T14:37:06Z</time></trkpt><trkpt lat="44.98426793284961" lon="9.522240224068"><ele>99.0</ele><time>2026-04-20T14:37:07Z</time></trkpt><trkpt lat="44.98420421067743" lon="9.522256193151218"><ele>99.0</ele><time>2026-04-20T14:37:08Z</time></trkpt><trkpt lat="44.984141017445296" lon="9.522273656340591"><ele>99.0</ele><time>2026-04-20T14:37:09Z</time></trkpt><trkpt lat="44.98401106229714" lon="9.522308767942205"><ele>99.25</ele><time>2026-04-20T14:37:11Z</time></trkpt><trkpt lat="44.98389069249395" lon="9.522329863095562"><ele>99.5</ele><time>2026-04-20T14:37:13Z</time></trkpt><trkpt lat="44.9837617865957" lon="9.52234950284903"><ele>99.75</ele><time>2026-04-20T14:37:15Z</time></trkpt><trkpt lat="44.98363946407513" lon="9.5223705108106"><ele>100.0</ele><time>2026-04-20T14:37:17Z</time></trkpt><trkpt lat="44.98352288256366" lon="9.522386396216893"><ele>100.0</ele><time>2026-04-20T14:37:19Z</time></trkpt><trkpt lat="44.98339950465743" lon="9.522400274252126"><ele>100.0</ele><time>2026-04-20T14:37:21Z</time></trkpt><trkpt lat="44.983280060751" lon="9.522409014555697"><ele>100.0</ele><time>2026-04-20T14:37:23Z</time></trkpt><trkpt lat="44.98316549785481" lon="9.522406641069171"><ele>100.0</ele><time>2026-04-20T14:37:25Z</time></trkpt><trkpt lat="44.98305611285762" lon="9.522394536756726"><ele>99.8</ele><time>2026-04-20T14:37:27Z</time></trkpt><trkpt lat="44.982948725634365" lon="9.522380676211483"><ele>99.6</ele><time>2026-04-20T14:37:29Z</time></trkpt><trkpt lat="44.982843395962135" lon="9.522359799620032"><ele>99.4</ele><time>2026-04-20T14:37:31Z</time></trkpt><trkpt lat="44.982737212400636" lon="9.522332083739995"><ele>99.2</ele><time>2026-04-20T14:37:33Z</time></trkpt><trkpt lat="44.9826384910033" lon="9.522303210048994"><ele>99.0</ele><time>2026-04-20T14:37:35Z</time></trkpt><trkpt lat="44.98254099571664" lon="9.522267162405157"><ele>99.0</ele><time>2026-04-20T14:37:37Z</time></trkpt><trkpt lat="44.98244176090276" lon="9.522225410263864"><ele>99.0</ele><time>2026-04-20T14:37:39Z</time></trkpt><trkpt lat="44.982351539501174" lon="9.522186524154854"><ele>99.0</ele><time>2026-04-20T14:37:41Z</time></trkpt><trkpt lat="44.982268597640534" lon="9.522136321511672"><ele>99.0</ele><time>2026-04-20T14:37:43Z</time></trkpt><trkpt lat="44.98218798156648" lon="9.522085433350076"><ele>99.0</ele><time>2026-04-20T14:37:45Z</time></trkpt><trkpt lat="44.98210805029378" lon="9.522044240103952"><ele>99.0</ele><time>2026-04-20T14:37:47Z</time></trkpt><trkpt lat="44.98200847854054" lon="9.521977966841405"><ele>99.0</ele><time>2026-04-20T14:37:49Z</time></trkpt><trkpt lat="44.981909636449984" lon="9.521922240665415"><ele>99.0</ele><time>2026-04-20T14:37:51Z</time></trkpt><trkpt lat="44.98180221259727" lon="9.521850658940723"><ele>99.0</ele><time>2026-04-20T14:37:53Z</time></trkpt><trkpt lat="44.98169407529703" lon="9.521789699971672"><ele>99.28571428571429</ele><time>2026-04-20T14:37:55Z</time></trkpt><trkpt lat="44.98157828786578" lon="9.521741916363094"><ele>99.57142857142857</ele><time>2026-04-20T14:37:57Z</time></trkpt><trkpt lat="44.981515046363114" lon="9.521731196588258"><ele>99.85714285714286</ele><time>2026-04-20T14:37:58Z</time></trkpt><trkpt lat="44.98145287618188" lon="9.521712889788326"><ele>100.14285714285714</ele><time>2026-04-20T14:37:59Z</time></trkpt><trkpt lat="44.98138968558663" lon="9.521718564954858"><ele>100.42857142857142</ele><time>2026-04-20T14:38:00Z</time></trkpt><trkpt lat="44.981320655942696" lon="9.521725235775545"><ele>100.71428571428571</ele><time>2026-04-20T14:38:01Z</time></trkpt><trkpt lat="44.981255052105375" lon="9.52173664997942"><ele>101.0</ele><time>2026-04-20T14:38:02Z</time></trkpt><trkpt lat="44.98119127374039" lon="9.521746232988573"><ele>100.99999999999999</ele><time>2026-04-20T14:38:03Z</time></trkpt><trkpt lat="44.98112888664593" lon="9.52175867041797"><ele>101.0</ele><time>2026-04-20T14:38:04Z</time></trkpt><trkpt lat="44.98106615311708" lon="9.521772944845223"><ele>101.0</ele><time>2026-04-20T14:38:05Z</time></trkpt><trkpt lat="44.98093567290992" lon="9.521804905290917"><ele>101.0</ele><time>2026-04-20T14:38:07Z</time></trkpt><trkpt lat="44.980866442347626" lon="9.52182070257401"><ele>100.99999999999999</ele><time>2026-04-20T14:38:07.999Z</time></trkpt><trkpt lat="44.98079551518442" lon="9.52184025958597"><ele>101.0</ele><time>2026-04-20T14:38:08.999Z</time></trkpt><trkpt lat="44.98072181867628" lon="9.52185885122788"><ele>100.85714285714286</ele><time>2026-04-20T14:38:09.999Z</time></trkpt><trkpt lat="44.980651205574915" lon="9.521879841011867"><ele>100.71428571428571</ele><time>2026-04-20T14:38:10.999Z</time></trkpt><trkpt lat="44.98057528244831" lon="9.521903167368931"><ele>100.57142857142858</ele><time>2026-04-20T14:38:11.999Z</time></trkpt><trkpt lat="44.9805057001683" lon="9.521922782636635"><ele>100.42857142857143</ele><time>2026-04-20T14:38:12.999Z</time></trkpt><trkpt lat="44.98042990582951" lon="9.521948094127758"><ele>100.28571428571429</ele><time>2026-04-20T14:38:13.999Z</time></trkpt><trkpt lat="44.98035975307549" lon="9.521970851044857"><ele>100.14285714285715</ele><time>2026-04-20T14:38:14.999Z</time></trkpt><trkpt lat="44.9802915102584" lon="9.522002869229318"><ele>100.0</ele><time>2026-04-20T14:38:15.999Z</time></trkpt><trkpt lat="44.98022607684853" lon="9.522046952805809"><ele>100.28571428571429</ele><time>2026-04-20T14:38:16.999Z</time></trkpt><trkpt lat="44.980165414172696" lon="9.522088352334185"><ele>100.57142857142857</ele><time>2026-04-20T14:38:17.999Z</time></trkpt><trkpt lat="44.980106162928834" lon="9.522149817479562"><ele>100.85714285714286</ele><time>2026-04-20T14:38:18.999Z</time></trkpt><trkpt lat="44.980045865302905" lon="9.522193210009444"><ele>101.14285714285714</ele><time>2026-04-20T14:38:19.999Z</time></trkpt><trkpt lat="44.97998757705221" lon="9.522237659191164"><ele>101.42857142857143</ele><time>2026-04-20T14:38:20.999Z</time></trkpt><trkpt lat="44.97992756906785" lon="9.522280401737282"><ele>101.71428571428572</ele><time>2026-04-20T14:38:21.999Z</time></trkpt><trkpt lat="44.97986752867181" lon="9.52232024579728"><ele>102.0</ele><time>2026-04-20T14:38:22.999Z</time></trkpt><trkpt lat="44.97980521859407" lon="9.522356189050276"><ele>102.0</ele><time>2026-04-20T14:38:23.999Z</time></trkpt><trkpt lat="44.979741886633626" lon="9.522377530192879"><ele>102.0</ele><time>2026-04-20T14:38:24.999Z</time></trkpt><trkpt lat="44.97967799277434" lon="9.522401961242158"><ele>102.0</ele><time>2026-04-20T14:38:25.999Z</time></trkpt><trkpt lat="44.97961416670743" lon="9.52242409983627"><ele>102.0</ele><time>2026-04-20T14:38:26.999Z</time></trkpt><trkpt lat="44.979550407773694" lon="9.522438462231833"><ele>102.0</ele><time>2026-04-20T14:38:27.999Z</time></trkpt><trkpt lat="44.97942834524303" lon="9.522464356680993"><ele>102.0</ele><time>2026-04-20T14:38:29.999Z</time></trkpt><trkpt lat="44.979311273405635" lon="9.522486070744982"><ele>102.0</ele><time>2026-04-20T14:38:31.999Z</time></trkpt><trkpt lat="44.97919021470103" lon="9.522505718890475"><ele>102.0</ele><time>2026-04-20T14:38:34Z</time></trkpt><trkpt lat="44.97907326694521" lon="9.522532827044824"><ele>102.0</ele><time>2026-04-20T14:38:36Z</time></trkpt><trkpt lat="44.978959035875526" lon="9.52255277676145"><ele>102.0</ele><time>2026-04-20T14:38:38Z</time></trkpt><trkpt lat="44.978856547793235" lon="9.522571297694144"><ele>102.0</ele><time>2026-04-20T14:38:40Z</time></trkpt><trkpt lat="44.97875127410783" lon="9.522598826686654"><ele>102.0</ele><time>2026-04-20T14:38:42Z</time></trkpt><trkpt lat="44.97865456496938" lon="9.52261403095501"><ele>102.0</ele><time>2026-04-20T14:38:44Z</time></trkpt><trkpt lat="44.97855145454733" lon="9.522623513219147"><ele>102.0</ele><time>2026-04-20T14:38:46Z</time></trkpt><trkpt lat="44.97844368184838" lon="9.522612149997839"><ele>102.0</ele><time>2026-04-20T14:38:48Z</time></trkpt><trkpt lat="44.978337969993106" lon="9.522595805402197"><ele>102.0</ele><time>2026-04-20T14:38:50Z</time></trkpt><trkpt lat="44.978236481263004" lon="9.522580341498005"><ele>102.0</ele><time>2026-04-20T14:38:52Z</time></trkpt><trkpt lat="44.97813303384819" lon="9.522542297770782"><ele>102.0</ele><time>2026-04-20T14:38:54Z</time></trkpt><trkpt lat="44.97802333337443" lon="9.522511872355354"><ele>102.0</ele><time>2026-04-20T14:38:56Z</time></trkpt><trkpt lat="44.977925462178874" lon="9.522478261397904"><ele>102.0</ele><time>2026-04-20T14:38:58Z</time></trkpt><trkpt lat="44.97782676022471" lon="9.522452223080819"><ele>102.0</ele><time>2026-04-20T14:39:00Z</time></trkpt><trkpt lat="44.97773181957935" lon="9.522417007621696"><ele>102.0</ele><time>2026-04-20T14:39:02Z</time></trkpt><trkpt lat="44.977631106616386" lon="9.522384147233204"><ele>102.0</ele><time>2026-04-20T14:39:04Z</time></trkpt><trkpt lat="44.977532224051856" lon="9.522352006933938"><ele>102.0</ele><time>2026-04-20T14:39:06Z</time></trkpt><trkpt lat="44.97743305216948" lon="9.522321959848727"><ele>102.0</ele><time>2026-04-20T14:39:08Z</time></trkpt><trkpt lat="44.97733550683804" lon="9.522292589467478"><ele>102.19999999999999</ele><time>2026-04-20T14:39:10Z</time></trkpt><trkpt lat="44.97724400953001" lon="9.522248641439484"><ele>102.4</ele><time>2026-04-20T14:39:13Z</time></trkpt><trkpt lat="44.977155207621585" lon="9.522228695084598"><ele>102.6</ele><time>2026-04-20T14:39:14Z</time></trkpt><trkpt lat="44.97704774256474" lon="9.52219918893833"><ele>102.80000000000001</ele><time>2026-04-20T14:39:16Z</time></trkpt><trkpt lat="44.97695538753781" lon="9.522177728594528"><ele>103.0</ele><time>2026-04-20T14:39:18Z</time></trkpt><trkpt lat="44.97686841789761" lon="9.522138056557363"><ele>103.0</ele><time>2026-04-20T14:39:20Z</time></trkpt><trkpt lat="44.97677404922094" lon="9.522103293183017"><ele>103.0</ele><time>2026-04-20T14:39:22Z</time></trkpt><trkpt lat="44.97669312754964" lon="9.522078693927446"><ele>103.0</ele><time>2026-04-20T14:39:24Z</time></trkpt><trkpt lat="44.97659314999547" lon="9.52205310588474"><ele>103.0</ele><time>2026-04-20T14:39:26Z</time></trkpt><trkpt lat="44.97650100357121" lon="9.522024951650167"><ele>103.0</ele><time>2026-04-20T14:39:28Z</time></trkpt><trkpt lat="44.97640834443641" lon="9.521998764796898"><ele>103.2</ele><time>2026-04-20T14:39:30Z</time></trkpt><trkpt lat="44.97632240240935" lon="9.521972488013612"><ele>103.4</ele><time>2026-04-20T14:39:32Z</time></trkpt><trkpt lat="44.97623343003274" lon="9.521941968479917"><ele>103.60000000000001</ele><time>2026-04-20T14:39:34Z</time></trkpt><trkpt lat="44.976140498134356" lon="9.521919098477172"><ele>103.80000000000001</ele><time>2026-04-20T14:39:36Z</time></trkpt><trkpt lat="44.97605375632171" lon="9.521894663710116"><ele>104.0</ele><time>2026-04-20T14:39:38Z</time></trkpt><trkpt lat="44.97595938956645" lon="9.521865266655027"><ele>104.0</ele><time>2026-04-20T14:39:40Z</time></trkpt><trkpt lat="44.97586703183955" lon="9.521840610961187"><ele>104.0</ele><time>2026-04-20T14:39:42Z</time></trkpt><trkpt lat="44.97577461643674" lon="9.521808998555004"><ele>104.0</ele><time>2026-04-20T14:39:44Z</time></trkpt><trkpt lat="44.97567806390745" lon="9.521779380508855"><ele>104.0</ele><time>2026-04-20T14:39:46Z</time></trkpt><trkpt lat="44.975588345998325" lon="9.521752638504264"><ele>104.0</ele><time>2026-04-20T14:39:48Z</time></trkpt><trkpt lat="44.975492425075764" lon="9.52172494272261"><ele>104.2</ele><time>2026-04-20T14:39:50Z</time></trkpt><trkpt lat="44.975394750917104" lon="9.521692389911882"><ele>104.4</ele><time>2026-04-20T14:39:52Z</time></trkpt><trkpt lat="44.97529331322024" lon="9.52166211673847"><ele>104.6</ele><time>2026-04-20T14:39:54Z</time></trkpt><trkpt lat="44.975199901130615" lon="9.521631366335125"><ele>104.8</ele><time>2026-04-20T14:39:56Z</time></trkpt><trkpt lat="44.97511085429899" lon="9.521604559376865"><ele>105.0</ele><time>2026-04-20T14:39:58Z</time></trkpt><trkpt lat="44.9750574267162" lon="9.521507719553114"><ele>105.0</ele><time>2026-04-20T14:40:00Z</time></trkpt><trkpt lat="44.975083931789406" lon="9.521370128894057"><ele>105.0</ele><time>2026-04-20T14:40:02Z</time></trkpt><trkpt lat="44.975118813141286" lon="9.521248778598244"><ele>105.0</ele><time>2026-04-20T14:40:04Z</time></trkpt><trkpt lat="44.97513983691663" lon="9.521124311270828"><ele>105.0</ele><time>2026-04-20T14:40:05.999Z</time></trkpt><trkpt lat="44.97516481186564" lon="9.52102023594044"><ele>105.0</ele><time>2026-04-20T14:40:07.999Z</time></trkpt><trkpt lat="44.975187926855156" lon="9.520880694205234"><ele>105.16666666666667</ele><time>2026-04-20T14:40:09.999Z</time></trkpt><trkpt lat="44.975211886914956" lon="9.520764435805805"><ele>105.33333333333334</ele><time>2026-04-20T14:40:11.999Z</time></trkpt><trkpt lat="44.97523121507604" lon="9.520648876088513"><ele>105.5</ele><time>2026-04-20T14:40:13.999Z</time></trkpt><trkpt lat="44.97525084029997" lon="9.52055021768999"><ele>105.66666666666667</ele><time>2026-04-20T14:40:15.999Z</time></trkpt><trkpt lat="44.97526803022236" lon="9.520422655740278"><ele>105.83333333333334</ele><time>2026-04-20T14:40:17.999Z</time></trkpt><trkpt lat="44.9752789144599" lon="9.520318707981671"><ele>106.0</ele><time>2026-04-20T14:40:19.999Z</time></trkpt><trkpt lat="44.975291110777114" lon="9.520183193307629"><ele>106.0</ele><time>2026-04-20T14:40:21.999Z</time></trkpt><trkpt lat="44.975288522068816" lon="9.520022499917081"><ele>106.0</ele><time>2026-04-20T14:40:23.999Z</time></trkpt><trkpt lat="44.97528203633101" lon="9.519873571221924"><ele>106.0</ele><time>2026-04-20T14:40:25.999Z</time></trkpt><trkpt lat="44.975273739584395" lon="9.519728509896066"><ele>106.0</ele><time>2026-04-20T14:40:27.999Z</time></trkpt><trkpt lat="44.97526715392718" lon="9.51959283776885"><ele>106.0</ele><time>2026-04-20T14:40:29.999Z</time></trkpt><trkpt lat="44.975264384944445" lon="9.519456111486214"><ele>105.8</ele><time>2026-04-20T14:40:31.999Z</time></trkpt><trkpt lat="44.975260882128275" lon="9.519323983824847"><ele>105.6</ele><time>2026-04-20T14:40:33.999Z</time></trkpt><trkpt lat="44.97525982204111" lon="9.519193012554457"><ele>105.4</ele><time>2026-04-20T14:40:35.999Z</time></trkpt><trkpt lat="44.97525887242885" lon="9.51903949095445"><ele>105.2</ele><time>2026-04-20T14:40:37.999Z</time></trkpt><trkpt lat="44.97526733598992" lon="9.518893732001505"><ele>105.0</ele><time>2026-04-20T14:40:40Z</time></trkpt><trkpt lat="44.975266653669976" lon="9.518747986448805"><ele>105.2</ele><time>2026-04-20T14:40:42Z</time></trkpt><trkpt lat="44.97527518153615" lon="9.518603148776421"><ele>105.4</ele><time>2026-04-20T14:40:44Z</time></trkpt><trkpt lat="44.975276997055616" lon="9.51845893477799"><ele>105.6</ele><time>2026-04-20T14:40:46Z</time></trkpt><trkpt lat="44.97527911747936" lon="9.518325150397823"><ele>105.8</ele><time>2026-04-20T14:40:48Z</time></trkpt><trkpt lat="44.97528459756755" lon="9.518197482756966"><ele>106.0</ele><time>2026-04-20T14:40:50Z</time></trkpt><trkpt lat="44.97528762371654" lon="9.518087743747012"><ele>106.0</ele><time>2026-04-20T14:40:52Z</time></trkpt><trkpt lat="44.975302276426596" lon="9.517959819463764"><ele>106.0</ele><time>2026-04-20T14:40:54Z</time></trkpt><trkpt lat="44.97531226312844" lon="9.51785970875936"><ele>106.0</ele><time>2026-04-20T14:40:57Z</time></trkpt><trkpt lat="44.97531993328166" lon="9.517735610600765"><ele>106.0</ele><time>2026-04-20T14:40:58Z</time></trkpt><trkpt lat="44.975323037517235" lon="9.517584857789672"><ele>106.0</ele><time>2026-04-20T14:41:00Z</time></trkpt><trkpt lat="44.97532398815871" lon="9.517450909993403"><ele>105.83333333333334</ele><time>2026-04-20T14:41:02Z</time></trkpt><trkpt lat="44.97532392575872" lon="9.517311936693371"><ele>105.66666666666667</ele><time>2026-04-20T14:41:04Z</time></trkpt><trkpt lat="44.97532169119671" lon="9.517182767156832"><ele>105.5</ele><time>2026-04-20T14:41:06Z</time></trkpt><trkpt lat="44.97531790722167" lon="9.517059306800393"><ele>105.33333333333334</ele><time>2026-04-20T14:41:08Z</time></trkpt><trkpt lat="44.97531642517821" lon="9.51694143765234"><ele>105.16666666666667</ele><time>2026-04-20T14:41:10Z</time></trkpt><trkpt lat="44.975314907859875" lon="9.51683118828827"><ele>105.0</ele><time>2026-04-20T14:41:12Z</time></trkpt><trkpt lat="44.97531385992686" lon="9.516722138833883"><ele>105.33333333333333</ele><time>2026-04-20T14:41:14Z</time></trkpt><trkpt lat="44.975308960888285" lon="9.516615670042011"><ele>105.66666666666666</ele><time>2026-04-20T14:41:16Z</time></trkpt><trkpt lat="44.97530320505262" lon="9.516505754848044"><ele>106.0</ele><time>2026-04-20T14:41:18Z</time></trkpt><trkpt lat="44.97530173862333" lon="9.51640353795618"><ele>106.33333333333333</ele><time>2026-04-20T14:41:20Z</time></trkpt><trkpt lat="44.97529986603152" lon="9.516262338033886"><ele>106.66666666666666</ele><time>2026-04-20T14:41:23Z</time></trkpt><trkpt lat="44.975290719594604" lon="9.516131509754215"><ele>107.0</ele><time>2026-04-20T14:41:26Z</time></trkpt><trkpt lat="44.975280335642644" lon="9.516029028856355"><ele>107.33333333333333</ele><time>2026-04-20T14:41:28Z</time></trkpt><trkpt lat="44.97526734238759" lon="9.515934291383724"><ele>107.66666666666666</ele><time>2026-04-20T14:41:30Z</time></trkpt><trkpt lat="44.97524701521304" lon="9.51581141875699"><ele>108.0</ele><time>2026-04-20T14:41:33Z</time></trkpt><trkpt lat="44.975220826169256" lon="9.515698743489938"><ele>108.33333333333334</ele><time>2026-04-20T14:41:36Z</time></trkpt><trkpt lat="44.975192629487985" lon="9.5155825537883"><ele>108.66666666666667</ele><time>2026-04-20T14:41:39Z</time></trkpt><trkpt lat="44.97515427627156" lon="9.515474178611871"><ele>109.0</ele><time>2026-04-20T14:41:42Z</time></trkpt><trkpt lat="44.97511087661067" lon="9.515357328148053"><ele>109.83333333333334</ele><time>2026-04-20T14:41:45Z</time></trkpt><trkpt lat="44.9750688479989" lon="9.515247395615814"><ele>110.66666666666667</ele><time>2026-04-20T14:41:48Z</time></trkpt><trkpt lat="44.975024399865575" lon="9.515125503401151"><ele>111.5</ele><time>2026-04-20T14:41:51Z</time></trkpt><trkpt lat="44.974978993399006" lon="9.515017100648716"><ele>112.33333333333334</ele><time>2026-04-20T14:41:53.999Z</time></trkpt><trkpt lat="44.9749493898731" lon="9.514936882268561"><ele>113.16666666666667</ele><time>2026-04-20T14:41:55.999Z</time></trkpt><trkpt lat="44.97492112672767" lon="9.514840732377346"><ele>114.0</ele><time>2026-04-20T14:41:58.999Z</time></trkpt><trkpt lat="44.974888286318304" lon="9.514760658237932"><ele>114.16666666666667</ele><time>2026-04-20T14:42:00.999Z</time></trkpt><trkpt lat="44.974842061630795" lon="9.51465805862732"><ele>114.33333333333334</ele><time>2026-04-20T14:42:03.999Z</time></trkpt><trkpt lat="44.97480829689549" lon="9.514582136580884"><ele>114.5</ele><time>2026-04-20T14:42:05.999Z</time></trkpt><trkpt lat="44.97477407720009" lon="9.514478093445259"><ele>114.66666666666667</ele><time>2026-04-20T14:42:08.999Z</time></trkpt><trkpt lat="44.974735142700766" lon="9.514372458919834"><ele>114.83333333333334</ele><time>2026-04-20T14:42:11.999Z</time></trkpt><trkpt lat="44.97469622408296" lon="9.514272632172519"><ele>115.0</ele><time>2026-04-20T14:42:14.999Z</time></trkpt><trkpt lat="44.97466275785369" lon="9.514161421515897"><ele>116.00000000000001</ele><time>2026-04-20T14:42:17.999Z</time></trkpt><trkpt lat="44.974625026693175" lon="9.514068035274184"><ele>117.0</ele><time>2026-04-20T14:42:20.999Z</time></trkpt><trkpt lat="44.97458650675507" lon="9.513969812958614"><ele>118.0</ele><time>2026-04-20T14:42:22.999Z</time></trkpt><trkpt lat="44.97454799112224" lon="9.513859010786817"><ele>119.0</ele><time>2026-04-20T14:42:25.999Z</time></trkpt><trkpt lat="44.97450532505986" lon="9.513752668813916"><ele>120.00000000000001</ele><time>2026-04-20T14:42:28.999Z</time></trkpt><trkpt lat="44.97447270215394" lon="9.513660822167317"><ele>121.0</ele><time>2026-04-20T14:42:31.999Z</time></trkpt><trkpt lat="44.97443097853335" lon="9.513552937518783"><ele>121.50000000000001</ele><time>2026-04-20T14:42:34.999Z</time></trkpt><trkpt lat="44.97440603001536" lon="9.513448934940763"><ele>122.0</ele><time>2026-04-20T14:42:37.999Z</time></trkpt><trkpt lat="44.974376675849584" lon="9.513348553338242"><ele>122.5</ele><time>2026-04-20T14:42:40.999Z</time></trkpt><trkpt lat="44.974343021308876" lon="9.513263708093067"><ele>123.0</ele><time>2026-04-20T14:42:42.999Z</time></trkpt><trkpt lat="44.97430686356458" lon="9.51315649725046"><ele>123.50000000000001</ele><time>2026-04-20T14:42:46Z</time></trkpt><trkpt lat="44.974281576303405" lon="9.513029513892212"><ele>124.0</ele><time>2026-04-20T14:42:49Z</time></trkpt><trkpt lat="44.974254574727006" lon="9.512903994044839"><ele>124.33333333333334</ele><time>2026-04-20T14:42:52Z</time></trkpt><trkpt lat="44.974243427072764" lon="9.512813244567168"><ele>124.66666666666667</ele><time>2026-04-20T14:42:54Z</time></trkpt><trkpt lat="44.974222135201764" lon="9.512678258682056"><ele>125.0</ele><time>2026-04-20T14:42:57Z</time></trkpt><trkpt lat="44.97421931696337" lon="9.51254300049518"><ele>125.33333333333334</ele><time>2026-04-20T14:43:00Z</time></trkpt><trkpt lat="44.97422054004172" lon="9.51245389108219"><ele>125.66666666666667</ele><time>2026-04-20T14:43:02Z</time></trkpt><trkpt lat="44.974218843953516" lon="9.512322324659165"><ele>126.0</ele><time>2026-04-20T14:43:05Z</time></trkpt><trkpt lat="44.97421384575879" lon="9.512227064034587"><ele>126.0</ele><time>2026-04-20T14:43:07Z</time></trkpt><trkpt lat="44.974211617514364" lon="9.512105339697715"><ele>126.0</ele><time>2026-04-20T14:43:10Z</time></trkpt><trkpt lat="44.97420780180853" lon="9.512010240623695"><ele>126.0</ele><time>2026-04-20T14:43:12Z</time></trkpt><trkpt lat="44.974204551535166" lon="9.511916771917107"><ele>126.0</ele><time>2026-04-20T14:43:14Z</time></trkpt><trkpt lat="44.97420222433391" lon="9.511824262842312"><ele>126.0</ele><time>2026-04-20T14:43:16Z</time></trkpt><trkpt lat="44.97420244064958" lon="9.511729894699897"><ele>126.0</ele><time>2026-04-20T14:43:18Z</time></trkpt><trkpt lat="44.97420286841079" lon="9.51163648977575"><ele>126.0</ele><time>2026-04-20T14:43:20Z</time></trkpt><trkpt lat="44.97420322366272" lon="9.511536998688381"><ele>126.42857142857143</ele><time>2026-04-20T14:43:22Z</time></trkpt><trkpt lat="44.97420519204114" lon="9.511444964944316"><ele>126.85714285714286</ele><time>2026-04-20T14:43:24Z</time></trkpt><trkpt lat="44.97420047568214" lon="9.511345944954098"><ele>127.28571428571428</ele><time>2026-04-20T14:43:26Z</time></trkpt><trkpt lat="44.974198042510274" lon="9.511246781135567"><ele>127.71428571428571</ele><time>2026-04-20T14:43:28Z</time></trkpt><trkpt lat="44.97419574628488" lon="9.511147344819506"><ele>128.14285714285714</ele><time>2026-04-20T14:43:30Z</time></trkpt><trkpt lat="44.97419774808148" lon="9.511042710584563"><ele>128.57142857142856</ele><time>2026-04-20T14:43:32Z</time></trkpt><trkpt lat="44.97419357452952" lon="9.510925837691083"><ele>129.0</ele><time>2026-04-20T14:43:34Z</time></trkpt><trkpt lat="44.97419237670061" lon="9.51081494093645"><ele>129.16666666666666</ele><time>2026-04-20T14:43:36Z</time></trkpt><trkpt lat="44.97419347583373" lon="9.510712634065943"><ele>129.33333333333334</ele><time>2026-04-20T14:43:38Z</time></trkpt><trkpt lat="44.974190227121795" lon="9.510606120164383"><ele>129.5</ele><time>2026-04-20T14:43:40Z</time></trkpt><trkpt lat="44.974199691532085" lon="9.5105000925913"><ele>129.66666666666669</ele><time>2026-04-20T14:43:43Z</time></trkpt><trkpt lat="44.974201568059236" lon="9.510383947727613"><ele>129.83333333333334</ele><time>2026-04-20T14:43:45Z</time></trkpt><trkpt lat="44.97419737662345" lon="9.510225289266806"><ele>130.0</ele><time>2026-04-20T14:43:49Z</time></trkpt><trkpt lat="44.97419856761078" lon="9.51008876017977"><ele>130.16666666666669</ele><time>2026-04-20T14:43:51Z</time></trkpt><trkpt lat="44.974193530751684" lon="9.509984530735647"><ele>130.33333333333334</ele><time>2026-04-20T14:43:53Z</time></trkpt><trkpt lat="44.974209520779965" lon="9.509868397983682"><ele>130.5</ele><time>2026-04-20T14:43:55Z</time></trkpt><trkpt lat="44.97420036328085" lon="9.50973967761217"><ele>130.66666666666666</ele><time>2026-04-20T14:43:57Z</time></trkpt><trkpt lat="44.974194763384126" lon="9.509615239417931"><ele>130.83333333333331</ele><time>2026-04-20T14:43:59Z</time></trkpt><trkpt lat="44.974190421987174" lon="9.509468788478724"><ele>131.0</ele><time>2026-04-20T14:44:01Z</time></trkpt><trkpt lat="44.974192323330485" lon="9.509349067776464"><ele>131.16666666666666</ele><time>2026-04-20T14:44:03Z</time></trkpt><trkpt lat="44.9741957433358" lon="9.509218266272963"><ele>131.33333333333331</ele><time>2026-04-20T14:44:04.999Z</time></trkpt><trkpt lat="44.97419955703635" lon="9.509095195458208"><ele>131.5</ele><time>2026-04-20T14:44:06.999Z</time></trkpt><trkpt lat="44.974202943104515" lon="9.508969324782731"><ele>131.66666666666666</ele><time>2026-04-20T14:44:08.999Z</time></trkpt><trkpt lat="44.974214144588814" lon="9.508859000482724"><ele>131.83333333333334</ele><time>2026-04-20T14:44:10.999Z</time></trkpt><trkpt lat="44.97422018414194" lon="9.508756744546723"><ele>132.0</ele><time>2026-04-20T14:44:12.999Z</time></trkpt><trkpt lat="44.97430215986018" lon="9.508719722486884"><ele>132.2</ele><time>2026-04-20T14:44:16.999Z</time></trkpt><trkpt lat="44.9744059336697" lon="9.508661553332038"><ele>132.39999999999998</ele><time>2026-04-20T14:44:19.999Z</time></trkpt><trkpt lat="44.97446606786721" lon="9.508625035032964"><ele>132.60000000000002</ele><time>2026-04-20T14:44:20.999Z</time></trkpt><trkpt lat="44.974570656509954" lon="9.508565521070688"><ele>132.8</ele><time>2026-04-20T14:44:22.999Z</time></trkpt><trkpt lat="44.97467381939662" lon="9.508545512189881"><ele>133.0</ele><time>2026-04-20T14:44:24.999Z</time></trkpt><trkpt lat="44.974793840740304" lon="9.508520747760928"><ele>133.0</ele><time>2026-04-20T14:44:26.999Z</time></trkpt><trkpt lat="44.974920982334496" lon="9.508507059823753"><ele>133.0</ele><time>2026-04-20T14:44:28.999Z</time></trkpt><trkpt lat="44.975055779377456" lon="9.50848732135931"><ele>133.0</ele><time>2026-04-20T14:44:30.999Z</time></trkpt><trkpt lat="44.97518408953592" lon="9.508507973523612"><ele>133.0</ele><time>2026-04-20T14:44:32.999Z</time></trkpt><trkpt lat="44.97525655579112" lon="9.508528423560291"><ele>132.57142857142858</ele><time>2026-04-20T14:44:33.999Z</time></trkpt><trkpt lat="44.97532468050519" lon="9.508547647530984"><ele>132.14285714285714</ele><time>2026-04-20T14:44:34.999Z</time></trkpt><trkpt lat="44.9753898395857" lon="9.508573554413534"><ele>131.71428571428572</ele><time>2026-04-20T14:44:35.999Z</time></trkpt><trkpt lat="44.975454141514696" lon="9.508597038633281"><ele>131.28571428571428</ele><time>2026-04-20T14:44:36.999Z</time></trkpt><trkpt lat="44.97551053881025" lon="9.508639989037814"><ele>130.85714285714286</ele><time>2026-04-20T14:44:37.999Z</time></trkpt><trkpt lat="44.97557401017521" lon="9.508664060375525"><ele>130.42857142857144</ele><time>2026-04-20T14:44:38.999Z</time></trkpt><trkpt lat="44.97563997825907" lon="9.508674464762235"><ele>130.0</ele><time>2026-04-20T14:44:39.999Z</time></trkpt><trkpt lat="44.97570017378081" lon="9.508716606131205"><ele>130.0</ele><time>2026-04-20T14:44:40.999Z</time></trkpt><trkpt lat="44.97581091946665" lon="9.508770593905126"><ele>130.0</ele><time>2026-04-20T14:44:42.999Z</time></trkpt><trkpt lat="44.9759298920408" lon="9.508796879410847"><ele>130.0</ele><time>2026-04-20T14:44:44.999Z</time></trkpt><trkpt lat="44.97603722335115" lon="9.508894335423998"><ele>130.0</ele><time>2026-04-20T14:44:46.999Z</time></trkpt><trkpt lat="44.97614316284953" lon="9.5089841231388"><ele>129.6</ele><time>2026-04-20T14:44:48.999Z</time></trkpt><trkpt lat="44.97624861160372" lon="9.509066107539274"><ele>129.2</ele><time>2026-04-20T14:44:51Z</time></trkpt><trkpt lat="44.976359569765116" lon="9.509139681067634"><ele>128.8</ele><time>2026-04-20T14:44:53Z</time></trkpt><trkpt lat="44.97647191978194" lon="9.50921930547732"><ele>128.4</ele><time>2026-04-20T14:44:55Z</time></trkpt><trkpt lat="44.97652650404813" lon="9.509265138212385"><ele>128.0</ele><time>2026-04-20T14:44:56Z</time></trkpt><trkpt lat="44.97664786549983" lon="9.509349536009802"><ele>127.71428571428571</ele><time>2026-04-20T14:44:58Z</time></trkpt><trkpt lat="44.976715658985576" lon="9.50938953157692"><ele>127.42857142857142</ele><time>2026-04-20T14:44:59Z</time></trkpt><trkpt lat="44.97677922676306" lon="9.509423280575596"><ele>127.14285714285714</ele><time>2026-04-20T14:45:00Z</time></trkpt><trkpt lat="44.97684080685246" lon="9.509459897623632"><ele>126.85714285714286</ele><time>2026-04-20T14:45:01Z</time></trkpt><trkpt lat="44.97690352252136" lon="9.509488348047327"><ele>126.57142857142857</ele><time>2026-04-20T14:45:02Z</time></trkpt><trkpt lat="44.976963853904195" lon="9.50952476079123"><ele>126.28571428571428</ele><time>2026-04-20T14:45:03Z</time></trkpt><trkpt lat="44.97702501340489" lon="9.509558892384225"><ele>126.0</ele><time>2026-04-20T14:45:04Z</time></trkpt><trkpt lat="44.9770854285765" lon="9.50959044825487"><ele>125.5</ele><time>2026-04-20T14:45:05Z</time></trkpt><trkpt lat="44.9772050824708" lon="9.509651450664155"><ele>125.0</ele><time>2026-04-20T14:45:07Z</time></trkpt><trkpt lat="44.977266305992025" lon="9.509682496099238"><ele>124.5</ele><time>2026-04-20T14:45:08Z</time></trkpt><trkpt lat="44.97732936342651" lon="9.509716087356509"><ele>124.0</ele><time>2026-04-20T14:45:09Z</time></trkpt><trkpt lat="44.9773918678507" lon="9.50975296854639"><ele>123.5</ele><time>2026-04-20T14:45:10Z</time></trkpt><trkpt lat="44.977457744091765" lon="9.50979037781021"><ele>123.0</ele><time>2026-04-20T14:45:11Z</time></trkpt><trkpt lat="44.97752179256028" lon="9.509826825558761"><ele>123.00000000000001</ele><time>2026-04-20T14:45:12Z</time></trkpt><trkpt lat="44.97758561367099" lon="9.509858412243153"><ele>123.0</ele><time>2026-04-20T14:45:13Z</time></trkpt><trkpt lat="44.97765092091805" lon="9.509892060624747"><ele>123.00000000000001</ele><time>2026-04-20T14:45:14Z</time></trkpt><trkpt lat="44.9777213060772" lon="9.509919609028032"><ele>123.00000000000001</ele><time>2026-04-20T14:45:15Z</time></trkpt><trkpt lat="44.97779141321956" lon="9.509943495777286"><ele>123.0</ele><time>2026-04-20T14:45:16Z</time></trkpt><trkpt lat="44.977861785244755" lon="9.509967581311342"><ele>123.00000000000001</ele><time>2026-04-20T14:45:17Z</time></trkpt><trkpt lat="44.97793129754979" lon="9.509993788662982"><ele>123.00000000000001</ele><time>2026-04-20T14:45:18Z</time></trkpt><trkpt lat="44.97800224441077" lon="9.510020599447301"><ele>123.00000000000001</ele><time>2026-04-20T14:45:19Z</time></trkpt><trkpt lat="44.97806943415063" lon="9.510047691632703"><ele>123.0</ele><time>2026-04-20T14:45:20Z</time></trkpt><trkpt lat="44.97813766837759" lon="9.510074213282303"><ele>123.00000000000001</ele><time>2026-04-20T14:45:21Z</time></trkpt><trkpt lat="44.978203113483524" lon="9.510097142401756"><ele>123.00000000000001</ele><time>2026-04-20T14:45:22Z</time></trkpt><trkpt lat="44.97826563205283" lon="9.510123302123894"><ele>123.0</ele><time>2026-04-20T14:45:23Z</time></trkpt><trkpt lat="44.9783296316167" lon="9.510148859116656"><ele>123.00000000000001</ele><time>2026-04-20T14:45:24Z</time></trkpt><trkpt lat="44.978392188234714" lon="9.510175073849043"><ele>123.00000000000001</ele><time>2026-04-20T14:45:25Z</time></trkpt><trkpt lat="44.978456291517396" lon="9.510195936788895"><ele>122.80000000000001</ele><time>2026-04-20T14:45:26Z</time></trkpt><trkpt lat="44.97851859061482" lon="9.510211931758729"><ele>122.60000000000001</ele><time>2026-04-20T14:45:27Z</time></trkpt><trkpt lat="44.97863622570736" lon="9.510173707707034"><ele>122.39999999999999</ele><time>2026-04-20T14:45:29Z</time></trkpt><trkpt lat="44.978699192590874" lon="9.510029107552969"><ele>122.19999999999999</ele><time>2026-04-20T14:45:31Z</time></trkpt><trkpt lat="44.9787347065838" lon="9.509865317924435"><ele>122.0</ele><time>2026-04-20T14:45:33Z</time></trkpt><trkpt lat="44.97877011255967" lon="9.509721973476076"><ele>122.0</ele><time>2026-04-20T14:45:35Z</time></trkpt><trkpt lat="44.97880731379585" lon="9.509582467076697"><ele>122.0</ele><time>2026-04-20T14:45:37Z</time></trkpt><trkpt lat="44.97885094669592" lon="9.509457160285532"><ele>122.0</ele><time>2026-04-20T14:45:39Z</time></trkpt><trkpt lat="44.97888989044314" lon="9.509297338989189"><ele>122.0</ele><time>2026-04-20T14:45:41Z</time></trkpt><trkpt lat="44.97898524736954" lon="9.509175951343568"><ele>121.8</ele><time>2026-04-20T14:45:43Z</time></trkpt><trkpt lat="44.97911289136165" lon="9.50916526713213"><ele>121.6</ele><time>2026-04-20T14:45:45Z</time></trkpt><trkpt lat="44.97918092203749" lon="9.50917607581306"><ele>121.39999999999999</ele><time>2026-04-20T14:45:46Z</time></trkpt><trkpt lat="44.97930687790372" lon="9.509193760762235"><ele>121.19999999999999</ele><time>2026-04-20T14:45:48Z</time></trkpt><trkpt lat="44.97937516558514" lon="9.509202874907388"><ele>121.0</ele><time>2026-04-20T14:45:49Z</time></trkpt><trkpt lat="44.979450808110975" lon="9.509214264474316"><ele>120.71428571428571</ele><time>2026-04-20T14:45:50Z</time></trkpt><trkpt lat="44.97951865149347" lon="9.509228178715825"><ele>120.42857142857142</ele><time>2026-04-20T14:45:51Z</time></trkpt><trkpt lat="44.979585975261365" lon="9.50924217663728"><ele>120.14285714285714</ele><time>2026-04-20T14:45:52Z</time></trkpt><trkpt lat="44.97965747198992" lon="9.509247199296448"><ele>119.85714285714286</ele><time>2026-04-20T14:45:53Z</time></trkpt><trkpt lat="44.97973149507947" lon="9.509255831904095"><ele>119.57142857142857</ele><time>2026-04-20T14:45:54Z</time></trkpt><trkpt lat="44.979803583256874" lon="9.5092680704101"><ele>119.28571428571428</ele><time>2026-04-20T14:45:55Z</time></trkpt><trkpt lat="44.97987606792044" lon="9.50927914993613"><ele>119.0</ele><time>2026-04-20T14:45:56Z</time></trkpt><trkpt lat="44.97994778898139" lon="9.509281001592685"><ele>118.85714285714286</ele><time>2026-04-20T14:45:57Z</time></trkpt><trkpt lat="44.980021641335824" lon="9.509290555936195"><ele>118.71428571428572</ele><time>2026-04-20T14:45:58Z</time></trkpt><trkpt lat="44.98009275081378" lon="9.509298884769319"><ele>118.57142857142857</ele><time>2026-04-20T14:45:59Z</time></trkpt><trkpt lat="44.980164256992836" lon="9.509303882103568"><ele>118.42857142857143</ele><time>2026-04-20T14:46:00Z</time></trkpt><trkpt lat="44.98023335022236" lon="9.509313149709902"><ele>118.28571428571429</ele><time>2026-04-20T14:46:01Z</time></trkpt><trkpt lat="44.980303013590515" lon="9.509326778365192"><ele>118.14285714285714</ele><time>2026-04-20T14:46:02Z</time></trkpt><trkpt lat="44.98037287598761" lon="9.509333977237873"><ele>118.0</ele><time>2026-04-20T14:46:03Z</time></trkpt><trkpt lat="44.98044146330703" lon="9.509346104209223"><ele>118.0</ele><time>2026-04-20T14:46:04Z</time></trkpt><trkpt lat="44.9805092243946" lon="9.509350508846484"><ele>118.0</ele><time>2026-04-20T14:46:05Z</time></trkpt><trkpt lat="44.98057703976455" lon="9.509352912119706"><ele>118.0</ele><time>2026-04-20T14:46:06Z</time></trkpt><trkpt lat="44.98064897760123" lon="9.50937004876549"><ele>118.0</ele><time>2026-04-20T14:46:07Z</time></trkpt><trkpt lat="44.980716318860395" lon="9.509389688591751"><ele>118.0</ele><time>2026-04-20T14:46:08Z</time></trkpt><trkpt lat="44.980784448594484" lon="9.509407430013693"><ele>118.0</ele><time>2026-04-20T14:46:09Z</time></trkpt><trkpt lat="44.980853403969505" lon="9.509432549253715"><ele>118.0</ele><time>2026-04-20T14:46:10Z</time></trkpt><trkpt lat="44.980920415510845" lon="9.509449702173173"><ele>117.71428571428571</ele><time>2026-04-20T14:46:11Z</time></trkpt><trkpt lat="44.980990813649015" lon="9.509471068373188"><ele>117.42857142857144</ele><time>2026-04-20T14:46:12Z</time></trkpt><trkpt lat="44.98106096539631" lon="9.509490080660308"><ele>117.14285714285715</ele><time>2026-04-20T14:46:13Z</time></trkpt><trkpt lat="44.9811344799522" lon="9.509506539451397"><ele>116.85714285714286</ele><time>2026-04-20T14:46:14Z</time></trkpt><trkpt lat="44.98120802590477" lon="9.509530184491906"><ele>116.57142857142858</ele><time>2026-04-20T14:46:15Z</time></trkpt><trkpt lat="44.981283336836505" lon="9.509550054773202"><ele>116.2857142857143</ele><time>2026-04-20T14:46:16Z</time></trkpt><trkpt lat="44.98135925719932" lon="9.509569975834484"><ele>116.00000000000001</ele><time>2026-04-20T14:46:17Z</time></trkpt><trkpt lat="44.98143444914019" lon="9.509587567636192"><ele>115.99999999999999</ele><time>2026-04-20T14:46:18Z</time></trkpt><trkpt lat="44.981513474532406" lon="9.509608231768883"><ele>116.0</ele><time>2026-04-20T14:46:19Z</time></trkpt><trkpt lat="44.981591905907074" lon="9.509630144679212"><ele>116.0</ele><time>2026-04-20T14:46:20Z</time></trkpt><trkpt lat="44.98166936319685" lon="9.50964955591765"><ele>116.0</ele><time>2026-04-20T14:46:21Z</time></trkpt><trkpt lat="44.981746814373096" lon="9.50966784897929"><ele>115.99999999999999</ele><time>2026-04-20T14:46:22Z</time></trkpt><trkpt lat="44.98182411731167" lon="9.509679577737794"><ele>116.0</ele><time>2026-04-20T14:46:23Z</time></trkpt><trkpt lat="44.98190198481295" lon="9.509692586099954"><ele>115.99999999999999</ele><time>2026-04-20T14:46:24Z</time></trkpt><trkpt lat="44.98198143801354" lon="9.509706068066738"><ele>116.0</ele><time>2026-04-20T14:46:24.999Z</time></trkpt><trkpt lat="44.9820586807572" lon="9.509718425701742"><ele>116.0</ele><time>2026-04-20T14:46:25.999Z</time></trkpt><trkpt lat="44.98213651529167" lon="9.509730423692499"><ele>116.0</ele><time>2026-04-20T14:46:26.999Z</time></trkpt><trkpt lat="44.98221611633899" lon="9.509737636370318"><ele>115.99999999999999</ele><time>2026-04-20T14:46:27.999Z</time></trkpt><trkpt lat="44.98229103422361" lon="9.509739188783628"><ele>116.0</ele><time>2026-04-20T14:46:28.999Z</time></trkpt><trkpt lat="44.98237337654949" lon="9.509739581074971"><ele>115.99999999999999</ele><time>2026-04-20T14:46:29.999Z</time></trkpt><trkpt lat="44.98245467036564" lon="9.509743469957138"><ele>116.0</ele><time>2026-04-20T14:46:30.999Z</time></trkpt><trkpt lat="44.98253767417928" lon="9.509742549463024"><ele>116.0</ele><time>2026-04-20T14:46:31.999Z</time></trkpt><trkpt lat="44.98261836387801" lon="9.509744737971907"><ele>116.0</ele><time>2026-04-20T14:46:32.999Z</time></trkpt><trkpt lat="44.982698899766355" lon="9.509735761629532"><ele>115.99999999999999</ele><time>2026-04-20T14:46:33.999Z</time></trkpt><trkpt lat="44.98277990551424" lon="9.509733877646392"><ele>116.0</ele><time>2026-04-20T14:46:34.999Z</time></trkpt><trkpt lat="44.9828601106065" lon="9.509733194464973"><ele>115.33333333333333</ele><time>2026-04-20T14:46:35.999Z</time></trkpt><trkpt lat="44.982939301573396" lon="9.509740188870024"><ele>114.66666666666666</ele><time>2026-04-20T14:46:36.999Z</time></trkpt><trkpt lat="44.983020823679084" lon="9.509751761768026"><ele>114.0</ele><time>2026-04-20T14:46:37.999Z</time></trkpt><trkpt lat="44.98310126940045" lon="9.509770498752875"><ele>113.33333333333334</ele><time>2026-04-20T14:46:38.999Z</time></trkpt><trkpt lat="44.98317753870052" lon="9.509797762207912"><ele>112.66666666666667</ele><time>2026-04-20T14:46:39.999Z</time></trkpt><trkpt lat="44.98325236511311" lon="9.50981740746901"><ele>112.0</ele><time>2026-04-20T14:46:40.999Z</time></trkpt><trkpt lat="44.98333314130675" lon="9.509843584038403"><ele>111.83333333333334</ele><time>2026-04-20T14:46:41.999Z</time></trkpt><trkpt lat="44.98340899643536" lon="9.509872021076976"><ele>111.66666666666667</ele><time>2026-04-20T14:46:42.999Z</time></trkpt><trkpt lat="44.98348683007004" lon="9.50989087262332"><ele>111.5</ele><time>2026-04-20T14:46:43.999Z</time></trkpt><trkpt lat="44.98356576453877" lon="9.50990965348796"><ele>111.33333333333334</ele><time>2026-04-20T14:46:44.999Z</time></trkpt><trkpt lat="44.98364636682142" lon="9.509933799692524"><ele>111.16666666666667</ele><time>2026-04-20T14:46:45.999Z</time></trkpt><trkpt lat="44.98372458116955" lon="9.50996232252064"><ele>111.0</ele><time>2026-04-20T14:46:46.999Z</time></trkpt><trkpt lat="44.98380184594438" lon="9.50998464438833"><ele>111.0</ele><time>2026-04-20T14:46:47.999Z</time></trkpt><trkpt lat="44.983879331501065" lon="9.510008634875765"><ele>111.0</ele><time>2026-04-20T14:46:48.999Z</time></trkpt><trkpt lat="44.98396042247411" lon="9.51003380457567"><ele>111.0</ele><time>2026-04-20T14:46:49.999Z</time></trkpt><trkpt lat="44.98404085258109" lon="9.510056015342759"><ele>111.0</ele><time>2026-04-20T14:46:50.999Z</time></trkpt><trkpt lat="44.98412042125648" lon="9.51008577013241"><ele>111.0</ele><time>2026-04-20T14:46:51.999Z</time></trkpt><trkpt lat="44.98420549427034" lon="9.510109953512506"><ele>111.0</ele><time>2026-04-20T14:46:52.999Z</time></trkpt><trkpt lat="44.984288339231796" lon="9.510134076701133"><ele>110.5</ele><time>2026-04-20T14:46:53.999Z</time></trkpt><trkpt lat="44.98437246434468" lon="9.510162937648337"><ele>110.0</ele><time>2026-04-20T14:46:54.999Z</time></trkpt><trkpt lat="44.98445505950195" lon="9.510190051747525"><ele>109.5</ele><time>2026-04-20T14:46:55.999Z</time></trkpt><trkpt lat="44.984540697046576" lon="9.510216849504152"><ele>109.0</ele><time>2026-04-20T14:46:57Z</time></trkpt><trkpt lat="44.98462528769192" lon="9.51024030859429"><ele>108.5</ele><time>2026-04-20T14:46:58Z</time></trkpt><trkpt lat="44.984707364999515" lon="9.510266570858159"><ele>108.0</ele><time>2026-04-20T14:46:59Z</time></trkpt><trkpt lat="44.98478857780346" lon="9.510293180724211"><ele>108.0</ele><time>2026-04-20T14:47:00Z</time></trkpt><trkpt lat="44.98487061987837" lon="9.510320043467727"><ele>108.0</ele><time>2026-04-20T14:47:01Z</time></trkpt><trkpt lat="44.984953566060966" lon="9.510347677290858"><ele>108.0</ele><time>2026-04-20T14:47:02Z</time></trkpt><trkpt lat="44.98503932636775" lon="9.510373807570476"><ele>108.0</ele><time>2026-04-20T14:47:03Z</time></trkpt><trkpt lat="44.98512462275414" lon="9.5104032758726"><ele>108.0</ele><time>2026-04-20T14:47:04Z</time></trkpt><trkpt lat="44.98520903759867" lon="9.510439997803607"><ele>108.0</ele><time>2026-04-20T14:47:05Z</time></trkpt><trkpt lat="44.98529286772217" lon="9.510473248887164"><ele>108.16666666666667</ele><time>2026-04-20T14:47:06Z</time></trkpt><trkpt lat="44.98537921388552" lon="9.510508605169163"><ele>108.33333333333334</ele><time>2026-04-20T14:47:07Z</time></trkpt><trkpt lat="44.98546448276972" lon="9.51054066795778"><ele>108.5</ele><time>2026-04-20T14:47:08Z</time></trkpt><trkpt lat="44.98554288156985" lon="9.51058286958873"><ele>108.66666666666667</ele><time>2026-04-20T14:47:09Z</time></trkpt><trkpt lat="44.985617284390386" lon="9.51062745795961"><ele>108.83333333333334</ele><time>2026-04-20T14:47:10Z</time></trkpt><trkpt lat="44.985696253307964" lon="9.51066997599236"><ele>109.0</ele><time>2026-04-20T14:47:11Z</time></trkpt><trkpt lat="44.98577325285414" lon="9.510707301544437"><ele>108.50000000000001</ele><time>2026-04-20T14:47:12Z</time></trkpt><trkpt lat="44.98584812390036" lon="9.510747552009498"><ele>108.0</ele><time>2026-04-20T14:47:13Z</time></trkpt><trkpt lat="44.98592201886912" lon="9.510784164953998"><ele>107.5</ele><time>2026-04-20T14:47:14Z</time></trkpt><trkpt lat="44.98599376283804" lon="9.510822382844854"><ele>107.0</ele><time>2026-04-20T14:47:15Z</time></trkpt><trkpt lat="44.98606473129945" lon="9.510853429314086"><ele>106.50000000000001</ele><time>2026-04-20T14:47:16Z</time></trkpt><trkpt lat="44.98613931888774" lon="9.510899531456692"><ele>106.0</ele><time>2026-04-20T14:47:17Z</time></trkpt><trkpt lat="44.98621700847387" lon="9.510935951219677"><ele>106.00000000000001</ele><time>2026-04-20T14:47:18Z</time></trkpt><trkpt lat="44.98629625298808" lon="9.510977037554385"><ele>106.0</ele><time>2026-04-20T14:47:19Z</time></trkpt><trkpt lat="44.98637181936462" lon="9.511011074697857"><ele>106.0</ele><time>2026-04-20T14:47:20Z</time></trkpt><trkpt lat="44.98644898239656" lon="9.51105343734827"><ele>106.0</ele><time>2026-04-20T14:47:21Z</time></trkpt><trkpt lat="44.98652786028685" lon="9.51109826694492"><ele>106.00000000000001</ele><time>2026-04-20T14:47:22Z</time></trkpt><trkpt lat="44.98660269502991" lon="9.511138174816146"><ele>106.0</ele><time>2026-04-20T14:47:23Z</time></trkpt><trkpt lat="44.986679030553816" lon="9.5111809410024"><ele>106.00000000000001</ele><time>2026-04-20T14:47:24Z</time></trkpt><trkpt lat="44.98675621013567" lon="9.511209761024718"><ele>106.0</ele><time>2026-04-20T14:47:25Z</time></trkpt><trkpt lat="44.986836039503224" lon="9.5112493160229"><ele>106.0</ele><time>2026-04-20T14:47:26Z</time></trkpt><trkpt lat="44.986912058769754" lon="9.511286152826731"><ele>106.0</ele><time>2026-04-20T14:47:27Z</time></trkpt><trkpt lat="44.98698878352854" lon="9.511324597280804"><ele>106.00000000000001</ele><time>2026-04-20T14:47:28Z</time></trkpt><trkpt lat="44.98706404805671" lon="9.511358883733738"><ele>106.0</ele><time>2026-04-20T14:47:29Z</time></trkpt><trkpt lat="44.98714086850661" lon="9.51139228987415"><ele>106.00000000000001</ele><time>2026-04-20T14:47:30Z</time></trkpt><trkpt lat="44.987218997368835" lon="9.511430098122409"><ele>106.0</ele><time>2026-04-20T14:47:31Z</time></trkpt><trkpt lat="44.987298610974875" lon="9.511469351705292"><ele>106.0</ele><time>2026-04-20T14:47:32Z</time></trkpt><trkpt lat="44.98737535707257" lon="9.511506834780256"><ele>106.0</ele><time>2026-04-20T14:47:33Z</time></trkpt><trkpt lat="44.987450948752276" lon="9.511545036147325"><ele>106.00000000000001</ele><time>2026-04-20T14:47:34Z</time></trkpt><trkpt lat="44.98752766354916" lon="9.51157957699004"><ele>106.0</ele><time>2026-04-20T14:47:35Z</time></trkpt><trkpt lat="44.98760282615902" lon="9.51161479841508"><ele>105.33333333333334</ele><time>2026-04-20T14:47:36Z</time></trkpt><trkpt lat="44.98767868011622" lon="9.51165663678582"><ele>104.66666666666667</ele><time>2026-04-20T14:47:37Z</time></trkpt><trkpt lat="44.98775327840416" lon="9.511689153198045"><ele>104.0</ele><time>2026-04-20T14:47:38Z</time></trkpt><trkpt lat="44.98782656303953" lon="9.51173147459604"><ele>103.33333333333334</ele><time>2026-04-20T14:47:39Z</time></trkpt><trkpt lat="44.987902770771655" lon="9.511764518906206"><ele>102.66666666666667</ele><time>2026-04-20T14:47:40Z</time></trkpt><trkpt lat="44.98797546600064" lon="9.511797216938831"><ele>102.0</ele><time>2026-04-20T14:47:41Z</time></trkpt><trkpt lat="44.98804208186256" lon="9.511833668334233"><ele>102.0</ele><time>2026-04-20T14:47:42Z</time></trkpt><trkpt lat="44.98810838064686" lon="9.511874139448794"><ele>102.0</ele><time>2026-04-20T14:47:43Z</time></trkpt><trkpt lat="44.988173379669696" lon="9.511902264754708"><ele>102.0</ele><time>2026-04-20T14:47:44Z</time></trkpt><trkpt lat="44.98824052588092" lon="9.511931290610358"><ele>102.0</ele><time>2026-04-20T14:47:45Z</time></trkpt><trkpt lat="44.988316137436534" lon="9.511962552581712"><ele>102.0</ele><time>2026-04-20T14:47:46Z</time></trkpt><trkpt lat="44.98839232254728" lon="9.512001604782046"><ele>102.0</ele><time>2026-04-20T14:47:47Z</time></trkpt><trkpt lat="44.988470991256435" lon="9.512039727704606"><ele>101.83333333333333</ele><time>2026-04-20T14:47:48Z</time></trkpt><trkpt lat="44.988547182433884" lon="9.512072554656445"><ele>101.66666666666666</ele><time>2026-04-20T14:47:49Z</time></trkpt><trkpt lat="44.98862361546425" lon="9.512105791738648"><ele>101.5</ele><time>2026-04-20T14:47:50Z</time></trkpt><trkpt lat="44.98870207680276" lon="9.512137885257852"><ele>101.33333333333333</ele><time>2026-04-20T14:47:51Z</time></trkpt><trkpt lat="44.988778989587985" lon="9.512167341657237"><ele>101.16666666666666</ele><time>2026-04-20T14:47:52Z</time></trkpt><trkpt lat="44.98885413498995" lon="9.512194817468709"><ele>101.0</ele><time>2026-04-20T14:47:53Z</time></trkpt><trkpt lat="44.98892898382397" lon="9.51223642735749"><ele>100.99999999999999</ele><time>2026-04-20T14:47:54Z</time></trkpt><trkpt lat="44.989008803583594" lon="9.512264374439166"><ele>101.0</ele><time>2026-04-20T14:47:55Z</time></trkpt><trkpt lat="44.989089818822734" lon="9.5122986189965"><ele>101.0</ele><time>2026-04-20T14:47:56Z</time></trkpt><trkpt lat="44.98916741222511" lon="9.51232810900972"><ele>101.0</ele><time>2026-04-20T14:47:57Z</time></trkpt><trkpt lat="44.98924642131548" lon="9.512353630013758"><ele>100.99999999999999</ele><time>2026-04-20T14:47:58Z</time></trkpt><trkpt lat="44.989322770194995" lon="9.512385345098071"><ele>101.0</ele><time>2026-04-20T14:47:59Z</time></trkpt><trkpt lat="44.989400358983445" lon="9.512416641702632"><ele>100.99999999999999</ele><time>2026-04-20T14:48:00Z</time></trkpt><trkpt lat="44.989480112138274" lon="9.512457138274177"><ele>101.0</ele><time>2026-04-20T14:48:01Z</time></trkpt><trkpt lat="44.98956698192469" lon="9.512490088621053"><ele>101.0</ele><time>2026-04-20T14:48:02Z</time></trkpt><trkpt lat="44.989648394894665" lon="9.512521706115662"><ele>101.0</ele><time>2026-04-20T14:48:03Z</time></trkpt><trkpt lat="44.98972861251525" lon="9.512556151475597"><ele>100.99999999999999</ele><time>2026-04-20T14:48:04Z</time></trkpt><trkpt lat="44.98980808487349" lon="9.512589333158305"><ele>101.0</ele><time>2026-04-20T14:48:05Z</time></trkpt><trkpt lat="44.98988849311993" lon="9.512617133254926"><ele>100.99999999999999</ele><time>2026-04-20T14:48:06Z</time></trkpt><trkpt lat="44.98997202206725" lon="9.512645543336731"><ele>101.0</ele><time>2026-04-20T14:48:07Z</time></trkpt><trkpt lat="44.99005530284101" lon="9.512675898234527"><ele>101.0</ele><time>2026-04-20T14:48:08Z</time></trkpt><trkpt lat="44.99013478147745" lon="9.51271235041177"><ele>101.0</ele><time>2026-04-20T14:48:09Z</time></trkpt><trkpt lat="44.99021748716706" lon="9.512747022510057"><ele>100.99999999999999</ele><time>2026-04-20T14:48:10Z</time></trkpt><trkpt lat="44.99030049107022" lon="9.51277968604827"><ele>101.0</ele><time>2026-04-20T14:48:11Z</time></trkpt><trkpt lat="44.99038398468888" lon="9.512814159863519"><ele>100.66666666666666</ele><time>2026-04-20T14:48:12Z</time></trkpt><trkpt lat="44.99047035413406" lon="9.512846131813546"><ele>100.33333333333333</ele><time>2026-04-20T14:48:13Z</time></trkpt><trkpt lat="44.99055527736677" lon="9.51287975947173"><ele>100.0</ele><time>2026-04-20T14:48:14Z</time></trkpt><trkpt lat="44.99063577077141" lon="9.512912789692967"><ele>99.66666666666666</ele><time>2026-04-20T14:48:15Z</time></trkpt><trkpt lat="44.99071889610553" lon="9.512946567480249"><ele>99.33333333333333</ele><time>2026-04-20T14:48:16Z</time></trkpt><trkpt lat="44.99079850176388" lon="9.512977821280014"><ele>99.0</ele><time>2026-04-20T14:48:17Z</time></trkpt><trkpt lat="44.99087725159707" lon="9.513008866768772"><ele>98.0</ele><time>2026-04-20T14:48:18Z</time></trkpt><trkpt lat="44.99095446353694" lon="9.513041826953751"><ele>97.0</ele><time>2026-04-20T14:48:19Z</time></trkpt><trkpt lat="44.99103192182723" lon="9.513081543287644"><ele>96.0</ele><time>2026-04-20T14:48:20Z</time></trkpt><trkpt lat="44.991108628909785" lon="9.513101991193475"><ele>95.0</ele><time>2026-04-20T14:48:21Z</time></trkpt><trkpt lat="44.99118982931681" lon="9.513125281325049"><ele>94.0</ele><time>2026-04-20T14:48:22Z</time></trkpt><trkpt lat="44.99126812908345" lon="9.513155662374743"><ele>93.0</ele><time>2026-04-20T14:48:23Z</time></trkpt><trkpt lat="44.99134522772763" lon="9.5131764474955"><ele>93.0</ele><time>2026-04-20T14:48:24Z</time></trkpt><trkpt lat="44.991422985285894" lon="9.513182665694282"><ele>93.0</ele><time>2026-04-20T14:48:25Z</time></trkpt><trkpt lat="44.99150329513425" lon="9.513169936250103"><ele>93.0</ele><time>2026-04-20T14:48:26Z</time></trkpt><trkpt lat="44.99158451934306" lon="9.513146653763696"><ele>93.0</ele><time>2026-04-20T14:48:27Z</time></trkpt><trkpt lat="44.991662679925575" lon="9.513111393729773"><ele>93.0</ele><time>2026-04-20T14:48:28Z</time></trkpt><trkpt lat="44.99174116080057" lon="9.51307714147768"><ele>93.0</ele><time>2026-04-20T14:48:29Z</time></trkpt><trkpt lat="44.99182034274621" lon="9.513044999825585"><ele>93.0</ele><time>2026-04-20T14:48:30Z</time></trkpt><trkpt lat="44.99189669578243" lon="9.513009018833017"><ele>93.0</ele><time>2026-04-20T14:48:31Z</time></trkpt><trkpt lat="44.99197215923545" lon="9.512972575588522"><ele>93.0</ele><time>2026-04-20T14:48:32Z</time></trkpt><trkpt lat="44.992044080708865" lon="9.512934215448656"><ele>93.0</ele><time>2026-04-20T14:48:33Z</time></trkpt><trkpt lat="44.992116103260805" lon="9.512891536563535"><ele>93.0</ele><time>2026-04-20T14:48:34Z</time></trkpt><trkpt lat="44.99218686938682" lon="9.512852033496564"><ele>93.0</ele><time>2026-04-20T14:48:35Z</time></trkpt><trkpt lat="44.99225624252535" lon="9.512804208839928"><ele>93.16666666666667</ele><time>2026-04-20T14:48:36Z</time></trkpt><trkpt lat="44.99232171204844" lon="9.512754255309737"><ele>93.33333333333333</ele><time>2026-04-20T14:48:36.999Z</time></trkpt><trkpt lat="44.99238961529453" lon="9.512707424291095"><ele>93.5</ele><time>2026-04-20T14:48:37.999Z</time></trkpt><trkpt lat="44.99245559030871" lon="9.512656340025654"><ele>93.66666666666666</ele><time>2026-04-20T14:48:38.999Z</time></trkpt><trkpt lat="44.99252321061272" lon="9.512607332873582"><ele>93.83333333333333</ele><time>2026-04-20T14:48:39.999Z</time></trkpt><trkpt lat="44.99259322242536" lon="9.512558208219065"><ele>94.0</ele><time>2026-04-20T14:48:40.999Z</time></trkpt><trkpt lat="44.99266289235182" lon="9.512513257518343"><ele>94.14285714285714</ele><time>2026-04-20T14:48:41.999Z</time></trkpt><trkpt lat="44.992734351900644" lon="9.512467405885968"><ele>94.28571428571428</ele><time>2026-04-20T14:48:42.999Z</time></trkpt><trkpt lat="44.99280153151421" lon="9.51242447421895"><ele>94.42857142857143</ele><time>2026-04-20T14:48:43.999Z</time></trkpt><trkpt lat="44.99286733374327" lon="9.512382244215775"><ele>94.57142857142857</ele><time>2026-04-20T14:48:44.999Z</time></trkpt><trkpt lat="44.99293240167175" lon="9.512339045327542"><ele>94.71428571428572</ele><time>2026-04-20T14:48:45.999Z</time></trkpt><trkpt lat="44.99299721312126" lon="9.512292844585613"><ele>94.85714285714286</ele><time>2026-04-20T14:48:46.999Z</time></trkpt><trkpt lat="44.993062241728985" lon="9.512241574355494"><ele>95.0</ele><time>2026-04-20T14:48:47.999Z</time></trkpt><trkpt lat="44.99312910211719" lon="9.512199795287268"><ele>95.0</ele><time>2026-04-20T14:48:48.999Z</time></trkpt><trkpt lat="44.99319362837368" lon="9.512162716076539"><ele>95.0</ele><time>2026-04-20T14:48:49.999Z</time></trkpt><trkpt lat="44.99325720497942" lon="9.512122684209523"><ele>95.0</ele><time>2026-04-20T14:48:50.999Z</time></trkpt><trkpt lat="44.99332340995293" lon="9.512076790346912"><ele>95.0</ele><time>2026-04-20T14:48:51.999Z</time></trkpt><trkpt lat="44.993390917125254" lon="9.512030080299793"><ele>95.0</ele><time>2026-04-20T14:48:52.999Z</time></trkpt><trkpt lat="44.99345738488794" lon="9.511984037665341"><ele>95.0</ele><time>2026-04-20T14:48:53.999Z</time></trkpt><trkpt lat="44.993520351368645" lon="9.51193881486617"><ele>95.0</ele><time>2026-04-20T14:48:54.999Z</time></trkpt><trkpt lat="44.99358390469375" lon="9.511896364361057"><ele>95.14285714285714</ele><time>2026-04-20T14:48:55.999Z</time></trkpt><trkpt lat="44.99364691391763" lon="9.511856567877773"><ele>95.28571428571429</ele><time>2026-04-20T14:48:56.999Z</time></trkpt><trkpt lat="44.99371058431564" lon="9.511811253897775"><ele>95.42857142857142</ele><time>2026-04-20T14:48:57.999Z</time></trkpt><trkpt lat="44.99377241338361" lon="9.511768223999423"><ele>95.57142857142857</ele><time>2026-04-20T14:48:58.999Z</time></trkpt><trkpt lat="44.99383250107837" lon="9.511730440787312"><ele>95.71428571428571</ele><time>2026-04-20T14:48:59.999Z</time></trkpt><trkpt lat="44.99389671404427" lon="9.51168571899561"><ele>95.85714285714285</ele><time>2026-04-20T14:49:00.999Z</time></trkpt><trkpt lat="44.99396025047647" lon="9.511637889210764"><ele>96.0</ele><time>2026-04-20T14:49:01.999Z</time></trkpt><trkpt lat="44.994022941638036" lon="9.511595554029665"><ele>95.99999999999999</ele><time>2026-04-20T14:49:03Z</time></trkpt><trkpt lat="44.9940868967589" lon="9.511548315658814"><ele>96.0</ele><time>2026-04-20T14:49:04Z</time></trkpt><trkpt lat="44.99414801856101" lon="9.511505878116578"><ele>96.0</ele><time>2026-04-20T14:49:05Z</time></trkpt><trkpt lat="44.994205615742466" lon="9.511469149741888"><ele>96.0</ele><time>2026-04-20T14:49:06Z</time></trkpt><trkpt lat="44.99426927992082" lon="9.511422637806277"><ele>96.0</ele><time>2026-04-20T14:49:07Z</time></trkpt><trkpt lat="44.994332927738675" lon="9.511382398186917"><ele>95.99999999999999</ele><time>2026-04-20T14:49:08Z</time></trkpt><trkpt lat="44.994394803151714" lon="9.51134439344229"><ele>96.0</ele><time>2026-04-20T14:49:09Z</time></trkpt><trkpt lat="44.994458341849814" lon="9.511304943979244"><ele>95.57142857142857</ele><time>2026-04-20T14:49:10Z</time></trkpt><trkpt lat="44.99451856910543" lon="9.51126327388568"><ele>95.14285714285714</ele><time>2026-04-20T14:49:11Z</time></trkpt><trkpt lat="44.99457907803761" lon="9.511213512641042"><ele>94.71428571428572</ele><time>2026-04-20T14:49:12Z</time></trkpt><trkpt lat="44.99463881423872" lon="9.511177081511782"><ele>94.28571428571428</ele><time>2026-04-20T14:49:13Z</time></trkpt><trkpt lat="44.99470233116362" lon="9.511143347989623"><ele>93.85714285714286</ele><time>2026-04-20T14:49:14Z</time></trkpt><trkpt lat="44.994765181703144" lon="9.51111715900634"><ele>93.42857142857143</ele><time>2026-04-20T14:49:15Z</time></trkpt><trkpt lat="44.99482989210843" lon="9.511094746068663"><ele>93.0</ele><time>2026-04-20T14:49:16Z</time></trkpt><trkpt lat="44.99489515348524" lon="9.511082415362432"><ele>93.00000000000001</ele><time>2026-04-20T14:49:17Z</time></trkpt><trkpt lat="44.99495915831665" lon="9.511078990059813"><ele>93.0</ele><time>2026-04-20T14:49:18Z</time></trkpt><trkpt lat="44.995025813669386" lon="9.51107594662157"><ele>93.0</ele><time>2026-04-20T14:49:19Z</time></trkpt><trkpt lat="44.995090624108755" lon="9.511069710515024"><ele>93.0</ele><time>2026-04-20T14:49:20Z</time></trkpt><trkpt lat="44.9951553801861" lon="9.511067619652454"><ele>93.0</ele><time>2026-04-20T14:49:21Z</time></trkpt><trkpt lat="44.995218712177305" lon="9.511064676645914"><ele>93.00000000000001</ele><time>2026-04-20T14:49:22Z</time></trkpt><trkpt lat="44.99528245868357" lon="9.511062759796626"><ele>93.0</ele><time>2026-04-20T14:49:23Z</time></trkpt><trkpt lat="44.99534546456029" lon="9.511058421590127"><ele>93.00000000000001</ele><time>2026-04-20T14:49:24Z</time></trkpt><trkpt lat="44.995469621719714" lon="9.511060296310198"><ele>93.0</ele><time>2026-04-20T14:49:26Z</time></trkpt><trkpt lat="44.99553319068809" lon="9.511056883266422"><ele>93.0</ele><time>2026-04-20T14:49:27Z</time></trkpt><trkpt lat="44.995597423281566" lon="9.511055447722601"><ele>93.0</ele><time>2026-04-20T14:49:28Z</time></trkpt><trkpt lat="44.99566239149529" lon="9.511053495786587"><ele>93.0</ele><time>2026-04-20T14:49:29Z</time></trkpt><trkpt lat="44.995726102697084" lon="9.51105673005366"><ele>93.00000000000001</ele><time>2026-04-20T14:49:30Z</time></trkpt><trkpt lat="44.99578977889311" lon="9.511057526813106"><ele>93.0</ele><time>2026-04-20T14:49:31Z</time></trkpt><trkpt lat="44.99585330300222" lon="9.511053874113271"><ele>93.00000000000001</ele><time>2026-04-20T14:49:32Z</time></trkpt><trkpt lat="44.995920736847" lon="9.511051583004898"><ele>93.0</ele><time>2026-04-20T14:49:33Z</time></trkpt><trkpt lat="44.995986059341824" lon="9.511058536316572"><ele>93.0</ele><time>2026-04-20T14:49:34Z</time></trkpt><trkpt lat="44.99605152853298" lon="9.51106536654212"><ele>93.0</ele><time>2026-04-20T14:49:35Z</time></trkpt><trkpt lat="44.99612129128434" lon="9.511069680287052"><ele>93.0</ele><time>2026-04-20T14:49:36Z</time></trkpt><trkpt lat="44.99618614381032" lon="9.511077422303595"><ele>93.00000000000001</ele><time>2026-04-20T14:49:37Z</time></trkpt><trkpt lat="44.99625256259796" lon="9.511090793860157"><ele>93.0</ele><time>2026-04-20T14:49:38Z</time></trkpt><trkpt lat="44.99631960139215" lon="9.511101256514024"><ele>93.00000000000001</ele><time>2026-04-20T14:49:39Z</time></trkpt><trkpt lat="44.99638732366391" lon="9.511108117747874"><ele>93.0</ele><time>2026-04-20T14:49:40Z</time></trkpt><trkpt lat="44.99645377705997" lon="9.511125909389836"><ele>93.0</ele><time>2026-04-20T14:49:41Z</time></trkpt><trkpt lat="44.99652052687352" lon="9.511135703007612"><ele>93.0</ele><time>2026-04-20T14:49:42Z</time></trkpt><trkpt lat="44.99658526970315" lon="9.511146168798112"><ele>93.0</ele><time>2026-04-20T14:49:43Z</time></trkpt><trkpt lat="44.99665422518411" lon="9.51115574201817"><ele>93.00000000000001</ele><time>2026-04-20T14:49:44Z</time></trkpt><trkpt lat="44.996720991297586" lon="9.511160521446747"><ele>93.0</ele><time>2026-04-20T14:49:45Z</time></trkpt><trkpt lat="44.996789059152846" lon="9.511175070065134"><ele>93.00000000000001</ele><time>2026-04-20T14:49:46Z</time></trkpt><trkpt lat="44.99685770313328" lon="9.511176799894313"><ele>93.0</ele><time>2026-04-20T14:49:47Z</time></trkpt><trkpt lat="44.99692860403305" lon="9.511182690277566"><ele>93.0</ele><time>2026-04-20T14:49:48Z</time></trkpt><trkpt lat="44.99699737135727" lon="9.511187496542464"><ele>93.0</ele><time>2026-04-20T14:49:49Z</time></trkpt><trkpt lat="44.997065099737796" lon="9.511194571690483"><ele>93.0</ele><time>2026-04-20T14:49:50Z</time></trkpt><trkpt lat="44.99713531177009" lon="9.511202236415771"><ele>93.00000000000001</ele><time>2026-04-20T14:49:51Z</time></trkpt><trkpt lat="44.997198438041025" lon="9.511213569777075"><ele>93.0</ele><time>2026-04-20T14:49:52Z</time></trkpt><trkpt lat="44.99726758310507" lon="9.51122523791002"><ele>93.00000000000001</ele><time>2026-04-20T14:49:53Z</time></trkpt><trkpt lat="44.99733185251432" lon="9.511228747427733"><ele>93.0</ele><time>2026-04-20T14:49:54Z</time></trkpt><trkpt lat="44.99739822784566" lon="9.511239530173928"><ele>93.0</ele><time>2026-04-20T14:49:55Z</time></trkpt><trkpt lat="44.997464185564255" lon="9.51124691977768"><ele>93.0</ele><time>2026-04-20T14:49:56Z</time></trkpt><trkpt lat="44.99752703067555" lon="9.51125348367892"><ele>93.0</ele><time>2026-04-20T14:49:57Z</time></trkpt><trkpt lat="44.99759615492801" lon="9.51126425883979"><ele>93.00000000000001</ele><time>2026-04-20T14:49:58Z</time></trkpt><trkpt lat="44.99766393012982" lon="9.511271030971365"><ele>93.0</ele><time>2026-04-20T14:49:59Z</time></trkpt><trkpt lat="44.99773326148357" lon="9.511281808314614"><ele>92.85714285714286</ele><time>2026-04-20T14:50:00Z</time></trkpt><trkpt lat="44.99780042633983" lon="9.51129328629564"><ele>92.71428571428572</ele><time>2026-04-20T14:50:01Z</time></trkpt><trkpt lat="44.99786743598797" lon="9.511298564272227"><ele>92.57142857142858</ele><time>2026-04-20T14:50:02Z</time></trkpt><trkpt lat="44.99793265473125" lon="9.511303142439921"><ele>92.42857142857143</ele><time>2026-04-20T14:50:03Z</time></trkpt><trkpt lat="44.99799619567072" lon="9.51131832211266"><ele>92.28571428571428</ele><time>2026-04-20T14:50:04Z</time></trkpt><trkpt lat="44.99806401232491" lon="9.51132328854319"><ele>92.14285714285715</ele><time>2026-04-20T14:50:05Z</time></trkpt><trkpt lat="44.9981313614046" lon="9.511329135923326"><ele>92.0</ele><time>2026-04-20T14:50:06Z</time></trkpt><trkpt lat="44.99825995736971" lon="9.511336053870876"><ele>92.0</ele><time>2026-04-20T14:50:08Z</time></trkpt><trkpt lat="44.998323530929135" lon="9.511344700780832"><ele>92.0</ele><time>2026-04-20T14:50:09Z</time></trkpt><trkpt lat="44.99839209235069" lon="9.51134263269185"><ele>92.0</ele><time>2026-04-20T14:50:10Z</time></trkpt><trkpt lat="44.998455936361445" lon="9.511339160562233"><ele>92.0</ele><time>2026-04-20T14:50:11Z</time></trkpt><trkpt lat="44.998584997041874" lon="9.511337657196322"><ele>92.0</ele><time>2026-04-20T14:50:13Z</time></trkpt><trkpt lat="44.99865014572902" lon="9.511343141281575"><ele>92.0</ele><time>2026-04-20T14:50:14Z</time></trkpt><trkpt lat="44.99871733161632" lon="9.511352953349698"><ele>92.19999999999999</ele><time>2026-04-20T14:50:15Z</time></trkpt><trkpt lat="44.9987830431253" lon="9.51135440935145"><ele>92.4</ele><time>2026-04-20T14:50:16Z</time></trkpt><trkpt lat="44.99890440721458" lon="9.511359086091229"><ele>92.6</ele><time>2026-04-20T14:50:18Z</time></trkpt><trkpt lat="44.998970318918225" lon="9.511376772211408"><ele>92.80000000000001</ele><time>2026-04-20T14:50:19Z</time></trkpt><trkpt lat="44.999037598711304" lon="9.511386267079072"><ele>93.0</ele><time>2026-04-20T14:50:20Z</time></trkpt><trkpt lat="44.99916530023679" lon="9.511397006221287"><ele>93.33333333333333</ele><time>2026-04-20T14:50:22Z</time></trkpt><trkpt lat="44.99928881543763" lon="9.511416339822214"><ele>93.66666666666667</ele><time>2026-04-20T14:50:24Z</time></trkpt><trkpt lat="44.99935418950943" lon="9.511420021957715"><ele>94.0</ele><time>2026-04-20T14:50:25Z</time></trkpt><trkpt lat="44.99942150270488" lon="9.51143056829296"><ele>94.33333333333334</ele><time>2026-04-20T14:50:26Z</time></trkpt><trkpt lat="44.99954723662838" lon="9.511442696958932"><ele>94.66666666666667</ele><time>2026-04-20T14:50:28Z</time></trkpt><trkpt lat="44.99961076468182" lon="9.511446813072864"><ele>95.0</ele><time>2026-04-20T14:50:29Z</time></trkpt><trkpt lat="44.99967304056516" lon="9.511462712579775"><ele>95.0</ele><time>2026-04-20T14:50:30Z</time></trkpt><trkpt lat="44.99978850690711" lon="9.511479063368224"><ele>95.0</ele><time>2026-04-20T14:50:32Z</time></trkpt><trkpt lat="44.99992345894183" lon="9.511493868185333"><ele>95.0</ele><time>2026-04-20T14:50:34Z</time></trkpt><trkpt lat="45.00003632396253" lon="9.51149817399124"><ele>95.0</ele><time>2026-04-20T14:50:36Z</time></trkpt><trkpt lat="45.00014640072585" lon="9.511508521960751"><ele>95.0</ele><time>2026-04-20T14:50:38Z</time></trkpt><trkpt lat="45.000212300090865" lon="9.511522172361845"><ele>95.0</ele><time>2026-04-20T14:50:39Z</time></trkpt><trkpt lat="45.00031662337614" lon="9.511532238737498"><ele>95.0</ele><time>2026-04-20T14:50:41Z</time></trkpt><trkpt lat="45.00038129577911" lon="9.511542089622202"><ele>95.0</ele><time>2026-04-20T14:50:42Z</time></trkpt><trkpt lat="45.0004973467758" lon="9.511576487964515"><ele>95.0</ele><time>2026-04-20T14:50:44Z</time></trkpt><trkpt lat="45.000614016749054" lon="9.51157684501178"><ele>95.0</ele><time>2026-04-20T14:50:46Z</time></trkpt><trkpt lat="45.000735690549256" lon="9.511592120251798"><ele>95.0</ele><time>2026-04-20T14:50:48Z</time></trkpt><trkpt lat="45.00079936751971" lon="9.511605787738869"><ele>95.0</ele><time>2026-04-20T14:50:49Z</time></trkpt><trkpt lat="45.00086341380461" lon="9.511606262655683"><ele>95.0</ele><time>2026-04-20T14:50:50Z</time></trkpt><trkpt lat="45.00098520202861" lon="9.511619800581178"><ele>95.0</ele><time>2026-04-20T14:50:52Z</time></trkpt><trkpt lat="45.00110925584508" lon="9.511631430788169"><ele>94.8</ele><time>2026-04-20T14:50:54Z</time></trkpt><trkpt lat="45.00117344183628" lon="9.511639059124775"><ele>94.6</ele><time>2026-04-20T14:50:55Z</time></trkpt><trkpt lat="45.001310360373395" lon="9.511647439065975"><ele>94.4</ele><time>2026-04-20T14:50:57Z</time></trkpt><trkpt lat="45.001435650727814" lon="9.51166185617963"><ele>94.2</ele><time>2026-04-20T14:50:58.999Z</time></trkpt><trkpt lat="45.001502220145596" lon="9.511669541277632"><ele>94.0</ele><time>2026-04-20T14:50:59.999Z</time></trkpt><trkpt lat="45.00156581250819" lon="9.511679289301947"><ele>94.0</ele><time>2026-04-20T14:51:00.999Z</time></trkpt><trkpt lat="45.00163643674096" lon="9.511676265188362"><ele>94.0</ele><time>2026-04-20T14:51:01.999Z</time></trkpt><trkpt lat="45.00170491247365" lon="9.511675688742185"><ele>94.0</ele><time>2026-04-20T14:51:02.999Z</time></trkpt><trkpt lat="45.0017683329647" lon="9.511689737542188"><ele>94.0</ele><time>2026-04-20T14:51:03.999Z</time></trkpt><trkpt lat="45.001892673496755" lon="9.511700762326361"><ele>94.0</ele><time>2026-04-20T14:51:05.999Z</time></trkpt><trkpt lat="45.001955557754705" lon="9.511711792509136"><ele>94.0</ele><time>2026-04-20T14:51:06.999Z</time></trkpt><trkpt lat="45.00206882179425" lon="9.51171613827354"><ele>93.6</ele><time>2026-04-20T14:51:09Z</time></trkpt><trkpt lat="45.002171546497905" lon="9.511660492540264"><ele>93.2</ele><time>2026-04-20T14:51:11Z</time></trkpt><trkpt lat="45.002208411956445" lon="9.5115155681159"><ele>92.8</ele><time>2026-04-20T14:51:13Z</time></trkpt><trkpt lat="45.002216842462325" lon="9.511361932533589"><ele>92.39999999999999</ele><time>2026-04-20T14:51:15Z</time></trkpt><trkpt lat="45.002219144966354" lon="9.51120848943212"><ele>92.0</ele><time>2026-04-20T14:51:17Z</time></trkpt><trkpt lat="45.002219252922806" lon="9.511055908449757"><ele>92.0</ele><time>2026-04-20T14:51:19Z</time></trkpt><trkpt lat="45.00222545936465" lon="9.510918143836987"><ele>92.0</ele><time>2026-04-20T14:51:21Z</time></trkpt><trkpt lat="45.00222682373113" lon="9.51079243092492"><ele>92.0</ele><time>2026-04-20T14:51:23Z</time></trkpt><trkpt lat="45.002228450217686" lon="9.510676830948583"><ele>92.0</ele><time>2026-04-20T14:51:25Z</time></trkpt><trkpt lat="45.00223541440505" lon="9.510559535903829"><ele>92.0</ele><time>2026-04-20T14:51:27Z</time></trkpt><trkpt lat="45.00223848364719" lon="9.510445934089818"><ele>92.0</ele><time>2026-04-20T14:51:29Z</time></trkpt><trkpt lat="45.00224442105621" lon="9.510330163501472"><ele>92.16666666666667</ele><time>2026-04-20T14:51:31Z</time></trkpt><trkpt lat="45.0022497839695" lon="9.51021188882578"><ele>92.33333333333334</ele><time>2026-04-20T14:51:33Z</time></trkpt><trkpt lat="45.00225506197981" lon="9.510084987000507"><ele>92.5</ele><time>2026-04-20T14:51:35Z</time></trkpt><trkpt lat="45.00225662720809" lon="9.509973803318246"><ele>92.66666666666667</ele><time>2026-04-20T14:51:37Z</time></trkpt><trkpt lat="45.00228027691968" lon="9.509863471063452"><ele>92.83333333333333</ele><time>2026-04-20T14:51:39Z</time></trkpt><trkpt lat="45.00233203931817" lon="9.509792651961934"><ele>93.0</ele><time>2026-04-20T14:51:41Z</time></trkpt><trkpt lat="45.00239853230676" lon="9.509867490555678"><ele>93.0</ele><time>2026-04-20T14:51:43Z</time></trkpt><trkpt lat="45.00244207969401" lon="9.509957679690451"><ele>93.0</ele><time>2026-04-20T14:51:45Z</time></trkpt><trkpt lat="45.002489599225214" lon="9.510041801733943"><ele>93.0</ele><time>2026-04-20T14:51:47Z</time></trkpt><trkpt lat="45.0025320040953" lon="9.510115030324364"><ele>93.0</ele><time>2026-04-20T14:51:49Z</time></trkpt><trkpt lat="45.00257285877878" lon="9.510202992061718"><ele>93.0</ele><time>2026-04-20T14:51:51Z</time></trkpt><trkpt lat="45.00263323726563" lon="9.510296830168956"><ele>93.0</ele><time>2026-04-20T14:51:54Z</time></trkpt><trkpt lat="45.002676482070974" lon="9.510371044600925"><ele>92.33333333333333</ele><time>2026-04-20T14:51:56Z</time></trkpt><trkpt lat="45.00273022341453" lon="9.510474112255146"><ele>91.66666666666667</ele><time>2026-04-20T14:51:59Z</time></trkpt><trkpt lat="45.00277556623711" lon="9.51055515917533"><ele>91.0</ele><time>2026-04-20T14:52:01Z</time></trkpt><trkpt lat="45.00282937041047" lon="9.510663924976006"><ele>90.33333333333334</ele><time>2026-04-20T14:52:03Z</time></trkpt><trkpt lat="45.002882016768716" lon="9.510745370946124"><ele>89.66666666666667</ele><time>2026-04-20T14:52:05Z</time></trkpt><trkpt lat="45.002924535890564" lon="9.51082762429356"><ele>89.0</ele><time>2026-04-20T14:52:07Z</time></trkpt><trkpt lat="45.00298171684576" lon="9.510921239618408"><ele>89.0</ele><time>2026-04-20T14:52:09Z</time></trkpt><trkpt lat="45.00302604600011" lon="9.511009524619924"><ele>89.0</ele><time>2026-04-20T14:52:11Z</time></trkpt><trkpt lat="45.00308936125861" lon="9.511097042206769"><ele>89.0</ele><time>2026-04-20T14:52:13Z</time></trkpt><trkpt lat="45.00312919346524" lon="9.511185412934543"><ele>89.0</ele><time>2026-04-20T14:52:15Z</time></trkpt><trkpt lat="45.003198854152586" lon="9.51129168673716"><ele>89.0</ele><time>2026-04-20T14:52:17Z</time></trkpt><trkpt lat="45.00324963674301" lon="9.511382519898275"><ele>89.0</ele><time>2026-04-20T14:52:19Z</time></trkpt><trkpt lat="45.003304713227706" lon="9.511463674915202"><ele>89.6</ele><time>2026-04-20T14:52:21Z</time></trkpt><trkpt lat="45.00335140134069" lon="9.511567630500632"><ele>90.2</ele><time>2026-04-20T14:52:23Z</time></trkpt><trkpt lat="45.003417515659166" lon="9.51168193761997"><ele>90.8</ele><time>2026-04-20T14:52:25Z</time></trkpt><trkpt lat="45.003482278016136" lon="9.511786575801027"><ele>91.39999999999999</ele><time>2026-04-20T14:52:27Z</time></trkpt><trkpt lat="45.003538018969294" lon="9.511888589979828"><ele>92.0</ele><time>2026-04-20T14:52:29Z</time></trkpt><trkpt lat="45.00359394619691" lon="9.51199405124459"><ele>91.8</ele><time>2026-04-20T14:52:31Z</time></trkpt><trkpt lat="45.003651828096736" lon="9.512083855132744"><ele>91.6</ele><time>2026-04-20T14:52:33Z</time></trkpt><trkpt lat="45.00370284779494" lon="9.512180169921894"><ele>91.39999999999999</ele><time>2026-04-20T14:52:35Z</time></trkpt><trkpt lat="45.00376042479133" lon="9.512286897389384"><ele>91.19999999999999</ele><time>2026-04-20T14:52:37Z</time></trkpt><trkpt lat="45.00382128162535" lon="9.512395504104449"><ele>91.0</ele><time>2026-04-20T14:52:39Z</time></trkpt><trkpt lat="45.0038899742086" lon="9.51251173869304"><ele>91.0</ele><time>2026-04-20T14:52:41Z</time></trkpt><trkpt lat="45.00395651333801" lon="9.512631443607566"><ele>91.0</ele><time>2026-04-20T14:52:43Z</time></trkpt><trkpt lat="45.00402517418015" lon="9.51274975062309"><ele>91.0</ele><time>2026-04-20T14:52:44.999Z</time></trkpt><trkpt lat="45.00408992933291" lon="9.512862129110845"><ele>91.0</ele><time>2026-04-20T14:52:46.999Z</time></trkpt><trkpt lat="45.00414957009841" lon="9.512969386776913"><ele>91.0</ele><time>2026-04-20T14:52:48.999Z</time></trkpt><trkpt lat="45.004213144790185" lon="9.5130753801958"><ele>90.8</ele><time>2026-04-20T14:52:50.999Z</time></trkpt><trkpt lat="45.00427464085979" lon="9.513178397195126"><ele>90.6</ele><time>2026-04-20T14:52:52.999Z</time></trkpt><trkpt lat="45.004338351025574" lon="9.513277155897171"><ele>90.4</ele><time>2026-04-20T14:52:54.999Z</time></trkpt><trkpt lat="45.004405156942205" lon="9.513388178156596"><ele>90.2</ele><time>2026-04-20T14:52:56.999Z</time></trkpt><trkpt lat="45.00446779134197" lon="9.513498000931387"><ele>90.0</ele><time>2026-04-20T14:52:58.999Z</time></trkpt><trkpt lat="45.00454395092064" lon="9.513611494682618"><ele>90.0</ele><time>2026-04-20T14:53:00.999Z</time></trkpt><trkpt lat="45.00460726050082" lon="9.513729020196864"><ele>90.0</ele><time>2026-04-20T14:53:02.999Z</time></trkpt><trkpt lat="45.004673173466045" lon="9.513836811155995"><ele>90.0</ele><time>2026-04-20T14:53:04.999Z</time></trkpt><trkpt lat="45.004736556828576" lon="9.513957819336857"><ele>90.0</ele><time>2026-04-20T14:53:06.999Z</time></trkpt><trkpt lat="45.004791083586824" lon="9.514067181918763"><ele>90.0</ele><time>2026-04-20T14:53:08.999Z</time></trkpt><trkpt lat="45.004836638124765" lon="9.514180268726486"><ele>90.2</ele><time>2026-04-20T14:53:10.999Z</time></trkpt><trkpt lat="45.004896248532965" lon="9.514286047743566"><ele>90.4</ele><time>2026-04-20T14:53:12.999Z</time></trkpt><trkpt lat="45.00494146189768" lon="9.51439464212496"><ele>90.6</ele><time>2026-04-20T14:53:15Z</time></trkpt><trkpt lat="45.00499955758794" lon="9.51452270058048"><ele>90.8</ele><time>2026-04-20T14:53:17Z</time></trkpt><trkpt lat="45.005053881647854" lon="9.514633667095584"><ele>91.0</ele><time>2026-04-20T14:53:19Z</time></trkpt><trkpt lat="45.00509492514477" lon="9.51474656074997"><ele>91.0</ele><time>2026-04-20T14:53:21Z</time></trkpt><trkpt lat="45.00515525299069" lon="9.514868186668123"><ele>91.0</ele><time>2026-04-20T14:53:23Z</time></trkpt><trkpt lat="45.00519848395699" lon="9.514964646186545"><ele>91.0</ele><time>2026-04-20T14:53:25Z</time></trkpt><trkpt lat="45.005254734865" lon="9.515070715909971"><ele>91.0</ele><time>2026-04-20T14:53:27Z</time></trkpt><trkpt lat="45.00531630114792" lon="9.515212664094737"><ele>91.0</ele><time>2026-04-20T14:53:29Z</time></trkpt><trkpt lat="45.00537461851741" lon="9.515349548453674"><ele>91.0</ele><time>2026-04-20T14:53:31Z</time></trkpt><trkpt lat="45.005438618861255" lon="9.515467065287119"><ele>91.0</ele><time>2026-04-20T14:53:33Z</time></trkpt><trkpt lat="45.00549227202675" lon="9.515595654837874"><ele>91.0</ele><time>2026-04-20T14:53:35Z</time></trkpt><trkpt lat="45.005542519321715" lon="9.515716223088088"><ele>91.0</ele><time>2026-04-20T14:53:37Z</time></trkpt><trkpt lat="45.00558308088676" lon="9.515791911583031"><ele>91.0</ele><time>2026-04-20T14:53:38Z</time></trkpt><trkpt lat="45.005639182425284" lon="9.51591780461057"><ele>91.0</ele><time>2026-04-20T14:53:40Z</time></trkpt><trkpt lat="45.00570139399706" lon="9.516051732371652"><ele>91.0</ele><time>2026-04-20T14:53:42Z</time></trkpt><trkpt lat="45.00576226346123" lon="9.516192487936609"><ele>91.0</ele><time>2026-04-20T14:53:44Z</time></trkpt><trkpt lat="45.00579825618412" lon="9.516268279058645"><ele>91.0</ele><time>2026-04-20T14:53:45Z</time></trkpt><trkpt lat="45.005860751647475" lon="9.516403210049342"><ele>91.0</ele><time>2026-04-20T14:53:47Z</time></trkpt><trkpt lat="45.00591788490838" lon="9.516536941688305"><ele>91.0</ele><time>2026-04-20T14:53:49Z</time></trkpt><trkpt lat="45.0059823802505" lon="9.516677393072777"><ele>91.0</ele><time>2026-04-20T14:53:51Z</time></trkpt><trkpt lat="45.00604655791398" lon="9.516838649138625"><ele>91.0</ele><time>2026-04-20T14:53:53Z</time></trkpt><trkpt lat="45.00609006039595" lon="9.516906209663714"><ele>91.0</ele><time>2026-04-20T14:53:54Z</time></trkpt><trkpt lat="45.00615110724001" lon="9.5170462642688"><ele>91.0</ele><time>2026-04-20T14:53:56Z</time></trkpt><trkpt lat="45.006196063610446" lon="9.517170567053018"><ele>91.0</ele><time>2026-04-20T14:53:58Z</time></trkpt><trkpt lat="45.00625679759086" lon="9.517308592672384"><ele>91.0</ele><time>2026-04-20T14:54:00Z</time></trkpt><trkpt lat="45.00632310359936" lon="9.517424067617728"><ele>91.0</ele><time>2026-04-20T14:54:02Z</time></trkpt><trkpt lat="45.0063869630719" lon="9.517558090605919"><ele>91.0</ele><time>2026-04-20T14:54:04Z</time></trkpt><trkpt lat="45.00641950261576" lon="9.517634569611268"><ele>91.0</ele><time>2026-04-20T14:54:05Z</time></trkpt><trkpt lat="45.00645552215056" lon="9.51771196799263"><ele>91.0</ele><time>2026-04-20T14:54:06Z</time></trkpt><trkpt lat="45.006523868728024" lon="9.517870573086672"><ele>91.0</ele><time>2026-04-20T14:54:08Z</time></trkpt><trkpt lat="45.00659115579405" lon="9.518008769547299"><ele>91.0</ele><time>2026-04-20T14:54:10Z</time></trkpt><trkpt lat="45.00663223859007" lon="9.51808294252495"><ele>91.0</ele><time>2026-04-20T14:54:11Z</time></trkpt><trkpt lat="45.00668806421843" lon="9.518211016558123"><ele>91.0</ele><time>2026-04-20T14:54:13Z</time></trkpt><trkpt lat="45.00675766972557" lon="9.518347366236927"><ele>90.6</ele><time>2026-04-20T14:54:15Z</time></trkpt><trkpt lat="45.006824652646934" lon="9.518477179901787"><ele>90.19999999999999</ele><time>2026-04-20T14:54:17Z</time></trkpt><trkpt lat="45.00688234625326" lon="9.518603253958782"><ele>89.80000000000001</ele><time>2026-04-20T14:54:19Z</time></trkpt><trkpt lat="45.00694388233946" lon="9.518731087110277"><ele>89.4</ele><time>2026-04-20T14:54:21Z</time></trkpt><trkpt lat="45.007011166702085" lon="9.51886192988487"><ele>89.0</ele><time>2026-04-20T14:54:23Z</time></trkpt><trkpt lat="45.007072528328095" lon="9.518998774468892"><ele>88.6</ele><time>2026-04-20T14:54:25Z</time></trkpt><trkpt lat="45.00713587759968" lon="9.519132495695473"><ele>88.2</ele><time>2026-04-20T14:54:27Z</time></trkpt><trkpt lat="45.00718789420184" lon="9.519269329016208"><ele>87.8</ele><time>2026-04-20T14:54:29Z</time></trkpt><trkpt lat="45.007246491761414" lon="9.519401305938626"><ele>87.39999999999999</ele><time>2026-04-20T14:54:31Z</time></trkpt><trkpt lat="45.00731182433877" lon="9.519534357264284"><ele>87.0</ele><time>2026-04-20T14:54:33Z</time></trkpt><trkpt lat="45.007359430526904" lon="9.51961112619526"><ele>87.0</ele><time>2026-04-20T14:54:34Z</time></trkpt><trkpt lat="45.007412758108195" lon="9.519738173282873"><ele>87.0</ele><time>2026-04-20T14:54:36Z</time></trkpt><trkpt lat="45.00745915665061" lon="9.519854841678661"><ele>87.0</ele><time>2026-04-20T14:54:38Z</time></trkpt><trkpt lat="45.007522074776084" lon="9.519980997828227"><ele>87.0</ele><time>2026-04-20T14:54:40Z</time></trkpt><trkpt lat="45.00756794250017" lon="9.520086774063806"><ele>87.0</ele><time>2026-04-20T14:54:42Z</time></trkpt><trkpt lat="45.00762428115736" lon="9.520196028361712"><ele>87.0</ele><time>2026-04-20T14:54:44Z</time></trkpt><trkpt lat="45.00768173426182" lon="9.520308141284898"><ele>87.0</ele><time>2026-04-20T14:54:46Z</time></trkpt><trkpt lat="45.007728418671896" lon="9.52041575257554"><ele>87.0</ele><time>2026-04-20T14:54:47.999Z</time></trkpt><trkpt lat="45.00778106981286" lon="9.520512232516456"><ele>87.0</ele><time>2026-04-20T14:54:49.999Z</time></trkpt><trkpt lat="45.007833606579275" lon="9.520608957008758"><ele>87.0</ele><time>2026-04-20T14:54:51.999Z</time></trkpt><trkpt lat="45.007881215411835" lon="9.520720831204962"><ele>86.83333333333333</ele><time>2026-04-20T14:54:53.999Z</time></trkpt><trkpt lat="45.00791170044241" lon="9.520810266505617"><ele>86.66666666666667</ele><time>2026-04-20T14:54:55.999Z</time></trkpt><trkpt lat="45.00786133246487" lon="9.520863990500288"><ele>86.5</ele><time>2026-04-20T14:54:58.999Z</time></trkpt><trkpt lat="45.00779011875232" lon="9.520881028112823"><ele>86.33333333333334</ele><time>2026-04-20T14:55:00.999Z</time></trkpt><trkpt lat="45.007714017659126" lon="9.520889991382914"><ele>86.16666666666667</ele><time>2026-04-20T14:55:02.999Z</time></trkpt><trkpt lat="45.00762476309319" lon="9.520930355157"><ele>86.0</ele><time>2026-04-20T14:55:04.999Z</time></trkpt><trkpt lat="45.00754117366392" lon="9.520973229581033"><ele>86.0</ele><time>2026-04-20T14:55:06.999Z</time></trkpt><trkpt lat="45.00746249838432" lon="9.521035220096428"><ele>86.0</ele><time>2026-04-20T14:55:08.999Z</time></trkpt><trkpt lat="45.007384884204754" lon="9.52110693728374"><ele>86.0</ele><time>2026-04-20T14:55:10.999Z</time></trkpt><trkpt lat="45.007321016070605" lon="9.521191368267896"><ele>86.0</ele><time>2026-04-20T14:55:12.999Z</time></trkpt><trkpt lat="45.00726233526807" lon="9.521272964687494"><ele>86.0</ele><time>2026-04-20T14:55:14.999Z</time></trkpt><trkpt lat="45.00718834396653" lon="9.521363158932273"><ele>86.0</ele><time>2026-04-20T14:55:16.999Z</time></trkpt><trkpt lat="45.00709813051743" lon="9.521465292776421"><ele>86.0</ele><time>2026-04-20T14:55:18.999Z</time></trkpt><trkpt lat="45.00701187634171" lon="9.521575324627495"><ele>86.0</ele><time>2026-04-20T14:55:21Z</time></trkpt><trkpt lat="45.00694224620626" lon="9.521671243157057"><ele>86.0</ele><time>2026-04-20T14:55:23Z</time></trkpt><trkpt lat="45.006861950688204" lon="9.52176870878242"><ele>86.0</ele><time>2026-04-20T14:55:25Z</time></trkpt><trkpt lat="45.00678753625078" lon="9.521866668024565"><ele>86.0</ele><time>2026-04-20T14:55:27Z</time></trkpt><trkpt lat="45.00670802797148" lon="9.521975426944186"><ele>86.0</ele><time>2026-04-20T14:55:29Z</time></trkpt><trkpt lat="45.0066345352408" lon="9.52206506439986"><ele>86.0</ele><time>2026-04-20T14:55:31Z</time></trkpt><trkpt lat="45.00654929303899" lon="9.52216885595653"><ele>86.0</ele><time>2026-04-20T14:55:33Z</time></trkpt><trkpt lat="45.006466758813076" lon="9.522281499659831"><ele>86.0</ele><time>2026-04-20T14:55:35Z</time></trkpt><trkpt lat="45.00637937102425" lon="9.522385697841303"><ele>86.19999999999999</ele><time>2026-04-20T14:55:37Z</time></trkpt><trkpt lat="45.0063008647013" lon="9.522490176021478"><ele>86.39999999999999</ele><time>2026-04-20T14:55:39Z</time></trkpt><trkpt lat="45.006229113986976" lon="9.52258566088123"><ele>86.6</ele><time>2026-04-20T14:55:41Z</time></trkpt><trkpt lat="45.00615659878134" lon="9.522685172951554"><ele>86.8</ele><time>2026-04-20T14:55:43Z</time></trkpt><trkpt lat="45.0060685046648" lon="9.522789304135218"><ele>87.0</ele><time>2026-04-20T14:55:45Z</time></trkpt><trkpt lat="45.005987001785876" lon="9.522909886350131"><ele>87.0</ele><time>2026-04-20T14:55:47Z</time></trkpt><trkpt lat="45.00590802137237" lon="9.523012988054417"><ele>87.0</ele><time>2026-04-20T14:55:49Z</time></trkpt><trkpt lat="45.00582561839051" lon="9.523116884061409"><ele>87.0</ele><time>2026-04-20T14:55:51Z</time></trkpt><trkpt lat="45.005746587615555" lon="9.523227488400927"><ele>87.0</ele><time>2026-04-20T14:55:53Z</time></trkpt><trkpt lat="45.00566968974256" lon="9.523336522382493"><ele>87.0</ele><time>2026-04-20T14:55:55Z</time></trkpt><trkpt lat="45.00558836901706" lon="9.523444334098029"><ele>87.19999999999999</ele><time>2026-04-20T14:55:57Z</time></trkpt><trkpt lat="45.00550890712128" lon="9.523552265183909"><ele>87.4</ele><time>2026-04-20T14:55:59Z</time></trkpt><trkpt lat="45.00542613827927" lon="9.523657292822962"><ele>87.6</ele><time>2026-04-20T14:56:01Z</time></trkpt><trkpt lat="45.00535046900524" lon="9.523752041620861"><ele>87.80000000000001</ele><time>2026-04-20T14:56:03Z</time></trkpt><trkpt lat="45.005275559828405" lon="9.523857776955387"><ele>88.0</ele><time>2026-04-20T14:56:05Z</time></trkpt><trkpt lat="45.00519536309442" lon="9.523961509340886"><ele>88.2</ele><time>2026-04-20T14:56:07Z</time></trkpt><trkpt lat="45.00511677560757" lon="9.524072099624917"><ele>88.4</ele><time>2026-04-20T14:56:09Z</time></trkpt><trkpt lat="45.00503749180665" lon="9.52417391131642"><ele>88.60000000000001</ele><time>2026-04-20T14:56:11Z</time></trkpt><trkpt lat="45.00495867906758" lon="9.524279434748195"><ele>88.80000000000001</ele><time>2026-04-20T14:56:13Z</time></trkpt><trkpt lat="45.0048852126063" lon="9.524378960417897"><ele>89.0</ele><time>2026-04-20T14:56:15Z</time></trkpt><trkpt lat="45.00481394814414" lon="9.524479045307688"><ele>88.80000000000001</ele><time>2026-04-20T14:56:17Z</time></trkpt><trkpt lat="45.004724913899814" lon="9.524582804609548"><ele>88.60000000000001</ele><time>2026-04-20T14:56:19Z</time></trkpt><trkpt lat="45.00464830177155" lon="9.524685691815398"><ele>88.4</ele><time>2026-04-20T14:56:21Z</time></trkpt><trkpt lat="45.004571591304355" lon="9.524784895162497"><ele>88.2</ele><time>2026-04-20T14:56:23Z</time></trkpt><trkpt lat="45.004493945664215" lon="9.524881075507432"><ele>88.0</ele><time>2026-04-20T14:56:25Z</time></trkpt><trkpt lat="45.00442015148541" lon="9.5249748602299"><ele>88.0</ele><time>2026-04-20T14:56:27Z</time></trkpt><trkpt lat="45.00434458165999" lon="9.525075653039702"><ele>88.0</ele><time>2026-04-20T14:56:29Z</time></trkpt><trkpt lat="45.004271407766176" lon="9.525172926518149"><ele>88.0</ele><time>2026-04-20T14:56:31Z</time></trkpt><trkpt lat="45.00420121746312" lon="9.525268543449814"><ele>88.0</ele><time>2026-04-20T14:56:33Z</time></trkpt><trkpt lat="45.004131161576765" lon="9.525364228673212"><ele>88.0</ele><time>2026-04-20T14:56:35Z</time></trkpt><trkpt lat="45.004058492837416" lon="9.525462603920273"><ele>88.0</ele><time>2026-04-20T14:56:37Z</time></trkpt><trkpt lat="45.00398491963778" lon="9.525555963012986"><ele>88.0</ele><time>2026-04-20T14:56:39Z</time></trkpt><trkpt lat="45.00391175922648" lon="9.52565102841647"><ele>88.0</ele><time>2026-04-20T14:56:40.999Z</time></trkpt><trkpt lat="45.00384541713925" lon="9.525746382834344"><ele>88.0</ele><time>2026-04-20T14:56:42.999Z</time></trkpt><trkpt lat="45.00377778365224" lon="9.52584092165313"><ele>88.0</ele><time>2026-04-20T14:56:44.999Z</time></trkpt><trkpt lat="45.00370206646476" lon="9.525917647381563"><ele>88.0</ele><time>2026-04-20T14:56:46.999Z</time></trkpt><trkpt lat="45.003634988393" lon="9.526015686185215"><ele>88.0</ele><time>2026-04-20T14:56:48.999Z</time></trkpt><trkpt lat="45.003568065363766" lon="9.52610984162574"><ele>88.0</ele><time>2026-04-20T14:56:50.999Z</time></trkpt><trkpt lat="45.00349744056203" lon="9.526205504581323"><ele>88.0</ele><time>2026-04-20T14:56:52.999Z</time></trkpt><trkpt lat="45.003426959294444" lon="9.52630166035478"><ele>88.0</ele><time>2026-04-20T14:56:54.999Z</time></trkpt><trkpt lat="45.00335616701046" lon="9.526398296174875"><ele>88.2</ele><time>2026-04-20T14:56:56.999Z</time></trkpt><trkpt lat="45.00328337817325" lon="9.526491776166473"><ele>88.4</ele><time>2026-04-20T14:56:58.999Z</time></trkpt><trkpt lat="45.0032145713306" lon="9.526587264976376"><ele>88.60000000000001</ele><time>2026-04-20T14:57:00.999Z</time></trkpt><trkpt lat="45.0031385661635" lon="9.526679079117812"><ele>88.80000000000001</ele><time>2026-04-20T14:57:02.999Z</time></trkpt><trkpt lat="45.00307796895334" lon="9.5267684922618"><ele>89.0</ele><time>2026-04-20T14:57:04.999Z</time></trkpt><trkpt lat="45.00300936792703" lon="9.526854609319964"><ele>89.0</ele><time>2026-04-20T14:57:06.999Z</time></trkpt><trkpt lat="45.00294116431223" lon="9.526947056525126"><ele>89.0</ele><time>2026-04-20T14:57:08.999Z</time></trkpt><trkpt lat="45.002866778439" lon="9.527040181235874"><ele>89.0</ele><time>2026-04-20T14:57:10.999Z</time></trkpt><trkpt lat="45.0027991662873" lon="9.527133216924735"><ele>89.0</ele><time>2026-04-20T14:57:12.999Z</time></trkpt><trkpt lat="45.00272849181155" lon="9.527226783183577"><ele>89.0</ele><time>2026-04-20T14:57:14.999Z</time></trkpt><trkpt lat="45.002661319989876" lon="9.527324654604307"><ele>88.6</ele><time>2026-04-20T14:57:16.999Z</time></trkpt><trkpt lat="45.002591594977474" lon="9.527420887797224"><ele>88.2</ele><time>2026-04-20T14:57:18.999Z</time></trkpt><trkpt lat="45.00251715363376" lon="9.52752186175721"><ele>87.8</ele><time>2026-04-20T14:57:20.999Z</time></trkpt><trkpt lat="45.002440011674516" lon="9.527621225370622"><ele>87.39999999999999</ele><time>2026-04-20T14:57:22.999Z</time></trkpt><trkpt lat="45.002366679527654" lon="9.52772013983471"><ele>87.0</ele><time>2026-04-20T14:57:24.999Z</time></trkpt><trkpt lat="45.00228993259516" lon="9.52781597571546"><ele>87.19999999999999</ele><time>2026-04-20T14:57:27Z</time></trkpt><trkpt lat="45.0022198398994" lon="9.527916627594719"><ele>87.4</ele><time>2026-04-20T14:57:29Z</time></trkpt><trkpt lat="45.00214756509466" lon="9.528015041434667"><ele>87.6</ele><time>2026-04-20T14:57:31Z</time></trkpt><trkpt lat="45.0020725988459" lon="9.528108604604759"><ele>87.80000000000001</ele><time>2026-04-20T14:57:33Z</time></trkpt><trkpt lat="45.00199712548888" lon="9.528208836648128"><ele>88.0</ele><time>2026-04-20T14:57:35Z</time></trkpt><trkpt lat="45.001923861161096" lon="9.528306790169125"><ele>88.0</ele><time>2026-04-20T14:57:37Z</time></trkpt><trkpt lat="45.00184049664544" lon="9.52840274900785"><ele>88.0</ele><time>2026-04-20T14:57:39Z</time></trkpt><trkpt lat="45.00176071914333" lon="9.528509351566356"><ele>88.0</ele><time>2026-04-20T14:57:41Z</time></trkpt><trkpt lat="45.00167978398189" lon="9.528617977254443"><ele>88.0</ele><time>2026-04-20T14:57:43Z</time></trkpt><trkpt lat="45.00160276208071" lon="9.5287280887165"><ele>88.0</ele><time>2026-04-20T14:57:45Z</time></trkpt><trkpt lat="45.0015268156175" lon="9.528833184409468"><ele>87.4</ele><time>2026-04-20T14:57:47Z</time></trkpt><trkpt lat="45.00145373127507" lon="9.528935441813218"><ele>86.80000000000001</ele><time>2026-04-20T14:57:49Z</time></trkpt><trkpt lat="45.001386404209406" lon="9.529040150074486"><ele>86.2</ele><time>2026-04-20T14:57:51Z</time></trkpt><trkpt lat="45.00130300461683" lon="9.529136462258364"><ele>85.6</ele><time>2026-04-20T14:57:53Z</time></trkpt><trkpt lat="45.001225080757024" lon="9.529229462279233"><ele>85.0</ele><time>2026-04-20T14:57:55Z</time></trkpt><trkpt lat="45.00114769629926" lon="9.529337516237183"><ele>85.0</ele><time>2026-04-20T14:57:57Z</time></trkpt><trkpt lat="45.00106685900463" lon="9.529444348275641"><ele>85.0</ele><time>2026-04-20T14:57:59Z</time></trkpt><trkpt lat="45.00098929450345" lon="9.529562339136591"><ele>85.0</ele><time>2026-04-20T14:58:01Z</time></trkpt><trkpt lat="45.000911714301616" lon="9.529657714210833"><ele>85.0</ele><time>2026-04-20T14:58:03Z</time></trkpt><trkpt lat="45.000831878470485" lon="9.52976539166918"><ele>85.0</ele><time>2026-04-20T14:58:05Z</time></trkpt><trkpt lat="45.00074919424318" lon="9.529870387070954"><ele>85.8</ele><time>2026-04-20T14:58:07Z</time></trkpt><trkpt lat="45.00067054828676" lon="9.529975924047351"><ele>86.6</ele><time>2026-04-20T14:58:09Z</time></trkpt><trkpt lat="45.00059295398965" lon="9.530085122025548"><ele>87.4</ele><time>2026-04-20T14:58:11Z</time></trkpt><trkpt lat="45.00051813004883" lon="9.53017986212596"><ele>88.2</ele><time>2026-04-20T14:58:13Z</time></trkpt><trkpt lat="45.000447974502805" lon="9.53027975690363"><ele>89.0</ele><time>2026-04-20T14:58:15Z</time></trkpt><trkpt lat="45.000371092079156" lon="9.530379637244161"><ele>89.0</ele><time>2026-04-20T14:58:17Z</time></trkpt><trkpt lat="45.00029755216886" lon="9.530483040770449"><ele>89.0</ele><time>2026-04-20T14:58:19Z</time></trkpt><trkpt lat="45.00022177901519" lon="9.530594865066647"><ele>89.0</ele><time>2026-04-20T14:58:21Z</time></trkpt><trkpt lat="45.0001403970949" lon="9.530693386081094"><ele>89.0</ele><time>2026-04-20T14:58:23Z</time></trkpt><trkpt lat="45.00005659702791" lon="9.530758661414776"><ele>89.0</ele><time>2026-04-20T14:58:25Z</time></trkpt><trkpt lat="44.99995895119097" lon="9.53083191293208"><ele>89.0</ele><time>2026-04-20T14:58:27Z</time></trkpt><trkpt lat="44.999867725637195" lon="9.530878064341882"><ele>89.0</ele><time>2026-04-20T14:58:29Z</time></trkpt><trkpt lat="44.999791525248966" lon="9.530910095998752"><ele>89.0</ele><time>2026-04-20T14:58:31Z</time></trkpt><trkpt lat="44.999701011312865" lon="9.530951700023882"><ele>89.0</ele><time>2026-04-20T14:58:33Z</time></trkpt><trkpt lat="44.99961261077129" lon="9.530981499925165"><ele>89.0</ele><time>2026-04-20T14:58:34.999Z</time></trkpt><trkpt lat="44.99951469179561" lon="9.531040890239009"><ele>89.0</ele><time>2026-04-20T14:58:36.999Z</time></trkpt><trkpt lat="44.99942734707913" lon="9.531079067708692"><ele>89.0</ele><time>2026-04-20T14:58:38.999Z</time></trkpt><trkpt lat="44.999333665234005" lon="9.531135990368552"><ele>89.0</ele><time>2026-04-20T14:58:40.999Z</time></trkpt><trkpt lat="44.99924552498878" lon="9.53119015953103"><ele>89.0</ele><time>2026-04-20T14:58:42.999Z</time></trkpt><trkpt lat="44.999150925412785" lon="9.531260773962263"><ele>89.0</ele><time>2026-04-20T14:58:44.999Z</time></trkpt><trkpt lat="44.99907453805854" lon="9.53131981464319"><ele>89.5</ele><time>2026-04-20T14:58:46.999Z</time></trkpt><trkpt lat="44.99900949030436" lon="9.531364502836466"><ele>90.0</ele><time>2026-04-20T14:58:48.999Z</time></trkpt><trkpt lat="44.99893119258786" lon="9.531433617525751"><ele>90.5</ele><time>2026-04-20T14:58:50.999Z</time></trkpt><trkpt lat="44.99886115422512" lon="9.531495874167932"><ele>91.0</ele><time>2026-04-20T14:58:52.999Z</time></trkpt><trkpt lat="44.99880045968574" lon="9.531543953457936"><ele>91.5</ele><time>2026-04-20T14:58:54.999Z</time></trkpt><trkpt lat="44.99873756798886" lon="9.53160328732976"><ele>92.0</ele><time>2026-04-20T14:58:56.999Z</time></trkpt><trkpt lat="44.99868073735226" lon="9.53164590483023"><ele>92.0</ele><time>2026-04-20T14:58:58.999Z</time></trkpt><trkpt lat="44.99861064933638" lon="9.531658708379114"><ele>92.0</ele><time>2026-04-20T14:59:00.999Z</time></trkpt><trkpt lat="44.99853247298323" lon="9.531688298435865"><ele>92.0</ele><time>2026-04-20T14:59:02.999Z</time></trkpt><trkpt lat="44.99845599154726" lon="9.531702443828166"><ele>92.0</ele><time>2026-04-20T14:59:04.999Z</time></trkpt><trkpt lat="44.99838958245901" lon="9.531742644229649"><ele>92.0</ele><time>2026-04-20T14:59:07.999Z</time></trkpt><trkpt lat="44.99833328247922" lon="9.531846525269389"><ele>92.0</ele><time>2026-04-20T14:59:10.999Z</time></trkpt><trkpt lat="44.99834567586906" lon="9.531971015770461"><ele>91.8</ele><time>2026-04-20T14:59:12.999Z</time></trkpt><trkpt lat="44.99835250083823" lon="9.532101602682232"><ele>91.6</ele><time>2026-04-20T14:59:14.999Z</time></trkpt><trkpt lat="44.99834782906184" lon="9.53222594144723"><ele>91.39999999999999</ele><time>2026-04-20T14:59:16.999Z</time></trkpt><trkpt lat="44.99836564674394" lon="9.532366048509255"><ele>91.19999999999999</ele><time>2026-04-20T14:59:18.999Z</time></trkpt><trkpt lat="44.99837760900601" lon="9.53249801435253"><ele>91.0</ele><time>2026-04-20T14:59:20.999Z</time></trkpt><trkpt lat="44.99834088120621" lon="9.532612666361022"><ele>91.0</ele><time>2026-04-20T14:59:22.999Z</time></trkpt><trkpt lat="44.99834601178286" lon="9.532773682965228"><ele>91.0</ele><time>2026-04-20T14:59:24.999Z</time></trkpt><trkpt lat="44.998354428538775" lon="9.532918171670433"><ele>91.0</ele><time>2026-04-20T14:59:26.999Z</time></trkpt><trkpt lat="44.99837173908377" lon="9.53305157134166"><ele>91.0</ele><time>2026-04-20T14:59:28.999Z</time></trkpt><trkpt lat="44.998400235799934" lon="9.533168972717595"><ele>91.0</ele><time>2026-04-20T14:59:30.999Z</time></trkpt><trkpt lat="44.99842686552199" lon="9.533284263975272"><ele>91.0</ele><time>2026-04-20T14:59:33Z</time></trkpt><trkpt lat="44.998467992269845" lon="9.533408230377795"><ele>91.0</ele><time>2026-04-20T14:59:35Z</time></trkpt><trkpt lat="44.99851610250749" lon="9.533473878287344"><ele>91.0</ele><time>2026-04-20T14:59:36Z</time></trkpt><trkpt lat="44.99857375520553" lon="9.533606200459676"><ele>91.0</ele><time>2026-04-20T14:59:38Z</time></trkpt><trkpt lat="44.998632906854574" lon="9.5337273318338"><ele>91.0</ele><time>2026-04-20T14:59:40Z</time></trkpt><trkpt lat="44.998701490779645" lon="9.533842835887308"><ele>91.0</ele><time>2026-04-20T14:59:42Z</time></trkpt><trkpt lat="44.99876830289976" lon="9.533949571015663"><ele>91.0</ele><time>2026-04-20T14:59:44Z</time></trkpt><trkpt lat="44.99882051028079" lon="9.534062147674485"><ele>91.0</ele><time>2026-04-20T14:59:46Z</time></trkpt><trkpt lat="44.998888038442" lon="9.534165664657166"><ele>91.0</ele><time>2026-04-20T14:59:48Z</time></trkpt><trkpt lat="44.99894141437593" lon="9.534281098576715"><ele>91.0</ele><time>2026-04-20T14:59:50Z</time></trkpt><trkpt lat="44.99899993908965" lon="9.5343997915441"><ele>91.0</ele><time>2026-04-20T14:59:52Z</time></trkpt><trkpt lat="44.999058985996946" lon="9.534518228335335"><ele>91.0</ele><time>2026-04-20T14:59:54Z</time></trkpt><trkpt lat="44.99913216397146" lon="9.534635748029299"><ele>91.0</ele><time>2026-04-20T14:59:56Z</time></trkpt><trkpt lat="44.99917834426283" lon="9.534753681576023"><ele>91.0</ele><time>2026-04-20T14:59:58Z</time></trkpt><trkpt lat="44.9992351664166" lon="9.53489605587418"><ele>91.0</ele><time>2026-04-20T15:00:01Z</time></trkpt><trkpt lat="44.999275093195976" lon="9.53497941942358"><ele>90.6</ele><time>2026-04-20T15:00:02Z</time></trkpt><trkpt lat="44.999325945137386" lon="9.535084917481841"><ele>90.19999999999999</ele><time>2026-04-20T15:00:04Z</time></trkpt><trkpt lat="44.99935683959884" lon="9.5351923764913"><ele>89.80000000000001</ele><time>2026-04-20T15:00:06Z</time></trkpt><trkpt lat="44.99940414956293" lon="9.535278207626254"><ele>89.4</ele><time>2026-04-20T15:00:07Z</time></trkpt><trkpt lat="44.99947612723633" lon="9.53539843678711"><ele>89.0</ele><time>2026-04-20T15:00:09Z</time></trkpt><trkpt lat="44.99951195372464" lon="9.535539928793366"><ele>89.0</ele><time>2026-04-20T15:00:11Z</time></trkpt><trkpt lat="44.99955738143188" lon="9.535680787274623"><ele>89.0</ele><time>2026-04-20T15:00:13Z</time></trkpt><trkpt lat="44.999598004123015" lon="9.53582384511778"><ele>89.0</ele><time>2026-04-20T15:00:15Z</time></trkpt><trkpt lat="44.99964169817923" lon="9.535961334224616"><ele>89.0</ele><time>2026-04-20T15:00:17Z</time></trkpt><trkpt lat="44.99968016945186" lon="9.53607851343904"><ele>89.0</ele><time>2026-04-20T15:00:19Z</time></trkpt><trkpt lat="44.99973183889552" lon="9.536218557484878"><ele>89.2</ele><time>2026-04-20T15:00:21Z</time></trkpt><trkpt lat="44.99975227855175" lon="9.536316976349111"><ele>89.4</ele><time>2026-04-20T15:00:23Z</time></trkpt><trkpt lat="44.99980427949366" lon="9.536464615083187"><ele>89.6</ele><time>2026-04-20T15:00:25Z</time></trkpt><trkpt lat="44.999839061110805" lon="9.53659720018768"><ele>89.8</ele><time>2026-04-20T15:00:27Z</time></trkpt><trkpt lat="44.99987370471646" lon="9.536716334199053"><ele>90.0</ele><time>2026-04-20T15:00:29Z</time></trkpt><trkpt lat="44.99990837333885" lon="9.536842306534057"><ele>90.0</ele><time>2026-04-20T15:00:31Z</time></trkpt><trkpt lat="44.99994425569847" lon="9.536963045331786"><ele>90.0</ele><time>2026-04-20T15:00:33Z</time></trkpt><trkpt lat="44.999968263155516" lon="9.537076345780545"><ele>90.0</ele><time>2026-04-20T15:00:35Z</time></trkpt><trkpt lat="45.00001081082447" lon="9.537193271817461"><ele>90.0</ele><time>2026-04-20T15:00:37Z</time></trkpt><trkpt lat="45.000033435263475" lon="9.537326863176819"><ele>90.0</ele><time>2026-04-20T15:00:39Z</time></trkpt><trkpt lat="45.00006320252368" lon="9.537455894811973"><ele>90.0</ele><time>2026-04-20T15:00:41Z</time></trkpt><trkpt lat="45.00008443386905" lon="9.537574767761743"><ele>90.0</ele><time>2026-04-20T15:00:43Z</time></trkpt><trkpt lat="45.00011690714141" lon="9.537692792031253"><ele>90.0</ele><time>2026-04-20T15:00:45Z</time></trkpt><trkpt lat="45.00014304486522" lon="9.537788305060573"><ele>90.0</ele><time>2026-04-20T15:00:47Z</time></trkpt><trkpt lat="45.00016871366658" lon="9.537911364408941"><ele>90.0</ele><time>2026-04-20T15:00:49Z</time></trkpt><trkpt lat="45.000212447431764" lon="9.538056637319128"><ele>90.0</ele><time>2026-04-20T15:00:51Z</time></trkpt><trkpt lat="45.00026260353933" lon="9.538187877270358"><ele>90.0</ele><time>2026-04-20T15:00:52.999Z</time></trkpt><trkpt lat="45.00031169116044" lon="9.538312209382026"><ele>90.0</ele><time>2026-04-20T15:00:54.999Z</time></trkpt><trkpt lat="45.00035924468874" lon="9.53844025176816"><ele>90.0</ele><time>2026-04-20T15:00:56.999Z</time></trkpt><trkpt lat="45.000410461369306" lon="9.538577157020676"><ele>90.0</ele><time>2026-04-20T15:00:58.999Z</time></trkpt><trkpt lat="45.000457013947035" lon="9.538727115651419"><ele>90.0</ele><time>2026-04-20T15:01:00.999Z</time></trkpt><trkpt lat="45.000512986228614" lon="9.538874854849391"><ele>90.0</ele><time>2026-04-20T15:01:02.999Z</time></trkpt><trkpt lat="45.00056238943803" lon="9.539024874807751"><ele>90.0</ele><time>2026-04-20T15:01:04.999Z</time></trkpt><trkpt lat="45.000591988053664" lon="9.539105208762802"><ele>90.0</ele><time>2026-04-20T15:01:05.999Z</time></trkpt><trkpt lat="45.00064120957692" lon="9.539265158287394"><ele>90.0</ele><time>2026-04-20T15:01:07.999Z</time></trkpt><trkpt lat="45.00067301724602" lon="9.53934222918706"><ele>90.0</ele><time>2026-04-20T15:01:08.999Z</time></trkpt><trkpt lat="45.00072603721713" lon="9.539492891367539"><ele>90.0</ele><time>2026-04-20T15:01:10.999Z</time></trkpt><trkpt lat="45.000781562842484" lon="9.539657598643197"><ele>90.0</ele><time>2026-04-20T15:01:12.999Z</time></trkpt><trkpt lat="45.00083328924453" lon="9.539803506328138"><ele>90.0</ele><time>2026-04-20T15:01:14.999Z</time></trkpt><trkpt lat="45.000883832905146" lon="9.539952222543782"><ele>89.8</ele><time>2026-04-20T15:01:16.999Z</time></trkpt><trkpt lat="45.00093705505489" lon="9.540103557236442"><ele>89.6</ele><time>2026-04-20T15:01:18.999Z</time></trkpt><trkpt lat="45.00096551205713" lon="9.540184009791709"><ele>89.4</ele><time>2026-04-20T15:01:19.999Z</time></trkpt><trkpt lat="45.00101804001552" lon="9.540336709369203"><ele>89.2</ele><time>2026-04-20T15:01:21.999Z</time></trkpt><trkpt lat="45.001064080634954" lon="9.540485260650424"><ele>89.0</ele><time>2026-04-20T15:01:23.999Z</time></trkpt><trkpt lat="45.00109094590367" lon="9.540566875510299"><ele>88.75</ele><time>2026-04-20T15:01:24.999Z</time></trkpt><trkpt lat="45.001146422395486" lon="9.540720682287628"><ele>88.5</ele><time>2026-04-20T15:01:26.999Z</time></trkpt><trkpt lat="45.00119956098646" lon="9.540868418241118"><ele>88.25</ele><time>2026-04-20T15:01:28.999Z</time></trkpt><trkpt lat="45.0012524283589" lon="9.54101787554667"><ele>88.0</ele><time>2026-04-20T15:01:30.999Z</time></trkpt><trkpt lat="45.00130468417305" lon="9.54117168163521"><ele>88.0</ele><time>2026-04-20T15:01:32.999Z</time></trkpt><trkpt lat="45.001361719627866" lon="9.54133358687937"><ele>88.0</ele><time>2026-04-20T15:01:34.999Z</time></trkpt><trkpt lat="45.00141337748777" lon="9.541482060534326"><ele>88.0</ele><time>2026-04-20T15:01:36.999Z</time></trkpt><trkpt lat="45.00144626462369" lon="9.54156948256489"><ele>88.0</ele><time>2026-04-20T15:01:37.999Z</time></trkpt><trkpt lat="45.00147454496221" lon="9.541651011679612"><ele>88.0</ele><time>2026-04-20T15:01:38.999Z</time></trkpt><trkpt lat="45.001527698092225" lon="9.541799684000928"><ele>88.0</ele><time>2026-04-20T15:01:40.999Z</time></trkpt><trkpt lat="45.001578211374216" lon="9.541954212478622"><ele>88.0</ele><time>2026-04-20T15:01:42.999Z</time></trkpt><trkpt lat="45.00161008391768" lon="9.542036715307276"><ele>88.0</ele><time>2026-04-20T15:01:43.999Z</time></trkpt><trkpt lat="45.001659304266006" lon="9.5421885634662"><ele>88.0</ele><time>2026-04-20T15:01:45.999Z</time></trkpt><trkpt lat="45.00169058223591" lon="9.54226724868081"><ele>88.0</ele><time>2026-04-20T15:01:46.999Z</time></trkpt><trkpt lat="45.00172175041266" lon="9.542348186751521"><ele>88.0</ele><time>2026-04-20T15:01:47.999Z</time></trkpt><trkpt lat="45.00177669616706" lon="9.542510932369488"><ele>87.4</ele><time>2026-04-20T15:01:49.999Z</time></trkpt><trkpt lat="45.00182738496717" lon="9.542677045882737"><ele>86.80000000000001</ele><time>2026-04-20T15:01:51.999Z</time></trkpt><trkpt lat="45.00188675120416" lon="9.542824296053865"><ele>86.2</ele><time>2026-04-20T15:01:54Z</time></trkpt><trkpt lat="45.00191661856747" lon="9.542907804764655"><ele>85.6</ele><time>2026-04-20T15:01:55Z</time></trkpt><trkpt lat="45.00197363538144" lon="9.543057113493289"><ele>85.0</ele><time>2026-04-20T15:01:57Z</time></trkpt><trkpt lat="45.00200298540655" lon="9.543140382067406"><ele>85.0</ele><time>2026-04-20T15:01:58Z</time></trkpt><trkpt lat="45.002047484973986" lon="9.54328258736709"><ele>85.0</ele><time>2026-04-20T15:02:00Z</time></trkpt><trkpt lat="45.00208360877515" lon="9.5433767977837"><ele>85.0</ele><time>2026-04-20T15:02:01Z</time></trkpt><trkpt lat="45.00213292101212" lon="9.543523637202622"><ele>85.0</ele><time>2026-04-20T15:02:03Z</time></trkpt><trkpt lat="45.00219171721052" lon="9.543676788515917"><ele>85.0</ele><time>2026-04-20T15:02:05Z</time></trkpt><trkpt lat="45.00225006817758" lon="9.543832312147424"><ele>85.5</ele><time>2026-04-20T15:02:07Z</time></trkpt><trkpt lat="45.00230472668278" lon="9.543987881071711"><ele>86.0</ele><time>2026-04-20T15:02:09Z</time></trkpt><trkpt lat="45.00236198182541" lon="9.54414988913944"><ele>86.5</ele><time>2026-04-20T15:02:11Z</time></trkpt><trkpt lat="45.00242045372462" lon="9.544306861803834"><ele>87.0</ele><time>2026-04-20T15:02:13Z</time></trkpt><trkpt lat="45.00247448494701" lon="9.544459823386477"><ele>87.0</ele><time>2026-04-20T15:02:15Z</time></trkpt><trkpt lat="45.00252180758842" lon="9.544601547413496"><ele>87.0</ele><time>2026-04-20T15:02:17Z</time></trkpt><trkpt lat="45.00257672060073" lon="9.544750258420727"><ele>87.0</ele><time>2026-04-20T15:02:19Z</time></trkpt><trkpt lat="45.00262588505491" lon="9.544894330329317"><ele>87.0</ele><time>2026-04-20T15:02:21Z</time></trkpt><trkpt lat="45.00265086299257" lon="9.544980824368928"><ele>87.0</ele><time>2026-04-20T15:02:22Z</time></trkpt><trkpt lat="45.00270602489755" lon="9.54513976670039"><ele>87.0</ele><time>2026-04-20T15:02:24Z</time></trkpt><trkpt lat="45.00273246467614" lon="9.545225829416436"><ele>87.0</ele><time>2026-04-20T15:02:25Z</time></trkpt><trkpt lat="45.00276259817094" lon="9.545309103614182"><ele>87.0</ele><time>2026-04-20T15:02:26Z</time></trkpt><trkpt lat="45.002818121904234" lon="9.545468095677762"><ele>87.0</ele><time>2026-04-20T15:02:28Z</time></trkpt><trkpt lat="45.00287530271699" lon="9.545614782285332"><ele>87.0</ele><time>2026-04-20T15:02:30Z</time></trkpt><trkpt lat="45.00292532046228" lon="9.54576474076098"><ele>86.75</ele><time>2026-04-20T15:02:32Z</time></trkpt><trkpt lat="45.002973760810924" lon="9.545906988903957"><ele>86.5</ele><time>2026-04-20T15:02:34Z</time></trkpt><trkpt lat="45.00302892083347" lon="9.546056357302794"><ele>86.25</ele><time>2026-04-20T15:02:36Z</time></trkpt><trkpt lat="45.00307615934522" lon="9.546208766368988"><ele>86.0</ele><time>2026-04-20T15:02:38Z</time></trkpt><trkpt lat="45.00313216731632" lon="9.546356265508921"><ele>85.8</ele><time>2026-04-20T15:02:40Z</time></trkpt><trkpt lat="45.0031834021019" lon="9.54649690365895"><ele>85.6</ele><time>2026-04-20T15:02:42Z</time></trkpt><trkpt lat="45.00321358726341" lon="9.546576566297906"><ele>85.4</ele><time>2026-04-20T15:02:43Z</time></trkpt><trkpt lat="45.00326966580857" lon="9.546731047390454"><ele>85.2</ele><time>2026-04-20T15:02:45Z</time></trkpt><trkpt lat="45.00332572816244" lon="9.546877850867045"><ele>85.0</ele><time>2026-04-20T15:02:47Z</time></trkpt><trkpt lat="45.00337593052101" lon="9.54703708382292"><ele>85.2</ele><time>2026-04-20T15:02:49Z</time></trkpt><trkpt lat="45.00343320700819" lon="9.547185485105938"><ele>85.4</ele><time>2026-04-20T15:02:51Z</time></trkpt><trkpt lat="45.00345965828244" lon="9.547274418003688"><ele>85.6</ele><time>2026-04-20T15:02:52Z</time></trkpt><trkpt lat="45.00351060885181" lon="9.547414970434113"><ele>85.8</ele><time>2026-04-20T15:02:54Z</time></trkpt><trkpt lat="45.0035367855425" lon="9.5475001038899"><ele>86.0</ele><time>2026-04-20T15:02:55Z</time></trkpt><trkpt lat="45.003592529471206" lon="9.547644918023513"><ele>86.0</ele><time>2026-04-20T15:02:57Z</time></trkpt><trkpt lat="45.00361960757016" lon="9.547726580320814"><ele>86.0</ele><time>2026-04-20T15:02:58Z</time></trkpt><trkpt lat="45.00366852323721" lon="9.547870851390977"><ele>86.0</ele><time>2026-04-20T15:02:59.999Z</time></trkpt><trkpt lat="45.00372345833979" lon="9.548022530818304"><ele>86.0</ele><time>2026-04-20T15:03:01.999Z</time></trkpt><trkpt lat="45.00378223626282" lon="9.54817231548286"><ele>86.0</ele><time>2026-04-20T15:03:03.999Z</time></trkpt><trkpt lat="45.00383387911023" lon="9.548319943418596"><ele>86.0</ele><time>2026-04-20T15:03:05.999Z</time></trkpt><trkpt lat="45.0038901952754" lon="9.548470766166375"><ele>86.0</ele><time>2026-04-20T15:03:07.999Z</time></trkpt><trkpt lat="45.00393994950755" lon="9.548621814903994"><ele>86.0</ele><time>2026-04-20T15:03:09.999Z</time></trkpt><trkpt lat="45.003972347250155" lon="9.548702840585282"><ele>86.0</ele><time>2026-04-20T15:03:10.999Z</time></trkpt><trkpt lat="45.00402256121906" lon="9.54884482534596"><ele>86.0</ele><time>2026-04-20T15:03:12.999Z</time></trkpt><trkpt lat="45.004077877255924" lon="9.54899996168692"><ele>86.19999999999999</ele><time>2026-04-20T15:03:14.999Z</time></trkpt><trkpt lat="45.00413182455456" lon="9.549147430116902"><ele>86.39999999999999</ele><time>2026-04-20T15:03:16.999Z</time></trkpt><trkpt lat="45.00416018090825" lon="9.549232087094818"><ele>86.6</ele><time>2026-04-20T15:03:17.999Z</time></trkpt><trkpt lat="45.00421759897941" lon="9.549388167426462"><ele>86.8</ele><time>2026-04-20T15:03:19.999Z</time></trkpt><trkpt lat="45.0042475931605" lon="9.549470959321361"><ele>87.0</ele><time>2026-04-20T15:03:20.999Z</time></trkpt><trkpt lat="45.00430253913533" lon="9.549627555538203"><ele>86.25</ele><time>2026-04-20T15:03:22.999Z</time></trkpt><trkpt lat="45.004354274754526" lon="9.549780697491965"><ele>85.5</ele><time>2026-04-20T15:03:24.999Z</time></trkpt><trkpt lat="45.00441284985777" lon="9.549934359971509"><ele>84.75</ele><time>2026-04-20T15:03:26.999Z</time></trkpt><trkpt lat="45.004470046696724" lon="9.550089715666994"><ele>84.0</ele><time>2026-04-20T15:03:28.999Z</time></trkpt><trkpt lat="45.00452653874931" lon="9.550247224420424"><ele>84.0</ele><time>2026-04-20T15:03:30.999Z</time></trkpt><trkpt lat="45.00458499619267" lon="9.550400528295754"><ele>84.0</ele><time>2026-04-20T15:03:32.999Z</time></trkpt><trkpt lat="45.00461332198875" lon="9.550482912979804"><ele>84.0</ele><time>2026-04-20T15:03:33.999Z</time></trkpt><trkpt lat="45.004671314306144" lon="9.55064513477397"><ele>84.0</ele><time>2026-04-20T15:03:35.999Z</time></trkpt><trkpt lat="45.00473125916847" lon="9.550801767525108"><ele>84.0</ele><time>2026-04-20T15:03:37.999Z</time></trkpt><trkpt lat="45.00476042052776" lon="9.550882885036888"><ele>84.0</ele><time>2026-04-20T15:03:38.999Z</time></trkpt><trkpt lat="45.004817444072586" lon="9.5510439289914"><ele>84.0</ele><time>2026-04-20T15:03:40.999Z</time></trkpt><trkpt lat="45.00484943719526" lon="9.551125097349402"><ele>84.0</ele><time>2026-04-20T15:03:41.999Z</time></trkpt><trkpt lat="45.00488095780697" lon="9.551207835498602"><ele>84.0</ele><time>2026-04-20T15:03:42.999Z</time></trkpt><trkpt lat="45.004911273688336" lon="9.551288696476842"><ele>84.0</ele><time>2026-04-20T15:03:43.999Z</time></trkpt><trkpt lat="45.004939591595154" lon="9.551369896655567"><ele>84.0</ele><time>2026-04-20T15:03:45Z</time></trkpt><trkpt lat="45.00499170573204" lon="9.55152489203292"><ele>84.0</ele><time>2026-04-20T15:03:47Z</time></trkpt><trkpt lat="45.00502608955794" lon="9.551608642521256"><ele>84.0</ele><time>2026-04-20T15:03:48Z</time></trkpt><trkpt lat="45.00505663451552" lon="9.551688668682482"><ele>84.0</ele><time>2026-04-20T15:03:49Z</time></trkpt><trkpt lat="45.005083896853414" lon="9.55177001586818"><ele>84.0</ele><time>2026-04-20T15:03:50Z</time></trkpt><trkpt lat="45.00513905253007" lon="9.551927198512457"><ele>84.0</ele><time>2026-04-20T15:03:52Z</time></trkpt><trkpt lat="45.005169546569725" lon="9.552006404841384"><ele>84.0</ele><time>2026-04-20T15:03:53Z</time></trkpt><trkpt lat="45.00519696613879" lon="9.552088367901607"><ele>84.0</ele><time>2026-04-20T15:03:54Z</time></trkpt><trkpt lat="45.0052577923052" lon="9.552240639768979"><ele>84.0</ele><time>2026-04-20T15:03:56Z</time></trkpt><trkpt lat="45.00530149638941" lon="9.552402717404028"><ele>84.0</ele><time>2026-04-20T15:03:58Z</time></trkpt><trkpt lat="45.00533964404656" lon="9.552479964482396"><ele>84.0</ele><time>2026-04-20T15:03:59Z</time></trkpt><trkpt lat="45.00536998067557" lon="9.552563984604173"><ele>84.0</ele><time>2026-04-20T15:04:00Z</time></trkpt><trkpt lat="45.00542816215194" lon="9.552726696917226"><ele>84.0</ele><time>2026-04-20T15:04:02Z</time></trkpt><trkpt lat="45.005460571119706" lon="9.552824882484797"><ele>83.66666666666667</ele><time>2026-04-20T15:04:03Z</time></trkpt><trkpt lat="45.005520215033414" lon="9.55297914940618"><ele>83.33333333333333</ele><time>2026-04-20T15:04:05Z</time></trkpt><trkpt lat="45.00554646402742" lon="9.55306758877976"><ele>83.0</ele><time>2026-04-20T15:04:06Z</time></trkpt><trkpt lat="45.00557936550564" lon="9.553146661479618"><ele>82.66666666666666</ele><time>2026-04-20T15:04:07Z</time></trkpt><trkpt lat="45.00560928970637" lon="9.55323503080953"><ele>82.33333333333333</ele><time>2026-04-20T15:04:08Z</time></trkpt><trkpt lat="45.005643737971106" lon="9.553319737699061"><ele>82.0</ele><time>2026-04-20T15:04:09Z</time></trkpt><trkpt lat="45.00567522661478" lon="9.553407871842134"><ele>82.0</ele><time>2026-04-20T15:04:10Z</time></trkpt><trkpt lat="45.00570421321704" lon="9.553487123457588"><ele>82.0</ele><time>2026-04-20T15:04:11Z</time></trkpt><trkpt lat="45.00573398663936" lon="9.553569118381487"><ele>82.0</ele><time>2026-04-20T15:04:12Z</time></trkpt><trkpt lat="45.005788579496375" lon="9.553718338322915"><ele>82.0</ele><time>2026-04-20T15:04:14Z</time></trkpt><trkpt lat="45.00584416660208" lon="9.55386875922637"><ele>82.0</ele><time>2026-04-20T15:04:16Z</time></trkpt><trkpt lat="45.005895232704304" lon="9.554003881692953"><ele>82.0</ele><time>2026-04-20T15:04:18Z</time></trkpt><trkpt lat="45.005950688877114" lon="9.554158594150039"><ele>82.0</ele><time>2026-04-20T15:04:20Z</time></trkpt><trkpt lat="45.006001073436785" lon="9.554324156058096"><ele>82.0</ele><time>2026-04-20T15:04:22Z</time></trkpt><trkpt lat="45.00606528017311" lon="9.554481841584662"><ele>82.0</ele><time>2026-04-20T15:04:24Z</time></trkpt><trkpt lat="45.00611584876362" lon="9.554635160228758"><ele>82.0</ele><time>2026-04-20T15:04:26Z</time></trkpt><trkpt lat="45.0061478589563" lon="9.554722509461579"><ele>82.0</ele><time>2026-04-20T15:04:27Z</time></trkpt><trkpt lat="45.00620134772115" lon="9.554878773833408"><ele>82.0</ele><time>2026-04-20T15:04:29Z</time></trkpt><trkpt lat="45.006257538612864" lon="9.555032736203358"><ele>82.0</ele><time>2026-04-20T15:04:31Z</time></trkpt><trkpt lat="45.00630627221707" lon="9.555185827574059"><ele>82.0</ele><time>2026-04-20T15:04:33Z</time></trkpt><trkpt lat="45.00636258428866" lon="9.55534356163875"><ele>81.5</ele><time>2026-04-20T15:04:35Z</time></trkpt><trkpt lat="45.00641834779498" lon="9.555500335567261"><ele>81.0</ele><time>2026-04-20T15:04:37Z</time></trkpt><trkpt lat="45.006468636515116" lon="9.555652488267354"><ele>80.5</ele><time>2026-04-20T15:04:39Z</time></trkpt><trkpt lat="45.006518657831194" lon="9.555806915485238"><ele>80.0</ele><time>2026-04-20T15:04:41Z</time></trkpt><trkpt lat="45.0065764051509" lon="9.555963081550665"><ele>80.0</ele><time>2026-04-20T15:04:43Z</time></trkpt><trkpt lat="45.0066306471313" lon="9.556123928954273"><ele>80.0</ele><time>2026-04-20T15:04:45Z</time></trkpt><trkpt lat="45.0066842268094" lon="9.556279767110238"><ele>80.0</ele><time>2026-04-20T15:04:47Z</time></trkpt><trkpt lat="45.00671430678536" lon="9.556361230392636"><ele>80.0</ele><time>2026-04-20T15:04:48Z</time></trkpt><trkpt lat="45.006770029353234" lon="9.556522345520078"><ele>80.0</ele><time>2026-04-20T15:04:50Z</time></trkpt><trkpt lat="45.00679937697388" lon="9.556605389542275"><ele>80.33333333333334</ele><time>2026-04-20T15:04:51Z</time></trkpt><trkpt lat="45.006826939951615" lon="9.556691381672575"><ele>80.66666666666667</ele><time>2026-04-20T15:04:52Z</time></trkpt><trkpt lat="45.006886493872315" lon="9.55684749390287"><ele>81.0</ele><time>2026-04-20T15:04:54Z</time></trkpt><trkpt lat="45.006912217317144" lon="9.55693086474915"><ele>81.33333333333333</ele><time>2026-04-20T15:04:55Z</time></trkpt><trkpt lat="45.006944922749" lon="9.557015705356362"><ele>81.66666666666666</ele><time>2026-04-20T15:04:56Z</time></trkpt><trkpt lat="45.00697117953427" lon="9.557098611762054"><ele>82.0</ele><time>2026-04-20T15:04:57Z</time></trkpt><trkpt lat="45.00700594938153" lon="9.557180320036133"><ele>82.0</ele><time>2026-04-20T15:04:58Z</time></trkpt><trkpt lat="45.00706216007803" lon="9.557337542231625"><ele>82.0</ele><time>2026-04-20T15:05:00Z</time></trkpt><trkpt lat="45.00708873636384" lon="9.55741826964176"><ele>82.0</ele><time>2026-04-20T15:05:01Z</time></trkpt><trkpt lat="45.00711692769225" lon="9.557502745409707"><ele>82.0</ele><time>2026-04-20T15:05:02Z</time></trkpt><trkpt lat="45.00714703708524" lon="9.557581235076286"><ele>82.0</ele><time>2026-04-20T15:05:03Z</time></trkpt><trkpt lat="45.007175277464555" lon="9.557661770249101"><ele>82.0</ele><time>2026-04-20T15:05:04Z</time></trkpt><trkpt lat="45.00723519479171" lon="9.557821128752945"><ele>82.0</ele><time>2026-04-20T15:05:06Z</time></trkpt><trkpt lat="45.007263512604915" lon="9.557904117700216"><ele>82.0</ele><time>2026-04-20T15:05:07Z</time></trkpt><trkpt lat="45.007291021174304" lon="9.5579865323408"><ele>82.0</ele><time>2026-04-20T15:05:08Z</time></trkpt><trkpt lat="45.007316090089375" lon="9.558072545696334"><ele>82.0</ele><time>2026-04-20T15:05:09Z</time></trkpt><trkpt lat="45.007373912254074" lon="9.558226976002357"><ele>82.0</ele><time>2026-04-20T15:05:11Z</time></trkpt><trkpt lat="45.00740441566573" lon="9.558305585588384"><ele>82.0</ele><time>2026-04-20T15:05:12Z</time></trkpt><trkpt lat="45.00745699219805" lon="9.558460010316837"><ele>82.0</ele><time>2026-04-20T15:05:14Z</time></trkpt><trkpt lat="45.00748858724885" lon="9.558544933075892"><ele>82.0</ele><time>2026-04-20T15:05:15Z</time></trkpt><trkpt lat="45.007515696348875" lon="9.558625681109453"><ele>82.0</ele><time>2026-04-20T15:05:16Z</time></trkpt><trkpt lat="45.00754341467764" lon="9.55870674510754"><ele>82.0</ele><time>2026-04-20T15:05:17Z</time></trkpt><trkpt lat="45.00760086620783" lon="9.558861817443972"><ele>82.0</ele><time>2026-04-20T15:05:19Z</time></trkpt><trkpt lat="45.00763050192673" lon="9.558942956462209"><ele>82.0</ele><time>2026-04-20T15:05:20Z</time></trkpt><trkpt lat="45.007684088423204" lon="9.559089115019969"><ele>82.0</ele><time>2026-04-20T15:05:22Z</time></trkpt><trkpt lat="45.00775080649766" lon="9.559240731191943"><ele>82.0</ele><time>2026-04-20T15:05:24Z</time></trkpt><trkpt lat="45.00780132970584" lon="9.559375849813941"><ele>82.0</ele><time>2026-04-20T15:05:26Z</time></trkpt><trkpt lat="45.00786475833151" lon="9.559518599111225"><ele>82.0</ele><time>2026-04-20T15:05:28Z</time></trkpt><trkpt lat="45.00792599061612" lon="9.559666517315717"><ele>81.5</ele><time>2026-04-20T15:05:30Z</time></trkpt><trkpt lat="45.00799020621778" lon="9.559803623244255"><ele>81.0</ele><time>2026-04-20T15:05:32Z</time></trkpt><trkpt lat="45.00805108919723" lon="9.559945390134718"><ele>80.5</ele><time>2026-04-20T15:05:34Z</time></trkpt><trkpt lat="45.00810827072402" lon="9.560089526214059"><ele>80.0</ele><time>2026-04-20T15:05:36Z</time></trkpt><trkpt lat="45.00817154246243" lon="9.560225843606657"><ele>80.0</ele><time>2026-04-20T15:05:38Z</time></trkpt><trkpt lat="45.00822894685432" lon="9.560362873351684"><ele>80.0</ele><time>2026-04-20T15:05:40Z</time></trkpt><trkpt lat="45.00829220549746" lon="9.560499821082768"><ele>80.0</ele><time>2026-04-20T15:05:42Z</time></trkpt><trkpt lat="45.0083599041348" lon="9.560651654985755"><ele>80.0</ele><time>2026-04-20T15:05:44Z</time></trkpt><trkpt lat="45.008428979760126" lon="9.560807562422749"><ele>80.0</ele><time>2026-04-20T15:05:46Z</time></trkpt><trkpt lat="45.00849759642672" lon="9.560963750028844"><ele>80.0</ele><time>2026-04-20T15:05:48Z</time></trkpt><trkpt lat="45.00853481895448" lon="9.561044234343347"><ele>80.0</ele><time>2026-04-20T15:05:48.999Z</time></trkpt><trkpt lat="45.00856769047512" lon="9.561128333745588"><ele>80.0</ele><time>2026-04-20T15:05:49.999Z</time></trkpt><trkpt lat="45.00860376552134" lon="9.561210624300045"><ele>80.0</ele><time>2026-04-20T15:05:51Z</time></trkpt><trkpt lat="45.00863779110886" lon="9.561290256580692"><ele>80.0</ele><time>2026-04-20T15:05:52Z</time></trkpt><trkpt lat="45.00867741718804" lon="9.561373718200452"><ele>80.28571428571428</ele><time>2026-04-20T15:05:53Z</time></trkpt><trkpt lat="45.008711290661644" lon="9.561457381719"><ele>80.57142857142857</ele><time>2026-04-20T15:05:54Z</time></trkpt><trkpt lat="45.008748965533705" lon="9.561539247901349"><ele>80.85714285714286</ele><time>2026-04-20T15:05:55Z</time></trkpt><trkpt lat="45.00878492689238" lon="9.561624069987262"><ele>81.14285714285714</ele><time>2026-04-20T15:05:56Z</time></trkpt><trkpt lat="45.00881893279734" lon="9.561701934734263"><ele>81.42857142857143</ele><time>2026-04-20T15:05:57Z</time></trkpt><trkpt lat="45.00885563370063" lon="9.561784304662586"><ele>81.71428571428571</ele><time>2026-04-20T15:05:58Z</time></trkpt><trkpt lat="45.00889456922673" lon="9.561861792034023"><ele>82.0</ele><time>2026-04-20T15:05:59Z</time></trkpt><trkpt lat="45.00892907747495" lon="9.561940027610492"><ele>81.83333333333333</ele><time>2026-04-20T15:06:00Z</time></trkpt><trkpt lat="45.00898748022599" lon="9.56210188866207"><ele>81.66666666666666</ele><time>2026-04-20T15:06:02Z</time></trkpt><trkpt lat="45.00903121499367" lon="9.562178400030806"><ele>81.5</ele><time>2026-04-20T15:06:03Z</time></trkpt><trkpt lat="45.00906911782568" lon="9.562258648625408"><ele>81.33333333333333</ele><time>2026-04-20T15:06:04Z</time></trkpt><trkpt lat="45.00910492604355" lon="9.562336433376322"><ele>81.16666666666667</ele><time>2026-04-20T15:06:05Z</time></trkpt><trkpt lat="45.009138470459554" lon="9.56241825523932"><ele>81.0</ele><time>2026-04-20T15:06:06Z</time></trkpt><trkpt lat="45.009171668860375" lon="9.562502359153525"><ele>80.83333333333333</ele><time>2026-04-20T15:06:07Z</time></trkpt><trkpt lat="45.00919828801534" lon="9.562586847286067"><ele>80.66666666666667</ele><time>2026-04-20T15:06:08Z</time></trkpt><trkpt lat="45.00922432096422" lon="9.562676162908339"><ele>80.5</ele><time>2026-04-20T15:06:09Z</time></trkpt><trkpt lat="45.0092717248793" lon="9.562840807449176"><ele>80.33333333333334</ele><time>2026-04-20T15:06:11Z</time></trkpt><trkpt lat="45.009290772396845" lon="9.562929399717158"><ele>80.16666666666667</ele><time>2026-04-20T15:06:12Z</time></trkpt><trkpt lat="45.00931177244916" lon="9.563014078253508"><ele>80.0</ele><time>2026-04-20T15:06:13Z</time></trkpt><trkpt lat="45.00932802735966" lon="9.56310147335387"><ele>79.8</ele><time>2026-04-20T15:06:14Z</time></trkpt><trkpt lat="45.00936501455233" lon="9.563262595068212"><ele>79.6</ele><time>2026-04-20T15:06:16Z</time></trkpt><trkpt lat="45.00939818773329" lon="9.563428839706505"><ele>79.4</ele><time>2026-04-20T15:06:18Z</time></trkpt><trkpt lat="45.00942837928747" lon="9.56358391015519"><ele>79.2</ele><time>2026-04-20T15:06:20Z</time></trkpt><trkpt lat="45.00943845416015" lon="9.563674904254963"><ele>79.0</ele><time>2026-04-20T15:06:21Z</time></trkpt><trkpt lat="45.00945727583681" lon="9.563769604945293"><ele>78.85714285714286</ele><time>2026-04-20T15:06:22Z</time></trkpt><trkpt lat="45.00947373427274" lon="9.563875628498824"><ele>78.71428571428572</ele><time>2026-04-20T15:06:23Z</time></trkpt><trkpt lat="45.00948586159279" lon="9.563973018078247"><ele>78.57142857142858</ele><time>2026-04-20T15:06:24Z</time></trkpt><trkpt lat="45.00950110306439" lon="9.564074034418411"><ele>78.42857142857143</ele><time>2026-04-20T15:06:25Z</time></trkpt><trkpt lat="45.00952002564914" lon="9.564173367688001"><ele>78.28571428571428</ele><time>2026-04-20T15:06:26Z</time></trkpt><trkpt lat="45.0095413857263" lon="9.564266957266"><ele>78.14285714285715</ele><time>2026-04-20T15:06:27Z</time></trkpt><trkpt lat="45.009555493261374" lon="9.564359980934055"><ele>78.0</ele><time>2026-04-20T15:06:28Z</time></trkpt><trkpt lat="45.00956955592526" lon="9.564452234275647"><ele>77.85714285714286</ele><time>2026-04-20T15:06:29Z</time></trkpt><trkpt lat="45.00958339666263" lon="9.564544050151868"><ele>77.71428571428571</ele><time>2026-04-20T15:06:30Z</time></trkpt><trkpt lat="45.00960095992274" lon="9.56463487095731"><ele>77.57142857142857</ele><time>2026-04-20T15:06:31Z</time></trkpt><trkpt lat="45.009612938635165" lon="9.564723521703744"><ele>77.42857142857143</ele><time>2026-04-20T15:06:32Z</time></trkpt><trkpt lat="45.00963241473043" lon="9.564815778404181"><ele>77.28571428571428</ele><time>2026-04-20T15:06:33Z</time></trkpt><trkpt lat="45.0096525383878" lon="9.564913036437748"><ele>77.14285714285714</ele><time>2026-04-20T15:06:34Z</time></trkpt><trkpt lat="45.00967145990854" lon="9.565001721359874"><ele>77.0</ele><time>2026-04-20T15:06:35Z</time></trkpt><trkpt lat="45.00969028302907" lon="9.56509432386209"><ele>77.0</ele><time>2026-04-20T15:06:36Z</time></trkpt><trkpt lat="45.009704439962945" lon="9.565186154486849"><ele>77.0</ele><time>2026-04-20T15:06:37Z</time></trkpt><trkpt lat="45.00971976046985" lon="9.565278606651622"><ele>77.0</ele><time>2026-04-20T15:06:38Z</time></trkpt><trkpt lat="45.00973739596059" lon="9.56536983333832"><ele>77.0</ele><time>2026-04-20T15:06:39Z</time></trkpt><trkpt lat="45.00975263149421" lon="9.565460344159675"><ele>77.0</ele><time>2026-04-20T15:06:40Z</time></trkpt><trkpt lat="45.00978673343474" lon="9.565643351769006"><ele>77.0</ele><time>2026-04-20T15:06:42Z</time></trkpt><trkpt lat="45.009804464929964" lon="9.565734008760163"><ele>77.0</ele><time>2026-04-20T15:06:43Z</time></trkpt><trkpt lat="45.009834410722064" lon="9.56590141019882"><ele>77.0</ele><time>2026-04-20T15:06:45Z</time></trkpt><trkpt lat="45.00985525827855" lon="9.565998409064408"><ele>77.0</ele><time>2026-04-20T15:06:46Z</time></trkpt><trkpt lat="45.00987083584631" lon="9.566085419949822"><ele>77.0</ele><time>2026-04-20T15:06:47Z</time></trkpt><trkpt lat="45.00988926129543" lon="9.566175993045782"><ele>77.0</ele><time>2026-04-20T15:06:48Z</time></trkpt><trkpt lat="45.00990323682752" lon="9.56626472045247"><ele>77.0</ele><time>2026-04-20T15:06:49Z</time></trkpt><trkpt lat="45.00992802787784" lon="9.566354348034242"><ele>77.0</ele><time>2026-04-20T15:06:50Z</time></trkpt><trkpt lat="45.009945590385556" lon="9.566443840255223"><ele>77.0</ele><time>2026-04-20T15:06:51Z</time></trkpt><trkpt lat="45.009966615163414" lon="9.5665340533772"><ele>77.0</ele><time>2026-04-20T15:06:52Z</time></trkpt><trkpt lat="45.00998401223707" lon="9.566623388108281"><ele>77.0</ele><time>2026-04-20T15:06:53Z</time></trkpt><trkpt lat="45.010002423250675" lon="9.566717605910265"><ele>77.0</ele><time>2026-04-20T15:06:54Z</time></trkpt><trkpt lat="45.0100209768137" lon="9.566805450581505"><ele>77.0</ele><time>2026-04-20T15:06:55Z</time></trkpt><trkpt lat="45.01004006561242" lon="9.5668923962485"><ele>77.0</ele><time>2026-04-20T15:06:56Z</time></trkpt><trkpt lat="45.010052802344845" lon="9.566982602223248"><ele>77.0</ele><time>2026-04-20T15:06:57Z</time></trkpt><trkpt lat="45.01007093039001" lon="9.567075611921588"><ele>77.0</ele><time>2026-04-20T15:06:58Z</time></trkpt><trkpt lat="45.010087012823696" lon="9.567163419597982"><ele>77.0</ele><time>2026-04-20T15:06:59Z</time></trkpt><trkpt lat="45.010107524815574" lon="9.567255029910815"><ele>77.0</ele><time>2026-04-20T15:07:00Z</time></trkpt><trkpt lat="45.01014257737346" lon="9.567420519673103"><ele>77.0</ele><time>2026-04-20T15:07:02Z</time></trkpt><trkpt lat="45.01017467484854" lon="9.567575128806027"><ele>77.0</ele><time>2026-04-20T15:07:04Z</time></trkpt><trkpt lat="45.01021191998662" lon="9.567733738767174"><ele>77.2</ele><time>2026-04-20T15:07:06Z</time></trkpt><trkpt lat="45.01025135622248" lon="9.56787099333911"><ele>77.4</ele><time>2026-04-20T15:07:08Z</time></trkpt><trkpt lat="45.010235777693524" lon="9.568008682655705"><ele>77.6</ele><time>2026-04-20T15:07:10Z</time></trkpt><trkpt lat="45.01014732789229" lon="9.568063893671928"><ele>77.8</ele><time>2026-04-20T15:07:12Z</time></trkpt><trkpt lat="45.010033404424284" lon="9.56804618583591"><ele>78.0</ele><time>2026-04-20T15:07:14Z</time></trkpt><trkpt lat="45.00991303161566" lon="9.568062838326217"><ele>78.0</ele><time>2026-04-20T15:07:16Z</time></trkpt><trkpt lat="45.00984697036408" lon="9.568068470320986"><ele>78.0</ele><time>2026-04-20T15:07:17Z</time></trkpt><trkpt lat="45.00977846726486" lon="9.568072994183257"><ele>78.0</ele><time>2026-04-20T15:07:18Z</time></trkpt><trkpt lat="45.00971322481598" lon="9.56807485923194"><ele>78.0</ele><time>2026-04-20T15:07:19Z</time></trkpt><trkpt lat="45.00964728050105" lon="9.568078341693013"><ele>78.0</ele><time>2026-04-20T15:07:20Z</time></trkpt><trkpt lat="45.00957640794197" lon="9.56808540912195"><ele>78.0</ele><time>2026-04-20T15:07:21Z</time></trkpt><trkpt lat="45.00950946254066" lon="9.568086437476111"><ele>78.0</ele><time>2026-04-20T15:07:22Z</time></trkpt><trkpt lat="45.00944165640644" lon="9.568091615908427"><ele>78.0</ele><time>2026-04-20T15:07:23Z</time></trkpt><trkpt lat="45.00937320579356" lon="9.5680970215395"><ele>78.0</ele><time>2026-04-20T15:07:24Z</time></trkpt><trkpt lat="45.00930460934263" lon="9.568104649111564"><ele>78.0</ele><time>2026-04-20T15:07:25Z</time></trkpt><trkpt lat="45.00923899799341" lon="9.568106749389168"><ele>78.0</ele><time>2026-04-20T15:07:26Z</time></trkpt><trkpt lat="45.00916873288106" lon="9.568107026468054"><ele>78.0</ele><time>2026-04-20T15:07:27Z</time></trkpt><trkpt lat="45.00910583313915" lon="9.568111965867127"><ele>78.0</ele><time>2026-04-20T15:07:28Z</time></trkpt><trkpt lat="45.00904248388683" lon="9.568119008073557"><ele>78.0</ele><time>2026-04-20T15:07:29Z</time></trkpt><trkpt lat="45.00897662463118" lon="9.568124320652759"><ele>78.2</ele><time>2026-04-20T15:07:30Z</time></trkpt><trkpt lat="45.00891058297595" lon="9.568123962659742"><ele>78.4</ele><time>2026-04-20T15:07:31Z</time></trkpt><trkpt lat="45.00877980453068" lon="9.568131143710868"><ele>78.60000000000001</ele><time>2026-04-20T15:07:33Z</time></trkpt><trkpt lat="45.008658471536336" lon="9.568141118191265"><ele>78.8</ele><time>2026-04-20T15:07:35Z</time></trkpt><trkpt lat="45.00859351085664" lon="9.568137587587454"><ele>79.0</ele><time>2026-04-20T15:07:36Z</time></trkpt><trkpt lat="45.00847443738059" lon="9.568136869413392"><ele>79.0</ele><time>2026-04-20T15:07:38Z</time></trkpt><trkpt lat="45.0083732761691" lon="9.568147523238235"><ele>79.0</ele><time>2026-04-20T15:07:40Z</time></trkpt><trkpt lat="45.00828329638372" lon="9.56816346037122"><ele>79.0</ele><time>2026-04-20T15:07:42Z</time></trkpt><trkpt lat="45.00822635349803" lon="9.56824955874007"><ele>79.0</ele><time>2026-04-20T15:07:44Z</time></trkpt><trkpt lat="45.00821732309357" lon="9.568348739218964"><ele>79.0</ele><time>2026-04-20T15:07:46Z</time></trkpt><trkpt lat="45.00819542996118" lon="9.568461907018195"><ele>79.0</ele><time>2026-04-20T15:07:48Z</time></trkpt><trkpt lat="45.00817717777807" lon="9.56857813697132"><ele>79.0</ele><time>2026-04-20T15:07:50Z</time></trkpt><trkpt lat="45.008170643590304" lon="9.568691596359725"><ele>79.0</ele><time>2026-04-20T15:07:52Z</time></trkpt><trkpt lat="45.008156932416945" lon="9.568800274743714"><ele>79.0</ele><time>2026-04-20T15:07:54Z</time></trkpt><trkpt lat="45.00814318518103" lon="9.568901888889382"><ele>79.0</ele><time>2026-04-20T15:07:56Z</time></trkpt><trkpt lat="45.008137129831404" lon="9.569020030070668"><ele>79.0</ele><time>2026-04-20T15:07:58Z</time></trkpt><trkpt lat="45.00811579472998" lon="9.569113549605921"><ele>79.0</ele><time>2026-04-20T15:08:00Z</time></trkpt><trkpt lat="45.0080932322771" lon="9.569255694149026"><ele>79.0</ele><time>2026-04-20T15:08:03Z</time></trkpt><trkpt lat="45.00806640674076" lon="9.569389115579977"><ele>79.0</ele><time>2026-04-20T15:08:06Z</time></trkpt><trkpt lat="45.008062855222" lon="9.56950728781823"><ele>79.0</ele><time>2026-04-20T15:08:09Z</time></trkpt><trkpt lat="45.00804137504714" lon="9.569617432012414"><ele>79.0</ele><time>2026-04-20T15:08:14Z</time></trkpt><trkpt lat="45.008021790562935" lon="9.569703708120647"><ele>79.0</ele><time>2026-04-20T15:08:16Z</time></trkpt><trkpt lat="45.0079914094853" lon="9.569812549271123"><ele>79.0</ele><time>2026-04-20T15:08:18Z</time></trkpt><trkpt lat="45.00797706888026" lon="9.569927887490518"><ele>79.2</ele><time>2026-04-20T15:08:20Z</time></trkpt><trkpt lat="45.00796586602705" lon="9.570060903934122"><ele>79.4</ele><time>2026-04-20T15:08:22Z</time></trkpt><trkpt lat="45.007954334748845" lon="9.570197209584476"><ele>79.6</ele><time>2026-04-20T15:08:24Z</time></trkpt><trkpt lat="45.007936377649074" lon="9.570333330370545"><ele>79.8</ele><time>2026-04-20T15:08:26Z</time></trkpt><trkpt lat="45.00791968386225" lon="9.570471486054698"><ele>80.0</ele><time>2026-04-20T15:08:28Z</time></trkpt><trkpt lat="45.007910604507906" lon="9.570613847287083"><ele>80.0</ele><time>2026-04-20T15:08:30Z</time></trkpt><trkpt lat="45.00790591124084" lon="9.570749344875999"><ele>80.0</ele><time>2026-04-20T15:08:32Z</time></trkpt><trkpt lat="45.00790494240482" lon="9.570888711661416"><ele>80.0</ele><time>2026-04-20T15:08:34Z</time></trkpt><trkpt lat="45.00789946358295" lon="9.571027920411689"><ele>80.0</ele><time>2026-04-20T15:08:36Z</time></trkpt><trkpt lat="45.007882740396845" lon="9.571155339760779"><ele>80.0</ele><time>2026-04-20T15:08:38Z</time></trkpt><trkpt lat="45.007879272011536" lon="9.571274162281421"><ele>79.83333333333334</ele><time>2026-04-20T15:08:40Z</time></trkpt><trkpt lat="45.00787532782511" lon="9.571391418041268"><ele>79.66666666666667</ele><time>2026-04-20T15:08:42Z</time></trkpt><trkpt lat="45.00787077218642" lon="9.571501623371516"><ele>79.5</ele><time>2026-04-20T15:08:44Z</time></trkpt><trkpt lat="45.007863012132965" lon="9.571610025182252"><ele>79.33333333333333</ele><time>2026-04-20T15:08:46Z</time></trkpt><trkpt lat="45.007857415218034" lon="9.571712655375352"><ele>79.16666666666666</ele><time>2026-04-20T15:08:48Z</time></trkpt><trkpt lat="45.00784717222128" lon="9.571817036467085"><ele>79.0</ele><time>2026-04-20T15:08:50Z</time></trkpt><trkpt lat="45.00786573322194" lon="9.571920520307359"><ele>79.0</ele><time>2026-04-20T15:08:52Z</time></trkpt><trkpt lat="45.007944671144756" lon="9.571964491556612"><ele>79.0</ele><time>2026-04-20T15:08:54Z</time></trkpt><trkpt lat="45.00800670752819" lon="9.5719300278104"><ele>79.0</ele><time>2026-04-20T15:08:56Z</time></trkpt><trkpt lat="45.008115711171236" lon="9.57192942418165"><ele>79.0</ele><time>2026-04-20T15:08:58Z</time></trkpt><trkpt lat="45.00820970003605" lon="9.571918990486228"><ele>79.0</ele><time>2026-04-20T15:09:00Z</time></trkpt><trkpt lat="45.008296255531995" lon="9.571930290057955"><ele>79.0</ele><time>2026-04-20T15:09:02Z</time></trkpt><trkpt lat="45.00840300348878" lon="9.571940305307916"><ele>79.2</ele><time>2026-04-20T15:09:04Z</time></trkpt><trkpt lat="45.00851117958418" lon="9.571928493890821"><ele>79.4</ele><time>2026-04-20T15:09:06Z</time></trkpt><trkpt lat="45.00861205570044" lon="9.57186703372192"><ele>79.6</ele><time>2026-04-20T15:09:08Z</time></trkpt><trkpt lat="45.0087034811513" lon="9.571849680157827"><ele>79.8</ele><time>2026-04-20T15:09:10Z</time></trkpt><trkpt lat="45.008796673070286" lon="9.571833135135744"><ele>80.0</ele><time>2026-04-20T15:09:12Z</time></trkpt><trkpt lat="45.00888700816181" lon="9.571817097188351"><ele>80.0</ele><time>2026-04-20T15:09:14Z</time></trkpt><trkpt lat="45.00898491343003" lon="9.571799715290872"><ele>80.0</ele><time>2026-04-20T15:09:16Z</time></trkpt><trkpt lat="45.00909403185904" lon="9.571780342602237"><ele>80.0</ele><time>2026-04-20T15:09:18Z</time></trkpt><trkpt lat="45.009194534849485" lon="9.571777512498471"><ele>80.0</ele><time>2026-04-20T15:09:20Z</time></trkpt><trkpt lat="45.009298268076876" lon="9.571758558494961"><ele>80.0</ele><time>2026-04-20T15:09:22Z</time></trkpt><trkpt lat="45.00940512354157" lon="9.571720815861147"><ele>80.0</ele><time>2026-04-20T15:09:24Z</time></trkpt><trkpt lat="45.0095064811802" lon="9.571719391024091"><ele>80.0</ele><time>2026-04-20T15:09:26Z</time></trkpt><trkpt lat="45.00961444263135" lon="9.571680824442375"><ele>80.0</ele><time>2026-04-20T15:09:28Z</time></trkpt><trkpt lat="45.00970694949908" lon="9.57166308137033"><ele>80.0</ele><time>2026-04-20T15:09:30Z</time></trkpt><trkpt lat="45.00979290773445" lon="9.571646594284797"><ele>80.0</ele><time>2026-04-20T15:09:32Z</time></trkpt><trkpt lat="45.009885528647835" lon="9.571630632844304"><ele>80.0</ele><time>2026-04-20T15:09:34Z</time></trkpt><trkpt lat="45.00999568028098" lon="9.57163096869238"><ele>80.0</ele><time>2026-04-20T15:09:36Z</time></trkpt><trkpt lat="45.010090098156404" lon="9.571603762371666"><ele>80.0</ele><time>2026-04-20T15:09:38Z</time></trkpt><trkpt lat="45.01019458006336" lon="9.57158288400605"><ele>80.0</ele><time>2026-04-20T15:09:40Z</time></trkpt><trkpt lat="45.010279066366444" lon="9.571563921297676"><ele>80.0</ele><time>2026-04-20T15:09:42Z</time></trkpt><trkpt lat="45.010341944364114" lon="9.571554154882376"><ele>80.0</ele><time>2026-04-20T15:09:44Z</time></trkpt><trkpt lat="45.01041527955475" lon="9.571543435377544"><ele>80.0</ele><time>2026-04-20T15:09:46Z</time></trkpt><trkpt lat="45.01050665217242" lon="9.571521104471694"><ele>80.0</ele><time>2026-04-20T15:09:48Z</time></trkpt><trkpt lat="45.01060013656008" lon="9.571516095348585"><ele>80.0</ele><time>2026-04-20T15:09:50Z</time></trkpt><trkpt lat="45.01070051437161" lon="9.571503707969619"><ele>80.0</ele><time>2026-04-20T15:09:52Z</time></trkpt><trkpt lat="45.01080390373157" lon="9.571492301291471"><ele>79.6</ele><time>2026-04-20T15:09:54Z</time></trkpt><trkpt lat="45.010904577040286" lon="9.571481194252025"><ele>79.2</ele><time>2026-04-20T15:09:55.999Z</time></trkpt><trkpt lat="45.011014026457744" lon="9.571491266968549"><ele>78.8</ele><time>2026-04-20T15:09:57.999Z</time></trkpt><trkpt lat="45.011108284884514" lon="9.571458719699404"><ele>78.4</ele><time>2026-04-20T15:09:59.999Z</time></trkpt><trkpt lat="45.01120272166437" lon="9.571471478064677"><ele>78.0</ele><time>2026-04-20T15:10:01.999Z</time></trkpt><trkpt lat="45.011297509115025" lon="9.571436210823412"><ele>78.0</ele><time>2026-04-20T15:10:04Z</time></trkpt><trkpt lat="45.01137671087798" lon="9.571463944018967"><ele>78.0</ele><time>2026-04-20T15:10:06Z</time></trkpt><trkpt lat="45.01147755470659" lon="9.5714487959838"><ele>78.0</ele><time>2026-04-20T15:10:08Z</time></trkpt><trkpt lat="45.01157718621898" lon="9.571436774771731"><ele>78.0</ele><time>2026-04-20T15:10:10Z</time></trkpt><trkpt lat="45.011682849023245" lon="9.571430919391142"><ele>78.0</ele><time>2026-04-20T15:10:12Z</time></trkpt><trkpt lat="45.011785189570695" lon="9.571411435820016"><ele>78.2</ele><time>2026-04-20T15:10:14Z</time></trkpt><trkpt lat="45.01189236238189" lon="9.571387678887348"><ele>78.4</ele><time>2026-04-20T15:10:16Z</time></trkpt><trkpt lat="45.011996706736596" lon="9.5714077451039"><ele>78.60000000000001</ele><time>2026-04-20T15:10:18Z</time></trkpt><trkpt lat="45.012094744128134" lon="9.571387486615457"><ele>78.8</ele><time>2026-04-20T15:10:20Z</time></trkpt><trkpt lat="45.012185790561844" lon="9.571411842425302"><ele>79.0</ele><time>2026-04-20T15:10:22Z</time></trkpt><trkpt lat="45.01228077420383" lon="9.571403038641305"><ele>79.0</ele><time>2026-04-20T15:10:24Z</time></trkpt><trkpt lat="45.01238202550157" lon="9.571408813844826"><ele>79.0</ele><time>2026-04-20T15:10:26Z</time></trkpt><trkpt lat="45.012480486703325" lon="9.571397348268139"><ele>79.0</ele><time>2026-04-20T15:10:28Z</time></trkpt><trkpt lat="45.01257246878753" lon="9.571386452150568"><ele>79.0</ele><time>2026-04-20T15:10:30Z</time></trkpt><trkpt lat="45.0126553756985" lon="9.57139120281351"><ele>79.0</ele><time>2026-04-20T15:10:32Z</time></trkpt><trkpt lat="45.01274889088266" lon="9.571360714559527"><ele>79.0</ele><time>2026-04-20T15:10:34Z</time></trkpt><trkpt lat="45.01281197691574" lon="9.571345999148415"><ele>79.0</ele><time>2026-04-20T15:10:36Z</time></trkpt><trkpt lat="45.01288617803089" lon="9.571328379186236"><ele>79.0</ele><time>2026-04-20T15:10:38Z</time></trkpt><trkpt lat="45.012958290445184" lon="9.571338125573991"><ele>79.0</ele><time>2026-04-20T15:10:40Z</time></trkpt><trkpt lat="45.01303389538417" lon="9.571367150503594"><ele>79.0</ele><time>2026-04-20T15:10:42Z</time></trkpt><trkpt lat="45.01312648069715" lon="9.571380334032488"><ele>79.0</ele><time>2026-04-20T15:10:44Z</time></trkpt><trkpt lat="45.01322308970401" lon="9.571390047478"><ele>78.60000000000001</ele><time>2026-04-20T15:10:46Z</time></trkpt><trkpt lat="45.01333135102518" lon="9.571396727064943"><ele>78.2</ele><time>2026-04-20T15:10:48Z</time></trkpt><trkpt lat="45.01343835417395" lon="9.571408948200755"><ele>77.80000000000001</ele><time>2026-04-20T15:10:50Z</time></trkpt><trkpt lat="45.013538287387696" lon="9.571413964686707"><ele>77.4</ele><time>2026-04-20T15:10:52Z</time></trkpt><trkpt lat="45.01362840826496" lon="9.57142209638948"><ele>77.0</ele><time>2026-04-20T15:10:54Z</time></trkpt><trkpt lat="45.01372415922275" lon="9.571446557392814"><ele>77.0</ele><time>2026-04-20T15:10:56Z</time></trkpt><trkpt lat="45.01382496486913" lon="9.571454027356246"><ele>77.0</ele><time>2026-04-20T15:10:58Z</time></trkpt><trkpt lat="45.01393487328375" lon="9.571465534669255"><ele>77.0</ele><time>2026-04-20T15:11:00Z</time></trkpt><trkpt lat="45.01405271773598" lon="9.571480425411162"><ele>77.0</ele><time>2026-04-20T15:11:02Z</time></trkpt><trkpt lat="45.01417060064602" lon="9.57148543420717"><ele>77.0</ele><time>2026-04-20T15:11:04Z</time></trkpt><trkpt lat="45.014286409724114" lon="9.571473911181547"><ele>77.0</ele><time>2026-04-20T15:11:06Z</time></trkpt><trkpt lat="45.01439581498519" lon="9.571461223252783"><ele>77.0</ele><time>2026-04-20T15:11:08Z</time></trkpt><trkpt lat="45.014505387411326" lon="9.571453833346188"><ele>77.0</ele><time>2026-04-20T15:11:10Z</time></trkpt><trkpt lat="45.014606477460205" lon="9.571455766562048"><ele>77.0</ele><time>2026-04-20T15:11:12Z</time></trkpt><trkpt lat="45.01470921522596" lon="9.571448132172945"><ele>77.0</ele><time>2026-04-20T15:11:14Z</time></trkpt><trkpt lat="45.01480725687608" lon="9.57141588540066"><ele>77.0</ele><time>2026-04-20T15:11:16Z</time></trkpt><trkpt lat="45.014906284327" lon="9.571444986961712"><ele>77.0</ele><time>2026-04-20T15:11:18Z</time></trkpt><trkpt lat="45.01501931910083" lon="9.571395783801393"><ele>77.0</ele><time>2026-04-20T15:11:20Z</time></trkpt><trkpt lat="45.0151426537835" lon="9.571402831283377"><ele>77.0</ele><time>2026-04-20T15:11:22Z</time></trkpt><trkpt lat="45.01524982822408" lon="9.571381139378392"><ele>77.0</ele><time>2026-04-20T15:11:24Z</time></trkpt><trkpt lat="45.01534181699091" lon="9.571365671809767"><ele>77.0</ele><time>2026-04-20T15:11:26Z</time></trkpt><trkpt lat="45.015465883137" lon="9.571355928173535"><ele>77.0</ele><time>2026-04-20T15:11:28Z</time></trkpt><trkpt lat="45.01557990723056" lon="9.571326979066738"><ele>77.0</ele><time>2026-04-20T15:11:30Z</time></trkpt><trkpt lat="45.01570382527605" lon="9.571316743666372"><ele>77.0</ele><time>2026-04-20T15:11:32Z</time></trkpt><trkpt lat="45.015827026695085" lon="9.571317756945398"><ele>77.0</ele><time>2026-04-20T15:11:34Z</time></trkpt><trkpt lat="45.01595306570322" lon="9.571309182580762"><ele>77.0</ele><time>2026-04-20T15:11:36Z</time></trkpt><trkpt lat="45.01607305785398" lon="9.571288156616141"><ele>77.0</ele><time>2026-04-20T15:11:38Z</time></trkpt><trkpt lat="45.016186060609954" lon="9.571295485230028"><ele>77.0</ele><time>2026-04-20T15:11:40Z</time></trkpt><trkpt lat="45.016293651415566" lon="9.57126835832073"><ele>77.0</ele><time>2026-04-20T15:11:42Z</time></trkpt><trkpt lat="45.01635821847256" lon="9.571283958778547"><ele>77.0</ele><time>2026-04-20T15:11:43Z</time></trkpt><trkpt lat="45.0164516162587" lon="9.571263823567383"><ele>77.0</ele><time>2026-04-20T15:11:45Z</time></trkpt><trkpt lat="45.016565122056235" lon="9.57125031893428"><ele>77.0</ele><time>2026-04-20T15:11:47Z</time></trkpt><trkpt lat="45.01666726862691" lon="9.57124759011396"><ele>77.0</ele><time>2026-04-20T15:11:49Z</time></trkpt><trkpt lat="45.01676945919797" lon="9.571231573618693"><ele>77.0</ele><time>2026-04-20T15:11:51Z</time></trkpt><trkpt lat="45.01686858234092" lon="9.571218395081665"><ele>77.0</ele><time>2026-04-20T15:11:53Z</time></trkpt><trkpt lat="45.01697322679238" lon="9.571227925287785"><ele>77.0</ele><time>2026-04-20T15:11:55Z</time></trkpt><trkpt lat="45.017044783979834" lon="9.57120246979097"><ele>77.0</ele><time>2026-04-20T15:11:57Z</time></trkpt><trkpt lat="45.017068469772695" lon="9.571357168655362"><ele>77.0</ele><time>2026-04-20T15:11:58.999Z</time></trkpt><trkpt lat="45.01710380871904" lon="9.57145582471159"><ele>77.0</ele><time>2026-04-20T15:12:00.999Z</time></trkpt><trkpt lat="45.0171328947952" lon="9.571574200759123"><ele>77.0</ele><time>2026-04-20T15:12:02.999Z</time></trkpt><trkpt lat="45.01716245066599" lon="9.571711392754523"><ele>77.0</ele><time>2026-04-20T15:12:04.999Z</time></trkpt><trkpt lat="45.01720820488997" lon="9.571854606410668"><ele>77.0</ele><time>2026-04-20T15:12:06.999Z</time></trkpt><trkpt lat="45.01725225351863" lon="9.571988117302437"><ele>76.8</ele><time>2026-04-20T15:12:09Z</time></trkpt><trkpt lat="45.01732597355984" lon="9.57212448760155"><ele>76.6</ele><time>2026-04-20T15:12:11Z</time></trkpt><trkpt lat="45.01739268505034" lon="9.572249470676907"><ele>76.39999999999999</ele><time>2026-04-20T15:12:13Z</time></trkpt><trkpt lat="45.017456262876486" lon="9.57235738035492"><ele>76.2</ele><time>2026-04-20T15:12:15Z</time></trkpt><trkpt lat="45.01753632392833" lon="9.5724745564475"><ele>76.0</ele><time>2026-04-20T15:12:17Z</time></trkpt><trkpt lat="45.01761190403518" lon="9.572603928893313"><ele>76.0</ele><time>2026-04-20T15:12:19Z</time></trkpt><trkpt lat="45.01768940377153" lon="9.572711437090938"><ele>76.0</ele><time>2026-04-20T15:12:21Z</time></trkpt><trkpt lat="45.01773042536872" lon="9.57278225272322"><ele>76.0</ele><time>2026-04-20T15:12:22Z</time></trkpt><trkpt lat="45.017817363380786" lon="9.57288922627711"><ele>76.0</ele><time>2026-04-20T15:12:24Z</time></trkpt><trkpt lat="45.017897864374135" lon="9.573010013516605"><ele>76.0</ele><time>2026-04-20T15:12:26Z</time></trkpt><trkpt lat="45.01797532233566" lon="9.573127949410678"><ele>76.0</ele><time>2026-04-20T15:12:28Z</time></trkpt><trkpt lat="45.01805791145363" lon="9.573252170971056"><ele>76.0</ele><time>2026-04-20T15:12:30Z</time></trkpt><trkpt lat="45.01814369278048" lon="9.573365665928543"><ele>76.0</ele><time>2026-04-20T15:12:32Z</time></trkpt><trkpt lat="45.018227119573034" lon="9.573489455802672"><ele>76.0</ele><time>2026-04-20T15:12:34Z</time></trkpt><trkpt lat="45.01831811206035" lon="9.573611942024705"><ele>76.0</ele><time>2026-04-20T15:12:36Z</time></trkpt><trkpt lat="45.01836419392535" lon="9.573675090834614"><ele>76.0</ele><time>2026-04-20T15:12:37Z</time></trkpt><trkpt lat="45.01844720745697" lon="9.573800946820912"><ele>76.0</ele><time>2026-04-20T15:12:39Z</time></trkpt><trkpt lat="45.018527283527305" lon="9.573932559906744"><ele>76.0</ele><time>2026-04-20T15:12:41Z</time></trkpt><trkpt lat="45.01860443069589" lon="9.574071312709666"><ele>76.0</ele><time>2026-04-20T15:12:43Z</time></trkpt><trkpt lat="45.018672398511065" lon="9.574210655253662"><ele>75.6</ele><time>2026-04-20T15:12:45Z</time></trkpt><trkpt lat="45.01873538518036" lon="9.574363784575665"><ele>75.19999999999999</ele><time>2026-04-20T15:12:47Z</time></trkpt><trkpt lat="45.01879971411478" lon="9.57450851402525"><ele>74.80000000000001</ele><time>2026-04-20T15:12:49Z</time></trkpt><trkpt lat="45.018832712218" lon="9.574586621781027"><ele>74.4</ele><time>2026-04-20T15:12:50Z</time></trkpt><trkpt lat="45.018896467951926" lon="9.574738537380894"><ele>74.0</ele><time>2026-04-20T15:12:52Z</time></trkpt><trkpt lat="45.01892892550402" lon="9.574815683776174"><ele>74.0</ele><time>2026-04-20T15:12:53Z</time></trkpt><trkpt lat="45.019000418330286" lon="9.574965054962075"><ele>74.0</ele><time>2026-04-20T15:12:55Z</time></trkpt><trkpt lat="45.01903181653319" lon="9.575042839237184"><ele>74.0</ele><time>2026-04-20T15:12:56Z</time></trkpt><trkpt lat="45.01909634775129" lon="9.575199478020858"><ele>74.0</ele><time>2026-04-20T15:12:58Z</time></trkpt><trkpt lat="45.019133145921955" lon="9.575277303769404"><ele>74.0</ele><time>2026-04-20T15:12:59Z</time></trkpt><trkpt lat="45.01919807222452" lon="9.575427448803799"><ele>74.0</ele><time>2026-04-20T15:13:01Z</time></trkpt><trkpt lat="45.019264075670065" lon="9.575571875158499"><ele>74.0</ele><time>2026-04-20T15:13:03Z</time></trkpt><trkpt lat="45.01929633105694" lon="9.57565138666796"><ele>74.0</ele><time>2026-04-20T15:13:04Z</time></trkpt><trkpt lat="45.019330481210595" lon="9.575728179561944"><ele>74.0</ele><time>2026-04-20T15:13:05Z</time></trkpt><trkpt lat="45.019392786262266" lon="9.57587627579585"><ele>74.0</ele><time>2026-04-20T15:13:07Z</time></trkpt><trkpt lat="45.01945549052242" lon="9.576027156410262"><ele>74.0</ele><time>2026-04-20T15:13:09Z</time></trkpt><trkpt lat="45.019506800595494" lon="9.576172849441859"><ele>74.0</ele><time>2026-04-20T15:13:11Z</time></trkpt><trkpt lat="45.01956015309639" lon="9.57633679729947"><ele>74.0</ele><time>2026-04-20T15:13:13Z</time></trkpt><trkpt lat="45.01961668600696" lon="9.576482654800717"><ele>74.0</ele><time>2026-04-20T15:13:15Z</time></trkpt><trkpt lat="45.0196667140291" lon="9.576651080099602"><ele>74.2</ele><time>2026-04-20T15:13:17Z</time></trkpt><trkpt lat="45.01972002104054" lon="9.576804154951759"><ele>74.4</ele><time>2026-04-20T15:13:19Z</time></trkpt><trkpt lat="45.019763666870396" lon="9.57695918870428"><ele>74.6</ele><time>2026-04-20T15:13:21Z</time></trkpt><trkpt lat="45.01981381347981" lon="9.57712008128131"><ele>74.8</ele><time>2026-04-20T15:13:23Z</time></trkpt><trkpt lat="45.01984283942838" lon="9.577204698777877"><ele>75.0</ele><time>2026-04-20T15:13:24Z</time></trkpt><trkpt lat="45.0198919104544" lon="9.577356956407359"><ele>75.0</ele><time>2026-04-20T15:13:26Z</time></trkpt><trkpt lat="45.01991812821617" lon="9.57743890057009"><ele>75.0</ele><time>2026-04-20T15:13:27Z</time></trkpt><trkpt lat="45.01995716014939" lon="9.57760332178715"><ele>75.0</ele><time>2026-04-20T15:13:29Z</time></trkpt><trkpt lat="45.01999508294927" lon="9.577759528774308"><ele>75.0</ele><time>2026-04-20T15:13:31Z</time></trkpt><trkpt lat="45.02004853134043" lon="9.577914163196079"><ele>75.0</ele><time>2026-04-20T15:13:33Z</time></trkpt><trkpt lat="45.02007871882526" lon="9.577993822024169"><ele>74.8</ele><time>2026-04-20T15:13:34Z</time></trkpt><trkpt lat="45.02013567461467" lon="9.578160962197472"><ele>74.6</ele><time>2026-04-20T15:13:36Z</time></trkpt><trkpt lat="45.02020089655964" lon="9.578310864924324"><ele>74.4</ele><time>2026-04-20T15:13:38Z</time></trkpt><trkpt lat="45.0202363875666" lon="9.578386090633467"><ele>74.2</ele><time>2026-04-20T15:13:39Z</time></trkpt><trkpt lat="45.020296895584345" lon="9.57852587470169"><ele>74.0</ele><time>2026-04-20T15:13:41Z</time></trkpt><trkpt lat="45.02033291665285" lon="9.578601823169826"><ele>74.2</ele><time>2026-04-20T15:13:42Z</time></trkpt><trkpt lat="45.020403610918976" lon="9.578754592666026"><ele>74.4</ele><time>2026-04-20T15:13:44Z</time></trkpt><trkpt lat="45.02043939550934" lon="9.578842837086478"><ele>74.6</ele><time>2026-04-20T15:13:45Z</time></trkpt><trkpt lat="45.020505188623005" lon="9.578986984329653"><ele>74.8</ele><time>2026-04-20T15:13:47Z</time></trkpt><trkpt lat="45.02053902890934" lon="9.579063396524957"><ele>75.0</ele><time>2026-04-20T15:13:48Z</time></trkpt><trkpt lat="45.02059961014844" lon="9.579212713647982"><ele>75.0</ele><time>2026-04-20T15:13:50Z</time></trkpt><trkpt lat="45.020659370409376" lon="9.579357560925391"><ele>75.0</ele><time>2026-04-20T15:13:52Z</time></trkpt><trkpt lat="45.020691514554244" lon="9.579440869729206"><ele>75.0</ele><time>2026-04-20T15:13:52.999Z</time></trkpt><trkpt lat="45.02073651639299" lon="9.5795928373902"><ele>75.0</ele><time>2026-04-20T15:13:54.999Z</time></trkpt><trkpt lat="45.02078519454285" lon="9.579746265297633"><ele>75.0</ele><time>2026-04-20T15:13:56.999Z</time></trkpt><trkpt lat="45.020851601322605" lon="9.579892209585037"><ele>75.16666666666667</ele><time>2026-04-20T15:13:58.999Z</time></trkpt><trkpt lat="45.02088258755265" lon="9.579971749076085"><ele>75.33333333333333</ele><time>2026-04-20T15:13:59.999Z</time></trkpt><trkpt lat="45.02093200909042" lon="9.580137689612602"><ele>75.5</ele><time>2026-04-20T15:14:01.999Z</time></trkpt><trkpt lat="45.02098320770693" lon="9.580290098590295"><ele>75.66666666666666</ele><time>2026-04-20T15:14:03.999Z</time></trkpt><trkpt lat="45.02100698238598" lon="9.580373273986266"><ele>75.83333333333333</ele><time>2026-04-20T15:14:04.999Z</time></trkpt><trkpt lat="45.02103804684534" lon="9.580456578216126"><ele>76.0</ele><time>2026-04-20T15:14:05.999Z</time></trkpt><trkpt lat="45.02109156258623" lon="9.580613266179709"><ele>75.66666666666666</ele><time>2026-04-20T15:14:07.999Z</time></trkpt><trkpt lat="45.02112769801378" lon="9.580694969819353"><ele>75.33333333333333</ele><time>2026-04-20T15:14:08.999Z</time></trkpt><trkpt lat="45.02115911265758" lon="9.580773011488303"><ele>75.0</ele><time>2026-04-20T15:14:09.999Z</time></trkpt><trkpt lat="45.02119023796397" lon="9.58085704074302"><ele>74.66666666666667</ele><time>2026-04-20T15:14:10.999Z</time></trkpt><trkpt lat="45.02125251271242" lon="9.581005556468089"><ele>74.33333333333334</ele><time>2026-04-20T15:14:12.999Z</time></trkpt><trkpt lat="45.021285279307875" lon="9.581081695065206"><ele>74.0</ele><time>2026-04-20T15:14:13.999Z</time></trkpt><trkpt lat="45.021351052343505" lon="9.581222111224736"><ele>73.25</ele><time>2026-04-20T15:14:16Z</time></trkpt><trkpt lat="45.021423115000275" lon="9.581358325968424"><ele>72.5</ele><time>2026-04-20T15:14:18Z</time></trkpt><trkpt lat="45.02148362164834" lon="9.581473681213971"><ele>71.75</ele><time>2026-04-20T15:14:20Z</time></trkpt><trkpt lat="45.02155287152279" lon="9.58159397642723"><ele>71.0</ele><time>2026-04-20T15:14:22Z</time></trkpt><trkpt lat="45.02162712307686" lon="9.581732554455273"><ele>71.6</ele><time>2026-04-20T15:14:24Z</time></trkpt><trkpt lat="45.021705032417294" lon="9.581870204484003"><ele>72.19999999999999</ele><time>2026-04-20T15:14:26Z</time></trkpt><trkpt lat="45.021787656313414" lon="9.58200642299484"><ele>72.80000000000001</ele><time>2026-04-20T15:14:28Z</time></trkpt><trkpt lat="45.02186520937501" lon="9.582143157483138"><ele>73.4</ele><time>2026-04-20T15:14:30Z</time></trkpt><trkpt lat="45.02191235191274" lon="9.58221774675453"><ele>74.0</ele><time>2026-04-20T15:14:31Z</time></trkpt><trkpt lat="45.02198727340556" lon="9.582357186070288"><ele>74.0</ele><time>2026-04-20T15:14:33Z</time></trkpt><trkpt lat="45.022028066172126" lon="9.582427253691549"><ele>74.0</ele><time>2026-04-20T15:14:34Z</time></trkpt><trkpt lat="45.02209824112543" lon="9.582569377275"><ele>74.0</ele><time>2026-04-20T15:14:36Z</time></trkpt><trkpt lat="45.022174141625825" lon="9.58271922830702"><ele>74.0</ele><time>2026-04-20T15:14:38Z</time></trkpt><trkpt lat="45.022208983856046" lon="9.582795403017471"><ele>74.0</ele><time>2026-04-20T15:14:39Z</time></trkpt><trkpt lat="45.02224389169036" lon="9.582874860337244"><ele>74.0</ele><time>2026-04-20T15:14:40Z</time></trkpt><trkpt lat="45.022293567712445" lon="9.582967369765587"><ele>73.60000000000001</ele><time>2026-04-20T15:14:41Z</time></trkpt><trkpt lat="45.02235130262623" lon="9.583106832261445"><ele>73.2</ele><time>2026-04-20T15:14:43Z</time></trkpt><trkpt lat="45.022385069940036" lon="9.583184829639128"><ele>72.80000000000001</ele><time>2026-04-20T15:14:44Z</time></trkpt><trkpt lat="45.0224473528945" lon="9.583340701247"><ele>72.4</ele><time>2026-04-20T15:14:46Z</time></trkpt><trkpt lat="45.02247916356976" lon="9.583425768617982"><ele>72.0</ele><time>2026-04-20T15:14:47Z</time></trkpt><trkpt lat="45.022541514226" lon="9.583574973661987"><ele>71.8</ele><time>2026-04-20T15:14:49Z</time></trkpt><trkpt lat="45.02257456632304" lon="9.583659342067063"><ele>71.6</ele><time>2026-04-20T15:14:50Z</time></trkpt><trkpt lat="45.022631557889454" lon="9.583817439308703"><ele>71.39999999999999</ele><time>2026-04-20T15:14:52Z</time></trkpt><trkpt lat="45.022693133119304" lon="9.583969318009343"><ele>71.2</ele><time>2026-04-20T15:14:54Z</time></trkpt><trkpt lat="45.022729773509006" lon="9.584057190099927"><ele>71.0</ele><time>2026-04-20T15:14:55Z</time></trkpt><trkpt lat="45.02279107621584" lon="9.584209359593594"><ele>71.0</ele><time>2026-04-20T15:14:57Z</time></trkpt><trkpt lat="45.02282197982327" lon="9.584289370004482"><ele>71.0</ele><time>2026-04-20T15:14:58Z</time></trkpt><trkpt lat="45.022853978705086" lon="9.584371020359441"><ele>71.0</ele><time>2026-04-20T15:14:59Z</time></trkpt><trkpt lat="45.02291053924048" lon="9.584519639444867"><ele>71.0</ele><time>2026-04-20T15:15:01Z</time></trkpt><trkpt lat="45.022963755872816" lon="9.58465532012686"><ele>71.0</ele><time>2026-04-20T15:15:03Z</time></trkpt><trkpt lat="45.02307188682513" lon="9.58471279152061"><ele>71.2</ele><time>2026-04-20T15:15:05Z</time></trkpt><trkpt lat="45.02317244961628" lon="9.584652283343416"><ele>71.39999999999999</ele><time>2026-04-20T15:15:07Z</time></trkpt><trkpt lat="45.023293856331875" lon="9.58463182474297"><ele>71.6</ele><time>2026-04-20T15:15:09Z</time></trkpt><trkpt lat="45.02335834948797" lon="9.584623911679362"><ele>71.8</ele><time>2026-04-20T15:15:10Z</time></trkpt><trkpt lat="45.02348666917749" lon="9.584593513147317"><ele>72.0</ele><time>2026-04-20T15:15:12Z</time></trkpt><trkpt lat="45.02355702798387" lon="9.584576049416333"><ele>72.0</ele><time>2026-04-20T15:15:13Z</time></trkpt><trkpt lat="45.023684076675366" lon="9.584541174790127"><ele>72.0</ele><time>2026-04-20T15:15:15Z</time></trkpt><trkpt lat="45.02380738383724" lon="9.58450733541524"><ele>72.0</ele><time>2026-04-20T15:15:17Z</time></trkpt><trkpt lat="45.023873204114594" lon="9.584484542769397"><ele>72.0</ele><time>2026-04-20T15:15:18Z</time></trkpt><trkpt lat="45.02393647750388" lon="9.584461146447852"><ele>72.0</ele><time>2026-04-20T15:15:19Z</time></trkpt><trkpt lat="45.02400423949086" lon="9.584455974443243"><ele>71.83333333333333</ele><time>2026-04-20T15:15:20Z</time></trkpt><trkpt lat="45.02407291568076" lon="9.584439392513772"><ele>71.66666666666667</ele><time>2026-04-20T15:15:21Z</time></trkpt><trkpt lat="45.024142706402806" lon="9.584420856694633"><ele>71.5</ele><time>2026-04-20T15:15:22Z</time></trkpt><trkpt lat="45.02420652764063" lon="9.584402291257483"><ele>71.33333333333334</ele><time>2026-04-20T15:15:23Z</time></trkpt><trkpt lat="45.02427424656739" lon="9.584383159908427"><ele>71.16666666666667</ele><time>2026-04-20T15:15:24Z</time></trkpt><trkpt lat="45.02440351807421" lon="9.584344484874427"><ele>71.0</ele><time>2026-04-20T15:15:26Z</time></trkpt><trkpt lat="45.024468258576" lon="9.584329703108253"><ele>71.0</ele><time>2026-04-20T15:15:27Z</time></trkpt><trkpt lat="45.024533481190375" lon="9.584311478723249"><ele>71.0</ele><time>2026-04-20T15:15:28Z</time></trkpt><trkpt lat="45.024598341452865" lon="9.584293798202514"><ele>71.0</ele><time>2026-04-20T15:15:29Z</time></trkpt><trkpt lat="45.02466504292133" lon="9.584273608895732"><ele>71.0</ele><time>2026-04-20T15:15:30Z</time></trkpt><trkpt lat="45.02473264508445" lon="9.584251293197894"><ele>71.0</ele><time>2026-04-20T15:15:31Z</time></trkpt><trkpt lat="45.024796391196396" lon="9.584234617354204"><ele>71.0</ele><time>2026-04-20T15:15:32Z</time></trkpt><trkpt lat="45.02486022363265" lon="9.584219493241873"><ele>71.0</ele><time>2026-04-20T15:15:33Z</time></trkpt><trkpt lat="45.02492691628174" lon="9.584201775522818"><ele>71.0</ele><time>2026-04-20T15:15:34Z</time></trkpt><trkpt lat="45.02499208957804" lon="9.584176755766007"><ele>71.0</ele><time>2026-04-20T15:15:35Z</time></trkpt><trkpt lat="45.02505930913137" lon="9.584155986205516"><ele>71.0</ele><time>2026-04-20T15:15:36Z</time></trkpt><trkpt lat="45.0251247691047" lon="9.584139260317945"><ele>71.0</ele><time>2026-04-20T15:15:37Z</time></trkpt><trkpt lat="45.02518734755722" lon="9.584121031722214"><ele>71.0</ele><time>2026-04-20T15:15:38Z</time></trkpt><trkpt lat="45.02531038104127" lon="9.584079279554464"><ele>71.0</ele><time>2026-04-20T15:15:40Z</time></trkpt><trkpt lat="45.025372670597044" lon="9.58405982940865"><ele>71.0</ele><time>2026-04-20T15:15:41Z</time></trkpt><trkpt lat="45.02548910557692" lon="9.584002984684831"><ele>71.0</ele><time>2026-04-20T15:15:43Z</time></trkpt><trkpt lat="45.025594129707265" lon="9.583945659728384"><ele>71.0</ele><time>2026-04-20T15:15:45Z</time></trkpt><trkpt lat="45.02570125276932" lon="9.583885905920829"><ele>71.0</ele><time>2026-04-20T15:15:47Z</time></trkpt><trkpt lat="45.02575971808902" lon="9.583850053700644"><ele>71.0</ele><time>2026-04-20T15:15:48Z</time></trkpt><trkpt lat="45.025880545478984" lon="9.583782277392322"><ele>70.8</ele><time>2026-04-20T15:15:50Z</time></trkpt><trkpt lat="45.02594879153598" lon="9.583758458931582"><ele>70.6</ele><time>2026-04-20T15:15:51Z</time></trkpt><trkpt lat="45.02605539481817" lon="9.583687703105323"><ele>70.4</ele><time>2026-04-20T15:15:52.999Z</time></trkpt><trkpt lat="45.02616844981034" lon="9.583618524170175"><ele>70.2</ele><time>2026-04-20T15:15:54.999Z</time></trkpt><trkpt lat="45.02627919497647" lon="9.583570323655147"><ele>70.0</ele><time>2026-04-20T15:15:56.999Z</time></trkpt><trkpt lat="45.026370081300776" lon="9.583678020543976"><ele>70.0</ele><time>2026-04-20T15:15:58.999Z</time></trkpt><trkpt lat="45.02637879421394" lon="9.583771123084343"><ele>70.0</ele><time>2026-04-20T15:15:59.999Z</time></trkpt><trkpt lat="45.026390993336605" lon="9.583942797929833"><ele>70.0</ele><time>2026-04-20T15:16:01.999Z</time></trkpt><trkpt lat="45.02641827350544" lon="9.584114669272003"><ele>70.0</ele><time>2026-04-20T15:16:03.999Z</time></trkpt><trkpt lat="45.026447151876575" lon="9.584289914580712"><ele>70.0</ele><time>2026-04-20T15:16:05.999Z</time></trkpt><trkpt lat="45.02646278655457" lon="9.584376941700654"><ele>70.0</ele><time>2026-04-20T15:16:06.999Z</time></trkpt><trkpt lat="45.026492436638" lon="9.584554110394732"><ele>70.0</ele><time>2026-04-20T15:16:08.999Z</time></trkpt><trkpt lat="45.026509709924795" lon="9.584707850257175"><ele>70.0</ele><time>2026-04-20T15:16:10.999Z</time></trkpt><trkpt lat="45.02653721751487" lon="9.584866765684646"><ele>70.0</ele><time>2026-04-20T15:16:12.999Z</time></trkpt><trkpt lat="45.026557681055834" lon="9.585008375693777"><ele>70.0</ele><time>2026-04-20T15:16:14.999Z</time></trkpt><trkpt lat="45.0265918097657" lon="9.585141807200818"><ele>70.0</ele><time>2026-04-20T15:16:16.999Z</time></trkpt><trkpt lat="45.02666738996286" lon="9.585272499323224"><ele>70.0</ele><time>2026-04-20T15:16:18.999Z</time></trkpt><trkpt lat="45.0267608301972" lon="9.58536232176995"><ele>70.0</ele><time>2026-04-20T15:16:21Z</time></trkpt><trkpt lat="45.02681753344888" lon="9.585421682209311"><ele>70.0</ele><time>2026-04-20T15:16:22Z</time></trkpt><trkpt lat="45.02693572658337" lon="9.585446947802783"><ele>70.16666666666666</ele><time>2026-04-20T15:16:24Z</time></trkpt><trkpt lat="45.02699978651461" lon="9.585435681585919"><ele>70.33333333333333</ele><time>2026-04-20T15:16:25Z</time></trkpt><trkpt lat="45.02711955588602" lon="9.585409756106955"><ele>70.5</ele><time>2026-04-20T15:16:27Z</time></trkpt><trkpt lat="45.02724151276823" lon="9.585392520769497"><ele>70.66666666666667</ele><time>2026-04-20T15:16:29Z</time></trkpt><trkpt lat="45.02730645653933" lon="9.585377809344644"><ele>70.83333333333334</ele><time>2026-04-20T15:16:30Z</time></trkpt><trkpt lat="45.02737199866101" lon="9.585365415233541"><ele>71.0</ele><time>2026-04-20T15:16:31Z</time></trkpt><trkpt lat="45.02743554082134" lon="9.585369549809366"><ele>71.0</ele><time>2026-04-20T15:16:32Z</time></trkpt><trkpt lat="45.02755715675854" lon="9.585346500810518"><ele>71.0</ele><time>2026-04-20T15:16:34Z</time></trkpt><trkpt lat="45.0276786630467" lon="9.585327882428523"><ele>71.0</ele><time>2026-04-20T15:16:36Z</time></trkpt><trkpt lat="45.02779059801426" lon="9.585311390923366"><ele>71.0</ele><time>2026-04-20T15:16:38Z</time></trkpt><trkpt lat="45.02790980655577" lon="9.585298368617437"><ele>71.0</ele><time>2026-04-20T15:16:40Z</time></trkpt><trkpt lat="45.02801665061339" lon="9.585284904805976"><ele>71.0</ele><time>2026-04-20T15:16:42Z</time></trkpt><trkpt lat="45.02812363264607" lon="9.585265723197567"><ele>71.0</ele><time>2026-04-20T15:16:44Z</time></trkpt><trkpt lat="45.02824690202485" lon="9.58525895288406"><ele>71.0</ele><time>2026-04-20T15:16:46Z</time></trkpt><trkpt lat="45.02836843014909" lon="9.585226302961013"><ele>71.2</ele><time>2026-04-20T15:16:48Z</time></trkpt><trkpt lat="45.02848748057509" lon="9.58516946119421"><ele>71.39999999999999</ele><time>2026-04-20T15:16:50Z</time></trkpt><trkpt lat="45.0285466602486" lon="9.58513733195577"><ele>71.6</ele><time>2026-04-20T15:16:51Z</time></trkpt><trkpt lat="45.028649985039344" lon="9.585065745977095"><ele>71.8</ele><time>2026-04-20T15:16:53Z</time></trkpt><trkpt lat="45.02876323371036" lon="9.585002929816316"><ele>72.0</ele><time>2026-04-20T15:16:55Z</time></trkpt><trkpt lat="45.0288753145118" lon="9.58496316798344"><ele>72.0</ele><time>2026-04-20T15:16:57Z</time></trkpt><trkpt lat="45.02899140426728" lon="9.584923786770954"><ele>72.0</ele><time>2026-04-20T15:16:59Z</time></trkpt><trkpt lat="45.029086868804626" lon="9.584911149348333"><ele>72.0</ele><time>2026-04-20T15:17:01Z</time></trkpt><trkpt lat="45.02920666275695" lon="9.58487806750223"><ele>72.0</ele><time>2026-04-20T15:17:03Z</time></trkpt><trkpt lat="45.02927350612017" lon="9.584882191206178"><ele>72.0</ele><time>2026-04-20T15:17:04Z</time></trkpt><trkpt lat="45.0293418362834" lon="9.58487103655306"><ele>71.5</ele><time>2026-04-20T15:17:05Z</time></trkpt><trkpt lat="45.02940938202093" lon="9.584868273153697"><ele>71.0</ele><time>2026-04-20T15:17:06Z</time></trkpt><trkpt lat="45.02947737301764" lon="9.584857903361458"><ele>70.5</ele><time>2026-04-20T15:17:07Z</time></trkpt><trkpt lat="45.029543288678454" lon="9.584856054608775"><ele>70.0</ele><time>2026-04-20T15:17:08Z</time></trkpt><trkpt lat="45.02960764666075" lon="9.584827164024343"><ele>69.5</ele><time>2026-04-20T15:17:09Z</time></trkpt><trkpt lat="45.02972811812913" lon="9.58483259048916"><ele>69.0</ele><time>2026-04-20T15:17:11Z</time></trkpt><trkpt lat="45.029839374958684" lon="9.584799573552178"><ele>69.0</ele><time>2026-04-20T15:17:13Z</time></trkpt><trkpt lat="45.02994818992165" lon="9.584804005199839"><ele>69.0</ele><time>2026-04-20T15:17:15Z</time></trkpt><trkpt lat="45.030010323556176" lon="9.58478940724463"><ele>69.0</ele><time>2026-04-20T15:17:16Z</time></trkpt><trkpt lat="45.03012892659641" lon="9.58476135119043"><ele>69.0</ele><time>2026-04-20T15:17:18Z</time></trkpt><trkpt lat="45.030194037049554" lon="9.58474210980349"><ele>69.0</ele><time>2026-04-20T15:17:19Z</time></trkpt><trkpt lat="45.030316878637" lon="9.58471884100981"><ele>68.8</ele><time>2026-04-20T15:17:21Z</time></trkpt><trkpt lat="45.03038227506127" lon="9.58470650155341"><ele>68.60000000000001</ele><time>2026-04-20T15:17:22Z</time></trkpt><trkpt lat="45.03044731334828" lon="9.584688728267803"><ele>68.4</ele><time>2026-04-20T15:17:23Z</time></trkpt><trkpt lat="45.030572312631904" lon="9.584666324867314"><ele>68.2</ele><time>2026-04-20T15:17:25Z</time></trkpt><trkpt lat="45.03068553016756" lon="9.584639251776823"><ele>68.0</ele><time>2026-04-20T15:17:27Z</time></trkpt><trkpt lat="45.03078922458043" lon="9.58465535848085"><ele>68.0</ele><time>2026-04-20T15:17:29Z</time></trkpt><trkpt lat="45.030850901587975" lon="9.584625059904011"><ele>68.0</ele><time>2026-04-20T15:17:30Z</time></trkpt><trkpt lat="45.03096927941401" lon="9.584590736743168"><ele>68.0</ele><time>2026-04-20T15:17:32Z</time></trkpt><trkpt lat="45.03108939075151" lon="9.584569404689946"><ele>68.0</ele><time>2026-04-20T15:17:34Z</time></trkpt><trkpt lat="45.03115181525463" lon="9.58454684672486"><ele>68.0</ele><time>2026-04-20T15:17:35Z</time></trkpt><trkpt lat="45.03125495047593" lon="9.584491222053579"><ele>68.2</ele><time>2026-04-20T15:17:37Z</time></trkpt><trkpt lat="45.03132165959089" lon="9.584473475180534"><ele>68.4</ele><time>2026-04-20T15:17:38Z</time></trkpt><trkpt lat="45.0314399260115" lon="9.584442012318508"><ele>68.60000000000001</ele><time>2026-04-20T15:17:40Z</time></trkpt><trkpt lat="45.03156159003278" lon="9.584409645581903"><ele>68.8</ele><time>2026-04-20T15:17:42Z</time></trkpt><trkpt lat="45.03168593831431" lon="9.584376564772331"><ele>69.0</ele><time>2026-04-20T15:17:44Z</time></trkpt><trkpt lat="45.031749222772454" lon="9.584359225300052"><ele>69.0</ele><time>2026-04-20T15:17:45Z</time></trkpt><trkpt lat="45.03187713356172" lon="9.58432478667811"><ele>69.0</ele><time>2026-04-20T15:17:47Z</time></trkpt><trkpt lat="45.03194233271816" lon="9.584307232500585"><ele>69.0</ele><time>2026-04-20T15:17:48Z</time></trkpt><trkpt lat="45.03200847473112" lon="9.58428942446855"><ele>69.0</ele><time>2026-04-20T15:17:49Z</time></trkpt><trkpt lat="45.032127634476296" lon="9.584257758894392"><ele>69.0</ele><time>2026-04-20T15:17:51Z</time></trkpt><trkpt lat="45.032246823370315" lon="9.584226238122161"><ele>69.0</ele><time>2026-04-20T15:17:53Z</time></trkpt><trkpt lat="45.03235633678575" lon="9.58419727613584"><ele>69.0</ele><time>2026-04-20T15:17:55Z</time></trkpt><trkpt lat="45.03246437447556" lon="9.58416870442636"><ele>69.0</ele><time>2026-04-20T15:17:57Z</time></trkpt><trkpt lat="45.03257026691479" lon="9.58414070004417"><ele>69.0</ele><time>2026-04-20T15:17:59Z</time></trkpt><trkpt lat="45.032658083386" lon="9.58411747606356"><ele>69.0</ele><time>2026-04-20T15:18:01Z</time></trkpt><trkpt lat="45.03276286827242" lon="9.584089764583794"><ele>69.0</ele><time>2026-04-20T15:18:02.999Z</time></trkpt><trkpt lat="45.03284779998607" lon="9.584067303509956"><ele>69.0</ele><time>2026-04-20T15:18:04.999Z</time></trkpt><trkpt lat="45.032954685840494" lon="9.584000351553358"><ele>69.0</ele><time>2026-04-20T15:18:06.999Z</time></trkpt><trkpt lat="45.0330708882277" lon="9.583978064912852"><ele>69.0</ele><time>2026-04-20T15:18:08.999Z</time></trkpt><trkpt lat="45.03318451713925" lon="9.583943593568746"><ele>69.0</ele><time>2026-04-20T15:18:10.999Z</time></trkpt><trkpt lat="45.033261832936994" lon="9.583895004226607"><ele>68.66666666666667</ele><time>2026-04-20T15:18:12.999Z</time></trkpt><trkpt lat="45.033377394000475" lon="9.583543541848277"><ele>68.33333333333334</ele><time>2026-04-20T15:18:13.999Z</time></trkpt><trkpt lat="45.0333583891666" lon="9.58345258186919"><ele>68.0</ele><time>2026-04-20T15:18:14.999Z</time></trkpt><trkpt lat="45.03332366598631" lon="9.583286391543066"><ele>68.0</ele><time>2026-04-20T15:18:16.999Z</time></trkpt><trkpt lat="45.03329414401621" lon="9.583145094978306"><ele>68.0</ele><time>2026-04-20T15:18:18.999Z</time></trkpt><trkpt lat="45.03326179601321" lon="9.58299027259083"><ele>68.0</ele><time>2026-04-20T15:18:20.999Z</time></trkpt><trkpt lat="45.03323343784369" lon="9.58285454615053"><ele>68.0</ele><time>2026-04-20T15:18:22.999Z</time></trkpt><trkpt lat="45.03320659273366" lon="9.582726061447772"><ele>68.0</ele><time>2026-04-20T15:18:24.999Z</time></trkpt><trkpt lat="45.03318508414297" lon="9.582623118107948"><ele>68.0</ele><time>2026-04-20T15:18:27Z</time></trkpt><trkpt lat="45.03316155591117" lon="9.58251050848363"><ele>68.0</ele><time>2026-04-20T15:18:29Z</time></trkpt><trkpt lat="45.03313567119135" lon="9.58238662035003"><ele>68.0</ele><time>2026-04-20T15:18:31Z</time></trkpt><trkpt lat="45.033108500716054" lon="9.582260748063279"><ele>68.0</ele><time>2026-04-20T15:18:33Z</time></trkpt><trkpt lat="45.03308111974952" lon="9.582135891512548"><ele>68.0</ele><time>2026-04-20T15:18:35Z</time></trkpt><trkpt lat="45.033050366002" lon="9.581995655173104"><ele>68.0</ele><time>2026-04-20T15:18:37Z</time></trkpt><trkpt lat="45.033021996379105" lon="9.581866290379365"><ele>68.0</ele><time>2026-04-20T15:18:39Z</time></trkpt><trkpt lat="45.03299289482163" lon="9.581733587980883"><ele>68.0</ele><time>2026-04-20T15:18:41Z</time></trkpt><trkpt lat="45.03296273950679" lon="9.581596080470144"><ele>68.0</ele><time>2026-04-20T15:18:43Z</time></trkpt><trkpt lat="45.032932555985724" lon="9.581458444342116"><ele>68.0</ele><time>2026-04-20T15:18:45Z</time></trkpt><trkpt lat="45.0329018142335" lon="9.581318262694706"><ele>68.0</ele><time>2026-04-20T15:18:47Z</time></trkpt><trkpt lat="45.03287422696498" lon="9.581192465415919"><ele>68.0</ele><time>2026-04-20T15:18:49Z</time></trkpt><trkpt lat="45.032779121927796" lon="9.581100766609968"><ele>68.0</ele><time>2026-04-20T15:18:51Z</time></trkpt><trkpt lat="45.03275860611188" lon="9.580980573832914"><ele>68.0</ele><time>2026-04-20T15:18:53Z</time></trkpt><trkpt lat="45.03273575333462" lon="9.580875077647677"><ele>68.0</ele><time>2026-04-20T15:18:55Z</time></trkpt><trkpt lat="45.03271483365879" lon="9.580768546839867"><ele>68.0</ele><time>2026-04-20T15:18:57Z</time></trkpt><trkpt lat="45.03269296393346" lon="9.580673194415475"><ele>68.0</ele><time>2026-04-20T15:18:59Z</time></trkpt><trkpt lat="45.03267214487244" lon="9.580575556182096"><ele>68.0</ele><time>2026-04-20T15:19:01Z</time></trkpt><trkpt lat="45.032654693208016" lon="9.580451750649347"><ele>68.0</ele><time>2026-04-20T15:19:04Z</time></trkpt><trkpt lat="45.03262209156156" lon="9.580333753598428"><ele>68.0</ele><time>2026-04-20T15:19:07Z</time></trkpt><trkpt lat="45.03258594274148" lon="9.580196929873118"><ele>68.0</ele><time>2026-04-20T15:19:10Z</time></trkpt><trkpt lat="45.03254972663752" lon="9.580075841947552"><ele>68.0</ele><time>2026-04-20T15:19:13Z</time></trkpt><trkpt lat="45.032512149471984" lon="9.579952103626145"><ele>68.0</ele><time>2026-04-20T15:19:16Z</time></trkpt><trkpt lat="45.03248424321763" lon="9.57982546858572"><ele>68.0</ele><time>2026-04-20T15:19:19Z</time></trkpt><trkpt lat="45.03245032293572" lon="9.579743663250632"><ele>68.0</ele><time>2026-04-20T15:19:21Z</time></trkpt><trkpt lat="45.032436049952715" lon="9.5796533893604"><ele>68.0</ele><time>2026-04-20T15:19:23Z</time></trkpt><trkpt lat="45.03242425451704" lon="9.579562164102379"><ele>68.0</ele><time>2026-04-20T15:19:25Z</time></trkpt><trkpt lat="45.032403319718526" lon="9.579463618437092"><ele>67.83333333333334</ele><time>2026-04-20T15:19:27Z</time></trkpt><trkpt lat="45.03237848862966" lon="9.579358652448846"><ele>67.66666666666667</ele><time>2026-04-20T15:19:29Z</time></trkpt><trkpt lat="45.032348280528865" lon="9.579238943869326"><ele>67.5</ele><time>2026-04-20T15:19:32Z</time></trkpt><trkpt lat="45.03232896264767" lon="9.57912401622961"><ele>67.33333333333333</ele><time>2026-04-20T15:19:35Z</time></trkpt><trkpt lat="45.032302458069495" lon="9.57900788640739"><ele>67.16666666666666</ele><time>2026-04-20T15:19:38Z</time></trkpt><trkpt lat="45.03228333060347" lon="9.57888483969947"><ele>67.0</ele><time>2026-04-20T15:19:41Z</time></trkpt><trkpt lat="45.03225118168892" lon="9.578761573289285"><ele>67.5</ele><time>2026-04-20T15:19:44Z</time></trkpt><trkpt lat="45.03223294166047" lon="9.578673759001857"><ele>68.0</ele><time>2026-04-20T15:19:46Z</time></trkpt><trkpt lat="45.03221184034087" lon="9.578548876441314"><ele>68.5</ele><time>2026-04-20T15:19:49Z</time></trkpt><trkpt lat="45.032195891180685" lon="9.578442997492893"><ele>69.0</ele><time>2026-04-20T15:19:52Z</time></trkpt><trkpt lat="45.03219337922066" lon="9.57834700915431"><ele>69.5</ele><time>2026-04-20T15:19:56Z</time></trkpt><trkpt lat="45.0322627360089" lon="9.5782952537905"><ele>70.0</ele><time>2026-04-20T15:20:11.999Z</time></trkpt><trkpt lat="45.0323213434035" lon="9.578213423547753"><ele>70.0</ele><time>2026-04-20T15:20:14.999Z</time></trkpt><trkpt lat="45.03231137599986" lon="9.578085722088474"><ele>70.0</ele><time>2026-04-20T15:20:16.999Z</time></trkpt><trkpt lat="45.03229409946324" lon="9.577975529235419"><ele>70.0</ele><time>2026-04-20T15:20:18.999Z</time></trkpt><trkpt lat="45.03228419051736" lon="9.577868868314496"><ele>70.0</ele><time>2026-04-20T15:20:20.999Z</time></trkpt><trkpt lat="45.03230534120207" lon="9.577764568084923"><ele>70.0</ele><time>2026-04-20T15:20:22.999Z</time></trkpt><trkpt lat="45.03235418282261" lon="9.577688917457909"><ele>70.0</ele><time>2026-04-20T15:20:24.999Z</time></trkpt><trkpt lat="45.03241365450369" lon="9.577629668852083"><ele>70.0</ele><time>2026-04-20T15:20:26.999Z</time></trkpt><trkpt lat="45.03247233601074" lon="9.57758227748751"><ele>70.0</ele><time>2026-04-20T15:20:28.999Z</time></trkpt><trkpt lat="45.03251056022484" lon="9.577508349976876"><ele>70.0</ele><time>2026-04-20T15:20:30.999Z</time></trkpt><trkpt lat="45.03258727765963" lon="9.577455919797394"><ele>70.0</ele><time>2026-04-20T15:20:34Z</time></trkpt><trkpt lat="45.03266273015185" lon="9.577427549279626"><ele>70.0</ele><time>2026-04-20T15:20:36Z</time></trkpt><trkpt lat="45.03274426396089" lon="9.577389119934757"><ele>70.0</ele><time>2026-04-20T15:20:38Z</time></trkpt><trkpt lat="45.032829465939884" lon="9.577345732550286"><ele>70.0</ele><time>2026-04-20T15:20:40Z</time></trkpt><trkpt lat="45.03292214170322" lon="9.577305582480665"><ele>70.0</ele><time>2026-04-20T15:20:42Z</time></trkpt><trkpt lat="45.033003023092924" lon="9.57727103628949"><ele>70.0</ele><time>2026-04-20T15:20:44Z</time></trkpt><trkpt lat="45.03307755981722" lon="9.57722732147857"><ele>70.0</ele><time>2026-04-20T15:20:46Z</time></trkpt><trkpt lat="45.033160499676136" lon="9.577203307662664"><ele>70.0</ele><time>2026-04-20T15:20:48Z</time></trkpt><trkpt lat="45.033239478600535" lon="9.577166230336031"><ele>70.0</ele><time>2026-04-20T15:20:50Z</time></trkpt><trkpt lat="45.03330075164573" lon="9.577132859063804"><ele>70.0</ele><time>2026-04-20T15:20:52Z</time></trkpt><trkpt lat="45.03341968831514" lon="9.577093676887106"><ele>70.0</ele><time>2026-04-20T15:20:55Z</time></trkpt><trkpt lat="45.03348148278848" lon="9.577075181725831"><ele>70.0</ele><time>2026-04-20T15:20:56Z</time></trkpt><trkpt lat="45.03357672170182" lon="9.577038271180024"><ele>70.0</ele><time>2026-04-20T15:20:58Z</time></trkpt><trkpt lat="45.033670123667214" lon="9.577000385446338"><ele>70.0</ele><time>2026-04-20T15:21:00Z</time></trkpt><trkpt lat="45.033777678580165" lon="9.57695497027669"><ele>70.0</ele><time>2026-04-20T15:21:02Z</time></trkpt><trkpt lat="45.0338988533235" lon="9.576926155222008"><ele>70.0</ele><time>2026-04-20T15:21:04Z</time></trkpt><trkpt lat="45.03396547245402" lon="9.576899495033745"><ele>70.0</ele><time>2026-04-20T15:21:05Z</time></trkpt><trkpt lat="45.03407367958289" lon="9.576834846398288"><ele>70.0</ele><time>2026-04-20T15:21:07Z</time></trkpt><trkpt lat="45.03418215692095" lon="9.57679099752887"><ele>70.0</ele><time>2026-04-20T15:21:09Z</time></trkpt><trkpt lat="45.03428476817511" lon="9.576750899680356"><ele>70.4</ele><time>2026-04-20T15:21:11Z</time></trkpt><trkpt lat="45.03438098369057" lon="9.576727846700358"><ele>70.8</ele><time>2026-04-20T15:21:13Z</time></trkpt><trkpt lat="45.03449024679507" lon="9.57668405906053"><ele>71.2</ele><time>2026-04-20T15:21:15Z</time></trkpt><trkpt lat="45.034612751581626" lon="9.576634491332515"><ele>71.6</ele><time>2026-04-20T15:21:17Z</time></trkpt><trkpt lat="45.034709052105796" lon="9.576595037762926"><ele>72.0</ele><time>2026-04-20T15:21:19Z</time></trkpt><trkpt lat="45.03482869309307" lon="9.576534511482052"><ele>72.0</ele><time>2026-04-20T15:21:21Z</time></trkpt><trkpt lat="45.03489390758961" lon="9.576532402163924"><ele>72.0</ele><time>2026-04-20T15:21:22Z</time></trkpt><trkpt lat="45.0349908023609" lon="9.576471459414881"><ele>72.0</ele><time>2026-04-20T15:21:24Z</time></trkpt><trkpt lat="45.035097683943235" lon="9.576440436171026"><ele>72.0</ele><time>2026-04-20T15:21:26Z</time></trkpt><trkpt lat="45.03517859340063" lon="9.57642742558231"><ele>72.0</ele><time>2026-04-20T15:21:28Z</time></trkpt><trkpt lat="45.03526137239656" lon="9.576418061297023"><ele>72.0</ele><time>2026-04-20T15:21:30Z</time></trkpt><trkpt lat="45.03531924424108" lon="9.576379461188552"><ele>71.5</ele><time>2026-04-20T15:21:31Z</time></trkpt><trkpt lat="45.035440240283094" lon="9.576325448027177"><ele>71.0</ele><time>2026-04-20T15:21:33Z</time></trkpt><trkpt lat="45.035553503318674" lon="9.576273185686352"><ele>70.5</ele><time>2026-04-20T15:21:35Z</time></trkpt><trkpt lat="45.03566415179558" lon="9.576198179852131"><ele>70.0</ele><time>2026-04-20T15:21:37Z</time></trkpt><trkpt lat="45.03576681545104" lon="9.576121595670664"><ele>70.6</ele><time>2026-04-20T15:21:39Z</time></trkpt><trkpt lat="45.03586396230254" lon="9.576040922069128"><ele>71.2</ele><time>2026-04-20T15:21:41Z</time></trkpt><trkpt lat="45.035970194948796" lon="9.575966784695284"><ele>71.8</ele><time>2026-04-20T15:21:43Z</time></trkpt><trkpt lat="45.036059815682385" lon="9.57589322039817"><ele>72.4</ele><time>2026-04-20T15:21:45Z</time></trkpt><trkpt lat="45.03615486137023" lon="9.575813894709068"><ele>73.0</ele><time>2026-04-20T15:21:47Z</time></trkpt><trkpt lat="45.036241513716064" lon="9.575738158078211"><ele>73.0</ele><time>2026-04-20T15:21:48.999Z</time></trkpt><trkpt lat="45.0363339741272" lon="9.575617872926887"><ele>73.0</ele><time>2026-04-20T15:21:50.999Z</time></trkpt><trkpt lat="45.0363854405831" lon="9.575562586065494"><ele>73.0</ele><time>2026-04-20T15:21:51.999Z</time></trkpt><trkpt lat="45.03647588311424" lon="9.575500504747865"><ele>73.0</ele><time>2026-04-20T15:21:53.999Z</time></trkpt><trkpt lat="45.03656778604402" lon="9.575442694395763"><ele>73.0</ele><time>2026-04-20T15:21:55.999Z</time></trkpt><trkpt lat="45.03665600044749" lon="9.5753433746099"><ele>72.33333333333333</ele><time>2026-04-20T15:21:57.999Z</time></trkpt><trkpt lat="45.03674337725787" lon="9.575240211345951"><ele>71.66666666666666</ele><time>2026-04-20T15:21:59.999Z</time></trkpt><trkpt lat="45.03682939371939" lon="9.575127247443138"><ele>71.0</ele><time>2026-04-20T15:22:01.999Z</time></trkpt><trkpt lat="45.03687658857382" lon="9.575065642298647"><ele>70.33333333333333</ele><time>2026-04-20T15:22:02.999Z</time></trkpt><trkpt lat="45.03692475576112" lon="9.575004397584653"><ele>69.66666666666667</ele><time>2026-04-20T15:22:03.999Z</time></trkpt><trkpt lat="45.03697851710374" lon="9.574948657384857"><ele>69.0</ele><time>2026-04-20T15:22:04.999Z</time></trkpt><trkpt lat="45.037068653854455" lon="9.574836420749763"><ele>69.0</ele><time>2026-04-20T15:22:06.999Z</time></trkpt><trkpt lat="45.03714875359783" lon="9.574735905931519"><ele>69.0</ele><time>2026-04-20T15:22:08.999Z</time></trkpt><trkpt lat="45.03722605896818" lon="9.574634167568187"><ele>69.0</ele><time>2026-04-20T15:22:10.999Z</time></trkpt><trkpt lat="45.03731752938194" lon="9.574542109405149"><ele>69.0</ele><time>2026-04-20T15:22:12.999Z</time></trkpt><trkpt lat="45.037412429582616" lon="9.57442906060083"><ele>69.0</ele><time>2026-04-20T15:22:14.999Z</time></trkpt><trkpt lat="45.03746797369932" lon="9.574374303166937"><ele>68.8</ele><time>2026-04-20T15:22:15.999Z</time></trkpt><trkpt lat="45.037522549391234" lon="9.574310569145673"><ele>68.60000000000001</ele><time>2026-04-20T15:22:16.999Z</time></trkpt><trkpt lat="45.037607775904334" lon="9.574213787651905"><ele>68.4</ele><time>2026-04-20T15:22:18.999Z</time></trkpt><trkpt lat="45.037654044666716" lon="9.5741509548923"><ele>68.2</ele><time>2026-04-20T15:22:19.999Z</time></trkpt><trkpt lat="45.03774637717953" lon="9.574056291325004"><ele>68.0</ele><time>2026-04-20T15:22:21.999Z</time></trkpt><trkpt lat="45.037832611100285" lon="9.573950182731057"><ele>68.0</ele><time>2026-04-20T15:22:23.999Z</time></trkpt><trkpt lat="45.03793772563607" lon="9.573861644152798"><ele>68.0</ele><time>2026-04-20T15:22:25.999Z</time></trkpt><trkpt lat="45.038035429037706" lon="9.57374369699857"><ele>68.0</ele><time>2026-04-20T15:22:27.999Z</time></trkpt><trkpt lat="45.038092371871564" lon="9.573684867389069"><ele>68.0</ele><time>2026-04-20T15:22:28.999Z</time></trkpt><trkpt lat="45.038151469739624" lon="9.573625124473653"><ele>68.0</ele><time>2026-04-20T15:22:29.999Z</time></trkpt><trkpt lat="45.038201008448226" lon="9.573564002508961"><ele>67.8</ele><time>2026-04-20T15:22:30.999Z</time></trkpt><trkpt lat="45.0382527495538" lon="9.573511050998261"><ele>67.6</ele><time>2026-04-20T15:22:31.999Z</time></trkpt><trkpt lat="45.038327118869034" lon="9.573403902136999"><ele>67.4</ele><time>2026-04-20T15:22:33.999Z</time></trkpt><trkpt lat="45.03838326855557" lon="9.573363050483305"><ele>67.2</ele><time>2026-04-20T15:22:34.999Z</time></trkpt><trkpt lat="45.03848000614629" lon="9.57325479435935"><ele>67.0</ele><time>2026-04-20T15:22:36.999Z</time></trkpt><trkpt lat="45.03857580082765" lon="9.573146931228637"><ele>66.5</ele><time>2026-04-20T15:22:39Z</time></trkpt><trkpt lat="45.03866906212499" lon="9.573041704338152"><ele>66.0</ele><time>2026-04-20T15:22:41Z</time></trkpt><trkpt lat="45.03875481094076" lon="9.572944953789694"><ele>65.5</ele><time>2026-04-20T15:22:43Z</time></trkpt><trkpt lat="45.03884147994328" lon="9.572847164989255"><ele>65.0</ele><time>2026-04-20T15:22:45Z</time></trkpt><trkpt lat="45.03892801696912" lon="9.572749525095608"><ele>65.0</ele><time>2026-04-20T15:22:47Z</time></trkpt><trkpt lat="45.03896589730119" lon="9.572677115575512"><ele>65.0</ele><time>2026-04-20T15:22:48Z</time></trkpt><trkpt lat="45.03906129085777" lon="9.572599153417569"><ele>65.0</ele><time>2026-04-20T15:22:50Z</time></trkpt><trkpt lat="45.039103752487776" lon="9.5725242854721"><ele>65.0</ele><time>2026-04-20T15:22:51Z</time></trkpt><trkpt lat="45.03919749646511" lon="9.57242437954379"><ele>65.0</ele><time>2026-04-20T15:22:53Z</time></trkpt><trkpt lat="45.03924678450535" lon="9.572364781193734"><ele>65.0</ele><time>2026-04-20T15:22:54Z</time></trkpt><trkpt lat="45.039297540826254" lon="9.572307474621436"><ele>64.8</ele><time>2026-04-20T15:22:55Z</time></trkpt><trkpt lat="45.03935780076776" lon="9.57226650876442"><ele>64.6</ele><time>2026-04-20T15:22:56Z</time></trkpt><trkpt lat="45.03943884997392" lon="9.572146061546214"><ele>64.4</ele><time>2026-04-20T15:22:58Z</time></trkpt><trkpt lat="45.03953464030312" lon="9.57205053766052"><ele>64.2</ele><time>2026-04-20T15:23:00Z</time></trkpt><trkpt lat="45.03962853425283" lon="9.571940937950773"><ele>64.0</ele><time>2026-04-20T15:23:02Z</time></trkpt><trkpt lat="45.03972232414735" lon="9.571834983119151"><ele>63.800000000000004</ele><time>2026-04-20T15:23:04Z</time></trkpt><trkpt lat="45.03978165169302" lon="9.571792521324841"><ele>63.60000000000001</ele><time>2026-04-20T15:23:05Z</time></trkpt><trkpt lat="45.039867233389856" lon="9.571671494446505"><ele>63.4</ele><time>2026-04-20T15:23:07Z</time></trkpt><trkpt lat="45.039964048471006" lon="9.57156319216913"><ele>63.2</ele><time>2026-04-20T15:23:09Z</time></trkpt><trkpt lat="45.04007409926646" lon="9.571466105787971"><ele>63.0</ele><time>2026-04-20T15:23:11Z</time></trkpt><trkpt lat="45.0401658897429" lon="9.571335894159228"><ele>63.0</ele><time>2026-04-20T15:23:13Z</time></trkpt><trkpt lat="45.04022696483131" lon="9.571295138464896"><ele>63.0</ele><time>2026-04-20T15:23:14Z</time></trkpt><trkpt lat="45.04026993407451" lon="9.571221978965918"><ele>63.0</ele><time>2026-04-20T15:23:15Z</time></trkpt><trkpt lat="45.0403656368762" lon="9.571143365801134"><ele>63.0</ele><time>2026-04-20T15:23:17Z</time></trkpt><trkpt lat="45.04041896868336" lon="9.57109049634914"><ele>63.0</ele><time>2026-04-20T15:23:18Z</time></trkpt><trkpt lat="45.04047248764036" lon="9.571017526332435"><ele>63.0</ele><time>2026-04-20T15:23:19Z</time></trkpt><trkpt lat="45.04052915718363" lon="9.570955568592677"><ele>63.14285714285714</ele><time>2026-04-20T15:23:20Z</time></trkpt><trkpt lat="45.040579346689526" lon="9.570887170827179"><ele>63.285714285714285</ele><time>2026-04-20T15:23:21Z</time></trkpt><trkpt lat="45.04063177222909" lon="9.570828125306296"><ele>63.42857142857143</ele><time>2026-04-20T15:23:22Z</time></trkpt><trkpt lat="45.04068508980968" lon="9.570765105672457"><ele>63.57142857142857</ele><time>2026-04-20T15:23:23Z</time></trkpt><trkpt lat="45.040740934596656" lon="9.57070398293601"><ele>63.71428571428571</ele><time>2026-04-20T15:23:24Z</time></trkpt><trkpt lat="45.040797277226" lon="9.570641168544501"><ele>63.857142857142854</ele><time>2026-04-20T15:23:25Z</time></trkpt><trkpt lat="45.04085039389127" lon="9.57058309682277"><ele>64.0</ele><time>2026-04-20T15:23:26Z</time></trkpt><trkpt lat="45.040942944779616" lon="9.570464136104885"><ele>64.0</ele><time>2026-04-20T15:23:28Z</time></trkpt><trkpt lat="45.04099766190765" lon="9.570402624866093"><ele>63.99999999999999</ele><time>2026-04-20T15:23:29Z</time></trkpt><trkpt lat="45.04105262362536" lon="9.57034599812951"><ele>64.0</ele><time>2026-04-20T15:23:30Z</time></trkpt><trkpt lat="45.04110679861746" lon="9.570288810175017"><ele>64.0</ele><time>2026-04-20T15:23:31Z</time></trkpt><trkpt lat="45.041163784230754" lon="9.570218503650835"><ele>63.99999999999999</ele><time>2026-04-20T15:23:32Z</time></trkpt><trkpt lat="45.0412206040273" lon="9.570157001125398"><ele>64.0</ele><time>2026-04-20T15:23:33Z</time></trkpt><trkpt lat="45.041273498397516" lon="9.570099398343844"><ele>64.0</ele><time>2026-04-20T15:23:34Z</time></trkpt><trkpt lat="45.041376828328865" lon="9.569987176447016"><ele>63.83333333333333</ele><time>2026-04-20T15:23:36Z</time></trkpt><trkpt lat="45.04147598045532" lon="9.569887864069432"><ele>63.666666666666664</ele><time>2026-04-20T15:23:38Z</time></trkpt><trkpt lat="45.04157617806753" lon="9.569778579601298"><ele>63.5</ele><time>2026-04-20T15:23:40Z</time></trkpt><trkpt lat="45.041627991955494" lon="9.569723429336834"><ele>63.33333333333333</ele><time>2026-04-20T15:23:41Z</time></trkpt><trkpt lat="45.04167735297078" lon="9.569664621789679"><ele>63.166666666666664</ele><time>2026-04-20T15:23:42Z</time></trkpt><trkpt lat="45.041733405506605" lon="9.569605227081288"><ele>63.0</ele><time>2026-04-20T15:23:43Z</time></trkpt><trkpt lat="45.04179067532169" lon="9.569548889291184"><ele>63.166666666666664</ele><time>2026-04-20T15:23:44Z</time></trkpt><trkpt lat="45.04184207624418" lon="9.569492878936254"><ele>63.33333333333333</ele><time>2026-04-20T15:23:45Z</time></trkpt><trkpt lat="45.041942488364036" lon="9.569387191480189"><ele>63.5</ele><time>2026-04-20T15:23:47Z</time></trkpt><trkpt lat="45.04199718374599" lon="9.569332497996168"><ele>63.666666666666664</ele><time>2026-04-20T15:23:48Z</time></trkpt><trkpt lat="45.04204841994881" lon="9.569277257663483"><ele>63.83333333333333</ele><time>2026-04-20T15:23:49Z</time></trkpt><trkpt lat="45.04209689798965" lon="9.569218447020626"><ele>64.0</ele><time>2026-04-20T15:23:50Z</time></trkpt><trkpt lat="45.04219403621825" lon="9.569113553429778"><ele>63.99999999999999</ele><time>2026-04-20T15:23:52Z</time></trkpt><trkpt lat="45.04224310380512" lon="9.569057194624287"><ele>64.0</ele><time>2026-04-20T15:23:53Z</time></trkpt><trkpt lat="45.04230335568301" lon="9.569019564225055"><ele>64.0</ele><time>2026-04-20T15:23:54Z</time></trkpt><trkpt lat="45.04234498223655" lon="9.568951675910412"><ele>64.0</ele><time>2026-04-20T15:23:55Z</time></trkpt><trkpt lat="45.04239828094076" lon="9.56889782094689"><ele>63.99999999999999</ele><time>2026-04-20T15:23:56Z</time></trkpt><trkpt lat="45.04250091423105" lon="9.568793603091484"><ele>64.0</ele><time>2026-04-20T15:23:58Z</time></trkpt><trkpt lat="45.04260142954847" lon="9.568684415016628"><ele>63.99999999999999</ele><time>2026-04-20T15:24:00Z</time></trkpt><trkpt lat="45.04266028537181" lon="9.568645272398484"><ele>64.0</ele><time>2026-04-20T15:24:01Z</time></trkpt><trkpt lat="45.04271254239004" lon="9.56859085062943"><ele>64.0</ele><time>2026-04-20T15:24:02Z</time></trkpt><trkpt lat="45.04276434534796" lon="9.568537331994872"><ele>64.0</ele><time>2026-04-20T15:24:03Z</time></trkpt><trkpt lat="45.04281602564701" lon="9.568483940074197"><ele>63.99999999999999</ele><time>2026-04-20T15:24:04Z</time></trkpt><trkpt lat="45.04291366417097" lon="9.568383067818417"><ele>64.0</ele><time>2026-04-20T15:24:06Z</time></trkpt><trkpt lat="45.04300293951218" lon="9.56829083572685"><ele>64.0</ele><time>2026-04-20T15:24:08Z</time></trkpt><trkpt lat="45.043096926303406" lon="9.568193736211404"><ele>64.0</ele><time>2026-04-20T15:24:10Z</time></trkpt><trkpt lat="45.043172140105995" lon="9.568084846271404"><ele>64.0</ele><time>2026-04-20T15:24:12Z</time></trkpt><trkpt lat="45.04328631526763" lon="9.56822813201973"><ele>64.0</ele><time>2026-04-20T15:24:15Z</time></trkpt><trkpt lat="45.04333193181508" lon="9.568401768213443"><ele>64.14285714285714</ele><time>2026-04-20T15:24:16.999Z</time></trkpt><trkpt lat="45.04337679824112" lon="9.56847416102024"><ele>64.28571428571428</ele><time>2026-04-20T15:24:17.999Z</time></trkpt><trkpt lat="45.04341885650105" lon="9.568551505915257"><ele>64.42857142857143</ele><time>2026-04-20T15:24:18.999Z</time></trkpt><trkpt lat="45.04345985874193" lon="9.568636659362705"><ele>64.57142857142857</ele><time>2026-04-20T15:24:19.999Z</time></trkpt><trkpt lat="45.04349776368869" lon="9.56871867141392"><ele>64.71428571428572</ele><time>2026-04-20T15:24:20.999Z</time></trkpt><trkpt lat="45.04353559550072" lon="9.568791693317728"><ele>64.85714285714286</ele><time>2026-04-20T15:24:21.999Z</time></trkpt><trkpt lat="45.04357323561543" lon="9.568872096464242"><ele>65.0</ele><time>2026-04-20T15:24:22.999Z</time></trkpt><trkpt lat="45.04361532580249" lon="9.56895364540775"><ele>64.71428571428572</ele><time>2026-04-20T15:24:23.999Z</time></trkpt><trkpt lat="45.04365285320833" lon="9.569034580425923"><ele>64.42857142857143</ele><time>2026-04-20T15:24:24.999Z</time></trkpt><trkpt lat="45.04369365401666" lon="9.569113846856526"><ele>64.14285714285714</ele><time>2026-04-20T15:24:25.999Z</time></trkpt><trkpt lat="45.04373129449634" lon="9.569195302422264"><ele>63.85714285714286</ele><time>2026-04-20T15:24:26.999Z</time></trkpt><trkpt lat="45.04376875312116" lon="9.56927548123379"><ele>63.57142857142857</ele><time>2026-04-20T15:24:27.999Z</time></trkpt><trkpt lat="45.04380673877507" lon="9.569358301650709"><ele>63.285714285714285</ele><time>2026-04-20T15:24:28.999Z</time></trkpt><trkpt lat="45.043845608440066" lon="9.56943811699478"><ele>63.0</ele><time>2026-04-20T15:24:29.999Z</time></trkpt><trkpt lat="45.043883227526706" lon="9.569518302949405"><ele>63.166666666666664</ele><time>2026-04-20T15:24:30.999Z</time></trkpt><trkpt lat="45.04395613169753" lon="9.56966911409696"><ele>63.33333333333333</ele><time>2026-04-20T15:24:32.999Z</time></trkpt><trkpt lat="45.043994948429344" lon="9.569746159635931"><ele>63.5</ele><time>2026-04-20T15:24:33.999Z</time></trkpt><trkpt lat="45.0440336593888" lon="9.56982390584968"><ele>63.666666666666664</ele><time>2026-04-20T15:24:34.999Z</time></trkpt><trkpt lat="45.044071733328344" lon="9.569899477188622"><ele>63.83333333333333</ele><time>2026-04-20T15:24:35.999Z</time></trkpt><trkpt lat="45.04410979724751" lon="9.569973812846953"><ele>64.0</ele><time>2026-04-20T15:24:36.999Z</time></trkpt><trkpt lat="45.044145955002506" lon="9.57004745871468"><ele>64.0</ele><time>2026-04-20T15:24:37.999Z</time></trkpt><trkpt lat="45.044190737221214" lon="9.5701308125241"><ele>64.0</ele><time>2026-04-20T15:24:38.999Z</time></trkpt><trkpt lat="45.044264857721636" lon="9.570262405929611"><ele>64.0</ele><time>2026-04-20T15:24:40.999Z</time></trkpt><trkpt lat="45.04430849193417" lon="9.57032878194827"><ele>64.0</ele><time>2026-04-20T15:24:41.999Z</time></trkpt><trkpt lat="45.044374457891315" lon="9.570467750759127"><ele>64.0</ele><time>2026-04-20T15:24:43.999Z</time></trkpt><trkpt lat="45.04443812469621" lon="9.570598071696558"><ele>64.0</ele><time>2026-04-20T15:24:46Z</time></trkpt><trkpt lat="45.04448432763841" lon="9.570669050514491"><ele>64.0</ele><time>2026-04-20T15:24:47Z</time></trkpt><trkpt lat="45.0445575428742" lon="9.57080887580936"><ele>64.0</ele><time>2026-04-20T15:24:49Z</time></trkpt><trkpt lat="45.04459609076992" lon="9.570882845206942"><ele>64.0</ele><time>2026-04-20T15:24:50Z</time></trkpt><trkpt lat="45.04467218704722" lon="9.57102200199734"><ele>64.0</ele><time>2026-04-20T15:24:52Z</time></trkpt><trkpt lat="45.044748766233766" lon="9.571165525544307"><ele>63.83333333333333</ele><time>2026-04-20T15:24:54Z</time></trkpt><trkpt lat="45.044789802909726" lon="9.571329388862356"><ele>63.666666666666664</ele><time>2026-04-20T15:24:56Z</time></trkpt><trkpt lat="45.04479219709049" lon="9.571424288272922"><ele>63.5</ele><time>2026-04-20T15:24:57Z</time></trkpt><trkpt lat="45.04478240998527" lon="9.571513362511757"><ele>63.33333333333333</ele><time>2026-04-20T15:24:58Z</time></trkpt><trkpt lat="45.04477860300756" lon="9.571603487506735"><ele>63.166666666666664</ele><time>2026-04-20T15:24:59Z</time></trkpt><trkpt lat="45.044779349088216" lon="9.571703405915573"><ele>63.0</ele><time>2026-04-20T15:25:00Z</time></trkpt><trkpt lat="45.044761963422346" lon="9.571875132719924"><ele>63.0</ele><time>2026-04-20T15:25:02Z</time></trkpt><trkpt lat="45.04475186630428" lon="9.57197001819273"><ele>63.0</ele><time>2026-04-20T15:25:03Z</time></trkpt><trkpt lat="45.04474272237366" lon="9.572059681484072"><ele>63.0</ele><time>2026-04-20T15:25:04Z</time></trkpt><trkpt lat="45.04471695632798" lon="9.572233079714826"><ele>63.0</ele><time>2026-04-20T15:25:06Z</time></trkpt><trkpt lat="45.04470355179626" lon="9.572324067732424"><ele>63.0</ele><time>2026-04-20T15:25:07Z</time></trkpt><trkpt lat="45.044694594161655" lon="9.572415273749154"><ele>63.0</ele><time>2026-04-20T15:25:08Z</time></trkpt><trkpt lat="45.0446854796885" lon="9.57251311699058"><ele>63.0</ele><time>2026-04-20T15:25:09Z</time></trkpt><trkpt lat="45.044676971118186" lon="9.572606337204668"><ele>63.0</ele><time>2026-04-20T15:25:10Z</time></trkpt><trkpt lat="45.04467125026003" lon="9.572697345898542"><ele>63.0</ele><time>2026-04-20T15:25:11Z</time></trkpt><trkpt lat="45.04467681461739" lon="9.572786409134839"><ele>63.0</ele><time>2026-04-20T15:25:12Z</time></trkpt><trkpt lat="45.04470242157301" lon="9.572885329368448"><ele>63.0</ele><time>2026-04-20T15:25:13Z</time></trkpt><trkpt lat="45.044730478576604" lon="9.57297570665818"><ele>63.0</ele><time>2026-04-20T15:25:14Z</time></trkpt><trkpt lat="45.044754702642855" lon="9.573062526439344"><ele>63.0</ele><time>2026-04-20T15:25:15Z</time></trkpt><trkpt lat="45.04478195659581" lon="9.573148798115804"><ele>63.0</ele><time>2026-04-20T15:25:16Z</time></trkpt><trkpt lat="45.04481400163781" lon="9.573239516175281"><ele>63.0</ele><time>2026-04-20T15:25:17Z</time></trkpt><trkpt lat="45.04484007416004" lon="9.573323239974478"><ele>63.0</ele><time>2026-04-20T15:25:18Z</time></trkpt><trkpt lat="45.044866957355666" lon="9.57340840800437"><ele>63.0</ele><time>2026-04-20T15:25:19Z</time></trkpt><trkpt lat="45.04489375687438" lon="9.573493936897323"><ele>63.0</ele><time>2026-04-20T15:25:20Z</time></trkpt><trkpt lat="45.044919891226" lon="9.573577096141554"><ele>63.0</ele><time>2026-04-20T15:25:21Z</time></trkpt><trkpt lat="45.04494966905824" lon="9.57365775446964"><ele>63.0</ele><time>2026-04-20T15:25:22Z</time></trkpt><trkpt lat="45.04497866447914" lon="9.57375024160935"><ele>63.42857142857143</ele><time>2026-04-20T15:25:23Z</time></trkpt><trkpt lat="45.045003822142654" lon="9.57383222321469"><ele>63.85714285714286</ele><time>2026-04-20T15:25:24Z</time></trkpt><trkpt lat="45.04503064171888" lon="9.573917254854608"><ele>64.28571428571428</ele><time>2026-04-20T15:25:25Z</time></trkpt><trkpt lat="45.045064945847145" lon="9.573998623645727"><ele>64.71428571428572</ele><time>2026-04-20T15:25:26Z</time></trkpt><trkpt lat="45.04509460914839" lon="9.574092243873013"><ele>65.14285714285714</ele><time>2026-04-20T15:25:27Z</time></trkpt><trkpt lat="45.04512716104219" lon="9.574173456891772"><ele>65.57142857142857</ele><time>2026-04-20T15:25:28Z</time></trkpt><trkpt lat="45.04515892182331" lon="9.57425703961968"><ele>66.0</ele><time>2026-04-20T15:25:29Z</time></trkpt><trkpt lat="45.045173979576234" lon="9.574346985887937"><ele>66.0</ele><time>2026-04-20T15:25:30Z</time></trkpt><trkpt lat="45.04520127489312" lon="9.574435033258167"><ele>66.0</ele><time>2026-04-20T15:25:31Z</time></trkpt><trkpt lat="45.04522732219782" lon="9.574521967607309"><ele>66.0</ele><time>2026-04-20T15:25:32Z</time></trkpt><trkpt lat="45.04525349636601" lon="9.574609159268956"><ele>66.0</ele><time>2026-04-20T15:25:33Z</time></trkpt><trkpt lat="45.04528939693389" lon="9.574693868731249"><ele>66.0</ele><time>2026-04-20T15:25:34Z</time></trkpt><trkpt lat="45.045309856352596" lon="9.574789469706957"><ele>66.0</ele><time>2026-04-20T15:25:35Z</time></trkpt><trkpt lat="45.045339118727405" lon="9.574879768066737"><ele>66.0</ele><time>2026-04-20T15:25:36Z</time></trkpt><trkpt lat="45.04536771427727" lon="9.574965011845672"><ele>65.66666666666667</ele><time>2026-04-20T15:25:37Z</time></trkpt><trkpt lat="45.045390947762456" lon="9.575048024944872"><ele>65.33333333333333</ele><time>2026-04-20T15:25:38Z</time></trkpt><trkpt lat="45.04542302734337" lon="9.575138556346174"><ele>65.0</ele><time>2026-04-20T15:25:39Z</time></trkpt><trkpt lat="45.04544636451464" lon="9.57522474709324"><ele>64.66666666666666</ele><time>2026-04-20T15:25:40Z</time></trkpt><trkpt lat="45.04550880416255" lon="9.575394366982103"><ele>64.33333333333333</ele><time>2026-04-20T15:25:42Z</time></trkpt><trkpt lat="45.04554368639272" lon="9.575489050148756"><ele>64.0</ele><time>2026-04-20T15:25:43Z</time></trkpt><trkpt lat="45.04556856882758" lon="9.575571798069983"><ele>63.857142857142854</ele><time>2026-04-20T15:25:44Z</time></trkpt><trkpt lat="45.045598616508926" lon="9.575661135303214"><ele>63.71428571428571</ele><time>2026-04-20T15:25:45Z</time></trkpt><trkpt lat="45.045627471725425" lon="9.57574221049914"><ele>63.57142857142857</ele><time>2026-04-20T15:25:46Z</time></trkpt><trkpt lat="45.04566060259294" lon="9.575825852394031"><ele>63.42857142857143</ele><time>2026-04-20T15:25:47Z</time></trkpt><trkpt lat="45.04569144778771" lon="9.575915617082483"><ele>63.285714285714285</ele><time>2026-04-20T15:25:48Z</time></trkpt><trkpt lat="45.04571536226789" lon="9.576000656753285"><ele>63.14285714285714</ele><time>2026-04-20T15:25:49Z</time></trkpt><trkpt lat="45.04573326045896" lon="9.576092349696532"><ele>63.0</ele><time>2026-04-20T15:25:50Z</time></trkpt><trkpt lat="45.045757363877854" lon="9.576190788308105"><ele>62.85714285714286</ele><time>2026-04-20T15:25:51Z</time></trkpt><trkpt lat="45.0457874677783" lon="9.576277402848435"><ele>62.714285714285715</ele><time>2026-04-20T15:25:52Z</time></trkpt><trkpt lat="45.04581626395154" lon="9.576366198192636"><ele>62.57142857142857</ele><time>2026-04-20T15:25:53Z</time></trkpt><trkpt lat="45.04584391269964" lon="9.57644782567245"><ele>62.42857142857143</ele><time>2026-04-20T15:25:54Z</time></trkpt><trkpt lat="45.045873985838526" lon="9.5765374028788"><ele>62.28571428571429</ele><time>2026-04-20T15:25:55Z</time></trkpt><trkpt lat="45.04590537007213" lon="9.57662432803581"><ele>62.142857142857146</ele><time>2026-04-20T15:25:56Z</time></trkpt><trkpt lat="45.04593325852858" lon="9.576712504315575"><ele>62.0</ele><time>2026-04-20T15:25:57Z</time></trkpt><trkpt lat="45.04596038111514" lon="9.57680014934764"><ele>62.0</ele><time>2026-04-20T15:25:58Z</time></trkpt><trkpt lat="45.04598756492999" lon="9.576892587546796"><ele>62.0</ele><time>2026-04-20T15:25:59Z</time></trkpt><trkpt lat="45.04604564671953" lon="9.577057934449128"><ele>62.0</ele><time>2026-04-20T15:26:01Z</time></trkpt><trkpt lat="45.04607843415578" lon="9.577150966389224"><ele>62.0</ele><time>2026-04-20T15:26:02Z</time></trkpt><trkpt lat="45.04613443040444" lon="9.577320595770633"><ele>62.0</ele><time>2026-04-20T15:26:04Z</time></trkpt><trkpt lat="45.04616330438645" lon="9.577408454715021"><ele>62.0</ele><time>2026-04-20T15:26:05Z</time></trkpt><trkpt lat="45.046193135010625" lon="9.577495664131266"><ele>62.00000000000001</ele><time>2026-04-20T15:26:06Z</time></trkpt><trkpt lat="45.046219071045975" lon="9.577578616864736"><ele>62.0</ele><time>2026-04-20T15:26:07Z</time></trkpt><trkpt lat="45.04624184598455" lon="9.577663857656688"><ele>62.0</ele><time>2026-04-20T15:26:08Z</time></trkpt><trkpt lat="45.04627327795676" lon="9.57775185496643"><ele>62.00000000000001</ele><time>2026-04-20T15:26:09Z</time></trkpt><trkpt lat="45.04630456473303" lon="9.577840947803566"><ele>62.0</ele><time>2026-04-20T15:26:10Z</time></trkpt><trkpt lat="45.046328640154925" lon="9.577929759194834"><ele>62.0</ele><time>2026-04-20T15:26:11Z</time></trkpt><trkpt lat="45.046354958606535" lon="9.57801160716246"><ele>62.0</ele><time>2026-04-20T15:26:12Z</time></trkpt><trkpt lat="45.04639106481626" lon="9.578105439607882"><ele>62.00000000000001</ele><time>2026-04-20T15:26:13Z</time></trkpt><trkpt lat="45.04642318651214" lon="9.578196869462973"><ele>62.0</ele><time>2026-04-20T15:26:14Z</time></trkpt><trkpt lat="45.046454606430565" lon="9.578284900291237"><ele>62.0</ele><time>2026-04-20T15:26:15Z</time></trkpt><trkpt lat="45.046486381481586" lon="9.578378743393767"><ele>62.00000000000001</ele><time>2026-04-20T15:26:16Z</time></trkpt><trkpt lat="45.04650702388798" lon="9.578467094621027"><ele>62.0</ele><time>2026-04-20T15:26:17Z</time></trkpt><trkpt lat="45.04653566021573" lon="9.578561266367252"><ele>62.0</ele><time>2026-04-20T15:26:18Z</time></trkpt><trkpt lat="45.04656223560208" lon="9.578655142855084"><ele>62.0</ele><time>2026-04-20T15:26:19Z</time></trkpt><trkpt lat="45.04659569759874" lon="9.578748055778263"><ele>62.00000000000001</ele><time>2026-04-20T15:26:20Z</time></trkpt><trkpt lat="45.046628485590375" lon="9.578835566936618"><ele>62.0</ele><time>2026-04-20T15:26:20.999Z</time></trkpt><trkpt lat="45.04665826955768" lon="9.57892430798328"><ele>62.0</ele><time>2026-04-20T15:26:21.999Z</time></trkpt><trkpt lat="45.046693465861935" lon="9.57901168241469"><ele>62.00000000000001</ele><time>2026-04-20T15:26:22.999Z</time></trkpt><trkpt lat="45.04673035134955" lon="9.57910271718653"><ele>62.0</ele><time>2026-04-20T15:26:23.999Z</time></trkpt><trkpt lat="45.04674712185712" lon="9.579194444531181"><ele>62.0</ele><time>2026-04-20T15:26:24.999Z</time></trkpt><trkpt lat="45.0467819070856" lon="9.579277577542632"><ele>62.0</ele><time>2026-04-20T15:26:25.999Z</time></trkpt><trkpt lat="45.04681845641783" lon="9.579362030562645"><ele>62.00000000000001</ele><time>2026-04-20T15:26:26.999Z</time></trkpt><trkpt lat="45.0468638056198" lon="9.579432236945978"><ele>62.0</ele><time>2026-04-20T15:26:27.999Z</time></trkpt><trkpt lat="45.046892929811186" lon="9.57952536099965"><ele>62.0</ele><time>2026-04-20T15:26:28.999Z</time></trkpt><trkpt lat="45.046925739453656" lon="9.579610966778363"><ele>62.00000000000001</ele><time>2026-04-20T15:26:29.999Z</time></trkpt><trkpt lat="45.046964127176835" lon="9.579688519019378"><ele>62.0</ele><time>2026-04-20T15:26:30.999Z</time></trkpt><trkpt lat="45.04699384900247" lon="9.579772064907115"><ele>62.0</ele><time>2026-04-20T15:26:31.999Z</time></trkpt><trkpt lat="45.047033027172276" lon="9.579859617069372"><ele>62.00000000000001</ele><time>2026-04-20T15:26:32.999Z</time></trkpt><trkpt lat="45.04706913132056" lon="9.5799447532466"><ele>62.0</ele><time>2026-04-20T15:26:33.999Z</time></trkpt><trkpt lat="45.04710672272982" lon="9.580027957870255"><ele>62.0</ele><time>2026-04-20T15:26:34.999Z</time></trkpt><trkpt lat="45.04713843312481" lon="9.580114630112245"><ele>62.0</ele><time>2026-04-20T15:26:35.999Z</time></trkpt><trkpt lat="45.04717395130168" lon="9.580201018227575"><ele>62.00000000000001</ele><time>2026-04-20T15:26:36.999Z</time></trkpt><trkpt lat="45.047214629780505" lon="9.580284597835844"><ele>62.0</ele><time>2026-04-20T15:26:37.999Z</time></trkpt><trkpt lat="45.04727629478048" lon="9.580433421399881"><ele>62.0</ele><time>2026-04-20T15:26:39.999Z</time></trkpt><trkpt lat="45.04730747164564" lon="9.580528851589591"><ele>62.00000000000001</ele><time>2026-04-20T15:26:40.999Z</time></trkpt><trkpt lat="45.04734606842815" lon="9.580617856371694"><ele>62.0</ele><time>2026-04-20T15:26:41.999Z</time></trkpt><trkpt lat="45.047379928577925" lon="9.580701227250538"><ele>62.0</ele><time>2026-04-20T15:26:42.999Z</time></trkpt><trkpt lat="45.04741684064201" lon="9.58078401538885"><ele>62.00000000000001</ele><time>2026-04-20T15:26:43.999Z</time></trkpt><trkpt lat="45.04744622404574" lon="9.580862816036738"><ele>62.0</ele><time>2026-04-20T15:26:44.999Z</time></trkpt><trkpt lat="45.04748036257387" lon="9.580949182477365"><ele>62.0</ele><time>2026-04-20T15:26:45.999Z</time></trkpt><trkpt lat="45.04754692481435" lon="9.581104212030642"><ele>62.142857142857146</ele><time>2026-04-20T15:26:47.999Z</time></trkpt><trkpt lat="45.047579547385645" lon="9.581187092830302"><ele>62.28571428571429</ele><time>2026-04-20T15:26:48.999Z</time></trkpt><trkpt lat="45.04761994717928" lon="9.581291200560823"><ele>62.42857142857143</ele><time>2026-04-20T15:26:49.999Z</time></trkpt><trkpt lat="45.04765219553596" lon="9.581372041279138"><ele>62.57142857142857</ele><time>2026-04-20T15:26:51Z</time></trkpt><trkpt lat="45.047689727010564" lon="9.581452428181745"><ele>62.714285714285715</ele><time>2026-04-20T15:26:52Z</time></trkpt><trkpt lat="45.047720113625644" lon="9.581535089345856"><ele>62.85714285714286</ele><time>2026-04-20T15:26:53Z</time></trkpt><trkpt lat="45.04775497404847" lon="9.581621174289182"><ele>63.0</ele><time>2026-04-20T15:26:54Z</time></trkpt><trkpt lat="45.047789101997864" lon="9.58170668311381"><ele>63.0</ele><time>2026-04-20T15:26:55Z</time></trkpt><trkpt lat="45.04785370936423" lon="9.581865757178123"><ele>63.0</ele><time>2026-04-20T15:26:57Z</time></trkpt><trkpt lat="45.04789721979849" lon="9.581955855560798"><ele>63.0</ele><time>2026-04-20T15:26:58Z</time></trkpt><trkpt lat="45.047954733414954" lon="9.582109184553145"><ele>63.0</ele><time>2026-04-20T15:27:00Z</time></trkpt><trkpt lat="45.0480135683052" lon="9.582234203725154"><ele>63.0</ele><time>2026-04-20T15:27:02Z</time></trkpt><trkpt lat="45.04808872067722" lon="9.582393640380488"><ele>63.0</ele><time>2026-04-20T15:27:04Z</time></trkpt><trkpt lat="45.04812142577609" lon="9.582470652445595"><ele>63.0</ele><time>2026-04-20T15:27:05Z</time></trkpt><trkpt lat="45.048171648305555" lon="9.582620833290092"><ele>63.0</ele><time>2026-04-20T15:27:07Z</time></trkpt><trkpt lat="45.04820860489929" lon="9.582703216435192"><ele>63.0</ele><time>2026-04-20T15:27:08Z</time></trkpt><trkpt lat="45.04826242063916" lon="9.582852996049848"><ele>63.0</ele><time>2026-04-20T15:27:10Z</time></trkpt><trkpt lat="45.0483210695519" lon="9.58300086792522"><ele>62.8</ele><time>2026-04-20T15:27:12Z</time></trkpt><trkpt lat="45.04837900783474" lon="9.58314552442772"><ele>62.599999999999994</ele><time>2026-04-20T15:27:14Z</time></trkpt><trkpt lat="45.048438222825574" lon="9.58327313059916"><ele>62.400000000000006</ele><time>2026-04-20T15:27:16Z</time></trkpt><trkpt lat="45.04848329019697" lon="9.583402298016134"><ele>62.2</ele><time>2026-04-20T15:27:18Z</time></trkpt><trkpt lat="45.04854106039515" lon="9.5835313276066"><ele>62.0</ele><time>2026-04-20T15:27:20Z</time></trkpt><trkpt lat="45.048606283449104" lon="9.583672715731513"><ele>62.0</ele><time>2026-04-20T15:27:22Z</time></trkpt><trkpt lat="45.048662685718426" lon="9.583808185637094"><ele>62.0</ele><time>2026-04-20T15:27:24Z</time></trkpt><trkpt lat="45.048717950503416" lon="9.583959520386552"><ele>62.0</ele><time>2026-04-20T15:27:26Z</time></trkpt><trkpt lat="45.04879124906926" lon="9.584111964390058"><ele>62.0</ele><time>2026-04-20T15:27:28Z</time></trkpt><trkpt lat="45.04886595610405" lon="9.584251866875164"><ele>62.00000000000001</ele><time>2026-04-20T15:27:30Z</time></trkpt><trkpt lat="45.048899172411495" lon="9.584341116711943"><ele>62.0</ele><time>2026-04-20T15:27:31Z</time></trkpt><trkpt lat="45.04896328936984" lon="9.584495379845754"><ele>62.0</ele><time>2026-04-20T15:27:33Z</time></trkpt><trkpt lat="45.04899617947619" lon="9.584572162416315"><ele>62.0</ele><time>2026-04-20T15:27:34Z</time></trkpt><trkpt lat="45.049027432305955" lon="9.584652623776583"><ele>62.00000000000001</ele><time>2026-04-20T15:27:35Z</time></trkpt><trkpt lat="45.04905767346908" lon="9.58473126010201"><ele>62.0</ele><time>2026-04-20T15:27:36Z</time></trkpt><trkpt lat="45.04912641972831" lon="9.584872916426171"><ele>62.0</ele><time>2026-04-20T15:27:38Z</time></trkpt><trkpt lat="45.04918157862826" lon="9.585019510114954"><ele>62.0</ele><time>2026-04-20T15:27:40Z</time></trkpt><trkpt lat="45.04924110665754" lon="9.585156654280791"><ele>62.0</ele><time>2026-04-20T15:27:42Z</time></trkpt><trkpt lat="45.04929317939273" lon="9.585296755521794"><ele>62.0</ele><time>2026-04-20T15:27:44Z</time></trkpt><trkpt lat="45.049326435325085" lon="9.585376590598763"><ele>62.0</ele><time>2026-04-20T15:27:45Z</time></trkpt><trkpt lat="45.049353641300286" lon="9.585460782753469"><ele>62.0</ele><time>2026-04-20T15:27:46Z</time></trkpt><trkpt lat="45.049388378337966" lon="9.58553821535814"><ele>62.00000000000001</ele><time>2026-04-20T15:27:47Z</time></trkpt><trkpt lat="45.049424475197455" lon="9.58561388581977"><ele>62.0</ele><time>2026-04-20T15:27:48Z</time></trkpt><trkpt lat="45.04946334691779" lon="9.585688057642734"><ele>62.0</ele><time>2026-04-20T15:27:49Z</time></trkpt><trkpt lat="45.0494999640301" lon="9.585763372484431"><ele>62.00000000000001</ele><time>2026-04-20T15:27:50Z</time></trkpt><trkpt lat="45.04953925872966" lon="9.58584009291741"><ele>62.0</ele><time>2026-04-20T15:27:51Z</time></trkpt><trkpt lat="45.04958102308792" lon="9.585915208820088"><ele>62.0</ele><time>2026-04-20T15:27:52Z</time></trkpt><trkpt lat="45.04964554663359" lon="9.586060286881763"><ele>62.0</ele><time>2026-04-20T15:27:54Z</time></trkpt><trkpt lat="45.04968823831377" lon="9.586135672254324"><ele>62.00000000000001</ele><time>2026-04-20T15:27:55Z</time></trkpt><trkpt lat="45.0497286990785" lon="9.586212317742758"><ele>62.0</ele><time>2026-04-20T15:27:56Z</time></trkpt><trkpt lat="45.04977835895665" lon="9.586282919451255"><ele>62.0</ele><time>2026-04-20T15:27:57Z</time></trkpt><trkpt lat="45.04982615999996" lon="9.58635910768145"><ele>62.00000000000001</ele><time>2026-04-20T15:27:58Z</time></trkpt><trkpt lat="45.04988025409216" lon="9.586420355553486"><ele>62.0</ele><time>2026-04-20T15:27:59Z</time></trkpt><trkpt lat="45.04993609769196" lon="9.586486102181407"><ele>62.0</ele><time>2026-04-20T15:28:00Z</time></trkpt><trkpt lat="45.050025647753195" lon="9.586619924221887"><ele>62.00000000000001</ele><time>2026-04-20T15:28:02Z</time></trkpt><trkpt lat="45.05007598393202" lon="9.58668045804788"><ele>62.0</ele><time>2026-04-20T15:28:03Z</time></trkpt><trkpt lat="45.0501324929295" lon="9.586732984052336"><ele>62.0</ele><time>2026-04-20T15:28:04Z</time></trkpt><trkpt lat="45.050178792074306" lon="9.586810840953943"><ele>62.0</ele><time>2026-04-20T15:28:05Z</time></trkpt><trkpt lat="45.05021944486562" lon="9.58689082350765"><ele>62.00000000000001</ele><time>2026-04-20T15:28:06Z</time></trkpt><trkpt lat="45.05031746402191" lon="9.587027453103541"><ele>62.0</ele><time>2026-04-20T15:28:08Z</time></trkpt><trkpt lat="45.05036546346716" lon="9.58708568418672"><ele>62.00000000000001</ele><time>2026-04-20T15:28:09Z</time></trkpt><trkpt lat="45.050416944066754" lon="9.587145743653709"><ele>62.0</ele><time>2026-04-20T15:28:10Z</time></trkpt><trkpt lat="45.05046482447911" lon="9.587209332240873"><ele>62.0</ele><time>2026-04-20T15:28:11Z</time></trkpt><trkpt lat="45.05051791795582" lon="9.587274782660215"><ele>62.0</ele><time>2026-04-20T15:28:12Z</time></trkpt><trkpt lat="45.05056595505393" lon="9.587340362324658"><ele>62.00000000000001</ele><time>2026-04-20T15:28:13Z</time></trkpt><trkpt lat="45.050612148570835" lon="9.587405645053114"><ele>62.0</ele><time>2026-04-20T15:28:14Z</time></trkpt><trkpt lat="45.05071320441571" lon="9.587535054356724"><ele>61.8</ele><time>2026-04-20T15:28:16Z</time></trkpt><trkpt lat="45.05080310243603" lon="9.587641694851479"><ele>61.6</ele><time>2026-04-20T15:28:17.999Z</time></trkpt><trkpt lat="45.0508510884554" lon="9.587700436857485"><ele>61.39999999999999</ele><time>2026-04-20T15:28:18.999Z</time></trkpt><trkpt lat="45.05092864393247" lon="9.587812705813231"><ele>61.199999999999996</ele><time>2026-04-20T15:28:20.999Z</time></trkpt><trkpt lat="45.0510150165858" lon="9.587922112207695"><ele>61.0</ele><time>2026-04-20T15:28:22.999Z</time></trkpt><trkpt lat="45.051098582710395" lon="9.588020530871319"><ele>63.0</ele><time>2026-04-20T15:28:24.999Z</time></trkpt><trkpt lat="45.05116932077872" lon="9.58811746333441"><ele>63.0</ele><time>2026-04-20T15:28:26.999Z</time></trkpt><trkpt lat="45.05124414681862" lon="9.588227441450131"><ele>63.0</ele><time>2026-04-20T15:28:28.999Z</time></trkpt></trkseg></trk></gpx>